# Wetter Temperatur Luftdruck Luftfeuchtigkeit Sichtweite Windgeschwindigkeit Windrichtung Zeit
1 Clear 19 1019 72 10000 1 0 05:21 11.07.2020
2 Clear 19 1019 68 10000 1 0 04:55 11.07.2020
3 Clear 19 1019 72 10000 1 0 04:31 11.07.2020
4 Clear 19 1019 68 10000 1 0 02:59 11.07.2020
5 Clear 19 1019 68 10000 2 160 02:36 11.07.2020
6 Clouds 20 1019 68 10000 2 160 01:32 11.07.2020
7 Clouds 20 1019 68 10000 2 170 00:59 11.07.2020
8 Clouds 20 1019 68 10000 2 170 00:40 11.07.2020
9 Clouds 21 1019 68 10000 2 170 00:21 11.07.2020
10 Clouds 21 1019 64 10000 2 170 23:57 10.07.2020
11 Clouds 21 1019 64 10000 2 160 23:38 10.07.2020
12 Clouds 21 1019 64 10000 2 160 23:38 10.07.2020
13 Clouds 21 1019 64 10000 2 160 23:18 10.07.2020
14 Clouds 22 1019 60 10000 2 160 22:43 10.07.2020
15 Clouds 22 1019 60 10000 2 160 22:19 10.07.2020
16 Clouds 23 1019 60 10000 3 170 21:41 10.07.2020
17 Clouds 23 1019 60 10000 3 170 21:21 10.07.2020
18 Clouds 23 1019 57 10000 3 170 20:59 10.07.2020
19 Clouds 23 1018 57 10000 2 170 20:41 10.07.2020
20 Clouds 24 1018 57 10000 2 170 20:21 10.07.2020
21 Clouds 25 1018 53 10000 2 200 19:57 10.07.2020
22 Clouds 26 1018 50 10000 2 210 19:39 10.07.2020
23 Clouds 26 1018 47 10000 2 230 19:20 10.07.2020
24 Clouds 27 1018 44 10000 2 240 18:41 10.07.2020
25 Clear 26 1018 47 10000 3 230 18:20 10.07.2020
26 Clear 26 1018 47 10000 3 230 17:57 10.07.2020
27 Clear 26 1018 47 10000 3 220 17:38 10.07.2020
28 Clear 27 1018 47 10000 3 220 17:20 10.07.2020
29 Clear 26 1019 47 10000 2 210 16:43 10.07.2020
30 Clear 27 1019 47 10000 2 210 16:20 10.07.2020
31 Clear 27 1019 44 10000 3 240 15:47 10.07.2020
32 Clear 27 1019 47 10000 4 240 15:26 10.07.2020
33 Clear 27 1019 44 10000 4 230 14:56 10.07.2020
34 Clear 26 1019 44 10000 4 270 14:38 10.07.2020
35 Clear 27 1019 44 10000 4 270 14:20 10.07.2020
36 Clear 26 1019 44 10000 3 220 13:57 10.07.2020
37 Clear 26 1019 44 10000 4 190 13:38 10.07.2020
38 Clear 26 1020 47 10000 3 200 13:20 10.07.2020
39 Clear 25 1020 47 10000 3 200 12:55 10.07.2020
40 Clear 25 1020 47 10000 3 220 12:37 10.07.2020
41 Clear 24 1020 47 10000 3 220 12:18 10.07.2020
42 Clear 23 1020 53 10000 2 190 11:38 10.07.2020
43 Clear 23 1020 53 10000 3 220 11:19 10.07.2020
44 Clear 23 1020 53 10000 3 220 10:55 10.07.2020
45 Clouds 21 1021 64 10000 3 190 10:37 10.07.2020
46 Clouds 21 1021 64 10000 3 190 10:18 10.07.2020
47 Clear 22 1021 60 10000 2 180 09:39 10.07.2020
48 Clear 22 1021 60 10000 2 180 09:20 10.07.2020
49 Clear 20 1021 64 10000 3 170 08:58 10.07.2020
50 Clear 20 1021 64 10000 3 190 08:40 10.07.2020
51 Clear 19 1021 68 10000 2 160 08:21 10.07.2020
52 Clear 20 1021 68 10000 2 190 07:43 10.07.2020
53 Clear 19 1021 68 10000 2 190 07:23 10.07.2020
54 Clear 17 1021 87 10000 1 0 06:51 10.07.2020
55 Clear 16 1021 93 10000 2 230 06:27 10.07.2020
56 Clear 14 1021 100 10000 1 0 05:19 10.07.2020
57 Clear 11 1020 100 10000 1 210 03:39 10.07.2020
58 Clear 12 1020 100 10000 2 230 02:53 10.07.2020
59 Clouds 14 1020 93 10000 1 220 01:50 10.07.2020
60 Clouds 15 1020 87 10000 2 220 00:49 10.07.2020
61 Clouds 15 1020 87 10000 2 220 00:21 10.07.2020
62 Clouds 14 1020 82 10000 1 220 23:49 09.07.2020
63 Clouds 15 1020 93 10000 2 230 23:24 09.07.2020
64 Clouds 15 1020 93 10000 1 220 22:59 09.07.2020
65 Clouds 16 1020 87 10000 1 220 22:41 09.07.2020
66 Clouds 16 1020 87 10000 1 220 22:21 09.07.2020
67 Clouds 16 1019 82 10000 1 260 21:57 09.07.2020
68 Clouds 17 1019 72 10000 2 250 21:38 09.07.2020
69 Clouds 17 1019 72 10000 2 250 21:38 09.07.2020
70 Clear 17 1019 72 10000 2 250 21:19 09.07.2020
71 Clear 18 1019 63 9000 2 250 20:45 09.07.2020
72 Clouds 18 1019 63 10000 2 260 20:26 09.07.2020
73 Clouds 19 1019 59 10000 2 270 19:58 09.07.2020
74 Clouds 19 1019 52 10000 2 260 19:40 09.07.2020
75 Clouds 20 1019 52 10000 2 260 19:21 09.07.2020
76 Clouds 20 1019 52 10000 4 270 18:43 09.07.2020
77 Clouds 21 1019 52 10000 4 270 18:22 09.07.2020
78 Clouds 22 1019 52 10000 4 270 17:56 09.07.2020
79 Clouds 21 1018 52 10000 4 280 17:37 09.07.2020
80 Clouds 21 1018 52 10000 4 280 17:19 09.07.2020
81 Clouds 21 1019 52 10000 4 260 16:55 09.07.2020
82 Clouds 21 1019 52 10000 4 280 16:37 09.07.2020
83 Clouds 21 1019 52 10000 4 280 16:18 09.07.2020
84 Clouds 21 1019 56 10000 5 280 15:46 09.07.2020
85 Clouds 20 1019 60 10000 5 270 15:28 09.07.2020
86 Clouds 21 1019 60 10000 7 280 14:59 09.07.2020
87 Clouds 20 1019 63 10000 5 290 14:41 09.07.2020
88 Clouds 21 1019 63 10000 5 290 14:23 09.07.2020
89 Clouds 20 1019 60 10000 5 300 13:59 09.07.2020
90 Clouds 20 1019 59 10000 5 280 13:41 09.07.2020
91 Clouds 19 1019 59 10000 5 280 13:20 09.07.2020
92 Clouds 21 1019 63 10000 3 290 12:57 09.07.2020
93 Clouds 19 1019 59 10000 4 330 12:39 09.07.2020
94 Clouds 19 1019 59 10000 3 300 12:20 09.07.2020
95 Clouds 18 1019 63 10000 3 310 11:44 09.07.2020
96 Clouds 18 1019 63 10000 3 310 11:26 09.07.2020
97 Clouds 18 1018 63 10000 1 0 10:59 09.07.2020
98 Clouds 18 1018 63 10000 3 340 10:41 09.07.2020
99 Clouds 18 1018 63 10000 3 340 10:23 09.07.2020
100 Clouds 17 1018 63 10000 4 350 09:58 09.07.2020
101 Clouds 18 1018 63 10000 4 330 09:39 09.07.2020
102 Clouds 18 1018 67 10000 3 330 09:21 09.07.2020
103 Clouds 18 1018 63 10000 4 320 08:43 09.07.2020
104 Clouds 17 1018 63 10000 4 320 08:24 09.07.2020
105 Clouds 16 1018 67 10000 4 300 07:47 09.07.2020
106 Clear 16 1017 67 10000 3 280 07:22 09.07.2020
107 Clear 16 1017 82 10000 3 260 06:50 09.07.2020
108 Clear 15 1017 82 10000 3 260 06:19 09.07.2020
109 Clear 13 1016 93 10000 3 230 04:29 09.07.2020
110 Clear 14 1016 87 10000 3 240 03:32 09.07.2020
111 Clear 12 1016 93 10000 1 250 02:20 09.07.2020
112 Clear 14 1016 81 10000 2 220 01:32 09.07.2020
113 Clear 14 1016 81 10000 2 220 01:32 09.07.2020
114 Clear 14 1015 87 10000 1 210 00:47 09.07.2020
115 Clear 14 1015 87 10000 1 210 00:24 09.07.2020
116 Clear 15 1015 71 10000 2 260 23:46 08.07.2020
117 Clear 15 1015 71 10000 2 260 23:27 08.07.2020
118 Clear 15 1015 67 10000 2 250 22:58 08.07.2020
119 Clear 15 1015 67 10000 3 270 22:39 08.07.2020
120 Clear 16 1015 67 10000 3 270 22:21 08.07.2020
121 Clear 16 1015 63 10000 3 260 21:58 08.07.2020
122 Clear 16 1015 63 10000 3 260 21:58 08.07.2020
123 Clear 16 1015 63 10000 3 260 21:58 08.07.2020
124 Clear 16 1015 63 10000 3 260 21:38 08.07.2020
125 Clear 17 1015 63 10000 3 260 21:20 08.07.2020
126 Clear 17 1015 63 10000 1 0 20:54 08.07.2020
127 Clear 18 1014 52 10000 4 320 20:36 08.07.2020
128 Clouds 18 1014 52 10000 4 320 20:18 08.07.2020
129 Clouds 19 1014 42 10000 6 310 19:42 08.07.2020
130 Clouds 19 1014 42 10000 6 310 19:22 08.07.2020
131 Clouds 20 1014 40 10000 6 320 18:56 08.07.2020
132 Clouds 20 1014 40 10000 7 300 18:38 08.07.2020
133 Clouds 21 1013 40 10000 7 320 18:19 08.07.2020
134 Clouds 21 1013 40 10000 7 320 17:55 08.07.2020
135 Clouds 22 1013 37 10000 7 310 17:36 08.07.2020
136 Clouds 21 1013 37 10000 7 310 17:18 08.07.2020
137 Clouds 21 1013 42 10000 6 310 16:39 08.07.2020
138 Clouds 21 1013 42 10000 6 310 16:20 08.07.2020
139 Clouds 21 1013 45 10000 5 320 15:58 08.07.2020
140 Clouds 21 1013 42 10000 6 290 15:39 08.07.2020
141 Clouds 21 1013 45 10000 6 300 15:19 08.07.2020
142 Clouds 21 1013 42 10000 8 320 14:46 08.07.2020
143 Clouds 21 1013 42 10000 8 320 14:28 08.07.2020
144 Clouds 22 1013 46 10000 8 310 13:58 08.07.2020
145 Clouds 21 1013 52 10000 7 310 13:40 08.07.2020
146 Clouds 21 1013 52 10000 7 310 13:20 08.07.2020
147 Clouds 19 1012 59 10000 7 330 12:43 08.07.2020
148 Clouds 20 1012 59 10000 7 320 12:21 08.07.2020
149 Clouds 20 1012 59 10000 7 320 11:56 08.07.2020
150 Rain 18 1012 77 10000 6 320 11:38 08.07.2020
151 Rain 18 1012 77 10000 6 320 11:20 08.07.2020
152 Clouds 18 1012 77 10000 5 320 10:44 08.07.2020
153 Clouds 17 1012 77 10000 6 340 10:25 08.07.2020
154 Clouds 16 1012 77 10000 6 330 09:46 08.07.2020
155 Clouds 15 1012 87 10000 6 320 09:26 08.07.2020
156 Clouds 15 1011 87 10000 6 330 08:58 08.07.2020
157 Rain 14 1011 87 10000 6 310 08:39 08.07.2020
158 Rain 14 1011 87 10000 6 310 08:20 08.07.2020
159 Rain 14 1011 93 10000 6 320 07:44 08.07.2020
160 Rain 13 1011 93 10000 7 320 07:22 08.07.2020
161 Rain 13 1010 93 10000 6 320 06:52 08.07.2020
162 Rain 13 1010 100 10000 6 310 06:31 08.07.2020
163 Rain 12 1009 93 10000 7 320 05:49 08.07.2020
164 Rain 12 1009 100 10000 6 320 04:50 08.07.2020
165 Rain 13 1009 100 10000 6 320 04:19 08.07.2020
166 Rain 14 1009 87 6000 4 330 02:19 08.07.2020
167 Clouds 14 1009 82 10000 6 320 01:38 08.07.2020
168 Clouds 14 1009 82 10000 5 320 00:51 08.07.2020
169 Clouds 15 1009 76 10000 6 330 00:20 08.07.2020
170 Clouds 15 1008 87 10000 7 350 23:44 07.07.2020
171 Clouds 15 1008 87 10000 7 350 23:22 07.07.2020
172 Clouds 15 1008 87 10000 7 330 22:57 07.07.2020
173 Clouds 15 1008 87 10000 7 330 22:57 07.07.2020
174 Clouds 15 1008 82 10000 7 330 22:38 07.07.2020
175 Clouds 15 1008 82 10000 7 330 22:20 07.07.2020
176 Clouds 15 1007 87 10000 7 340 21:57 07.07.2020
177 Rain 15 1008 87 10000 6 330 21:38 07.07.2020
178 Rain 16 1008 87 10000 6 330 21:19 07.07.2020
179 Clouds 17 1007 93 10000 7 320 20:43 07.07.2020
180 Clouds 17 1007 93 10000 7 320 20:23 07.07.2020
181 Clouds 18 1007 88 10000 7 330 19:59 07.07.2020
182 Clouds 19 1006 93 10000 7 320 19:39 07.07.2020
183 Clouds 19 1006 93 10000 7 330 19:20 07.07.2020
184 Clouds 19 1006 93 10000 7 330 18:55 07.07.2020
185 Clouds 20 1006 94 10000 8 310 18:37 07.07.2020
186 Clouds 21 1005 88 10000 5 330 18:19 07.07.2020
187 Clouds 21 1005 88 10000 5 330 17:55 07.07.2020
188 Rain 21 1005 94 10000 3 330 17:36 07.07.2020
189 Rain 21 1005 94 10000 3 330 17:18 07.07.2020
190 Clouds 22 1005 78 10000 3 330 16:42 07.07.2020
191 Clouds 24 1005 78 10000 4 320 16:22 07.07.2020
192 Rain 25 1005 73 10000 3 320 15:55 07.07.2020
193 Rain 26 1005 73 10000 3 320 15:37 07.07.2020
194 Rain 26 1005 73 10000 3 320 15:18 07.07.2020
195 Clouds 22 1005 88 10000 4 300 14:42 07.07.2020
196 Clouds 22 1005 88 10000 4 300 14:42 07.07.2020
197 Clouds 22 1005 88 10000 4 300 14:24 07.07.2020
198 Clouds 21 1005 94 10000 4 300 13:43 07.07.2020
199 Clouds 21 1005 94 10000 4 300 13:20 07.07.2020
200 Rain 21 1006 100 8000 3 290 12:56 07.07.2020
201 Rain 21 1006 94 1200 3 230 12:37 07.07.2020
202 Rain 22 1005 83 10000 1 0 12:18 07.07.2020
203 Rain 21 1005 83 10000 1 0 11:43 07.07.2020
204 Clouds 22 1005 88 10000 2 290 11:22 07.07.2020
205 Rain 21 1005 94 10000 4 280 10:58 07.07.2020
206 Rain 22 1005 88 10000 5 260 10:39 07.07.2020
207 Rain 22 1005 88 10000 5 260 10:20 07.07.2020
208 Clouds 23 1005 73 10000 4 290 09:43 07.07.2020
209 Clouds 23 1005 73 10000 4 290 09:21 07.07.2020
210 Clouds 23 1005 69 10000 5 280 08:57 07.07.2020
211 Clouds 26 1005 69 10000 3 290 08:39 07.07.2020
212 Clouds 25 1005 69 10000 2 200 08:19 07.07.2020
213 Clouds 24 1005 69 10000 1 0 07:38 07.07.2020
214 Clouds 25 1005 65 10000 2 120 07:19 07.07.2020
215 Clouds 23 1005 83 10000 2 100 06:45 07.07.2020
216 Clouds 22 1005 83 10000 2 100 06:26 07.07.2020
217 Clouds 22 1005 83 10000 2 80 05:43 07.07.2020
218 Clear 20 1005 82 10000 1 120 04:52 07.07.2020
219 Clear 20 1005 82 10000 0.4 140 03:43 07.07.2020
220 Clear 20 1005 82 10000 0.51 139 03:23 07.07.2020
221 Clear 22 1006 73 10000 0.81 163 01:41 07.07.2020
222 Clear 21 1006 77 10000 1 90 00:59 07.07.2020
223 Clear 22 1006 73 10000 2 90 00:40 07.07.2020
224 Clear 22 1006 73 10000 2 90 00:20 07.07.2020
225 Clear 23 1007 64 10000 2 120 23:43 06.07.2020
226 Clear 23 1007 64 10000 2 120 23:25 06.07.2020
227 Clear 24 1007 60 10000 2 130 22:57 06.07.2020
228 Clear 25 1007 57 10000 2 130 22:38 06.07.2020
229 Clear 25 1007 57 10000 2 130 22:18 06.07.2020
230 Clear 25 1007 57 10000 3 120 21:56 06.07.2020
231 Clear 26 1007 54 10000 3 120 21:36 06.07.2020
232 Clear 26 1007 54 10000 3 120 21:18 06.07.2020
233 Clear 27 1007 51 10000 2 120 20:40 06.07.2020
234 Clear 28 1007 45 10000 1 0 20:21 06.07.2020
235 Clear 28 1007 45 10000 1 0 19:58 06.07.2020
236 Clear 29 1007 42 10000 1 0 19:40 06.07.2020
237 Clear 29 1007 42 10000 1 0 19:22 06.07.2020
238 Clear 30 1007 40 10000 2 200 18:58 06.07.2020
239 Clear 30 1007 42 10000 2 220 18:39 06.07.2020
240 Clear 30 1007 40 10000 2 240 18:21 06.07.2020
241 Clear 30 1007 40 10000 2 240 17:54 06.07.2020
242 Clear 30 1008 40 10000 2 220 17:36 06.07.2020
243 Clear 30 1008 40 10000 2 220 17:36 06.07.2020
244 Clear 30 1008 40 10000 2 220 17:18 06.07.2020
245 Clear 31 1008 40 10000 2 190 16:42 06.07.2020
246 Clouds 30 1008 40 10000 2 190 16:22 06.07.2020
247 Clouds 30 1009 40 10000 2 190 15:44 06.07.2020
248 Clouds 30 1009 40 10000 2 190 15:26 06.07.2020
249 Clouds 30 1009 42 10000 2 300 14:58 06.07.2020
250 Clouds 30 1009 40 10000 1 0 14:38 06.07.2020
251 Clear 31 1009 40 10000 1 0 14:20 06.07.2020
252 Clear 31 1010 40 10000 2 280 13:58 06.07.2020
253 Clear 30 1010 42 10000 3 170 13:39 06.07.2020
254 Clear 30 1010 42 10000 3 170 13:20 06.07.2020
255 Clear 30 1011 45 10000 2 210 12:43 06.07.2020
256 Clear 29 1011 45 10000 2 110 12:20 06.07.2020
257 Clear 29 1011 45 10000 2 110 11:58 06.07.2020
258 Clouds 29 1011 48 10000 2 200 11:39 06.07.2020
259 Clouds 29 1011 48 10000 2 200 11:21 06.07.2020
260 Clouds 28 1011 47 10000 2 230 10:57 06.07.2020
261 Clouds 27 1011 51 10000 1 0 10:39 06.07.2020
262 Clouds 28 1011 51 10000 1 0 10:18 06.07.2020
263 Clouds 27 1012 54 10000 2 230 09:42 06.07.2020
264 Clouds 27 1012 54 10000 2 230 09:22 06.07.2020
265 Clear 26 1012 57 10000 2 230 08:58 06.07.2020
266 Clear 25 1012 61 10000 1 0 08:38 06.07.2020
267 Clear 25 1012 61 10000 1 0 08:20 06.07.2020
268 Clear 25 1012 64 10000 1 0 07:47 06.07.2020
269 Clear 24 1012 64 10000 1 0 07:28 06.07.2020
270 Clear 23 1012 73 10000 0.11 101 06:42 06.07.2020
271 Clear 20 1012 82 10000 0.21 343 06:24 06.07.2020
272 Clear 18 1012 93 10000 1 220 05:42 06.07.2020
273 Clear 18 1012 93 10000 1 220 05:19 06.07.2020
274 Clear 16 1013 93 10000 1.02 321 03:44 06.07.2020
275 Clear 16 1013 93 10000 1.48 320 02:24 06.07.2020
276 Clear 20 1013 88 10000 1.35 323 01:39 06.07.2020
277 Clear 20 1013 88 10000 1.35 323 00:39 06.07.2020
278 Clear 18 1013 88 10000 1 0 00:20 06.07.2020
279 Clear 20 1013 82 10000 1.39 335 23:44 05.07.2020
280 Clear 20 1013 82 10000 2.07 330 23:25 05.07.2020
281 Clear 20 1013 88 10000 2.07 330 22:59 05.07.2020
282 Clear 21 1013 77 10000 2.07 330 22:40 05.07.2020
283 Clear 21 1013 77 10000 2.23 322 22:20 05.07.2020
284 Clear 21 1013 77 10000 2.23 322 22:20 05.07.2020
285 Clear 22 1013 73 10000 1 130 21:57 05.07.2020
286 Clear 21 1013 73 10000 2.23 322 21:39 05.07.2020
287 Clear 21 1013 73 10000 2.67 316 21:18 05.07.2020
288 Clear 24 1012 60 8000 1 90 20:57 05.07.2020
289 Clear 25 1012 53 10000 2 40 20:39 05.07.2020
290 Clouds 25 1012 53 10000 2 40 20:20 05.07.2020
291 Clouds 26 1012 47 10000 3 10 19:43 05.07.2020
292 Clouds 26 1012 47 10000 3 10 19:21 05.07.2020
293 Clouds 27 1012 51 10000 2 20 18:56 05.07.2020
294 Clouds 27 1012 51 10000 3 10 18:38 05.07.2020
295 Clouds 28 1012 48 10000 2 360 18:20 05.07.2020
296 Clouds 28 1012 48 10000 5 20 17:43 05.07.2020
297 Clouds 28 1012 48 10000 5 20 17:20 05.07.2020
298 Clouds 28 1012 48 10000 3 30 16:59 05.07.2020
299 Clouds 28 1012 51 10000 4 350 16:41 05.07.2020
300 Clouds 28 1012 51 10000 4 350 16:22 05.07.2020
301 Clouds 28 1012 48 10000 2 10 15:41 05.07.2020
302 Clouds 28 1012 48 10000 2 10 15:41 05.07.2020
303 Clouds 29 1012 48 10000 2 10 15:20 05.07.2020
304 Clouds 29 1012 48 10000 3 360 14:59 05.07.2020
305 Clouds 29 1013 48 10000 4 10 14:40 05.07.2020
306 Clouds 28 1013 48 10000 4 10 14:20 05.07.2020
307 Clouds 29 1013 48 10000 4 40 13:41 05.07.2020
308 Clouds 29 1013 48 10000 4 40 13:41 05.07.2020
309 Clouds 28 1013 48 10000 4 40 13:23 05.07.2020
310 Clear 27 1014 47 10000 4 10 12:46 05.07.2020
311 Clear 27 1014 44 10000 5 20 12:23 05.07.2020
312 Clear 27 1014 44 10000 5 20 11:58 05.07.2020
313 Clear 27 1014 51 10000 4 350 11:39 05.07.2020
314 Clouds 26 1014 61 10000 5 330 11:20 05.07.2020
315 Clouds 26 1014 61 10000 5 330 10:56 05.07.2020
316 Clouds 26 1013 65 10000 4 340 10:37 05.07.2020
317 Clouds 26 1013 65 10000 4 340 10:18 05.07.2020
318 Clouds 25 1013 69 10000 5 10 09:42 05.07.2020
319 Clouds 22 1013 83 10000 5 340 09:20 05.07.2020
320 Clouds 22 1013 83 10000 5 340 08:57 05.07.2020
321 Clouds 22 1013 83 10000 3 350 08:38 05.07.2020
322 Clouds 21 1013 88 10000 4 320 08:18 05.07.2020
323 Rain 21 1013 94 10000 2 330 07:40 05.07.2020
324 Clouds 21 1014 88 10000 3 310 07:22 05.07.2020
325 Clouds 21 1013 94 10000 2 300 06:47 05.07.2020
326 Clouds 20 1013 94 10000 2 350 04:37 05.07.2020
327 Clouds 21 1013 88 10000 2 320 03:19 05.07.2020
328 Clouds 21 1013 83 10000 3 350 02:41 05.07.2020
329 Clouds 21 1013 83 10000 2 340 01:59 05.07.2020
330 Clouds 21 1013 83 10000 3 320 01:28 05.07.2020
331 Clouds 21 1013 83 10000 3 310 00:52 05.07.2020
332 Clouds 21 1013 83 10000 3 320 00:31 05.07.2020
333 Clouds 22 1013 78 10000 2 340 23:57 04.07.2020
334 Clouds 21 1014 83 10000 2 40 23:38 04.07.2020
335 Clouds 21 1014 83 10000 2 40 23:20 04.07.2020
336 Clouds 22 1014 78 10000 2 10 22:42 04.07.2020
337 Clouds 22 1014 78 10000 2 10 22:24 04.07.2020
338 Clouds 22 1014 78 10000 2 360 21:58 04.07.2020
339 Clouds 22 1014 78 10000 3 330 21:40 04.07.2020
340 Clouds 22 1014 78 10000 3 330 21:22 04.07.2020
341 Clouds 23 1014 73 10000 4 330 20:43 04.07.2020
342 Clouds 23 1013 64 10000 3 330 20:22 04.07.2020
343 Clouds 24 1013 64 10000 3 330 19:58 04.07.2020
344 Clouds 24 1013 64 10000 4 320 19:39 04.07.2020
345 Clouds 25 1013 57 10000 4 320 19:21 04.07.2020
346 Clouds 25 1013 57 10000 4 320 19:21 04.07.2020
347 Clouds 25 1013 61 10000 4 340 18:46 04.07.2020
348 Clouds 26 1013 65 10000 4 340 18:23 04.07.2020
349 Clouds 25 1013 65 10000 4 340 17:55 04.07.2020
350 Clouds 26 1013 61 10000 5 310 17:37 04.07.2020
351 Clouds 26 1013 61 10000 5 310 17:18 04.07.2020
352 Clouds 26 1013 61 10000 4 310 16:55 04.07.2020
353 Clouds 27 1014 61 10000 4 300 16:36 04.07.2020
354 Clouds 28 1014 57 10000 4 330 16:18 04.07.2020
355 Clouds 27 1014 61 10000 4 340 15:41 04.07.2020
356 Clouds 26 1014 61 10000 4 340 15:21 04.07.2020
357 Clouds 27 1014 61 10000 4 320 14:57 04.07.2020
358 Clouds 27 1014 61 10000 4 320 14:37 04.07.2020
359 Clouds 26 1014 61 10000 4 320 14:18 04.07.2020
360 Clouds 25 1014 65 10000 4 320 13:42 04.07.2020
361 Clouds 26 1014 65 10000 4 340 13:20 04.07.2020
362 Clouds 27 1014 65 10000 4 340 12:56 04.07.2020
363 Clouds 26 1014 69 10000 4 340 12:38 04.07.2020
364 Clouds 25 1014 69 10000 4 330 12:19 04.07.2020
365 Clouds 25 1014 69 10000 4 320 11:44 04.07.2020
366 Clouds 26 1014 69 10000 4 320 11:23 04.07.2020
367 Clouds 26 1013 65 10000 3 320 10:56 04.07.2020
368 Clouds 26 1013 69 10000 3 330 10:38 04.07.2020
369 Clouds 25 1013 69 10000 3 330 10:19 04.07.2020
370 Clouds 24 1013 78 10000 3 330 09:41 04.07.2020
371 Clouds 23 1013 78 10000 3 330 09:22 04.07.2020
372 Clouds 24 1013 78 10000 2 330 08:58 04.07.2020
373 Clouds 23 1013 78 10000 3 320 08:39 04.07.2020
374 Rain 23 1013 78 10000 3 330 08:21 04.07.2020
375 Rain 22 1012 83 10000 5 330 07:41 04.07.2020
376 Rain 21 1012 83 10000 4 330 07:18 04.07.2020
377 Rain 22 1012 83 10000 3 330 06:38 04.07.2020
378 Rain 23 1012 83 10000 4 320 06:19 04.07.2020
379 Rain 22 1012 83 10000 2 320 05:29 04.07.2020
380 Clouds 22 1011 83 10000 1 0 04:21 04.07.2020
381 Clouds 22 1011 83 10000 2 10 02:41 04.07.2020
382 Clouds 24 1011 73 10000 4 300 01:40 04.07.2020
383 Rain 23 1011 68 10000 2 230 00:54 04.07.2020
384 Rain 24 1011 64 10000 2 200 00:36 04.07.2020
385 Clouds 25 1011 60 10000 3 260 00:18 04.07.2020
386 Clouds 25 1011 50 10000 1 0 23:39 03.07.2020
387 Clouds 26 1011 50 10000 1 0 23:18 03.07.2020
388 Clouds 26 1011 47 10000 2 150 22:42 03.07.2020
389 Clouds 26 1011 47 10000 2 150 22:24 03.07.2020
390 Clouds 26 1011 47 10000 2 160 21:59 03.07.2020
391 Clouds 27 1011 47 10000 2 150 21:38 03.07.2020
392 Clouds 27 1011 47 10000 2 150 21:19 03.07.2020
393 Clouds 27 1011 47 10000 1 0 20:43 03.07.2020
394 Clouds 27 1011 47 10000 1 0 20:25 03.07.2020
395 Clouds 28 1011 45 10000 1 0 19:56 03.07.2020
396 Clouds 29 1011 42 10000 3 180 19:38 03.07.2020
397 Clear 29 1011 42 10000 3 180 19:18 03.07.2020
398 Clear 30 1010 42 10000 4 190 18:42 03.07.2020
399 Clear 31 1010 37 10000 4 170 18:23 03.07.2020
400 Clear 31 1010 37 10000 4 170 17:56 03.07.2020
401 Clear 31 1010 35 10000 4 170 17:37 03.07.2020
402 Clear 31 1010 35 10000 4 170 17:19 03.07.2020
403 Clear 31 1010 35 10000 4 170 17:19 03.07.2020
404 Clear 31 1010 35 10000 4 180 16:40 03.07.2020
405 Clear 32 1010 35 10000 4 180 16:20 03.07.2020
406 Clear 31 1011 35 10000 4 200 15:44 03.07.2020
407 Clear 32 1011 38 10000 4 190 15:23 03.07.2020
408 Clear 31 1011 38 10000 5 190 14:56 03.07.2020
409 Clear 31 1011 38 10000 4 180 14:37 03.07.2020
410 Clear 32 1011 38 10000 4 180 14:19 03.07.2020
411 Clear 32 1012 35 10000 4 160 13:43 03.07.2020
412 Clear 31 1012 38 10000 4 180 13:24 03.07.2020
413 Clear 31 1012 37 10000 4 200 12:45 03.07.2020
414 Clear 31 1012 37 10000 4 200 12:24 03.07.2020
415 Clear 30 1012 40 10000 4 200 11:58 03.07.2020
416 Clear 30 1012 40 10000 4 180 11:40 03.07.2020
417 Clear 30 1012 40 10000 4 180 11:21 03.07.2020
418 Clear 31 1012 40 10000 4 170 10:55 03.07.2020
419 Clear 30 1012 42 10000 3 190 10:36 03.07.2020
420 Clear 30 1012 42 10000 3 190 10:18 03.07.2020
421 Clear 28 1012 48 10000 5 190 09:40 03.07.2020
422 Clear 29 1012 48 10000 5 190 09:22 03.07.2020
423 Clear 28 1012 48 10000 4 170 08:58 03.07.2020
424 Clear 27 1012 51 10000 4 170 08:38 03.07.2020
425 Clouds 26 1012 51 10000 4 170 08:18 03.07.2020
426 Clouds 26 1012 51 10000 4 170 08:18 03.07.2020
427 Clouds 25 1012 50 10000 4 170 07:47 03.07.2020
428 Clouds 25 1012 57 10000 3 190 07:22 03.07.2020
429 Clouds 23 1012 60 10000 3 150 06:38 03.07.2020
430 Clouds 23 1012 64 10000 1 0 05:55 03.07.2020
431 Clouds 23 1012 64 10000 1 0 05:55 03.07.2020
432 Clouds 23 1012 64 10000 1 0 05:55 03.07.2020
433 Clouds 21 1012 68 10000 3 190 04:26 03.07.2020
434 Clouds 21 1012 82 10000 3 210 02:57 03.07.2020
435 Clouds 21 1012 82 10000 2 200 02:32 03.07.2020
436 Clouds 23 1012 64 10000 3 190 01:43 03.07.2020
437 Clouds 23 1012 60 10000 3 190 01:20 03.07.2020
438 Clouds 23 1012 60 10000 3 190 01:20 03.07.2020
439 Clouds 23 1012 64 10000 4 200 00:42 03.07.2020
440 Clouds 24 1012 64 10000 3 210 23:59 02.07.2020
441 Clouds 24 1012 60 10000 4 190 23:39 02.07.2020
442 Clouds 24 1012 60 10000 4 190 23:19 02.07.2020
443 Clouds 24 1013 60 10000 4 190 22:56 02.07.2020
444 Clouds 25 1013 57 10000 3 190 22:38 02.07.2020
445 Clear 24 1013 57 10000 3 190 22:19 02.07.2020
446 Clear 25 1012 54 10000 2 180 21:42 02.07.2020
447 Clear 26 1012 54 10000 2 180 21:21 02.07.2020
448 Clear 26 1012 54 9000 2 170 20:59 02.07.2020
449 Clouds 27 1012 51 10000 2 180 20:41 02.07.2020
450 Clouds 27 1012 51 10000 2 180 20:20 02.07.2020
451 Clouds 28 1012 48 10000 3 190 19:56 02.07.2020
452 Clouds 29 1012 45 10000 2 180 19:38 02.07.2020
453 Clouds 29 1012 42 10000 3 200 19:19 02.07.2020
454 Clouds 30 1012 40 10000 3 200 18:42 02.07.2020
455 Rain 30 1012 40 10000 3 200 18:22 02.07.2020
456 Rain 30 1012 40 10000 4 230 17:58 02.07.2020
457 Rain 30 1012 40 10000 4 210 17:39 02.07.2020
458 Clouds 31 1012 40 10000 4 210 17:19 02.07.2020
459 Clouds 31 1012 38 10000 4 240 16:44 02.07.2020
460 Clouds 31 1012 40 10000 4 230 16:22 02.07.2020
461 Clouds 31 1012 38 10000 3 240 15:59 02.07.2020
462 Clouds 32 1012 38 10000 4 200 15:38 02.07.2020
463 Clouds 31 1012 40 10000 4 210 15:20 02.07.2020
464 Clouds 31 1012 40 10000 4 210 14:46 02.07.2020
465 Clear 31 1012 40 10000 4 220 14:23 02.07.2020
466 Clear 31 1013 42 10000 4 230 13:57 02.07.2020
467 Clear 31 1013 45 10000 5 240 13:39 02.07.2020
468 Clear 30 1013 45 10000 5 240 13:19 02.07.2020
469 Clear 30 1013 42 10000 5 230 12:57 02.07.2020
470 Clear 30 1013 45 10000 5 220 12:38 02.07.2020
471 Clear 30 1013 45 10000 5 220 12:19 02.07.2020
472 Clear 29 1013 45 10000 4 220 11:42 02.07.2020
473 Clear 29 1013 45 10000 4 220 11:24 02.07.2020
474 Clear 28 1014 48 10000 3 230 10:47 02.07.2020
475 Clear 28 1014 48 10000 4 250 10:27 02.07.2020
476 Clear 28 1014 54 10000 3 230 09:57 02.07.2020
477 Clear 28 1014 54 10000 4 250 09:37 02.07.2020
478 Clear 28 1014 54 10000 4 250 09:19 02.07.2020
479 Clear 26 1014 61 10000 3 230 08:43 02.07.2020
480 Clear 25 1014 61 10000 3 230 08:24 02.07.2020
481 Clear 25 1014 64 10000 3 230 07:55 02.07.2020
482 Clear 24 1014 69 10000 4 240 07:37 02.07.2020
483 Clear 23 1014 69 10000 4 240 07:18 02.07.2020
484 Clear 23 1013 73 10000 2 240 06:40 02.07.2020
485 Clear 19 1013 77 10000 2 250 06:19 02.07.2020
486 Clear 18 1013 88 10000 2 240 05:43 02.07.2020
487 Clear 18 1013 93 10000 2.2 231 03:55 02.07.2020
488 Clear 20 1013 88 10000 2.2 231 03:31 02.07.2020
489 Clear 20 1013 82 10000 2.39 225 00:48 02.07.2020
490 Clear 20 1013 82 10000 2.19 220 00:25 02.07.2020
491 Clear 20 1013 82 10000 2.19 220 23:47 01.07.2020
492 Clear 20 1013 88 10000 1.92 218 23:27 01.07.2020
493 Clear 21 1013 77 10000 2 230 22:57 01.07.2020
494 Clear 23 1013 64 10000 2 220 22:38 01.07.2020
495 Clear 23 1013 64 10000 2 220 22:19 01.07.2020
496 Clear 23 1013 60 10000 2 230 21:58 01.07.2020
497 Clear 23 1013 60 10000 2 230 21:58 01.07.2020
498 Clear 23 1012 64 10000 2 240 21:40 01.07.2020
499 Clear 23 1012 64 10000 2 240 21:22 01.07.2020
500 Clear 24 1012 56 10000 2 230 20:56 01.07.2020
501 Clear 24 1012 56 10000 2 230 20:56 01.07.2020
502 Clear 24 1012 53 10000 3 230 20:38 01.07.2020
503 Clouds 24 1012 53 10000 3 230 20:38 01.07.2020
504 Clouds 24 1012 53 10000 3 230 20:19 01.07.2020
505 Clouds 26 1012 47 10000 3 250 19:43 01.07.2020
506 Clouds 26 1012 47 10000 3 250 19:24 01.07.2020
507 Clouds 27 1012 44 10000 4 250 18:59 01.07.2020
508 Clouds 27 1012 44 10000 4 250 18:40 01.07.2020
509 Clouds 28 1012 44 10000 4 250 18:21 01.07.2020
510 Clouds 28 1012 42 10000 5 240 17:56 01.07.2020
511 Clouds 27 1012 42 10000 6 240 17:37 01.07.2020
512 Clouds 27 1012 42 10000 6 240 17:18 01.07.2020
513 Clouds 28 1012 37 10000 5 250 16:44 01.07.2020
514 Clouds 28 1012 37 10000 5 250 16:26 01.07.2020
515 Clouds 28 1012 34 10000 5 260 15:43 01.07.2020
516 Clouds 28 1012 36 10000 4 260 15:25 01.07.2020
517 Clouds 29 1012 37 10000 6 240 14:59 01.07.2020
518 Clouds 28 1012 39 10000 6 270 14:41 01.07.2020
519 Clear 28 1012 39 10000 5 270 14:21 01.07.2020
520 Clear 29 1012 39 10000 5 270 13:56 01.07.2020
521 Clear 28 1013 39 10000 5 260 13:37 01.07.2020
522 Clear 27 1013 41 10000 4 250 13:19 01.07.2020
523 Clear 27 1013 44 10000 4 290 12:54 01.07.2020
524 Clear 26 1013 44 10000 4 290 12:36 01.07.2020
525 Clear 26 1013 44 10000 4 290 12:18 01.07.2020
526 Clear 26 1013 44 10000 4 270 11:40 01.07.2020
527 Clear 25 1013 47 10000 5 270 11:21 01.07.2020
528 Clear 24 1013 47 10000 5 270 10:57 01.07.2020
529 Clear 24 1013 47 10000 5 270 10:57 01.07.2020
530 Clouds 25 1013 50 10000 3 270 10:39 01.07.2020
531 Clouds 25 1013 50 10000 3 270 10:20 01.07.2020
532 Clouds 24 1013 53 10000 4 270 09:39 01.07.2020
533 Clouds 23 1013 53 10000 4 270 09:20 01.07.2020
534 Clear 23 1013 56 10000 3 260 08:59 01.07.2020
535 Clear 22 1013 64 10000 2 250 08:40 01.07.2020
536 Clear 22 1013 64 10000 2 250 08:19 01.07.2020
537 Clear 21 1013 72 10000 2 250 07:41 01.07.2020
538 Clear 21 1013 77 10000 2 260 07:23 01.07.2020
539 Clear 19 1013 82 10000 2 260 06:55 01.07.2020
540 Clear 18 1013 82 10000 2 260 06:32 01.07.2020
541 Clear 17 1012 93 10000 3 260 05:46 01.07.2020
542 Clear 17 1012 93 10000 2 240 04:29 01.07.2020
543 Clear 17 1012 93 10000 2 210 03:41 01.07.2020
544 Clear 17 1012 93 10000 2 210 03:21 01.07.2020
545 Clear 18 1011 87 10000 1 210 01:56 01.07.2020
546 Clear 18 1011 87 10000 1 220 00:48 01.07.2020
547 Clear 16 1011 87 10000 1 220 00:28 01.07.2020
548 Clear 18 1011 82 10000 2 250 23:59 30.06.2020
549 Clear 19 1011 77 10000 2 250 23:39 30.06.2020
550 Clear 19 1010 77 10000 2 260 23:19 30.06.2020
551 Clear 19 1010 82 10000 2 240 22:42 30.06.2020
552 Clear 20 1010 82 10000 2 240 22:19 30.06.2020
553 Clear 20 1010 72 10000 2 250 21:43 30.06.2020
554 Clear 21 1010 64 10000 3 260 21:19 30.06.2020
555 Clear 21 1010 64 10000 3 260 20:59 30.06.2020
556 Clear 21 1010 60 10000 3 270 20:40 30.06.2020
557 Clouds 22 1010 56 10000 4 290 20:20 30.06.2020
558 Clouds 23 1010 53 10000 5 280 19:43 30.06.2020
559 Clouds 23 1009 53 10000 6 300 19:20 30.06.2020
560 Clouds 24 1009 53 10000 6 300 18:55 30.06.2020
561 Clouds 24 1009 50 10000 6 300 18:36 30.06.2020
562 Clouds 25 1009 53 10000 6 300 18:18 30.06.2020
563 Clouds 25 1009 50 10000 7 290 17:39 30.06.2020
564 Clouds 25 1009 50 10000 7 290 17:20 30.06.2020
565 Clouds 24 1009 56 10000 6 310 16:56 30.06.2020
566 Clouds 24 1009 56 10000 7 310 16:37 30.06.2020
567 Clouds 25 1009 56 10000 7 310 16:19 30.06.2020
568 Clouds 24 1009 60 10000 7 310 15:42 30.06.2020
569 Clouds 24 1009 60 10000 7 310 15:22 30.06.2020
570 Clouds 24 1009 68 10000 7 300 14:58 30.06.2020
571 Clouds 25 1008 60 10000 7 290 14:40 30.06.2020
572 Clouds 25 1008 64 10000 7 290 14:18 30.06.2020
573 Clouds 25 1008 64 10000 6 300 13:42 30.06.2020
574 Clouds 24 1008 69 10000 6 290 13:21 30.06.2020
575 Clouds 24 1008 69 10000 6 290 12:59 30.06.2020
576 Clouds 25 1008 69 10000 5 280 12:40 30.06.2020
577 Clouds 25 1008 69 10000 5 280 12:21 30.06.2020
578 Clouds 25 1008 73 10000 6 270 11:59 30.06.2020
579 Clouds 24 1007 73 10000 6 280 11:39 30.06.2020
580 Clouds 24 1007 73 10000 6 280 11:20 30.06.2020
581 Rain 24 1007 73 10000 7 280 10:59 30.06.2020
582 Rain 30 1009 45 10000 8 260 16:43 28.06.2020
583 Rain 30 1009 45 10000 8 260 16:24 28.06.2020
584 Rain 31 1009 45 10000 7 270 15:56 28.06.2020
585 Rain 30 1010 48 10000 8 270 15:38 28.06.2020
586 Rain 30 1010 48 10000 8 270 15:38 28.06.2020
587 Clear 30 1010 48 10000 8 270 15:18 28.06.2020
588 Clear 30 1010 48 10000 6 250 14:46 28.06.2020
589 Clouds 30 1010 48 10000 6 240 14:27 28.06.2020
590 Clouds 30 1011 48 10000 6 240 13:58 28.06.2020
591 Clouds 30 1011 45 10000 6 260 13:37 28.06.2020
592 Clouds 30 1011 45 10000 6 260 13:37 28.06.2020
593 Clouds 30 1012 45 10000 6 260 13:19 28.06.2020
594 Clouds 29 1012 45 10000 6 260 12:56 28.06.2020
595 Clouds 29 1012 48 10000 5 270 12:37 28.06.2020
596 Clear 28 1012 48 10000 4 250 12:18 28.06.2020
597 Clear 29 1012 48 10000 4 250 11:55 28.06.2020
598 Clear 28 1013 51 10000 4 260 11:37 28.06.2020
599 Clear 27 1013 51 10000 4 260 11:19 28.06.2020
600 Clear 26 1013 54 10000 4 250 10:41 28.06.2020
601 Clear 26 1013 54 10000 4 250 10:23 28.06.2020
602 Clear 26 1013 57 10000 3 260 09:57 28.06.2020
603 Clear 24 1013 60 10000 4 250 09:39 28.06.2020
604 Clouds 24 1013 60 10000 4 250 09:20 28.06.2020
605 Clear 23 1013 64 10000 1 0 08:42 28.06.2020
606 Clouds 24 1013 64 10000 1 0 08:22 28.06.2020
607 Clouds 23 1013 60 10000 1 0 07:40 28.06.2020
608 Clouds 23 1014 68 10000 3 250 07:20 28.06.2020
609 Clouds 21 1014 68 10000 3 240 06:34 28.06.2020
610 Clouds 21 1014 72 10000 3 270 05:54 28.06.2020
611 Clouds 20 1014 77 10000 1 0 05:24 28.06.2020
612 Clouds 17 1015 82 10000 2.87 209 03:18 28.06.2020
613 Clouds 17 1015 87 10000 2.83 211 02:23 28.06.2020
614 Clouds 17 1015 82 10000 2.91 198 01:46 28.06.2020
615 Clouds 18 1015 82 10000 1 0 01:22 28.06.2020
616 Clouds 18 1015 82 10000 1 200 00:31 28.06.2020
617 Clouds 19 1015 82 10000 1 0 23:58 27.06.2020
618 Clouds 19 1015 77 10000 2 210 23:40 27.06.2020
619 Clouds 22 1016 68 10000 2 210 23:21 27.06.2020
620 Clouds 23 1016 64 10000 3 210 22:43 27.06.2020
621 Clouds 23 1016 64 10000 3 210 22:24 27.06.2020
622 Clouds 24 1016 56 10000 2 210 21:59 27.06.2020
623 Clouds 24 1016 56 10000 3 210 21:41 27.06.2020
624 Clear 24 1016 56 10000 3 210 21:20 27.06.2020
625 Clear 25 1016 53 10000 3 200 20:55 27.06.2020
626 Clear 25 1016 50 10000 2 190 20:37 27.06.2020
627 Clouds 25 1016 50 10000 2 190 20:18 27.06.2020
628 Clouds 26 1016 47 10000 2 170 19:38 27.06.2020
629 Clouds 27 1016 44 10000 3 200 19:19 27.06.2020
630 Clouds 27 1016 44 10000 3 200 18:57 27.06.2020
631 Clouds 28 1016 39 10000 3 170 18:37 27.06.2020
632 Clouds 28 1017 39 10000 3 210 18:19 27.06.2020
633 Clouds 29 1017 39 10000 4 220 17:40 27.06.2020
634 Clouds 30 1017 39 10000 4 220 17:20 27.06.2020
635 Clouds 30 1017 39 10000 4 220 17:20 27.06.2020
636 Clouds 29 1017 39 10000 4 230 16:57 27.06.2020
637 Clouds 29 1018 37 10000 3 210 16:38 27.06.2020
638 Clouds 29 1018 37 10000 3 210 16:19 27.06.2020
639 Clouds 29 1018 37 10000 2 210 15:42 27.06.2020
640 Clouds 29 1019 37 10000 3 220 15:24 27.06.2020
641 Clouds 29 1019 37 10000 3 220 15:24 27.06.2020
642 Clouds 29 1019 39 10000 5 210 14:56 27.06.2020
643 Clouds 29 1019 39 10000 3 220 14:37 27.06.2020
644 Clouds 30 1019 39 10000 3 220 14:19 27.06.2020
645 Clouds 29 1020 37 10000 5 240 13:41 27.06.2020
646 Clear 29 1020 39 10000 4 220 13:20 27.06.2020
647 Clear 29 1020 39 10000 4 220 12:58 27.06.2020
648 Clear 28 1020 39 10000 3 200 12:40 27.06.2020
649 Clear 29 1020 39 10000 3 200 12:21 27.06.2020
650 Clear 28 1020 39 10000 4 230 11:55 27.06.2020
651 Clear 28 1021 39 10000 3 220 11:37 27.06.2020
652 Clear 28 1021 39 10000 3 220 11:18 27.06.2020
653 Clear 27 1021 42 10000 2 180 10:39 27.06.2020
654 Clear 27 1021 42 10000 2 180 10:19 27.06.2020
655 Clear 27 1021 42 10000 2 180 10:19 27.06.2020
656 Clear 27 1021 42 10000 2 210 09:54 27.06.2020
657 Clear 27 1021 44 10000 3 210 09:36 27.06.2020
658 Clear 27 1021 44 10000 3 210 09:18 27.06.2020
659 Clear 25 1022 50 10000 1 0 08:41 27.06.2020
660 Clear 25 1022 50 10000 1 0 08:22 27.06.2020
661 Clear 23 1022 57 10000 1.38 148 07:46 27.06.2020
662 Clear 24 1022 57 10000 1 143 07:24 27.06.2020
663 Clear 22 1022 64 10000 1 143 06:50 27.06.2020
664 -273 0 0 0 0 0 06:29 27.06.2020
665 Clear 14 1022 93 10000 0.88 210 04:24 27.06.2020
666 Clear 14 1022 93 10000 0.88 210 03:53 27.06.2020
667 Clear 15 1022 93 10000 0.9 189 03:23 27.06.2020
668 Clear 15 1022 87 10000 0.9 189 02:36 27.06.2020
669 Clear 16 1022 87 10000 0.98 169 01:49 27.06.2020
670 Clear 16 1022 87 10000 1.07 171 01:24 27.06.2020
671 Clear 17 1023 82 10000 1.07 171 00:38 27.06.2020
672 Clear 17 1023 77 10000 1.18 175 23:46 26.06.2020
673 Clear 18 1023 77 10000 1.28 166 23:26 26.06.2020
674 Clear 19 1023 72 10000 1.28 166 22:57 26.06.2020
675 Clear 19 1023 72 10000 1.28 166 22:38 26.06.2020
676 Clear 19 1023 72 10000 1.45 148 22:19 26.06.2020
677 Clear 20 1023 72 10000 1.45 148 21:57 26.06.2020
678 Clear 22 1023 64 10000 1 210 21:37 26.06.2020
679 Clear 23 1023 49 10000 1 190 21:19 26.06.2020
680 Clear 24 1022 50 10000 1 0 20:43 26.06.2020
681 Clear 24 1022 50 10000 1 0 20:23 26.06.2020
682 Clear 26 1023 41 10000 2 150 19:47 26.06.2020
683 Clear 26 1023 41 10000 2 150 19:47 26.06.2020
684 Clear 27 1023 39 10000 1 0 19:24 26.06.2020
685 Clear 27 1023 39 10000 1 0 18:58 26.06.2020
686 Clear 27 1023 39 10000 2 150 18:38 26.06.2020
687 Clear 27 1023 39 10000 2 150 18:19 26.06.2020
688 Clear 27 1023 34 10000 3 140 17:44 26.06.2020
689 Clear 27 1023 34 10000 3 140 17:25 26.06.2020
690 Clear 28 1024 32 10000 2 170 16:49 26.06.2020
691 Clear 28 1024 36 10000 3 120 16:27 26.06.2020
692 Clear 28 1024 34 10000 3 140 15:55 26.06.2020
693 Clear 28 1025 32 10000 2 120 15:37 26.06.2020
694 Clear 28 1025 32 10000 2 120 15:19 26.06.2020
695 Clear 28 1025 34 10000 3 120 14:57 26.06.2020
696 Clear 29 1025 30 10000 3 140 14:38 26.06.2020
697 Clear 29 1025 30 10000 3 140 14:19 26.06.2020
698 Clear 28 1026 34 10000 3 120 13:44 26.06.2020
699 Clear 28 1026 34 10000 3 110 13:22 26.06.2020
700 Clear 28 1026 36 10000 2 170 12:43 26.06.2020
701 Clear 27 1026 36 10000 2 170 12:24 26.06.2020
702 Clear 27 1026 41 10000 4 100 11:59 26.06.2020
703 Clear 27 1026 36 10000 2 100 11:41 26.06.2020
704 Clear 27 1026 36 10000 2 100 11:22 26.06.2020
705 Clear 26 1026 38 10000 3 120 10:59 26.06.2020
706 Clear 25 1026 38 10000 3 110 10:40 26.06.2020
707 Clear 25 1026 38 10000 3 110 10:19 26.06.2020
708 Clear 25 1026 41 10000 3 110 09:54 26.06.2020
709 Clear 25 1026 41 10000 3 110 09:36 26.06.2020
710 Clear 25 1026 41 10000 3 110 09:18 26.06.2020
711 Clear 24 1026 47 10000 2 130 08:43 26.06.2020
712 Clear 24 1026 47 10000 2 130 08:25 26.06.2020
713 Clear 23 1026 53 10000 2 80 07:45 26.06.2020
714 Clear 23 1026 53 10000 2 80 07:23 26.06.2020
715 Clear 21 1026 68 10000 2 90 06:48 26.06.2020
716 Clear 19 1026 68 10000 2 90 06:29 26.06.2020
717 Clear 17 1026 72 10000 2 70 05:51 26.06.2020
718 Clear 15 1026 87 10000 1 0 04:55 26.06.2020
719 Clear 15 1026 87 10000 1 100 02:29 26.06.2020
720 Clear 16 1026 82 10000 2.15 93 01:26 26.06.2020
721 Clear 17 1026 77 10000 1 110 00:42 26.06.2020
722 Clear 18 1026 72 10000 2 110 00:22 26.06.2020
723 Clear 16 1026 72 10000 2 110 23:46 25.06.2020
724 Clear 17 1026 63 10000 1 90 23:21 25.06.2020
725 Clear 19 1026 67 10000 2 80 22:57 25.06.2020
726 Clear 21 1026 49 10000 2 100 22:38 25.06.2020
727 Clear 20 1026 49 10000 2 100 22:19 25.06.2020
728 Clear 20 1026 63 10000 2 80 21:56 25.06.2020
729 Clear 21 1025 46 10000 2 90 21:38 25.06.2020
730 Clear 21 1025 46 10000 2 90 21:20 25.06.2020
731 Clear 23 1025 46 10000 2 70 20:45 25.06.2020
732 Clear 23 1025 46 10000 2 70 20:24 25.06.2020
733 Clear 24 1025 43 10000 3 80 19:59 25.06.2020
734 Clear 26 1025 34 10000 5 80 19:41 25.06.2020
735 Clear 25 1025 34 10000 5 80 19:19 25.06.2020
736 Clear 25 1025 34 10000 5 80 19:19 25.06.2020
737 Clear 26 1025 34 10000 5 80 18:58 25.06.2020
738 Clear 26 1025 34 10000 5 80 18:38 25.06.2020
739 Clear 27 1025 34 10000 5 80 18:19 25.06.2020
740 Clear 27 1025 34 10000 5 90 17:42 25.06.2020
741 Clear 27 1025 34 10000 5 90 17:20 25.06.2020
742 Clear 27 1025 34 10000 5 90 17:20 25.06.2020
743 Clear 27 1025 34 10000 6 90 16:57 25.06.2020
744 Clear 28 1025 34 10000 5 90 16:37 25.06.2020
745 Clear 28 1025 34 10000 5 90 16:18 25.06.2020
746 Clear 29 1025 25 10000 6 60 15:41 25.06.2020
747 Clear 28 1025 25 10000 6 60 15:22 25.06.2020
748 Clear 28 1025 25 10000 6 60 15:22 25.06.2020
749 Clear 28 1025 34 10000 5 60 14:44 25.06.2020
750 Clouds 28 1025 34 10000 5 60 14:25 25.06.2020
751 Clouds 29 1025 39 10000 5 70 13:59 25.06.2020
752 Clouds 28 1026 37 10000 5 50 13:41 25.06.2020
753 Clouds 28 1026 42 10000 5 40 13:19 25.06.2020
754 Clouds 28 1026 44 10000 3 30 12:46 25.06.2020
755 Clouds 27 1026 44 10000 3 70 12:21 25.06.2020
756 Clouds 28 1026 44 10000 3 70 11:59 25.06.2020
757 Clouds 27 1026 44 10000 4 60 11:40 25.06.2020
758 Clouds 27 1026 44 10000 4 60 11:21 25.06.2020
759 Clouds 27 1026 47 10000 4 30 10:43 25.06.2020
760 Clouds 27 1026 47 10000 4 30 10:25 25.06.2020
761 Clouds 26 1026 47 10000 4 40 09:42 25.06.2020
762 Clear 25 1026 47 10000 4 40 09:23 25.06.2020
763 Clouds 25 1026 47 10000 4 40 09:23 25.06.2020
764 Clear 24 1026 57 10000 3 360 08:59 25.06.2020
765 Clear 23 1026 53 10000 3 50 08:41 25.06.2020
766 Clear 23 1025 56 10000 2 70 08:18 25.06.2020
767 Clear 23 1025 60 10000 2 60 07:42 25.06.2020
768 Clear 22 1025 68 10000 2 60 07:24 25.06.2020
769 Clear 21 1025 72 10000 1 0 06:44 25.06.2020
770 Clear 17 1025 88 10000 1.92 23 06:24 25.06.2020
771 Clear 16 1025 93 10000 1.92 23 05:32 25.06.2020
772 Clear 18 1024 72 10000 2 50 03:42 25.06.2020
773 Clear 18 1024 72 10000 2 30 02:56 25.06.2020
774 Clear 18 1024 87 10000 2.28 33 02:37 25.06.2020
775 Clouds 18 1024 87 10000 2.08 40 01:43 25.06.2020
776 Clouds 17 1023 82 10000 2.47 48 00:51 25.06.2020
777 Clouds 17 1023 77 10000 2.31 52 00:25 25.06.2020
778 Clouds 18 1023 77 10000 2.31 52 23:59 24.06.2020
779 Clouds 18 1023 77 10000 2.31 52 23:38 24.06.2020
780 Clouds 18 1023 77 10000 1 0 23:20 24.06.2020
781 Clouds 18 1023 77 10000 2.24 62 22:43 24.06.2020
782 Clouds 18 1023 77 10000 2.61 73 22:21 24.06.2020
783 Clouds 19 1023 68 10000 1 60 21:57 24.06.2020
784 Clouds 20 1023 59 10000 1 90 21:38 24.06.2020
785 Clear 21 1022 52 10000 2 70 21:19 24.06.2020
786 Clear 21 1022 52 10000 2 70 20:59 24.06.2020
787 Clear 22 1022 49 10000 4 50 20:40 24.06.2020
788 Clouds 22 1022 49 10000 4 50 20:22 24.06.2020
789 Clouds 23 1022 46 10000 5 50 19:59 24.06.2020
790 Clouds 24 1021 44 10000 6 50 19:39 24.06.2020
791 Clouds 24 1021 44 10000 6 50 19:20 24.06.2020
792 Clouds 24 1021 44 10000 5 50 18:58 24.06.2020
793 Clouds 24 1021 44 10000 6 50 18:39 24.06.2020
794 Clear 25 1020 41 10000 6 50 18:20 24.06.2020
795 Clear 25 1020 41 10000 6 50 17:56 24.06.2020
796 Clear 25 1020 41 10000 6 50 17:56 24.06.2020
797 Clear 25 1020 41 10000 6 70 17:37 24.06.2020
798 Clear 25 1020 41 10000 6 70 17:18 24.06.2020
799 Clear 25 1020 41 10000 7 70 17:18 24.06.2020
800 Clear 25 1020 41 10000 7 70 16:56 24.06.2020
801 Clear 25 1020 41 10000 7 70 16:56 24.06.2020
802 Clear 25 1020 44 10000 7 50 16:37 24.06.2020
803 Clear 25 1020 47 10000 7 60 16:19 24.06.2020
804 Clear 25 1020 47 10000 7 60 15:55 24.06.2020
805 Clear 25 1020 44 10000 6 40 15:37 24.06.2020
806 Clear 25 1020 44 10000 7 60 15:18 24.06.2020
807 Clear 25 1020 47 10000 6 80 14:42 24.06.2020
808 Clouds 26 1020 47 10000 6 80 14:22 24.06.2020
809 Clouds 25 1019 50 10000 7 60 13:43 24.06.2020
810 Clouds 25 1019 50 10000 7 60 13:22 24.06.2020
811 Clouds 25 1019 57 10000 6 70 12:54 24.06.2020
812 Clouds 25 1019 57 10000 6 70 12:36 24.06.2020
813 Clouds 24 1019 60 10000 5 40 12:18 24.06.2020
814 Clouds 24 1019 60 10000 5 40 11:42 24.06.2020
815 Clouds 23 1019 60 10000 6 40 11:24 24.06.2020
816 Clouds 23 1019 60 10000 6 40 10:55 24.06.2020
817 Clouds 24 1019 64 10000 4 60 10:36 24.06.2020
818 Clouds 23 1018 68 10000 5 60 10:18 24.06.2020
819 Clouds 22 1018 73 10000 4 50 09:42 24.06.2020
820 Clouds 21 1018 73 10000 4 50 09:21 24.06.2020
821 Clouds 21 1018 77 10000 5 70 08:41 24.06.2020
822 Clouds 20 1018 77 10000 5 70 08:20 24.06.2020
823 Clouds 19 1017 100 10000 5 70 07:50 24.06.2020
824 Clouds 19 1017 93 10000 5 70 07:29 24.06.2020
825 Clouds 18 1017 93 10000 5 70 06:49 24.06.2020
826 Clouds 18 1017 93 10000 5 70 06:25 24.06.2020
827 Clouds 18 1017 93 10000 5 70 05:48 24.06.2020
828 Clouds 18 1016 88 10000 4 70 04:41 24.06.2020
829 Clouds 19 1016 93 10000 4 70 03:51 24.06.2020
830 Clouds 19 1016 93 10000 5 70 03:33 24.06.2020
831 Clouds 19 1015 93 10000 5 70 02:41 24.06.2020
832 Clouds 19 1016 100 10000 1 0 01:19 24.06.2020
833 Rain 19 1015 93 10000 2 80 00:41 24.06.2020
834 Rain 19 1015 93 10000 2 80 00:21 24.06.2020
835 Rain 20 1015 88 10000 2 110 23:41 23.06.2020
836 Rain 20 1015 88 10000 2 110 23:19 23.06.2020
837 Rain 20 1015 93 10000 2 80 22:41 23.06.2020
838 Rain 20 1015 93 10000 2 80 22:19 23.06.2020
839 Rain 20 1014 88 10000 4 60 21:59 23.06.2020
840 Rain 20 1014 88 10000 2 70 21:38 23.06.2020
841 Rain 21 1014 77 10000 4 60 21:19 23.06.2020
842 Rain 21 1014 77 10000 4 60 20:55 23.06.2020
843 Rain 21 1014 77 10000 5 50 20:37 23.06.2020
844 Rain 21 1013 83 10000 4 50 20:18 23.06.2020
845 Rain 21 1013 78 10000 3 40 19:44 23.06.2020
846 Rain 21 1013 78 10000 3 40 19:44 23.06.2020
847 Rain 21 1013 78 10000 4 40 19:24 23.06.2020
848 Rain 22 1012 83 10000 5 30 18:40 23.06.2020
849 Rain 23 1012 78 10000 4 20 18:19 23.06.2020
850 Clouds 24 1012 69 10000 4 10 17:44 23.06.2020
851 Clouds 24 1012 69 10000 4 10 17:25 23.06.2020
852 Clouds 25 1012 69 10000 4 350 16:58 23.06.2020
853 Clouds 25 1012 69 10000 4 10 16:39 23.06.2020
854 Clouds 26 1012 69 10000 4 10 16:21 23.06.2020
855 Clouds 26 1011 69 10000 3 250 15:59 23.06.2020
856 Rain 27 1012 57 10000 3 240 15:41 23.06.2020
857 Clouds 27 1012 57 10000 4 260 15:23 23.06.2020
858 Clouds 26 1012 61 10000 3 220 14:54 23.06.2020
859 Clouds 26 1012 61 10000 3 220 14:36 23.06.2020
860 Clouds 26 1012 69 10000 3 210 14:18 23.06.2020
861 Clouds 26 1012 65 10000 3 200 13:44 23.06.2020
862 Clouds 25 1012 69 10000 3 210 13:25 23.06.2020
863 Clouds 25 1012 69 10000 2 160 12:46 23.06.2020
864 Clouds 25 1012 65 10000 2 140 12:23 23.06.2020
865 Clouds 25 1012 65 10000 2 140 11:59 23.06.2020
866 Clouds 25 1012 69 10000 3 120 11:40 23.06.2020
867 Clouds 25 1012 69 10000 3 120 11:21 23.06.2020
868 Clouds 24 1012 73 10000 1 0 10:58 23.06.2020
869 Clouds 24 1011 78 10000 2 150 10:39 23.06.2020
870 Clouds 24 1011 78 10000 2 150 10:21 23.06.2020
871 Clouds 23 1011 78 10000 3 120 09:55 23.06.2020
872 Clouds 23 1011 83 10000 2 110 09:37 23.06.2020
873 Clouds 23 1011 83 10000 2 110 09:18 23.06.2020
874 Clouds 22 1011 83 10000 2 80 08:42 23.06.2020
875 Clouds 22 1011 83 10000 2 80 08:22 23.06.2020
876 Clouds 21 1011 94 10000 2.57 30 07:44 23.06.2020
877 Clouds 21 1011 94 9000 2.44 34 07:24 23.06.2020
878 Clouds 20 1010 94 8000 2.44 34 06:51 23.06.2020
879 Clouds 20 1010 94 8000 2.45 29 06:31 23.06.2020
880 Clouds 20 1010 94 8000 2.45 29 05:48 23.06.2020
881 Clouds 20 1010 94 9000 2.23 31 04:41 23.06.2020
882 Clouds 20 1009 94 10000 1 0 03:19 23.06.2020
883 Clouds 20 1009 94 10000 1 0 02:46 23.06.2020
884 Clouds 20 1009 94 10000 1 0 02:26 23.06.2020
885 Rain 19 1010 94 9000 2 70 01:44 23.06.2020
886 Rain 19 1009 100 8000 3.08 61 01:20 23.06.2020
887 Clouds 19 1009 93 8000 1 0 00:25 23.06.2020
888 Clouds 19 1009 100 7000 3 100 23:59 22.06.2020
889 Clouds 19 1009 100 10000 3 100 23:39 22.06.2020
890 Clouds 19 1009 93 10000 3 90 23:19 22.06.2020
891 Clouds 19 1009 93 10000 3 90 22:58 22.06.2020
892 Clouds 20 1009 94 10000 4 80 22:40 22.06.2020
893 Clouds 20 1009 94 10000 4 80 22:40 22.06.2020
894 Clouds 20 1009 94 10000 4 80 22:20 22.06.2020
895 Clouds 20 1009 94 10000 4 80 21:58 22.06.2020
896 Rain 20 1009 94 10000 4 90 21:39 22.06.2020
897 Rain 20 1009 94 10000 4 90 21:21 22.06.2020
898 Rain 20 1009 94 9000 3 100 20:44 22.06.2020
899 Rain 20 1009 94 9000 3 100 20:44 22.06.2020
900 Rain 20 1009 94 9000 3 100 20:26 22.06.2020
901 Rain 20 1008 88 10000 2 70 19:59 22.06.2020
902 Rain 20 1008 88 10000 2 70 19:41 22.06.2020
903 Rain 20 1008 88 10000 2 70 19:19 22.06.2020
904 Thunderstorm 21 1009 82 10000 2 170 18:42 22.06.2020
905 Thunderstorm 21 1009 82 10000 2 170 18:24 22.06.2020
906 Rain 24 1007 69 10000 4 120 17:57 22.06.2020
907 Rain 24 1007 69 10000 4 120 17:39 22.06.2020
908 Thunderstorm 28 1007 51 10000 7 70 17:21 22.06.2020
909 Thunderstorm 28 1007 51 10000 7 70 16:59 22.06.2020
910 Rain 28 1007 48 10000 6 70 16:40 22.06.2020
911 Clouds 29 1007 48 10000 6 70 16:18 22.06.2020
912 Clouds 29 1007 48 10000 6 90 15:44 22.06.2020
913 Clouds 29 1007 48 10000 6 90 15:44 22.06.2020
914 Clear 29 1007 48 10000 6 90 15:26 22.06.2020
915 Clouds 29 1007 51 10000 7 80 14:58 22.06.2020
916 Clouds 29 1007 48 10000 7 80 14:39 22.06.2020
917 Clouds 29 1007 54 10000 6 90 14:20 22.06.2020
918 Clouds 28 1007 54 10000 6 90 13:54 22.06.2020
919 Clouds 28 1008 51 10000 5 70 13:36 22.06.2020
920 Clouds 28 1008 58 10000 4 90 13:18 22.06.2020
921 Clouds 29 1008 57 10000 4 80 12:41 22.06.2020
922 Rain 28 1008 61 10000 3 80 12:22 22.06.2020
923 Rain 27 1008 57 10000 4 110 11:38 22.06.2020
924 Clear 27 1008 57 10000 3 60 11:19 22.06.2020
925 Clear 27 1008 57 10000 3 60 10:57 22.06.2020
926 Clear 26 1008 61 10000 3 70 10:39 22.06.2020
927 Rain 27 1008 61 10000 3 60 10:19 22.06.2020
928 Rain 27 1008 61 10000 3 60 09:58 22.06.2020
929 Rain 25 1008 61 10000 3 70 09:39 22.06.2020
930 Rain 24 1008 64 10000 3 80 09:19 22.06.2020
931 Clouds 24 1008 64 10000 3 80 08:56 22.06.2020
932 Clouds 24 1008 69 10000 4 90 08:38 22.06.2020
933 Clouds 23 1008 69 10000 5 90 08:19 22.06.2020
934 Clouds 23 1007 69 10000 5 80 07:48 22.06.2020
935 Clouds 23 1007 69 10000 5 80 07:26 22.06.2020
936 Clouds 22 1007 73 10000 5 90 06:39 22.06.2020
937 Clouds 22 1007 73 10000 5 90 06:21 22.06.2020
938 Clouds 21 1006 77 10000 4 80 05:43 22.06.2020
939 Rain 21 1006 73 10000 4 90 03:48 22.06.2020
940 Clouds 23 1006 69 10000 5 70 02:23 22.06.2020
941 Rain 23 1007 64 10000 5 70 01:18 22.06.2020
942 Rain 23 1006 69 10000 4 80 00:39 22.06.2020
943 Clouds 23 1006 64 10000 4 80 23:58 21.06.2020
944 Clouds 24 1006 60 10000 5 80 23:39 21.06.2020
945 Clouds 24 1006 57 10000 4 70 23:20 21.06.2020
946 Clouds 24 1006 57 10000 4 70 22:56 21.06.2020
947 Clouds 24 1006 60 10000 4 80 22:37 21.06.2020
948 Clouds 24 1006 64 10000 3 70 22:19 21.06.2020
949 Clouds 24 1006 64 10000 3 70 21:56 21.06.2020
950 Clouds 24 1006 64 10000 3 70 21:56 21.06.2020
951 Clouds 25 1006 60 10000 3 70 21:37 21.06.2020
952 Clouds 26 1006 54 10000 3 40 21:19 21.06.2020
953 Clouds 26 1006 54 10000 3 40 20:57 21.06.2020
954 Clouds 25 1006 57 10000 3 50 20:57 21.06.2020
955 Clouds 26 1006 57 10000 3 50 20:36 21.06.2020
956 Clouds 26 1006 61 10000 2 70 20:18 21.06.2020
957 Clouds 27 1006 54 10000 3 80 19:41 21.06.2020
958 Clouds 27 1006 51 10000 4 70 19:22 21.06.2020
959 Clouds 28 1006 51 10000 4 70 18:57 21.06.2020
960 Clouds 27 1005 57 10000 3 60 18:39 21.06.2020
961 Rain 28 1005 57 10000 3 60 18:21 21.06.2020
962 Rain 28 1005 54 10000 3 70 17:57 21.06.2020
963 Clouds 28 1005 51 10000 3 80 17:38 21.06.2020
964 Thunderstorm 28 1005 51 10000 5 70 17:19 21.06.2020
965 Rain 30 1005 45 10000 6 60 16:41 21.06.2020
966 Clouds 30 1005 45 10000 6 80 16:22 21.06.2020
967 Clouds 30 1006 42 10000 5 100 15:56 21.06.2020
968 Clouds 30 1006 42 10000 5 100 15:36 21.06.2020
969 Rain 29 1006 45 10000 6 80 15:18 21.06.2020
970 Rain 30 1006 45 10000 5 90 14:39 21.06.2020
971 Rain 30 1006 45 10000 5 90 14:20 21.06.2020
972 Rain 29 1007 48 10000 2 100 13:56 21.06.2020
973 Rain 30 1007 51 10000 3 80 13:56 21.06.2020
974 Rain 30 1007 51 10000 3 80 13:38 21.06.2020
975 Rain 29 1007 51 10000 3 70 13:19 21.06.2020
976 Rain 29 1007 61 10000 3 80 12:44 21.06.2020
977 Rain 28 1007 57 10000 4 80 12:25 21.06.2020
978 Rain 28 1007 57 10000 4 80 11:55 21.06.2020
979 Rain 28 1007 57 10000 4 90 11:36 21.06.2020
980 Rain 28 1007 51 10000 3 110 11:18 21.06.2020
981 Rain 29 1007 51 10000 3 110 10:54 21.06.2020
982 Rain 28 1007 57 10000 4 100 10:36 21.06.2020
983 Rain 27 1007 61 10000 3 120 10:18 21.06.2020
984 Rain 26 1007 65 10000 3 110 09:40 21.06.2020
985 Clouds 25 1007 69 10000 3 90 09:19 21.06.2020
986 Clouds 24 1007 69 10000 4 90 08:55 21.06.2020
987 Clouds 24 1007 69 10000 4 90 08:37 21.06.2020
988 Clouds 23 1007 73 10000 4 120 08:19 21.06.2020
989 Clouds 23 1006 78 10000 2 100 07:41 21.06.2020
990 Clouds 23 1006 83 10000 3 80 07:22 21.06.2020
991 Clouds 21 1006 83 10000 2 80 06:48 21.06.2020
992 Clouds 20 1006 88 10000 2 90 05:59 21.06.2020
993 Clouds 19 1006 88 10000 2 90 05:30 21.06.2020
994 Clouds 19 1006 93 10000 2 70 03:21 21.06.2020
995 Clouds 19 1006 88 10000 2 30 02:59 21.06.2020
996 Clouds 20 1006 82 10000 2 320 01:54 21.06.2020
997 Thunderstorm 20 1007 77 10000 1 0 01:21 21.06.2020
998 Rain 21 1007 77 10000 1 0 00:56 21.06.2020
999 Rain 21 1007 73 10000 3 340 00:38 21.06.2020
1000 Clouds 21 1007 73 10000 2 320 00:18 21.06.2020
1001 Clouds 21 1007 73 10000 1 0 23:43 20.06.2020
1002 Clouds 21 1007 68 10000 3 30 23:22 20.06.2020
1003 Clouds 21 1007 68 10000 3 30 22:56 20.06.2020
1004 Clouds 22 1007 68 10000 3 30 22:37 20.06.2020
1005 Rain 22 1007 68 10000 4 40 22:18 20.06.2020
1006 Rain 22 1007 68 10000 4 40 21:56 20.06.2020
1007 Rain 22 1007 68 10000 4 40 21:38 20.06.2020
1008 Rain 22 1007 69 10000 4 30 21:19 20.06.2020
1009 Rain 23 1007 69 10000 4 40 20:55 20.06.2020
1010 Rain 23 1007 69 10000 4 40 20:37 20.06.2020
1011 Rain 23 1007 64 10000 5 40 20:19 20.06.2020
1012 Rain 24 1007 53 10000 4 30 19:43 20.06.2020
1013 Clouds 25 1007 57 10000 3 50 19:22 20.06.2020
1014 Clouds 25 1007 57 10000 3 50 19:22 20.06.2020
1015 Clouds 25 1007 57 10000 3 50 18:54 20.06.2020
1016 Clouds 25 1007 50 10000 4 50 18:36 20.06.2020
1017 Clouds 27 1007 54 10000 6 50 18:18 20.06.2020
1018 Clouds 26 1007 54 10000 6 50 17:54 20.06.2020
1019 Clouds 27 1006 65 10000 5 40 17:36 20.06.2020
1020 Clouds 27 1007 65 10000 4 50 17:18 20.06.2020
1021 Clouds 27 1007 69 10000 5 40 16:39 20.06.2020
1022 Clouds 26 1008 69 10000 4 50 16:18 20.06.2020
1023 Clouds 26 1008 69 10000 4 50 16:18 20.06.2020
1024 Clouds 25 1008 69 10000 4 40 15:42 20.06.2020
1025 Clouds 25 1009 65 10000 3 70 15:18 20.06.2020
1026 Clouds 25 1009 65 10000 3 70 14:56 20.06.2020
1027 Clouds 24 1009 69 10000 3 60 14:38 20.06.2020
1028 Clouds 24 1009 69 10000 5 60 14:18 20.06.2020
1029 Clouds 24 1009 69 10000 4 60 13:41 20.06.2020
1030 Clouds 23 1009 73 10000 5 60 13:19 20.06.2020
1031 Clouds 24 1009 73 10000 5 50 12:43 20.06.2020
1032 Rain 24 1010 69 10000 4 40 12:22 20.06.2020
1033 Rain 24 1010 69 10000 4 40 11:58 20.06.2020
1034 Rain 24 1009 64 10000 3 40 11:38 20.06.2020
1035 Rain 23 1009 64 10000 3 40 11:20 20.06.2020
1036 Rain 24 1009 64 10000 3 50 10:55 20.06.2020
1037 Rain 23 1009 69 10000 4 80 10:37 20.06.2020
1038 Clouds 23 1010 68 10000 4 60 10:18 20.06.2020
1039 Clouds 22 1010 68 10000 4 80 09:40 20.06.2020
1040 Clouds 22 1010 77 10000 2 90 09:22 20.06.2020
1041 Clouds 22 1010 77 10000 2 90 08:56 20.06.2020
1042 Clouds 21 1010 73 10000 4 70 08:37 20.06.2020
1043 Clouds 21 1009 73 10000 4 70 08:18 20.06.2020
1044 Clouds 21 1010 73 10000 5 70 07:44 20.06.2020
1045 Clouds 22 1010 73 10000 5 70 07:25 20.06.2020
1046 Clouds 20 1010 77 10000 6 80 06:24 20.06.2020
1047 Clouds 20 1010 77 10000 5 80 05:55 20.06.2020
1048 Clouds 20 1010 77 10000 5 80 05:30 20.06.2020
1049 Rain 19 1010 77 10000 2 60 02:56 20.06.2020
1050 Clouds 19 1011 82 10000 3 360 01:50 20.06.2020
1051 Clouds 20 1011 82 10000 3 360 01:27 20.06.2020
1052 Clouds 21 1010 72 10000 3 270 00:22 20.06.2020
1053 Clouds 21 1010 68 10000 2 10 23:58 19.06.2020
1054 Clouds 21 1010 68 10000 4 70 23:39 19.06.2020
1055 Rain 21 1011 68 10000 4 70 23:18 19.06.2020
1056 Rain 21 1011 68 10000 4 70 23:18 19.06.2020
1057 Clouds 21 1011 60 10000 7 80 22:42 19.06.2020
1058 Rain 22 1011 60 10000 8 80 22:23 19.06.2020
1059 Rain 22 1011 60 10000 8 80 21:59 19.06.2020
1060 Rain 23 1010 60 10000 6 80 21:39 19.06.2020
1061 Rain 23 1010 60 10000 6 80 21:39 19.06.2020
1062 Clouds 25 1010 47 10000 8 60 21:18 19.06.2020
1063 Clouds 25 1010 47 10000 8 60 20:59 19.06.2020
1064 Clouds 26 1009 47 10000 4 50 20:40 19.06.2020
1065 Clouds 26 1009 51 10000 4 60 20:21 19.06.2020
1066 Clouds 26 1009 51 10000 4 60 20:21 19.06.2020
1067 Clouds 26 1009 51 10000 4 60 19:58 19.06.2020
1068 Clouds 26 1009 51 10000 4 60 19:58 19.06.2020
1069 Clouds 27 1009 48 10000 4 40 19:40 19.06.2020
1070 Rain 27 1009 48 10000 4 40 19:21 19.06.2020
1071 Rain 28 1009 45 10000 4 50 18:56 19.06.2020
1072 Rain 29 1009 45 10000 3 90 18:38 19.06.2020
1073 Clouds 29 1009 37 10000 5 70 18:20 19.06.2020
1074 Clouds 29 1009 42 10000 4 100 17:40 19.06.2020
1075 Rain 29 1009 39 10000 3 110 17:22 19.06.2020
1076 Rain 29 1009 39 10000 3 110 16:57 19.06.2020
1077 Rain 29 1010 37 10000 3 110 16:37 19.06.2020
1078 Rain 29 1010 37 10000 3 110 16:19 19.06.2020
1079 Rain 29 1010 39 10000 4 120 15:43 19.06.2020
1080 Rain 29 1010 39 10000 4 120 15:25 19.06.2020
1081 Rain 29 1010 39 10000 5 110 14:56 19.06.2020
1082 Rain 28 1010 47 10000 4 110 14:38 19.06.2020
1083 Clouds 28 1010 47 10000 2 110 14:20 19.06.2020
1084 Clouds 28 1011 54 10000 3 100 13:45 19.06.2020
1085 Clouds 28 1011 54 10000 3 100 13:27 19.06.2020
1086 Clouds 28 1011 54 10000 4 120 12:58 19.06.2020
1087 Clouds 28 1011 51 10000 4 100 12:40 19.06.2020
1088 Clouds 27 1011 54 10000 5 100 12:18 19.06.2020
1089 Clouds 27 1011 54 10000 5 90 11:40 19.06.2020
1090 Clouds 26 1011 54 10000 5 80 11:19 19.06.2020
1091 Clouds 26 1011 54 10000 5 80 10:59 19.06.2020
1092 Clouds 26 1011 57 10000 4 70 10:40 19.06.2020
1093 Clouds 25 1012 57 10000 3 50 10:19 19.06.2020
1094 Clouds 25 1011 57 10000 2 60 09:42 19.06.2020
1095 Clouds 23 1011 57 10000 2 60 09:21 19.06.2020
1096 Clouds 23 1011 69 10000 1 0 08:55 19.06.2020
1097 Clouds 23 1012 60 10000 4 80 08:37 19.06.2020
1098 Clouds 23 1012 60 10000 4 80 08:37 19.06.2020
1099 Clouds 23 1012 60 10000 4 80 08:19 19.06.2020
1100 Clouds 22 1012 60 10000 2 110 07:40 19.06.2020
1101 Clouds 21 1012 64 10000 3 120 07:21 19.06.2020
1102 Clouds 21 1012 64 10000 3 100 06:44 19.06.2020
1103 Clouds 21 1012 60 10000 4 100 06:19 19.06.2020
1104 Clouds 20 1011 82 10000 3 80 04:30 19.06.2020
1105 Clouds 20 1011 68 10000 3 90 03:22 19.06.2020
1106 Clouds 21 1011 77 10000 3 80 00:59 19.06.2020
1107 Clouds 21 1011 72 10000 3 80 00:41 19.06.2020
1108 Clouds 20 1011 77 10000 3 70 00:21 19.06.2020
1109 Clouds 21 1011 73 10000 3 90 23:42 18.06.2020
1110 Clouds 21 1011 83 10000 3 80 23:24 18.06.2020
1111 Clouds 21 1011 83 10000 3 80 22:59 18.06.2020
1112 Clouds 21 1011 83 10000 2 80 22:39 18.06.2020
1113 Rain 22 1011 83 10000 2 90 22:19 18.06.2020
1114 Clouds 21 1012 88 10000 1 60 21:40 18.06.2020
1115 Clouds 22 1011 88 10000 1 0 21:21 18.06.2020
1116 Clouds 22 1011 88 10000 1 0 20:59 18.06.2020
1117 Clouds 22 1011 83 10000 2 40 20:40 18.06.2020
1118 Clouds 22 1011 83 10000 3 10 20:19 18.06.2020
1119 Clouds 22 1011 83 10000 3 10 19:54 18.06.2020
1120 Clouds 22 1011 73 10000 3 20 19:36 18.06.2020
1121 Clouds 22 1011 78 10000 2 260 19:18 18.06.2020
1122 Clouds 23 1011 78 10000 1 0 18:38 18.06.2020
1123 Clouds 22 1011 73 10000 3 260 18:19 18.06.2020
1124 Clouds 22 1011 73 10000 3 260 18:19 18.06.2020
1125 Thunderstorm 22 1012 73 10000 2 230 17:45 18.06.2020
1126 Clouds 21 1011 78 10000 3 290 17:25 18.06.2020
1127 Clouds 23 1011 78 10000 3 290 16:56 18.06.2020
1128 Clouds 24 1011 69 10000 1 0 16:38 18.06.2020
1129 Rain 24 1011 64 10000 4 70 16:19 18.06.2020
1130 Rain 24 1011 64 10000 4 70 15:56 18.06.2020
1131 Clouds 23 1011 73 10000 3 80 15:38 18.06.2020
1132 Rain 23 1011 64 10000 4 100 15:18 18.06.2020
1133 Clouds 24 1011 60 10000 6 110 14:42 18.06.2020
1134 Clouds 25 1011 60 10000 6 110 14:23 18.06.2020
1135 Thunderstorm 27 1011 51 10000 4 110 13:59 18.06.2020
1136 Thunderstorm 27 1011 51 10000 4 130 13:41 18.06.2020
1137 Clouds 29 1011 45 10000 2 130 13:22 18.06.2020
1138 Clouds 29 1011 45 10000 2 130 12:55 18.06.2020
1139 Clouds 28 1011 51 10000 2 150 12:37 18.06.2020
1140 Clouds 28 1011 51 10000 2 150 12:19 18.06.2020
1141 Clouds 27 1012 57 10000 3 160 11:46 18.06.2020
1142 Clouds 26 1012 61 10000 3 120 11:21 18.06.2020
1143 Clouds 26 1012 61 10000 2 160 10:41 18.06.2020
1144 Clouds 27 1012 61 10000 3 160 10:20 18.06.2020
1145 Clouds 27 1012 61 10000 3 160 09:59 18.06.2020
1146 Rain 26 1012 61 10000 3 140 09:41 18.06.2020
1147 Clouds 25 1011 65 10000 2 170 09:22 18.06.2020
1148 Clouds 25 1011 65 10000 1 0 08:41 18.06.2020
1149 Clouds 24 1011 69 10000 2 170 08:22 18.06.2020
1150 Clouds 24 1011 69 10000 2 170 07:58 18.06.2020
1151 Clouds 23 1011 73 10000 2 140 07:40 18.06.2020
1152 Clouds 24 1011 73 10000 2 140 07:21 18.06.2020
1153 Clouds 22 1011 83 10000 1 0 06:22 18.06.2020
1154 Mist 19 1011 100 2600 1.72 125 04:26 18.06.2020
1155 Clouds 19 1011 100 6000 2.1 128 03:18 18.06.2020
1156 Clouds 19 1011 100 9000 2.78 117 01:32 18.06.2020
1157 Clouds 20 1010 88 10000 1 80 00:59 18.06.2020
1158 Clouds 20 1010 93 10000 2.78 117 00:39 18.06.2020
1159 Clouds 20 1010 82 10000 1 140 00:21 18.06.2020
1160 Clouds 21 1010 88 10000 2 110 23:45 17.06.2020
1161 Clouds 21 1010 78 10000 2 120 23:21 17.06.2020
1162 Clouds 22 1010 78 10000 2 120 22:58 17.06.2020
1163 Clouds 22 1010 78 10000 3 120 22:39 17.06.2020
1164 Clouds 22 1010 78 10000 2 110 22:20 17.06.2020
1165 Clouds 23 1010 73 10000 3 120 21:55 17.06.2020
1166 Clouds 23 1010 73 10000 3 120 21:37 17.06.2020
1167 Clouds 23 1010 73 10000 3 120 21:19 17.06.2020
1168 Clouds 24 1009 69 10000 2 120 20:38 17.06.2020
1169 Clouds 24 1009 69 10000 2 120 20:38 17.06.2020
1170 Clouds 24 1009 69 10000 1 0 20:20 17.06.2020
1171 Clouds 25 1009 65 10000 3 120 19:57 17.06.2020
1172 Clouds 25 1009 65 10000 3 120 19:57 17.06.2020
1173 Clouds 25 1009 65 10000 3 120 19:38 17.06.2020
1174 Rain 25 1009 65 10000 3 120 19:19 17.06.2020
1175 Rain 25 1009 57 10000 3 150 18:45 17.06.2020
1176 Rain 26 1009 57 10000 3 150 18:27 17.06.2020
1177 Rain 24 1009 73 10000 3 130 17:45 17.06.2020
1178 Clouds 24 1009 78 10000 2 250 17:23 17.06.2020
1179 Clouds 24 1009 78 10000 2 250 16:58 17.06.2020
1180 Thunderstorm 25 1009 78 10000 2 190 16:39 17.06.2020
1181 Rain 24 1009 83 10000 2 140 16:21 17.06.2020
1182 Rain 24 1009 83 10000 2 140 15:56 17.06.2020
1183 Rain 24 1009 73 10000 3 100 15:38 17.06.2020
1184 Rain 23 1009 83 10000 1 0 15:19 17.06.2020
1185 Rain 23 1009 83 10000 1 0 14:57 17.06.2020
1186 Rain 22 1009 88 10000 1 0 14:38 17.06.2020
1187 Clouds 22 1009 93 10000 3 250 14:19 17.06.2020
1188 Clouds 22 1009 93 10000 3 250 14:19 17.06.2020
1189 Thunderstorm 22 1010 77 2000 7 110 13:42 17.06.2020
1190 Thunderstorm 22 1010 77 2000 7 110 13:22 17.06.2020
1191 Thunderstorm 26 1009 61 10000 3 100 12:59 17.06.2020
1192 Clouds 27 1009 61 10000 4 100 12:40 17.06.2020
1193 Clouds 26 1009 61 10000 4 100 12:21 17.06.2020
1194 Clouds 26 1010 61 10000 5 90 11:44 17.06.2020
1195 Clouds 26 1010 61 10000 4 110 11:26 17.06.2020
1196 Clouds 25 1010 65 10000 5 120 10:58 17.06.2020
1197 Clouds 26 1010 65 10000 5 120 10:38 17.06.2020
1198 Clouds 25 1010 69 10000 4 120 10:19 17.06.2020
1199 Clouds 25 1010 64 10000 4 110 09:55 17.06.2020
1200 Clouds 24 1010 64 10000 4 110 09:36 17.06.2020
1201 Clouds 24 1010 69 10000 4 120 09:18 17.06.2020
1202 Clouds 24 1010 69 10000 4 120 09:18 17.06.2020
1203 Clouds 23 1010 73 10000 5 100 08:42 17.06.2020
1204 Rain 22 1010 73 10000 5 90 08:19 17.06.2020
1205 Rain 21 1010 77 10000 4 80 07:44 17.06.2020
1206 Rain 22 1010 77 10000 4 80 07:23 17.06.2020
1207 Rain 21 1010 77 10000 2 90 06:58 17.06.2020
1208 Rain 20 1009 82 10000 3 80 06:39 17.06.2020
1209 Rain 20 1009 82 10000 3 80 06:21 17.06.2020
1210 Clouds 19 1009 93 10000 3 90 05:48 17.06.2020
1211 Rain 18 1010 93 10000 3 70 04:38 17.06.2020
1212 Rain 19 1011 88 10000 2 110 01:59 17.06.2020
1213 Clouds 19 1011 88 10000 3 90 00:53 17.06.2020
1214 Clouds 19 1010 100 9000 1 350 00:30 17.06.2020
1215 Clouds 19 1011 100 10000 2 50 23:58 16.06.2020
1216 Clouds 20 1011 88 10000 3.8 94 23:40 16.06.2020
1217 Rain 20 1011 88 10000 2 170 23:22 16.06.2020
1218 Rain 21 1011 88 10000 2 170 22:57 16.06.2020
1219 Thunderstorm 23 1011 82 6000 6 140 22:38 16.06.2020
1220 Clouds 24 1010 57 10000 3 100 22:19 16.06.2020
1221 Clouds 24 1010 57 10000 3 100 21:57 16.06.2020
1222 Clouds 24 1010 53 10000 2 110 21:39 16.06.2020
1223 Clouds 24 1010 53 10000 2 110 21:39 16.06.2020
1224 Clouds 24 1010 53 10000 3 110 21:20 16.06.2020
1225 Clouds 25 1010 47 10000 3 120 20:43 16.06.2020
1226 Rain 25 1010 44 10000 4 120 20:22 16.06.2020
1227 Rain 26 1010 44 10000 4 120 19:58 16.06.2020
1228 Rain 26 1010 44 10000 4 120 19:40 16.06.2020
1229 Clouds 26 1010 44 10000 4 120 19:22 16.06.2020
1230 Clouds 27 1010 42 10000 7 110 18:56 16.06.2020
1231 Clouds 27 1010 42 10000 7 110 18:38 16.06.2020
1232 Rain 28 1009 44 10000 7 110 18:20 16.06.2020
1233 Rain 28 1009 44 10000 7 110 17:56 16.06.2020
1234 Rain 28 1009 39 10000 7 110 17:37 16.06.2020
1235 Rain 29 1009 45 10000 5 80 17:19 16.06.2020
1236 Rain 29 1009 45 10000 5 80 16:55 16.06.2020
1237 Rain 28 1009 42 10000 6 90 16:37 16.06.2020
1238 Rain 29 1010 39 10000 6 80 16:18 16.06.2020
1239 Rain 29 1010 39 10000 5 110 15:55 16.06.2020
1240 Rain 29 1010 39 10000 5 110 15:37 16.06.2020
1241 Rain 29 1010 45 10000 6 80 15:19 16.06.2020
1242 Rain 29 1010 51 10000 6 80 14:42 16.06.2020
1243 Rain 29 1011 48 10000 5 80 14:23 16.06.2020
1244 Rain 29 1011 48 10000 4 90 13:50 16.06.2020
1245 Clouds 29 1012 51 10000 4 110 13:27 16.06.2020
1246 Clouds 29 1012 51 10000 4 110 12:57 16.06.2020
1247 Clear 29 1012 54 10000 3 120 12:39 16.06.2020
1248 Rain 27 1012 54 10000 4 90 12:21 16.06.2020
1249 Rain 27 1012 54 10000 4 90 11:55 16.06.2020
1250 Rain 27 1012 54 10000 4 100 11:37 16.06.2020
1251 Rain 26 1012 57 10000 3 90 11:19 16.06.2020
1252 Rain 25 1012 61 10000 4 90 10:43 16.06.2020
1253 Rain 25 1012 61 10000 4 90 10:21 16.06.2020
1254 Rain 24 1013 64 10000 3 100 09:58 16.06.2020
1255 Rain 25 1012 61 10000 3 100 09:58 16.06.2020
1256 Rain 24 1013 64 10000 3 100 09:40 16.06.2020
1257 Clear 24 1013 64 10000 4 100 09:21 16.06.2020
1258 Clear 24 1013 64 10000 4 100 09:21 16.06.2020
1259 Clear 24 1012 73 10000 3 110 08:44 16.06.2020
1260 Clouds 23 1012 73 10000 3 120 08:25 16.06.2020
1261 Clouds 23 1012 78 10000 2 110 07:50 16.06.2020
1262 Clouds 22 1012 78 10000 2 140 07:27 16.06.2020
1263 Clouds 23 1012 78 10000 2 110 07:27 16.06.2020
1264 Clouds 21 1012 83 10000 2 140 06:54 16.06.2020
1265 Clouds 20 1012 88 10000 2 110 06:27 16.06.2020
1266 Clouds 20 1012 88 10000 1 0 05:39 16.06.2020
1267 Clouds 19 1012 88 10000 2 120 04:39 16.06.2020
1268 Rain 20 1011 93 10000 3.34 122 02:59 16.06.2020
1269 Rain 19 1011 93 10000 1 0 01:59 16.06.2020
1270 Rain 20 1011 93 10000 1 0 01:27 16.06.2020
1271 Rain 20 1012 83 10000 3 120 00:43 16.06.2020
1272 Clouds 21 1012 83 10000 3 100 00:19 16.06.2020
1273 Clouds 22 1012 77 10000 3 90 23:42 15.06.2020
1274 Clouds 21 1012 77 10000 2 80 23:22 15.06.2020
1275 Clouds 22 1012 73 10000 2 100 22:55 15.06.2020
1276 Clouds 22 1012 73 10000 2 100 22:37 15.06.2020
1277 Clouds 22 1012 73 10000 3 80 22:18 15.06.2020
1278 Clouds 22 1012 73 10000 3 80 21:55 15.06.2020
1279 Clouds 23 1012 73 10000 4 80 21:36 15.06.2020
1280 Clouds 23 1012 73 10000 3 80 21:18 15.06.2020
1281 Clouds 23 1012 73 10000 3 80 20:55 15.06.2020
1282 Rain 23 1012 69 10000 5 80 20:36 15.06.2020
1283 Rain 24 1012 69 10000 3 70 20:18 15.06.2020
1284 Rain 25 1011 65 10000 2 80 19:41 15.06.2020
1285 Clouds 25 1011 65 10000 2 80 19:22 15.06.2020
1286 Clouds 25 1011 65 10000 2 80 19:22 15.06.2020
1287 Clouds 25 1011 65 10000 1 110 18:59 15.06.2020
1288 Clouds 25 1011 69 10000 3 90 18:41 15.06.2020
1289 Clouds 25 1011 61 10000 3 70 18:21 15.06.2020
1290 Clouds 25 1011 64 10000 4 80 17:59 15.06.2020
1291 Clouds 25 1011 64 10000 4 80 17:40 15.06.2020
1292 Thunderstorm 25 1011 64 10000 6 90 17:20 15.06.2020
1293 Thunderstorm 25 1011 64 10000 6 90 16:57 15.06.2020
1294 Clouds 27 1011 54 10000 5 60 16:39 15.06.2020
1295 Clouds 28 1012 54 10000 6 50 16:18 15.06.2020
1296 Clouds 27 1012 51 10000 4 90 15:41 15.06.2020
1297 Thunderstorm 26 1012 51 10000 3 130 15:21 15.06.2020
1298 Thunderstorm 27 1012 51 10000 3 130 14:59 15.06.2020
1299 Clouds 29 1012 48 10000 4 140 14:40 15.06.2020
1300 Clouds 28 1012 54 10000 3 140 14:20 15.06.2020
1301 Clouds 29 1012 54 10000 3 140 13:57 15.06.2020
1302 Clouds 29 1012 51 10000 4 120 13:38 15.06.2020
1303 Clouds 29 1012 54 10000 3 130 13:18 15.06.2020
1304 Clouds 28 1012 54 10000 5 120 12:43 15.06.2020
1305 Clouds 28 1013 54 10000 4 100 12:22 15.06.2020
1306 Clouds 28 1013 54 10000 4 100 11:58 15.06.2020
1307 Clouds 28 1013 54 10000 4 100 11:58 15.06.2020
1308 Clouds 27 1013 61 10000 3 130 11:40 15.06.2020
1309 Clouds 27 1013 61 10000 3 130 11:22 15.06.2020
1310 Clouds 27 1013 61 10000 3 130 11:22 15.06.2020
1311 Clouds 26 1013 65 10000 3 130 10:41 15.06.2020
1312 Clouds 25 1013 73 10000 3 100 10:22 15.06.2020
1313 Clouds 25 1012 73 10000 3 110 09:44 15.06.2020
1314 Clouds 25 1012 73 10000 3 110 09:23 15.06.2020
1315 Clouds 24 1012 78 10000 2 140 08:48 15.06.2020
1316 Clouds 24 1012 78 10000 2 140 08:27 15.06.2020
1317 Clouds 23 1012 83 10000 3 110 07:57 15.06.2020
1318 Clouds 22 1012 83 10000 3 120 07:39 15.06.2020
1319 Clouds 22 1012 88 10000 3 120 07:19 15.06.2020
1320 Clouds 20 1011 88 10000 2 100 06:29 15.06.2020
1321 Clouds 19 1011 93 10000 2 60 05:51 15.06.2020
1322 Clouds 19 1011 93 10000 2 60 05:30 15.06.2020
1323 Clouds 18 1010 100 9000 2 80 04:22 15.06.2020
1324 Clouds 18 1010 93 10000 1.92 131 03:49 15.06.2020
1325 Clouds 18 1010 100 10000 2 80 02:58 15.06.2020
1326 Clouds 18 1010 100 10000 2.45 135 02:32 15.06.2020
1327 Clear 19 1010 100 10000 1 80 01:47 15.06.2020
1328 Clouds 19 1010 100 10000 2 90 01:27 15.06.2020
1329 Clouds 19 1010 100 7000 2.85 119 00:45 15.06.2020
1330 Clouds 19 1010 100 10000 2.64 123 00:23 15.06.2020
1331 Clouds 19 1010 100 10000 2.64 123 23:58 14.06.2020
1332 Clouds 19 1010 93 10000 3 90 23:40 14.06.2020
1333 Clouds 19 1010 93 9000 3 90 23:22 14.06.2020
1334 Clouds 19 1010 93 9000 3 90 22:57 14.06.2020
1335 Clouds 19 1010 93 8000 3 80 22:38 14.06.2020
1336 Clouds 19 1010 100 9000 2 90 22:18 14.06.2020
1337 Clouds 19 1010 100 9000 2 90 21:56 14.06.2020
1338 Clouds 19 1010 100 9000 2 80 21:38 14.06.2020
1339 Clouds 20 1010 94 10000 3 80 21:18 14.06.2020
1340 Clouds 20 1010 94 10000 3 80 20:57 14.06.2020
1341 Clouds 20 1009 94 10000 2 40 20:38 14.06.2020
1342 Rain 20 1009 94 10000 2 30 20:18 14.06.2020
1343 Rain 20 1009 94 10000 2 30 19:56 14.06.2020
1344 Rain 20 1009 94 10000 1 270 19:37 14.06.2020
1345 Thunderstorm 20 1009 100 6000 2 240 19:18 14.06.2020
1346 Thunderstorm 20 1009 100 6000 2 240 18:55 14.06.2020
1347 Thunderstorm 22 1009 94 10000 4 290 18:37 14.06.2020
1348 Thunderstorm 24 1009 69 10000 3 230 18:18 14.06.2020
1349 Thunderstorm 24 1009 69 10000 3 230 18:18 14.06.2020
1350 Rain 22 1009 69 10000 3 230 17:55 14.06.2020
1351 Rain 25 1008 69 10000 2 260 17:36 14.06.2020
1352 Rain 25 1008 65 10000 4.46 125 17:18 14.06.2020
1353 Rain 24 1008 69 10000 2 160 16:40 14.06.2020
1354 Rain 24 1008 65 10000 1 0 16:20 14.06.2020
1355 Rain 24 1008 65 10000 1 0 16:20 14.06.2020
1356 Rain 24 1008 65 10000 1 0 15:57 14.06.2020
1357 Rain 24 1008 73 10000 3 140 15:38 14.06.2020
1358 Rain 25 1008 69 10000 3 150 15:18 14.06.2020
1359 Rain 25 1008 69 10000 3 150 14:55 14.06.2020
1360 Clouds 25 1008 69 10000 3 130 14:36 14.06.2020
1361 Rain 25 1007 65 10000 5 110 14:18 14.06.2020
1362 Rain 25 1007 73 10000 4 60 13:41 14.06.2020
1363 Rain 24 1008 78 9000 3 50 13:22 14.06.2020
1364 Rain 24 1008 78 9000 3 50 12:59 14.06.2020
1365 Clouds 22 1007 83 10000 3 20 12:40 14.06.2020
1366 Clouds 22 1007 77 10000 3 30 12:21 14.06.2020
1367 Clouds 22 1007 77 10000 5 40 11:58 14.06.2020
1368 Clouds 21 1007 77 10000 5 40 11:39 14.06.2020
1369 Clouds 21 1007 77 10000 4 50 11:20 14.06.2020
1370 Clouds 20 1007 82 10000 4 50 10:43 14.06.2020
1371 Clouds 20 1007 82 10000 4 40 10:21 14.06.2020
1372 Clouds 20 1007 82 10000 4 40 09:58 14.06.2020
1373 Clouds 19 1007 82 10000 5 30 09:40 14.06.2020
1374 Clouds 19 1007 82 10000 5 40 09:21 14.06.2020
1375 Clouds 19 1007 82 10000 5 30 08:42 14.06.2020
1376 Clouds 19 1007 82 10000 5 30 08:21 14.06.2020
1377 Clouds 18 1007 82 10000 6 30 07:52 14.06.2020
1378 Clouds 18 1007 82 10000 6 30 07:34 14.06.2020
1379 Clouds 18 1006 82 10000 5 30 06:40 14.06.2020
1380 Clouds 18 1006 88 10000 5 40 05:49 14.06.2020
1381 Clouds 18 1006 88 10000 5 40 05:21 14.06.2020
1382 Clouds 19 1005 82 10000 5 40 04:36 14.06.2020
1383 Clouds 19 1005 82 10000 6 50 03:45 14.06.2020
1384 Clouds 20 1005 77 10000 6 50 02:35 14.06.2020
1385 Clouds 20 1005 73 10000 7 60 01:54 14.06.2020
1386 Clouds 20 1005 73 10000 7 60 01:26 14.06.2020
1387 Clouds 21 1006 68 10000 8 40 00:47 14.06.2020
1388 Clouds 22 1006 68 10000 6 50 00:20 14.06.2020
1389 Clouds 22 1005 68 10000 6 50 23:44 13.06.2020
1390 Clouds 22 1006 68 10000 5 40 23:25 13.06.2020
1391 Clouds 22 1005 68 10000 6 50 23:25 13.06.2020
1392 Clouds 22 1006 68 10000 5 40 22:58 13.06.2020
1393 Clouds 22 1006 69 10000 6 40 22:37 13.06.2020
1394 Rain 23 1006 69 10000 6 40 22:18 13.06.2020
1395 Rain 23 1006 69 10000 6 40 21:56 13.06.2020
1396 Rain 23 1006 69 10000 7 30 21:38 13.06.2020
1397 Rain 24 1006 69 10000 5 40 21:20 13.06.2020
1398 Rain 24 1006 65 10000 7 40 20:43 13.06.2020
1399 Rain 24 1006 65 10000 6 40 20:19 13.06.2020
1400 Rain 25 1005 57 10000 6 40 19:58 13.06.2020
1401 Rain 25 1005 57 10000 6 40 19:36 13.06.2020
1402 Clouds 26 1005 61 10000 6 40 19:18 13.06.2020
1403 Clouds 26 1005 61 10000 6 40 18:55 13.06.2020
1404 Thunderstorm 26 1005 61 10000 6 40 18:37 13.06.2020
1405 Thunderstorm 26 1004 54 10000 5 70 18:18 13.06.2020
1406 Thunderstorm 27 1004 54 10000 9 70 17:42 13.06.2020
1407 Rain 29 1004 51 10000 6 70 17:23 13.06.2020
1408 Rain 30 1004 51 10000 6 70 16:58 13.06.2020
1409 Rain 30 1004 51 10000 5 70 16:40 13.06.2020
1410 Rain 31 1005 45 10000 4 90 16:19 13.06.2020
1411 Rain 31 1005 48 10000 5 60 15:58 13.06.2020
1412 Rain 31 1005 48 10000 5 60 15:39 13.06.2020
1413 Clear 31 1005 45 10000 5 70 15:20 13.06.2020
1414 Clear 31 1005 45 10000 5 70 15:20 13.06.2020
1415 Clear 31 1005 45 10000 4 30 14:43 13.06.2020
1416 Clear 30 1005 48 10000 5 60 14:22 13.06.2020
1417 Clear 30 1005 48 10000 5 60 13:56 13.06.2020
1418 Clear 31 1005 45 10000 5 90 13:37 13.06.2020
1419 Clear 30 1005 45 10000 5 80 13:18 13.06.2020
1420 Clear 30 1005 42 10000 4 70 12:42 13.06.2020
1421 Clear 30 1005 42 10000 4 70 12:24 13.06.2020
1422 Clear 29 1005 48 10000 2 50 11:40 13.06.2020
1423 Clear 29 1005 48 10000 3 100 11:19 13.06.2020
1424 Clear 29 1005 48 10000 3 100 10:58 13.06.2020
1425 Clear 29 1006 51 10000 3 90 10:40 13.06.2020
1426 Clouds 28 1006 57 10000 2 90 10:22 13.06.2020
1427 Clouds 28 1006 61 10000 3 70 09:54 13.06.2020
1428 Clouds 26 1006 61 10000 3 70 09:36 13.06.2020
1429 Clouds 26 1005 61 10000 4 80 09:18 13.06.2020
1430 Clouds 25 1005 65 10000 4 80 08:42 13.06.2020
1431 Clouds 25 1005 65 10000 4 80 08:24 13.06.2020
1432 Clouds 24 1005 69 10000 4 70 07:43 13.06.2020
1433 Clouds 24 1005 69 10000 3 80 07:25 13.06.2020
1434 Clouds 23 1005 64 10000 3 50 06:44 13.06.2020
1435 Clouds 22 1005 68 10000 3 70 06:25 13.06.2020
1436 Clouds 22 1005 68 10000 2 80 05:28 13.06.2020
1437 Clouds 22 1005 68 10000 3 80 04:37 13.06.2020
1438 Clouds 22 1005 68 10000 3 80 03:43 13.06.2020
1439 Clouds 23 1004 64 10000 3 80 02:45 13.06.2020
1440 Clouds 24 1005 53 10000 4 60 01:49 13.06.2020
1441 Clouds 24 1005 53 10000 4 60 01:23 13.06.2020
1442 Clouds 24 1005 53 10000 4 60 00:54 13.06.2020
1443 Clouds 25 1005 44 10000 4 60 00:27 13.06.2020
1444 Clouds 26 1005 44 10000 4 60 23:58 12.06.2020
1445 Clouds 26 1005 44 10000 3 60 23:38 12.06.2020
1446 Clear 26 1005 42 10000 4 50 23:18 12.06.2020
1447 Clear 26 1005 47 10000 3 60 22:43 12.06.2020
1448 Clear 27 1005 39 10000 4 60 22:19 12.06.2020
1449 Clear 26 1005 44 10000 3 60 21:59 12.06.2020
1450 Clear 26 1005 44 10000 3 60 21:40 12.06.2020
1451 Clear 27 1005 39 10000 4 60 21:21 12.06.2020
1452 Clear 27 1005 39 10000 4 60 20:56 12.06.2020
1453 Clear 28 1005 36 10000 3 60 20:37 12.06.2020
1454 Clouds 29 1005 32 10000 4 70 20:19 12.06.2020
1455 Clouds 29 1005 30 10000 5 70 19:40 12.06.2020
1456 Clouds 30 1005 27 10000 6 60 19:21 12.06.2020
1457 Clouds 30 1005 27 10000 6 60 18:58 12.06.2020
1458 Clouds 31 1005 29 10000 6 80 18:36 12.06.2020
1459 Clouds 32 1005 29 10000 7 80 18:18 12.06.2020
1460 Clouds 32 1005 31 10000 7 70 17:40 12.06.2020
1461 Clouds 32 1005 33 10000 7 80 17:22 12.06.2020
1462 Clouds 33 1005 33 10000 6 70 16:45 12.06.2020
1463 Clouds 33 1005 31 10000 7 70 16:21 12.06.2020
1464 Clouds 33 1005 31 10000 7 70 15:50 12.06.2020
1465 Clouds 32 1005 40 10000 7 40 15:28 12.06.2020
1466 Clouds 33 1005 36 10000 6 60 14:59 12.06.2020
1467 Clouds 33 1005 38 10000 7 50 14:39 12.06.2020
1468 Clouds 32 1005 36 10000 7 60 14:21 12.06.2020
1469 Clouds 33 1005 36 10000 6 40 13:43 12.06.2020
1470 Clouds 33 1005 36 10000 6 40 13:22 12.06.2020
1471 Clouds 32 1006 33 10000 7 50 12:55 12.06.2020
1472 Clouds 32 1006 33 10000 6 60 12:37 12.06.2020
1473 Clouds 31 1006 38 10000 6 40 12:18 12.06.2020
1474 Clouds 31 1006 40 10000 6 40 11:43 12.06.2020
1475 Clouds 30 1006 45 10000 5 20 11:23 12.06.2020
1476 Clouds 29 1007 51 10000 5 50 10:49 12.06.2020
1477 Clouds 28 1007 51 10000 5 50 10:26 12.06.2020
1478 Clouds 28 1007 58 10000 4 40 09:58 12.06.2020
1479 Clouds 27 1007 54 10000 4 30 09:39 12.06.2020
1480 Clear 27 1007 57 10000 4 50 09:19 12.06.2020
1481 Clear 26 1007 57 10000 4 60 08:41 12.06.2020
1482 Clear 25 1007 61 10000 3 40 08:22 12.06.2020
1483 Clear 26 1007 61 10000 4 70 07:41 12.06.2020
1484 Clear 25 1007 64 10000 4 80 07:23 12.06.2020
1485 Clear 24 1007 73 10000 5 80 06:41 12.06.2020
1486 Clear 23 1007 69 10000 4 80 06:20 12.06.2020
1487 Clear 23 1007 73 10000 5 80 05:49 12.06.2020
1488 Clear 22 1007 73 10000 5 80 05:23 12.06.2020
1489 Clear 22 1007 73 10000 5 70 03:52 12.06.2020
1490 Clear 24 1008 64 10000 5 80 02:25 12.06.2020
1491 Clear 24 1008 60 10000 6 70 01:35 12.06.2020
1492 Clear 24 1008 53 10000 6 70 00:58 12.06.2020
1493 Clear 24 1007 53 10000 4 80 00:38 12.06.2020
1494 Clear 25 1007 50 10000 4 90 00:20 12.06.2020
1495 Clear 25 1007 50 10000 4 90 00:20 12.06.2020
1496 Clear 25 1007 50 10000 4 90 23:56 11.06.2020
1497 Clear 25 1007 47 10000 3 80 23:37 11.06.2020
1498 Clear 25 1008 50 10000 4 80 23:19 11.06.2020
1499 Clear 26 1008 44 10000 4 80 22:41 11.06.2020
1500 Clear 26 1008 41 10000 4 90 22:21 11.06.2020
1501 Clear 27 1008 41 10000 4 90 21:57 11.06.2020
1502 Clear 27 1008 36 10000 4 90 21:38 11.06.2020
1503 Clear 28 1008 34 10000 4 100 21:20 11.06.2020
1504 Clear 28 1008 34 10000 4 100 20:56 11.06.2020
1505 Clear 28 1008 34 10000 4 100 20:38 11.06.2020
1506 Clear 29 1008 37 10000 4 90 20:20 11.06.2020
1507 Clear 30 1007 33 10000 5 90 19:42 11.06.2020
1508 Clear 31 1007 29 10000 5 100 19:22 11.06.2020
1509 Clear 32 1007 25 10000 8 90 18:44 11.06.2020
1510 Clear 32 1007 27 10000 6 100 18:26 11.06.2020
1511 Clear 32 1007 27 10000 6 100 17:59 11.06.2020
1512 Clear 32 1007 27 10000 6 100 17:39 11.06.2020
1513 Clear 33 1007 26 10000 6 100 17:20 11.06.2020
1514 Clear 33 1007 26 10000 6 100 16:59 11.06.2020
1515 Clear 33 1008 26 10000 7 110 16:41 11.06.2020
1516 Clear 33 1008 27 10000 8 90 16:23 11.06.2020
1517 Clear 33 1008 27 10000 8 90 15:57 11.06.2020
1518 Clear 33 1009 26 10000 7 100 15:38 11.06.2020
1519 Clear 33 1009 27 10000 7 90 15:19 11.06.2020
1520 Clear 33 1009 27 10000 6 110 14:43 11.06.2020
1521 Clouds 33 1009 27 10000 6 110 14:21 11.06.2020
1522 Clouds 33 1009 26 10000 6 100 13:56 11.06.2020
1523 Clouds 33 1009 26 10000 6 100 13:56 11.06.2020
1524 Clouds 33 1009 29 10000 6 100 13:38 11.06.2020
1525 Clouds 32 1010 29 10000 5 100 13:20 11.06.2020
1526 Clouds 32 1010 31 10000 6 100 12:56 11.06.2020
1527 Clouds 32 1010 31 10000 6 100 12:38 11.06.2020
1528 Clouds 32 1010 29 10000 6 100 12:19 11.06.2020
1529 Clouds 32 1010 29 10000 6 100 11:57 11.06.2020
1530 Clouds 31 1011 33 10000 4 120 11:38 11.06.2020
1531 Clouds 30 1011 35 10000 4 120 11:19 11.06.2020
1532 Clouds 30 1011 35 10000 4 120 10:54 11.06.2020
1533 Clouds 30 1011 37 10000 5 100 10:36 11.06.2020
1534 Clouds 30 1011 42 10000 4 110 10:18 11.06.2020
1535 Clouds 29 1011 51 10000 5 110 09:40 11.06.2020
1536 Clear 28 1011 51 10000 3 110 09:22 11.06.2020
1537 Clear 27 1011 54 10000 4 110 08:43 11.06.2020
1538 Clear 27 1011 54 10000 4 110 08:19 11.06.2020
1539 Clear 25 1011 57 10000 3 110 07:42 11.06.2020
1540 Clear 24 1010 60 10000 3 100 07:24 11.06.2020
1541 Clear 24 1010 60 10000 3 110 06:38 11.06.2020
1542 Clear 23 1010 60 10000 3 110 06:20 11.06.2020
1543 Rain 22 1010 64 10000 3 110 04:52 11.06.2020
1544 Clear 23 1010 64 10000 2 100 03:26 11.06.2020
1545 Clear 23 1010 68 10000 2 100 02:49 11.06.2020
1546 Clear 21 1010 64 10000 3 100 01:58 11.06.2020
1547 Clear 21 1010 68 10000 3 90 01:39 11.06.2020
1548 Clear 21 1010 64 10000 3 90 01:19 11.06.2020
1549 Clear 21 1010 68 10000 2 100 00:43 11.06.2020
1550 Clear 21 1010 72 10000 2 90 00:24 11.06.2020
1551 Clear 21 1010 77 10000 1 100 23:43 10.06.2020
1552 Clear 23 1010 77 10000 1 100 23:24 10.06.2020
1553 Clear 24 1010 60 10000 2 120 22:56 10.06.2020
1554 Clear 24 1010 60 10000 1 110 22:37 10.06.2020
1555 Clear 25 1010 57 10000 2 120 22:18 10.06.2020
1556 Clear 25 1010 57 10000 2 120 21:55 10.06.2020
1557 Clear 24 1010 64 10000 2 110 21:37 10.06.2020
1558 Clear 26 1010 50 10000 1 120 21:18 10.06.2020
1559 Clear 26 1010 50 10000 1 120 20:55 10.06.2020
1560 Clear 27 1010 47 10000 2 120 20:37 10.06.2020
1561 Clear 29 1010 42 10000 2 120 20:19 10.06.2020
1562 Clear 29 1010 42 10000 2 120 19:39 10.06.2020
1563 Clear 30 1010 37 10000 3 120 19:18 10.06.2020
1564 Clear 31 1010 35 10000 3 110 18:57 10.06.2020
1565 Clear 31 1010 35 10000 3 120 18:38 10.06.2020
1566 Clear 31 1010 35 10000 3 120 18:19 10.06.2020
1567 Clear 31 1010 38 10000 4 130 17:55 10.06.2020
1568 Clear 31 1010 38 10000 4 130 17:36 10.06.2020
1569 Clear 31 1010 35 10000 4 110 17:18 10.06.2020
1570 Clear 31 1010 35 10000 4 110 16:55 10.06.2020
1571 Clear 31 1011 33 10000 4 130 16:37 10.06.2020
1572 Clear 31 1011 35 10000 3 120 16:18 10.06.2020
1573 Clear 31 1011 38 10000 3 120 15:39 10.06.2020
1574 Clear 31 1011 38 10000 3 130 15:20 10.06.2020
1575 Clear 31 1011 38 10000 3 130 14:55 10.06.2020
1576 Clear 32 1011 35 10000 5 140 14:37 10.06.2020
1577 Clear 32 1011 35 10000 4 120 14:19 10.06.2020
1578 Clear 32 1011 40 10000 4 120 13:39 10.06.2020
1579 Clear 32 1011 40 10000 3 130 13:21 10.06.2020
1580 Clear 32 1011 40 10000 4 150 12:43 10.06.2020
1581 Clear 31 1012 42 10000 3 130 12:20 10.06.2020
1582 Clear 30 1012 42 10000 3 130 11:56 10.06.2020
1583 Clear 30 1012 42 10000 3 130 11:38 10.06.2020
1584 Clear 31 1012 40 10000 3 130 11:19 10.06.2020
1585 Clear 30 1012 42 10000 2 120 10:55 10.06.2020
1586 Clear 30 1012 48 10000 3 110 10:36 10.06.2020
1587 Clear 30 1012 42 10000 2 120 10:36 10.06.2020
1588 Clear 29 1012 48 10000 3 110 10:18 10.06.2020
1589 Clear 29 1012 51 10000 3 100 09:39 10.06.2020
1590 Clear 28 1012 51 10000 3 100 09:21 10.06.2020
1591 Clear 26 1012 57 10000 3 80 08:44 10.06.2020
1592 Clouds 26 1011 61 10000 2 110 08:23 10.06.2020
1593 Clouds 25 1011 60 10000 2 100 07:43 10.06.2020
1594 Clouds 24 1011 60 10000 2 100 07:24 10.06.2020
1595 Clouds 23 1011 73 10000 2 90 06:59 10.06.2020
1596 Clouds 23 1011 73 10000 2 90 06:40 10.06.2020
1597 Clouds 22 1011 77 10000 2 90 06:19 10.06.2020
1598 Clouds 21 1011 77 10000 2 90 05:54 10.06.2020
1599 Clouds 21 1011 77 10000 2 80 05:19 10.06.2020
1600 Clouds 20 1011 77 10000 2.83 133 04:30 10.06.2020
1601 Clouds 21 1011 68 10000 2 100 02:49 10.06.2020
1602 Clouds 23 1010 60 10000 1 0 01:51 10.06.2020
1603 Rain 23 1010 60 10000 1 0 01:28 10.06.2020
1604 Clouds 23 1010 53 10000 3 120 00:39 10.06.2020
1605 Clouds 24 1011 50 10000 4 120 00:21 10.06.2020
1606 Clouds 24 1011 50 10000 4 120 23:54 09.06.2020
1607 Rain 24 1011 50 10000 3 110 23:36 09.06.2020
1608 Rain 25 1010 47 10000 4 120 23:18 09.06.2020
1609 Rain 25 1010 47 10000 4 120 22:54 09.06.2020
1610 Rain 26 1011 47 10000 3 110 22:36 09.06.2020
1611 Rain 26 1011 47 10000 3 110 22:18 09.06.2020
1612 Rain 26 1011 47 10000 3 110 21:54 09.06.2020
1613 Rain 26 1011 47 10000 3 110 21:54 09.06.2020
1614 Rain 26 1011 44 10000 3 110 21:36 09.06.2020
1615 Clouds 26 1011 44 10000 3 110 21:36 09.06.2020
1616 Clouds 26 1011 44 10000 3 110 21:36 09.06.2020
1617 Clouds 26 1011 44 10000 3 110 21:36 09.06.2020
1618 Clouds 27 1010 44 10000 3 110 21:18 09.06.2020
1619 Clouds 27 1010 44 10000 3 110 20:54 09.06.2020
1620 Clouds 27 1010 44 10000 3 100 20:36 09.06.2020
1621 Clouds 27 1010 45 10000 3 110 20:18 09.06.2020
1622 Clouds 28 1010 45 10000 3 110 19:54 09.06.2020
1623 Clouds 28 1010 45 10000 3 110 19:54 09.06.2020
1624 Clouds 28 1010 45 10000 3 110 19:36 09.06.2020
1625 Clouds 29 1010 42 10000 4 110 19:18 09.06.2020
1626 Clouds 29 1010 42 10000 4 110 18:41 09.06.2020
1627 Clouds 29 1010 42 10000 5 110 18:23 09.06.2020
1628 Clouds 29 1010 42 10000 5 110 17:56 09.06.2020
1629 Clouds 30 1010 40 10000 5 110 17:38 09.06.2020
1630 Clouds 30 1010 37 10000 5 120 17:20 09.06.2020
1631 Clouds 30 1010 37 10000 5 120 16:43 09.06.2020
1632 Clouds 30 1010 37 10000 5 120 16:25 09.06.2020
1633 Clouds 30 1011 35 10000 5 120 15:57 09.06.2020
1634 Clouds 30 1011 35 10000 5 130 15:38 09.06.2020
1635 Clouds 30 1011 33 10000 5 130 15:20 09.06.2020
1636 Clouds 30 1011 33 10000 5 130 14:55 09.06.2020
1637 Clouds 30 1011 39 10000 4 120 14:37 09.06.2020
1638 Clouds 30 1011 35 10000 4 130 14:18 09.06.2020
1639 Clouds 29 1011 33 10000 7 120 13:43 09.06.2020
1640 Clouds 30 1011 35 10000 7 120 13:21 09.06.2020
1641 Clouds 30 1011 35 10000 7 120 12:58 09.06.2020
1642 Clouds 29 1011 35 10000 7 120 12:40 09.06.2020
1643 Clouds 29 1011 39 10000 7 120 12:18 09.06.2020
1644 Clouds 29 1011 39 10000 7 120 11:55 09.06.2020
1645 Clouds 29 1011 39 10000 6 130 11:37 09.06.2020
1646 Clouds 28 1011 39 10000 6 120 11:19 09.06.2020
1647 Clouds 28 1011 39 10000 7 110 10:44 09.06.2020
1648 Clouds 28 1011 39 10000 7 110 10:25 09.06.2020
1649 Clouds 26 1011 50 10000 5 110 09:44 09.06.2020
1650 Clouds 27 1011 50 10000 5 110 09:25 09.06.2020
1651 Clouds 27 1011 50 10000 5 110 09:25 09.06.2020
1652 Clouds 26 1011 47 10000 5 110 08:57 09.06.2020
1653 Clouds 25 1011 53 10000 4 100 08:39 09.06.2020
1654 Clouds 24 1011 57 10000 3 100 08:20 09.06.2020
1655 Clouds 23 1011 60 10000 4 110 07:39 09.06.2020
1656 Clouds 23 1011 64 10000 4 110 07:20 09.06.2020
1657 Clouds 22 1011 64 10000 4 100 06:54 09.06.2020
1658 Clouds 22 1011 64 10000 4 100 06:35 09.06.2020
1659 Clouds 21 1011 72 10000 4 100 05:36 09.06.2020
1660 Clouds 21 1011 64 10000 4 100 03:50 09.06.2020
1661 Clouds 22 1011 64 10000 4 100 01:45 09.06.2020
1662 Clouds 22 1011 64 10000 3 100 01:20 09.06.2020
1663 Clouds 22 1011 64 10000 4 100 00:58 09.06.2020
1664 Clouds 22 1011 60 10000 4 100 00:38 09.06.2020
1665 Clouds 22 1011 60 10000 4 100 00:18 09.06.2020
1666 Clouds 23 1011 53 10000 3 100 23:40 08.06.2020
1667 Clouds 23 1011 53 10000 3 100 23:20 08.06.2020
1668 Clouds 23 1011 56 10000 2 100 22:55 08.06.2020
1669 Clouds 23 1011 56 10000 2 100 22:37 08.06.2020
1670 Clouds 23 1011 56 10000 2 90 22:19 08.06.2020
1671 Clouds 23 1011 56 10000 2 90 21:55 08.06.2020
1672 Clouds 23 1011 64 10000 2 80 21:36 08.06.2020
1673 Clear 23 1011 60 10000 1 80 21:18 08.06.2020
1674 Clear 24 1011 60 10000 1 80 20:54 08.06.2020
1675 Clear 24 1011 60 10000 1 80 20:54 08.06.2020
1676 Clear 24 1011 60 10000 2 100 20:36 08.06.2020
1677 Clouds 26 1011 50 10000 2 110 20:18 08.06.2020
1678 Clouds 26 1011 42 10000 2 120 19:41 08.06.2020
1679 Clouds 27 1011 42 10000 3 120 19:20 08.06.2020
1680 Clouds 28 1011 39 10000 3 120 18:42 08.06.2020
1681 Clouds 28 1011 37 10000 6 100 18:20 08.06.2020
1682 Clouds 28 1011 37 10000 6 100 18:20 08.06.2020
1683 Clouds 28 1011 37 10000 6 100 17:57 08.06.2020
1684 Clouds 28 1011 35 10000 5 100 17:39 08.06.2020
1685 Clouds 29 1011 35 10000 6 110 17:21 08.06.2020
1686 Clouds 29 1011 35 10000 6 110 16:56 08.06.2020
1687 Clouds 29 1011 37 10000 6 120 16:38 08.06.2020
1688 Clouds 29 1011 37 10000 6 120 16:20 08.06.2020
1689 Clouds 29 1011 37 10000 6 120 16:20 08.06.2020
1690 Clouds 29 1012 39 10000 6 130 15:42 08.06.2020
1691 Clouds 29 1012 39 10000 6 100 15:21 08.06.2020
1692 Clouds 29 1012 39 10000 6 100 14:56 08.06.2020
1693 Clouds 29 1013 39 10000 4 120 14:38 08.06.2020
1694 Clouds 30 1013 39 10000 4 140 14:18 08.06.2020
1695 Clouds 28 1013 42 10000 4 120 13:42 08.06.2020
1696 Clouds 29 1013 42 10000 4 100 13:21 08.06.2020
1697 Clouds 29 1013 45 10000 3 130 12:42 08.06.2020
1698 Clouds 29 1013 42 10000 4 130 12:20 08.06.2020
1699 Clouds 29 1013 42 10000 4 130 11:58 08.06.2020
1700 Clouds 28 1013 51 10000 4 110 11:40 08.06.2020
1701 Clouds 28 1013 51 10000 4 110 11:21 08.06.2020
1702 Clouds 28 1013 51 10000 4 120 10:56 08.06.2020
1703 Clouds 28 1013 51 10000 3 120 10:37 08.06.2020
1704 Clouds 27 1013 54 10000 4 80 10:19 08.06.2020
1705 Clouds 27 1013 54 10000 4 80 10:19 08.06.2020
1706 Clouds 26 1013 54 10000 3 80 09:47 08.06.2020
1707 Clouds 26 1013 54 10000 3 80 09:23 08.06.2020
1708 Clouds 24 1013 57 10000 3 100 08:50 08.06.2020
1709 Clear 23 1013 56 10000 3 90 08:25 08.06.2020
1710 Clear 23 1013 60 10000 3 100 07:59 08.06.2020
1711 Clear 22 1013 60 10000 3 100 07:39 08.06.2020
1712 Clear 21 1013 64 10000 3 90 07:20 08.06.2020
1713 Clear 20 1013 68 10000 3 90 06:39 08.06.2020
1714 Clear 18 1013 68 10000 2 80 05:55 08.06.2020
1715 Clear 17 1013 72 10000 2 70 05:23 08.06.2020
1716 Clear 15 1013 77 10000 2 80 03:26 08.06.2020
1717 Clouds 17 1013 82 10000 1 0 02:26 08.06.2020
1718 Clouds 19 1014 59 10000 2 120 01:43 08.06.2020
1719 Clouds 19 1013 56 10000 2 120 00:58 08.06.2020
1720 Clouds 20 1014 52 10000 3 120 00:25 08.06.2020
1721 Clouds 21 1014 52 10000 3 130 23:40 07.06.2020
1722 Clouds 21 1014 49 10000 3 130 23:19 07.06.2020
1723 Clouds 21 1014 49 10000 3 130 22:58 07.06.2020
1724 Clouds 22 1014 49 10000 3 120 22:38 07.06.2020
1725 Clouds 22 1014 53 10000 3 130 22:18 07.06.2020
1726 Clouds 22 1014 53 10000 3 130 21:58 07.06.2020
1727 Clouds 22 1014 53 10000 3 130 21:58 07.06.2020
1728 Clouds 22 1013 46 10000 3 130 21:37 07.06.2020
1729 Clouds 23 1013 46 10000 3 130 21:19 07.06.2020
1730 Clouds 24 1013 44 10000 3 130 20:40 07.06.2020
1731 Clouds 25 1013 41 10000 3 120 20:21 07.06.2020
1732 Clouds 25 1013 41 10000 3 120 19:57 07.06.2020
1733 Clouds 26 1013 39 10000 4 120 19:39 07.06.2020
1734 Clouds 26 1013 39 10000 4 120 19:39 07.06.2020
1735 Clouds 26 1013 41 10000 4 110 19:20 07.06.2020
1736 Clouds 27 1013 42 10000 3 140 18:59 07.06.2020
1737 Clouds 27 1013 42 10000 3 140 18:38 07.06.2020
1738 Clouds 28 1013 37 10000 4 130 18:20 07.06.2020
1739 Clouds 28 1013 37 10000 4 130 17:57 07.06.2020
1740 Clouds 28 1013 37 10000 4 130 17:38 07.06.2020
1741 Clouds 29 1013 35 10000 4 130 17:20 07.06.2020
1742 Clouds 29 1013 32 10000 5 130 16:43 07.06.2020
1743 Clouds 29 1013 32 10000 5 130 16:43 07.06.2020
1744 Clouds 29 1013 32 10000 5 130 16:21 07.06.2020
1745 Clouds 30 1013 33 10000 3 140 15:44 07.06.2020
1746 Clouds 30 1013 33 10000 3 140 15:44 07.06.2020
1747 Clouds 30 1013 33 10000 3 140 15:44 07.06.2020
1748 Clouds 30 1013 33 10000 3 140 15:44 07.06.2020
1749 Clouds 30 1013 33 10000 3 140 15:22 07.06.2020
1750 Clouds 29 1014 35 10000 5 130 14:41 07.06.2020
1751 Clouds 29 1014 35 10000 5 130 14:22 07.06.2020
1752 Clouds 29 1014 35 10000 5 130 14:22 07.06.2020
1753 Clouds 29 1014 32 10000 4 130 13:50 07.06.2020
1754 Clouds 29 1014 37 10000 4 170 13:22 07.06.2020
1755 Clouds 29 1014 37 10000 4 170 12:58 07.06.2020
1756 Clouds 28 1014 37 10000 4 180 12:40 07.06.2020
1757 Clouds 28 1015 39 10000 3 150 12:20 07.06.2020
1758 Clouds 28 1015 39 10000 3 150 11:55 07.06.2020
1759 Clouds 28 1015 42 10000 4 100 11:36 07.06.2020
1760 Clouds 28 1015 42 10000 4 100 11:18 07.06.2020
1761 Clouds 26 1014 39 10000 2 170 10:45 07.06.2020
1762 Clouds 26 1014 39 10000 2 170 10:21 07.06.2020
1763 Clouds 25 1014 41 10000 3 190 09:59 07.06.2020
1764 Clouds 25 1014 47 10000 3 190 09:39 07.06.2020
1765 Clouds 25 1014 47 10000 3 190 09:39 07.06.2020
1766 Clouds 24 1014 50 10000 3 160 09:20 07.06.2020
1767 Clouds 24 1014 50 10000 3 160 08:58 07.06.2020
1768 Clouds 23 1014 49 10000 2 170 08:39 07.06.2020
1769 Clouds 22 1010 56 10000 2 140 08:21 07.06.2020
1770 Clouds 22 1014 56 10000 3 180 07:38 07.06.2020
1771 Clouds 20 1014 68 10000 2 170 06:54 07.06.2020
1772 Clouds 19 1014 68 10000 3 200 05:53 07.06.2020
1773 Clouds 18 1013 77 10000 1 0 04:22 07.06.2020
1774 Clouds 18 1013 82 10000 1 0 03:46 07.06.2020
1775 Clouds 18 1013 93 10000 3 210 02:18 07.06.2020
1776 Clouds 18 1013 93 10000 3 130 01:25 07.06.2020
1777 Clouds 19 1013 88 10000 2.23 201 00:48 07.06.2020
1778 Clouds 18 1013 88 10000 1.88 206 00:20 07.06.2020
1779 Clouds 18 1013 88 10000 1.88 206 23:59 06.06.2020
1780 Clouds 20 1013 88 10000 1.88 206 23:38 06.06.2020
1781 Clouds 19 1012 88 10000 2.25 219 23:20 06.06.2020
1782 Clouds 19 1012 88 10000 2.25 219 22:56 06.06.2020
1783 Clouds 19 1012 88 10000 2.25 219 22:38 06.06.2020
1784 Rain 19 1012 88 10000 2.82 220 22:19 06.06.2020
1785 Rain 21 1012 82 10000 1 320 21:47 06.06.2020
1786 Rain 21 1012 77 10000 1 170 21:23 06.06.2020
1787 Rain 21 1012 77 10000 1 180 20:58 06.06.2020
1788 Rain 22 1011 68 10000 1 180 20:40 06.06.2020
1789 Rain 24 1011 68 10000 1 180 20:19 06.06.2020
1790 Rain 25 1011 53 10000 1 210 19:57 06.06.2020
1791 Rain 26 1011 54 10000 2 220 19:38 06.06.2020
1792 Clouds 26 1011 47 10000 3 220 19:20 06.06.2020
1793 Clouds 27 1011 47 10000 4 220 18:55 06.06.2020
1794 Clouds 27 1011 47 10000 4 220 18:36 06.06.2020
1795 Rain 27 1011 47 10000 4 230 18:18 06.06.2020
1796 Rain 27 1011 47 10000 4 230 17:41 06.06.2020
1797 Rain 27 1011 51 10000 3 230 17:19 06.06.2020
1798 Rain 27 1011 51 10000 3 230 16:55 06.06.2020
1799 Rain 27 1011 51 10000 3 230 16:55 06.06.2020
1800 Rain 27 1011 51 10000 4 210 16:36 06.06.2020
1801 Clear 27 1011 51 10000 4 200 16:18 06.06.2020
1802 Clear 28 1011 51 10000 4 200 15:42 06.06.2020
1803 Clear 28 1011 51 10000 4 200 15:20 06.06.2020
1804 Clear 27 1011 57 10000 3 180 14:54 06.06.2020
1805 Clear 27 1011 57 10000 3 180 14:36 06.06.2020
1806 Rain 27 1011 57 10000 4 230 14:18 06.06.2020
1807 Rain 26 1011 57 10000 2 210 13:41 06.06.2020
1808 Rain 26 1011 57 10000 4 230 13:18 06.06.2020
1809 Rain 26 1010 57 10000 4 240 12:43 06.06.2020
1810 Rain 26 1010 57 10000 4 240 12:43 06.06.2020
1811 Clouds 25 1010 57 10000 4 240 12:24 06.06.2020
1812 Clouds 25 1010 64 10000 3 220 11:59 06.06.2020
1813 Clouds 24 1010 69 10000 3 200 11:39 06.06.2020
1814 Clouds 24 1010 69 10000 3 200 11:20 06.06.2020
1815 Clouds 24 1010 69 10000 3 200 10:59 06.06.2020
1816 Clouds 22 1010 68 10000 3 170 10:39 06.06.2020
1817 Clouds 22 1010 68 10000 3 170 10:21 06.06.2020
1818 Clouds 21 1010 73 10000 3 180 09:58 06.06.2020
1819 Clouds 21 1010 73 10000 3 180 09:58 06.06.2020
1820 Clouds 21 1010 73 10000 3 200 09:40 06.06.2020
1821 Clouds 20 1010 73 10000 3 200 09:20 06.06.2020
1822 Clouds 19 1009 77 10000 3 190 08:40 06.06.2020
1823 Clouds 19 1009 82 10000 2 180 08:20 06.06.2020
1824 Clouds 18 1009 82 10000 2 180 07:46 06.06.2020
1825 Clouds 17 1009 88 10000 3 200 07:22 06.06.2020
1826 Clouds 17 1009 82 10000 3 180 06:48 06.06.2020
1827 Clouds 17 1009 82 10000 3 180 06:30 06.06.2020
1828 Clouds 16 1009 87 10000 2 180 05:55 06.06.2020
1829 Clouds 16 1008 87 10000 2 190 05:28 06.06.2020
1830 Clouds 15 1008 82 10000 2 150 04:44 06.06.2020
1831 Clear 16 1008 82 10000 2 170 02:52 06.06.2020
1832 Clouds 16 1008 82 10000 2 150 01:56 06.06.2020
1833 Clouds 17 1008 82 10000 2 160 01:19 06.06.2020
1834 Clouds 17 1008 82 10000 2 160 00:45 06.06.2020
1835 Clouds 17 1008 82 10000 3 150 00:27 06.06.2020
1836 Clouds 17 1008 82 10000 2 160 00:27 06.06.2020
1837 Clouds 17 1007 88 10000 3 140 23:55 05.06.2020
1838 Clouds 18 1007 88 10000 3 140 23:36 05.06.2020
1839 Clear 18 1007 88 10000 2 140 23:18 05.06.2020
1840 Clear 18 1007 77 10000 3 130 22:41 05.06.2020
1841 Clear 19 1007 77 10000 3 130 22:23 05.06.2020
1842 Clear 19 1007 77 10000 3 130 21:59 05.06.2020
1843 Clear 19 1007 77 10000 3 130 21:59 05.06.2020
1844 Clear 19 1007 72 10000 3 130 21:40 05.06.2020
1845 Clouds 19 1007 72 10000 3 130 21:21 05.06.2020
1846 Clouds 20 1007 68 10000 3 130 20:57 05.06.2020
1847 Clouds 20 1007 72 10000 2 130 20:38 05.06.2020
1848 Rain 21 1007 60 10000 2 150 20:20 05.06.2020
1849 Rain 22 1007 60 10000 2 160 19:41 05.06.2020
1850 Rain 23 1007 56 10000 3 170 19:22 05.06.2020
1851 Rain 23 1007 53 10000 2 180 18:56 05.06.2020
1852 Rain 23 1007 53 10000 2 180 18:38 05.06.2020
1853 Clouds 23 1006 53 10000 3 190 18:19 05.06.2020
1854 Clouds 23 1006 53 10000 3 190 17:56 05.06.2020
1855 Clouds 24 1006 50 10000 3 190 17:37 05.06.2020
1856 Clouds 24 1007 53 10000 3 220 17:18 05.06.2020
1857 Clouds 23 1007 53 10000 5 220 16:38 05.06.2020
1858 Clouds 23 1007 53 10000 4 220 16:20 05.06.2020
1859 Clouds 22 1007 56 10000 5 220 15:42 05.06.2020
1860 Clouds 23 1007 56 10000 5 220 15:21 05.06.2020
1861 Clouds 22 1007 56 10000 4 200 14:58 05.06.2020
1862 Clouds 21 1007 64 10000 3 160 14:40 05.06.2020
1863 Clouds 21 1007 68 10000 2 190 14:22 05.06.2020
1864 Clouds 21 1007 68 10000 2 190 13:57 05.06.2020
1865 Clouds 20 1007 72 10000 2 170 13:37 05.06.2020
1866 Rain 20 1007 72 10000 2 220 13:18 05.06.2020
1867 Rain 18 1007 77 10000 2 210 12:40 05.06.2020
1868 Rain 18 1007 77 10000 2 210 12:19 05.06.2020
1869 Rain 18 1006 77 10000 2 210 11:43 05.06.2020
1870 Clouds 17 1006 77 10000 2 210 11:25 05.06.2020
1871 Clouds 17 1006 77 10000 3 200 10:59 05.06.2020
1872 Rain 17 1006 82 10000 2 220 10:41 05.06.2020
1873 Rain 16 1006 87 10000 1 0 10:21 05.06.2020
1874 Rain 16 1006 87 10000 1 0 09:57 05.06.2020
1875 Rain 16 1006 82 10000 2 220 09:39 05.06.2020
1876 Rain 16 1006 82 10000 2 220 09:20 05.06.2020
1877 Clouds 15 1005 87 10000 2 210 08:58 05.06.2020
1878 Rain 14 1005 93 10000 2 240 08:40 05.06.2020
1879 Rain 14 1005 93 10000 2 240 08:18 05.06.2020
1880 Rain 14 1005 87 10000 3 180 07:50 05.06.2020
1881 Clouds 13 1005 93 10000 2 200 07:32 05.06.2020
1882 Rain 13 1004 87 10000 2 180 06:49 05.06.2020
1883 Rain 13 1004 82 10000 3 170 05:23 05.06.2020
1884 Rain 12 1004 87 10000 2 160 04:28 05.06.2020
1885 Rain 12 1004 87 10000 1 0 03:30 05.06.2020
1886 Rain 13 1004 81 10000 2 230 02:30 05.06.2020
1887 Rain 13 1004 76 10000 3 220 01:58 05.06.2020
1888 Rain 13 1004 76 10000 4 220 01:33 05.06.2020
1889 Rain 13 1004 71 10000 3 170 00:46 05.06.2020
1890 Clear 13 1004 71 10000 3 150 00:22 05.06.2020
1891 Clear 13 1004 71 10000 3 150 23:55 04.06.2020
1892 Clear 14 1004 67 10000 3 160 23:36 04.06.2020
1893 Clear 14 1005 67 10000 4 160 23:18 04.06.2020
1894 Clear 13 1004 66 10000 3 130 22:42 04.06.2020
1895 Clear 14 1004 66 10000 3 130 22:21 04.06.2020
1896 Clear 13 1005 76 10000 2 150 21:58 04.06.2020
1897 Clouds 13 1005 76 10000 2 150 21:38 04.06.2020
1898 Clear 12 1005 76 10000 2 150 21:20 04.06.2020
1899 Clear 13 1005 81 10000 4.25 198 20:56 04.06.2020
1900 Clear 14 1005 67 10000 1 190 20:38 04.06.2020
1901 Rain 15 1005 58 10000 1 190 20:19 04.06.2020
1902 Rain 15 1005 58 10000 1 190 20:19 04.06.2020
1903 Rain 15 1004 58 10000 3 260 19:54 04.06.2020
1904 Rain 16 1004 58 10000 3 260 19:36 04.06.2020
1905 Clouds 16 1005 51 10000 6 270 19:18 04.06.2020
1906 Clouds 17 1004 45 10000 5 260 18:38 04.06.2020
1907 Clouds 18 1004 45 10000 4 250 18:20 04.06.2020
1908 Clouds 18 1004 45 10000 4 250 18:20 04.06.2020
1909 Clouds 18 1004 45 10000 6 260 17:44 04.06.2020
1910 Rain 18 1004 45 10000 6 260 17:23 04.06.2020
1911 Rain 17 1004 55 10000 6 260 16:59 04.06.2020
1912 Clouds 17 1004 51 10000 7 240 16:40 04.06.2020
1913 Rain 20 1003 42 10000 7 250 16:20 04.06.2020
1914 Rain 19 1003 45 10000 4 240 15:44 04.06.2020
1915 Rain 19 1003 45 10000 6 280 15:26 04.06.2020
1916 Clouds 20 1004 45 10000 6 250 14:42 04.06.2020
1917 Clouds 18 1004 52 10000 5 260 14:23 04.06.2020
1918 Clouds 19 1004 52 10000 5 260 13:59 04.06.2020
1919 Rain 19 1004 59 10000 5 280 13:40 04.06.2020
1920 Clouds 19 1004 52 10000 5 210 13:21 04.06.2020
1921 Clouds 19 1004 52 10000 5 210 12:59 04.06.2020
1922 Clouds 18 1004 55 10000 6 210 12:40 04.06.2020
1923 Clouds 19 1004 52 10000 5 220 12:22 04.06.2020
1924 Clouds 17 1004 52 10000 5 220 11:55 04.06.2020
1925 Clouds 17 1005 59 10000 6 240 11:37 04.06.2020
1926 Clouds 16 1005 59 10000 5 230 11:19 04.06.2020
1927 Clouds 17 1005 59 10000 4 220 10:41 04.06.2020
1928 Clouds 16 1005 59 10000 4 220 10:22 04.06.2020
1929 Clouds 15 1004 62 10000 3 230 09:57 04.06.2020
1930 Clouds 16 1004 62 10000 3 230 09:38 04.06.2020
1931 Clouds 15 1004 62 10000 3 230 09:20 04.06.2020
1932 Clear 15 1004 67 10000 3 220 08:42 04.06.2020
1933 Clouds 14 1004 71 10000 3 220 08:24 04.06.2020
1934 Clouds 14 1004 71 10000 3 220 07:46 04.06.2020
1935 Clouds 13 1004 76 10000 2 230 07:22 04.06.2020
1936 Clouds 10 1004 93 10000 3 240 06:42 04.06.2020
1937 Clouds 10 1004 93 10000 3 240 06:23 04.06.2020
1938 Clouds 10 1004 100 10000 1 0 05:34 04.06.2020
1939 Clouds 10 1004 100 10000 1 0 05:34 04.06.2020
1940 Clouds 9 1004 100 10000 2 240 03:54 04.06.2020
1941 Clouds 10 1004 100 10000 3 230 02:38 04.06.2020
1942 Clouds 11 1004 100 10000 3 230 01:42 04.06.2020
1943 Clouds 11 1004 93 10000 2 220 01:19 04.06.2020
1944 Clouds 11 1004 93 10000 2 190 00:28 04.06.2020
1945 Clouds 10 1005 93 10000 1 0 23:40 03.06.2020
1946 Clouds 10 1005 100 10000 1 0 23:20 03.06.2020
1947 Clouds 10 1005 100 10000 1 0 22:56 03.06.2020
1948 Clouds 10 1005 100 10000 2 190 22:38 03.06.2020
1949 Clouds 10 1005 100 10000 3 180 22:18 03.06.2020
1950 Clouds 10 1005 100 10000 3 180 21:55 03.06.2020
1951 Clouds 11 1005 93 10000 2 160 21:37 03.06.2020
1952 Clouds 12 1005 93 10000 2.48 179 21:19 03.06.2020
1953 Clouds 12 1005 100 10000 2 140 20:42 03.06.2020
1954 Clouds 12 1005 100 10000 1 0 20:21 03.06.2020
1955 Clouds 12 1005 100 10000 1 0 19:58 03.06.2020
1956 Rain 12 1005 81 10000 1 0 19:39 03.06.2020
1957 Clouds 13 1005 76 10000 2 130 19:21 03.06.2020
1958 Clouds 13 1005 76 10000 2 130 18:59 03.06.2020
1959 Clouds 12 1005 76 10000 3 140 18:40 03.06.2020
1960 Rain 14 1005 71 9000 2 190 18:19 03.06.2020
1961 Rain 14 1005 76 10000 2 220 17:45 03.06.2020
1962 Rain 14 1005 76 10000 2 220 17:23 03.06.2020
1963 Rain 14 1005 76 10000 2 220 16:59 03.06.2020
1964 Rain 14 1005 76 9000 4 230 16:41 03.06.2020
1965 Rain 15 1005 71 10000 3 240 16:19 03.06.2020
1966 Rain 15 1005 71 10000 3 240 15:55 03.06.2020
1967 Rain 15 1005 67 10000 3 230 15:37 03.06.2020
1968 Clear 15 1005 76 10000 2 250 15:18 03.06.2020
1969 Rain 15 1006 76 9000 3 230 14:42 03.06.2020
1970 Clouds 15 1005 62 10000 4 240 14:23 03.06.2020
1971 Clouds 16 1005 51 10000 5 160 13:40 03.06.2020
1972 Clouds 16 1005 51 10000 5 160 13:40 03.06.2020
1973 Clouds 15 1005 55 10000 4 180 13:21 03.06.2020
1974 Clouds 17 1005 51 10000 4 170 12:57 03.06.2020
1975 Clouds 17 1005 51 10000 4 170 12:38 03.06.2020
1976 Clouds 16 1005 55 10000 5 140 12:18 03.06.2020
1977 Clouds 16 1006 58 10000 4 140 11:44 03.06.2020
1978 Rain 16 1006 58 10000 4 170 11:24 03.06.2020
1979 Clouds 15 1006 62 10000 4 180 10:44 03.06.2020
1980 Clouds 14 1006 62 10000 4 200 10:25 03.06.2020
1981 Clouds 15 1006 62 10000 4 200 09:55 03.06.2020
1982 Clouds 14 1005 62 10000 4 190 09:36 03.06.2020
1983 Clouds 14 1005 62 10000 4 190 09:18 03.06.2020
1984 Clouds 14 1005 66 10000 4 160 08:46 03.06.2020
1985 Clouds 12 1005 71 10000 4 160 08:21 03.06.2020
1986 Clouds 11 1005 81 10000 3 180 07:46 03.06.2020
1987 Clouds 11 1005 81 10000 3 180 07:24 03.06.2020
1988 Clouds 11 1005 81 10000 3 180 07:24 03.06.2020
1989 Clouds 10 1005 87 10000 3 170 06:58 03.06.2020
1990 Clouds 10 1005 87 10000 3 170 06:40 03.06.2020
1991 Clouds 9 1005 81 10000 3 170 06:21 03.06.2020
1992 Clouds 8 1005 87 10000 2 160 05:42 03.06.2020
1993 Clear 7 1005 87 10000 2 150 04:18 03.06.2020
1994 Clear 7 1005 87 10000 2 150 03:40 03.06.2020
1995 Clear 8 1005 87 10000 2 180 02:25 03.06.2020
1996 Clear 8 1005 87 10000 2 170 01:26 03.06.2020
1997 Clear 9 1005 87 10000 2 160 00:37 03.06.2020
1998 Clear 9 1005 87 10000 1 0 00:18 03.06.2020
1999 Clear 9 1005 81 10000 2 170 23:39 02.06.2020
2000 Clear 9 1005 81 10000 2 150 23:21 02.06.2020
2001 Clear 10 1005 81 10000 2 150 22:40 02.06.2020
2002 Clear 10 1005 81 10000 2 150 22:19 02.06.2020
2003 Clear 9 1005 87 10000 2 150 21:57 02.06.2020
2004 Clear 9 1005 87 10000 2 150 21:39 02.06.2020
2005 Clear 10 1005 81 10000 2 170 21:20 02.06.2020
2006 Clear 10 1005 81 10000 2 170 20:58 02.06.2020
2007 Clear 10 1005 76 10000 2 170 20:40 02.06.2020
2008 Clear 10 1005 76 10000 2 150 20:22 02.06.2020
2009 Clear 11 1005 76 10000 3 200 19:45 02.06.2020
2010 Clouds 12 1005 71 10000 4 220 19:26 02.06.2020
2011 Clouds 12 1005 71 10000 4 220 18:58 02.06.2020
2012 Clouds 12 1005 71 10000 4 220 18:58 02.06.2020
2013 Clouds 12 1005 62 10000 2 120 18:40 02.06.2020
2014 Clouds 14 1005 67 10000 3 250 18:20 02.06.2020
2015 Clouds 13 1005 67 10000 3 250 17:57 02.06.2020
2016 Clouds 14 1005 62 10000 3 180 17:39 02.06.2020
2017 Clouds 14 1005 62 10000 3 180 17:20 02.06.2020
2018 Clear 14 1005 66 10000 4 180 16:55 02.06.2020
2019 Clouds 13 1005 66 10000 4 170 16:37 02.06.2020
2020 Clouds 14 1005 66 10000 4 170 16:19 02.06.2020
2021 Clouds 13 1005 62 10000 3 160 16:19 02.06.2020
2022 Clouds 12 1005 66 10000 3 170 15:40 02.06.2020
2023 Clouds 12 1005 66 10000 3 170 15:21 02.06.2020
2024 Clouds 12 1005 66 10000 4 210 14:47 02.06.2020
2025 Clouds 12 1005 71 10000 5 210 14:28 02.06.2020
2026 Clouds 13 1005 71 10000 4 160 13:55 02.06.2020
2027 Clouds 12 1006 66 10000 4 160 13:37 02.06.2020
2028 Clouds 11 1005 71 10000 3 170 13:18 02.06.2020
2029 Clouds 11 1005 71 10000 3 170 12:56 02.06.2020
2030 Clouds 11 1005 76 10000 4 190 12:37 02.06.2020
2031 Clouds 10 1005 81 9000 2 210 12:19 02.06.2020
2032 Rain 11 1005 76 10000 2 190 11:41 02.06.2020
2033 Rain 11 1005 76 10000 2 190 11:22 02.06.2020
2034 Clouds 11 1005 71 10000 3 170 10:56 02.06.2020
2035 Clouds 11 1005 71 10000 3 170 10:56 02.06.2020
2036 Clouds 10 1005 71 10000 3 200 10:38 02.06.2020
2037 Clouds 10 1005 71 10000 3 200 10:20 02.06.2020
2038 Clouds 10 1005 71 10000 4 200 09:43 02.06.2020
2039 Clouds 10 1005 71 10000 4 200 09:21 02.06.2020
2040 Clouds 10 1005 76 10000 4 210 08:54 02.06.2020
2041 Clouds 9 1005 76 10000 3 220 08:28 02.06.2020
2042 Clouds 9 1005 81 10000 3 240 07:58 02.06.2020
2043 Clouds 9 1005 81 10000 3 240 07:33 02.06.2020
2044 Clouds 8 1005 87 10000 4 250 06:59 02.06.2020
2045 Clouds 8 1005 87 10000 3 230 06:38 02.06.2020
2046 Clouds 6 1005 93 10000 2 220 05:37 02.06.2020
2047 Clouds 5 1005 100 10000 3 250 04:23 02.06.2020
2048 Clouds 6 1006 93 10000 3 280 02:37 02.06.2020
2049 Clouds 6 1007 100 10000 3 280 01:53 02.06.2020
2050 Clouds 6 1007 93 10000 3 270 00:46 02.06.2020
2051 Clouds 7 1007 81 10000 4 310 00:20 02.06.2020
2052 Clouds 7 1008 75 10000 3 300 23:39 01.06.2020
2053 Clouds 8 1008 75 10000 3 310 23:19 01.06.2020
2054 Clouds 8 1008 75 10000 3 310 22:56 01.06.2020
2055 Clouds 8 1008 70 10000 4 330 22:38 01.06.2020
2056 Clouds 9 1008 66 10000 5 340 22:18 01.06.2020
2057 Clouds 10 1008 62 10000 5 330 21:42 01.06.2020
2058 Rain 10 1008 62 10000 5 330 21:21 01.06.2020
2059 Rain 11 1008 62 10000 5 330 20:59 01.06.2020
2060 Rain 12 1008 54 10000 3 350 20:41 01.06.2020
2061 Rain 12 1008 54 10000 3 350 20:20 01.06.2020
2062 Rain 12 1008 54 10000 3 350 19:58 01.06.2020
2063 Rain 13 1008 50 10000 4 340 19:39 01.06.2020
2064 Clear 13 1008 50 10000 5 20 19:20 01.06.2020
2065 Clear 13 1008 50 10000 3 350 18:57 01.06.2020
2066 Clear 14 1008 50 10000 3 350 18:38 01.06.2020
2067 Rain 14 1008 47 10000 6 340 18:18 01.06.2020
2068 Rain 14 1008 44 10000 6 350 17:41 01.06.2020
2069 Clear 15 1008 44 10000 5 360 17:20 01.06.2020
2070 Clear 16 1008 44 10000 5 360 16:56 01.06.2020
2071 Clear 15 1008 41 10000 6 350 16:37 01.06.2020
2072 Clear 15 1008 38 10000 8 10 16:18 01.06.2020
2073 Clear 15 1008 41 10000 7 350 15:44 01.06.2020
2074 Clouds 15 1008 44 10000 6 10 15:21 01.06.2020
2075 Clouds 15 1008 44 10000 6 10 14:59 01.06.2020
2076 Clouds 15 1008 44 10000 6 10 14:59 01.06.2020
2077 Clouds 15 1008 51 10000 8 20 14:41 01.06.2020
2078 Clouds 14 1008 58 10000 7 30 14:21 01.06.2020
2079 Clouds 14 1008 58 10000 7 30 14:21 01.06.2020
2080 Clouds 14 1008 58 10000 7 30 13:56 01.06.2020
2081 Clouds 15 1008 58 10000 7 30 13:37 01.06.2020
2082 Clouds 13 1008 62 10000 8 30 13:19 01.06.2020
2083 Clouds 14 1008 62 10000 8 30 12:55 01.06.2020
2084 Clouds 14 1008 58 10000 7 10 12:37 01.06.2020
2085 Clouds 14 1008 58 10000 7 10 12:37 01.06.2020
2086 Rain 14 1008 62 10000 7 10 12:18 01.06.2020
2087 Rain 13 1009 71 10000 7 10 11:40 01.06.2020
2088 Rain 13 1009 71 10000 7 10 11:22 01.06.2020
2089 Clouds 13 1009 66 10000 8 10 10:57 01.06.2020
2090 Clouds 13 1009 66 10000 8 10 10:37 01.06.2020
2091 Clouds 12 1008 76 10000 8 10 10:19 01.06.2020
2092 Clouds 12 1008 76 10000 7 10 09:55 01.06.2020
2093 Clouds 12 1008 76 10000 7 10 09:37 01.06.2020
2094 Clouds 11 1008 87 10000 6 10 09:19 01.06.2020
2095 Clouds 11 1008 87 10000 6 30 08:41 01.06.2020
2096 Clouds 10 1008 93 10000 7 20 08:22 01.06.2020
2097 Clouds 10 1008 93 10000 6 20 07:44 01.06.2020
2098 Clouds 10 1008 93 10000 6 20 07:25 01.06.2020
2099 Rain 10 1007 93 9000 6 20 06:52 01.06.2020
2100 Rain 10 1007 93 9000 6 20 06:20 01.06.2020
2101 Rain 9 1007 93 9000 6 20 05:49 01.06.2020
2102 Rain 10 1007 100 9000 5 360 04:18 01.06.2020
2103 Rain 11 1007 100 10000 5 20 03:44 01.06.2020
2104 Rain 12 1007 100 8000 3 30 02:59 01.06.2020
2105 Clouds 12 1007 93 10000 2 340 01:47 01.06.2020
2106 Clear 12 1007 93 10000 2 340 01:26 01.06.2020
2107 Clear 12 1007 93 10000 1.84 349 00:56 01.06.2020
2108 Clear 12 1007 93 10000 1.84 349 00:38 01.06.2020
2109 Clear 12 1007 93 10000 1 120 00:19 01.06.2020
2110 Clear 12 1008 93 10000 0.92 288 23:42 31.05.2020
2111 Clear 12 1008 93 10000 0.85 237 23:23 31.05.2020
2112 Clear 12 1007 93 10000 1 50 22:59 31.05.2020
2113 Clear 12 1008 82 10000 2 40 22:41 31.05.2020
2114 Clear 13 1008 87 10000 2 40 22:22 31.05.2020
2115 Clear 13 1008 87 10000 2 40 21:57 31.05.2020
2116 Clouds 13 1008 82 10000 0.79 190 21:39 31.05.2020
2117 Clouds 13 1008 76 10000 1.51 222 21:21 31.05.2020
2118 Clouds 14 1007 67 10000 1 0 20:47 31.05.2020
2119 Clouds 15 1007 67 10000 1 0 20:25 31.05.2020
2120 Clouds 15 1007 76 10000 2 60 19:57 31.05.2020
2121 Clouds 15 1007 67 10000 1 0 19:38 31.05.2020
2122 Clouds 16 1007 67 10000 1 0 19:20 31.05.2020
2123 Clouds 17 1007 55 10000 2 120 18:56 31.05.2020
2124 Clouds 17 1007 55 10000 2 120 18:37 31.05.2020
2125 Clouds 17 1007 55 10000 1 0 18:19 31.05.2020
2126 Clouds 17 1007 59 10000 2 130 17:42 31.05.2020
2127 Clouds 17 1007 59 10000 2 130 17:24 31.05.2020
2128 Rain 16 1007 63 10000 4 90 16:42 31.05.2020
2129 Clouds 16 1007 72 10000 3 100 16:22 31.05.2020
2130 Clouds 15 1007 72 10000 3 100 15:57 31.05.2020
2131 Clouds 15 1007 67 10000 2 190 15:37 31.05.2020
2132 Clouds 16 1007 67 10000 3 170 15:19 31.05.2020
2133 Rain 16 1007 62 10000 2 180 14:42 31.05.2020
2134 Clouds 15 1007 71 10000 2 190 14:19 31.05.2020
2135 Clouds 15 1007 71 10000 2 190 13:56 31.05.2020
2136 Clouds 14 1008 71 10000 2 170 13:37 31.05.2020
2137 Clouds 14 1008 67 10000 3 170 13:19 31.05.2020
2138 Clouds 14 1007 76 10000 3 140 12:46 31.05.2020
2139 Clouds 14 1007 76 10000 3 140 12:24 31.05.2020
2140 Clouds 14 1007 71 10000 4 170 11:59 31.05.2020
2141 Clouds 14 1007 67 10000 3 160 11:39 31.05.2020
2142 Clouds 14 1007 71 10000 4 160 11:21 31.05.2020
2143 Clouds 14 1006 67 10000 4 180 10:45 31.05.2020
2144 Clouds 14 1006 67 10000 4 180 10:27 31.05.2020
2145 Clouds 14 1006 71 10000 4 170 09:59 31.05.2020
2146 Clouds 14 1006 71 10000 4 180 09:41 31.05.2020
2147 Clouds 14 1006 67 10000 4 170 09:21 31.05.2020
2148 Clouds 13 1006 71 10000 4 160 08:43 31.05.2020
2149 Clouds 13 1005 76 10000 4 190 08:24 31.05.2020
2150 Clouds 12 1005 81 10000 3 170 07:50 31.05.2020
2151 Clouds 12 1005 81 10000 3 170 07:22 31.05.2020
2152 Clouds 11 1005 87 10000 3 170 06:57 31.05.2020
2153 Clouds 11 1005 87 10000 2 160 06:35 31.05.2020
2154 Clouds 10 1005 87 10000 3 180 05:51 31.05.2020
2155 Clouds 10 1005 87 10000 3 180 05:32 31.05.2020
2156 Clouds 10 1004 87 10000 3 180 04:18 31.05.2020
2157 Clouds 11 1004 93 10000 3 180 03:39 31.05.2020
2158 Clouds 10 1004 93 10000 3 170 02:47 31.05.2020
2159 Clouds 11 1004 87 10000 3 180 01:46 31.05.2020
2160 Clouds 11 1004 87 10000 3 180 01:46 31.05.2020
2161 Clouds 11 1003 87 10000 3 180 00:42 31.05.2020
2162 Clouds 11 1003 87 10000 3 180 00:24 31.05.2020
2163 Clouds 11 1003 87 10000 3 190 23:42 30.05.2020
2164 Clouds 11 1003 87 10000 3 190 23:24 30.05.2020
2165 Clouds 11 1003 87 10000 3 190 22:56 30.05.2020
2166 Clouds 11 1002 81 10000 4 200 22:38 30.05.2020
2167 Clouds 12 1002 87 10000 4 200 22:20 30.05.2020
2168 Clouds 12 1002 82 10000 4 210 21:43 30.05.2020
2169 Clouds 13 1002 82 10000 4 210 21:22 30.05.2020
2170 Clouds 13 1002 82 10000 4 210 20:58 30.05.2020
2171 Clouds 13 1001 87 10000 4 220 20:39 30.05.2020
2172 Clouds 13 1001 87 10000 4 220 20:21 30.05.2020
2173 Clouds 13 1001 82 10000 4 230 19:55 30.05.2020
2174 Clouds 13 1001 82 10000 4 230 19:37 30.05.2020
2175 Clouds 13 1001 87 10000 3 220 19:18 30.05.2020
2176 Clouds 14 1001 87 10000 4 220 18:43 30.05.2020
2177 Clouds 14 1001 87 10000 4 220 18:19 30.05.2020
2178 Clouds 15 1000 82 10000 4 230 17:42 30.05.2020
2179 Clouds 15 1000 82 10000 4 230 17:24 30.05.2020
2180 Clouds 15 1000 82 10000 4 240 16:58 30.05.2020
2181 Clouds 15 1000 82 10000 5 250 16:39 30.05.2020
2182 Clouds 15 1000 82 10000 5 250 16:20 30.05.2020
2183 Clouds 14 1000 87 10000 4 230 15:42 30.05.2020
2184 Clouds 14 1000 87 10000 4 230 15:24 30.05.2020
2185 Clouds 14 1000 93 10000 5 210 14:44 30.05.2020
2186 Clouds 14 1000 93 10000 5 210 14:25 30.05.2020
2187 Rain 13 1000 100 10000 8 280 13:44 30.05.2020
2188 Rain 13 1000 93 10000 7 280 13:24 30.05.2020
2189 Rain 13 1001 93 10000 7 270 12:42 30.05.2020
2190 Rain 13 1001 100 10000 6 270 12:21 30.05.2020
2191 Rain 13 1001 100 10000 6 270 12:21 30.05.2020
2192 Rain 13 1001 100 10000 6 270 11:58 30.05.2020
2193 Rain 13 1001 100 10000 7 260 11:40 30.05.2020
2194 Rain 13 1001 100 10000 7 260 11:22 30.05.2020
2195 Rain 13 1001 100 5000 5 290 10:41 30.05.2020
2196 Rain 13 1001 100 5000 5 290 10:21 30.05.2020
2197 Rain 13 1002 100 6000 5 270 09:51 30.05.2020
2198 Rain 13 1002 100 6000 5 270 09:32 30.05.2020
2199 Rain 13 1002 100 4700 5 260 08:52 30.05.2020
2200 Rain 13 1003 100 3200 3 230 08:33 30.05.2020
2201 Fog 13 1003 100 350 4 280 07:50 30.05.2020
2202 Rain 13 1003 100 350 4 280 07:26 30.05.2020
2203 Rain 13 1003 100 400 3 270 06:59 30.05.2020
2204 Mist 13 1004 100 2600 4 310 06:25 30.05.2020
2205 Mist 13 1004 100 2600 4 310 05:49 30.05.2020
2206 Mist 13 1005 100 5000 2 330 04:21 30.05.2020
2207 Clouds 13 1006 100 8000 1.4 318 02:33 30.05.2020
2208 Clouds 13 1006 100 7000 3 10 01:52 30.05.2020
2209 Clouds 13 1007 100 9000 0.6 249 00:42 30.05.2020
2210 Rain 14 1007 93 10000 2 10 00:21 30.05.2020
2211 Rain 14 1007 93 10000 2 10 23:58 29.05.2020
2212 Rain 14 1007 93 10000 2 10 23:38 29.05.2020
2213 Rain 13 1008 100 10000 0.89 82 23:19 29.05.2020
2214 Rain 14 1008 93 10000 0.89 82 22:41 29.05.2020
2215 Clouds 14 1008 93 10000 2 360 22:21 29.05.2020
2216 Clouds 14 1008 93 10000 2 360 21:59 29.05.2020
2217 Clouds 14 1008 100 10000 1.19 90 21:39 29.05.2020
2218 Clouds 14 1008 100 10000 1.39 85 21:20 29.05.2020
2219 Clouds 14 1008 87 10000 1 340 20:54 29.05.2020
2220 Clouds 14 1008 87 10000 2 360 20:36 29.05.2020
2221 Clouds 14 1008 87 10000 2 360 20:18 29.05.2020
2222 Clouds 16 1008 82 10000 2 360 19:42 29.05.2020
2223 Clouds 16 1008 82 10000 2 360 19:23 29.05.2020
2224 Clouds 16 1008 82 10000 2 30 18:47 29.05.2020
2225 Clouds 17 1008 77 10000 2 60 18:21 29.05.2020
2226 Clouds 17 1008 77 10000 2 60 17:57 29.05.2020
2227 Clouds 17 1008 72 10000 1 0 17:38 29.05.2020
2228 Clouds 17 1008 72 10000 1.05 135 17:19 29.05.2020
2229 Clouds 18 1008 72 10000 2 100 16:45 29.05.2020
2230 Clouds 18 1008 72 10000 2 100 16:27 29.05.2020
2231 Clouds 17 1008 77 10000 1 0 15:57 29.05.2020
2232 Clouds 17 1009 82 10000 2 70 15:38 29.05.2020
2233 Clouds 17 1009 77 10000 2 80 15:20 29.05.2020
2234 Clouds 17 1009 77 10000 2 110 14:51 29.05.2020
2235 Clouds 17 1009 77 10000 2 110 14:24 29.05.2020
2236 Clouds 17 1008 77 10000 2.28 134 13:58 29.05.2020
2237 Clouds 17 1009 77 10000 1 0 13:39 29.05.2020
2238 Clouds 16 1009 82 10000 1 0 13:18 29.05.2020
2239 Clouds 16 1009 87 10000 1 0 12:44 29.05.2020
2240 Clouds 16 1009 87 10000 1 0 12:25 29.05.2020
2241 Clouds 15 1008 93 9000 3.39 127 11:46 29.05.2020
2242 Clouds 15 1008 93 9000 3.22 107 11:27 29.05.2020
2243 Clouds 14 1008 100 7000 3.22 107 10:58 29.05.2020
2244 Mist 14 1008 100 4200 2 40 10:38 29.05.2020
2245 Rain 13 1008 100 1600 2 40 10:20 29.05.2020
2246 Rain 14 1008 100 1800 3 20 09:44 29.05.2020
2247 Rain 13 1008 100 1800 3 20 09:20 29.05.2020
2248 Rain 13 1008 100 3900 3 10 08:56 29.05.2020
2249 Rain 12 1008 100 3400 3 360 08:37 29.05.2020
2250 Mist 12 1008 100 2100 2 360 08:19 29.05.2020
2251 Drizzle 12 1008 100 1300 3 10 07:40 29.05.2020
2252 Mist 12 1008 100 1200 4 360 07:22 29.05.2020
2253 Mist 12 1008 100 1500 4 10 06:48 29.05.2020
2254 Mist 12 1008 100 1500 4 10 06:28 29.05.2020
2255 Mist 12 1008 100 2300 3 20 05:52 29.05.2020
2256 Rain 12 1009 100 3500 4 360 02:56 29.05.2020
2257 Rain 12 1010 93 3800 5 360 01:42 29.05.2020
2258 Rain 12 1010 93 3800 5 360 01:23 29.05.2020
2259 Rain 12 1010 93 6000 4 360 00:46 29.05.2020
2260 Rain 12 1010 93 4400 5 10 00:21 29.05.2020
2261 Rain 12 1011 93 9000 4 20 23:40 28.05.2020
2262 Clouds 12 1011 93 10000 6 30 23:19 28.05.2020
2263 Clouds 12 1011 93 10000 6 30 22:44 28.05.2020
2264 Clouds 12 1011 93 10000 6 30 22:26 28.05.2020
2265 Clouds 12 1012 93 10000 5 20 21:58 28.05.2020
2266 Clouds 12 1012 93 10000 7 30 21:40 28.05.2020
2267 -273 0 0 0 0 0 21:20 28.05.2020
2268 Clouds 12 1012 87 10000 8 30 20:57 28.05.2020
2269 Clouds 12 1012 87 10000 8 30 20:39 28.05.2020
2270 Clouds 12 1012 87 10000 8 30 20:18 28.05.2020
2271 Rain 12 1012 93 10000 8 30 19:56 28.05.2020
2272 Rain 12 1012 93 10000 8 30 19:38 28.05.2020
2273 Rain 12 1012 93 10000 8 30 19:20 28.05.2020
2274 Rain 12 1013 93 7000 9 20 18:43 28.05.2020
2275 Rain 12 1013 93 7000 9 20 18:25 28.05.2020
2276 Rain 12 1014 93 3100 8 30 17:56 28.05.2020
2277 Rain 12 1014 87 10000 8 40 17:38 28.05.2020
2278 Rain 13 1014 87 10000 9 30 17:18 28.05.2020
2279 Rain 13 1014 87 10000 7 40 16:44 28.05.2020
2280 Rain 13 1014 87 10000 7 40 16:20 28.05.2020
2281 Rain 13 1016 82 10000 9 50 15:46 28.05.2020
2282 Rain 14 1016 82 10000 9 50 15:25 28.05.2020
2283 Rain 14 1016 82 10000 9 50 15:25 28.05.2020
2284 Rain 14 1016 82 10000 7 50 14:59 28.05.2020
2285 Rain 15 1016 77 10000 7 60 14:40 28.05.2020
2286 Rain 16 1016 77 10000 7 60 14:21 28.05.2020
2287 Rain 16 1016 82 10000 6 60 13:44 28.05.2020
2288 Rain 16 1017 82 9000 6 60 13:25 28.05.2020
2289 Clouds 15 1017 72 10000 7 60 12:43 28.05.2020
2290 Clouds 16 1017 72 10000 8 50 12:19 28.05.2020
2291 Clouds 16 1017 72 10000 8 50 11:54 28.05.2020
2292 Clouds 17 1017 67 10000 6 40 11:36 28.05.2020
2293 Clouds 17 1018 72 10000 6 50 11:18 28.05.2020
2294 Clouds 17 1018 72 10000 5 40 10:42 28.05.2020
2295 Clouds 17 1018 72 10000 5 40 10:23 28.05.2020
2296 Clouds 16 1019 82 10000 4 30 09:40 28.05.2020
2297 Clouds 16 1019 82 10000 4 30 09:22 28.05.2020
2298 Clouds 15 1019 82 10000 5 40 09:22 28.05.2020
2299 Clouds 14 1019 82 10000 4 30 08:52 28.05.2020
2300 Clouds 15 1019 82 10000 4 30 08:33 28.05.2020
2301 Clouds 14 1020 87 10000 4 40 07:59 28.05.2020
2302 Clouds 13 1020 93 10000 3 20 07:41 28.05.2020
2303 Clouds 13 1020 93 10000 3 30 07:23 28.05.2020
2304 Clouds 12 1020 93 10000 2 10 06:39 28.05.2020
2305 Clouds 12 1020 93 10000 2 10 06:39 28.05.2020
2306 Clouds 12 1020 93 10000 2 60 06:21 28.05.2020
2307 Clouds 11 1020 100 10000 2 30 05:38 28.05.2020
2308 Fog 10 1020 100 6000 2 10 04:35 28.05.2020
2309 Fog 10 1020 100 8000 1 0 03:52 28.05.2020
2310 Fog 10 1021 100 8000 2.41 48 02:52 28.05.2020
2311 Clouds 11 1021 100 10000 2 20 01:57 28.05.2020
2312 Clouds 11 1022 100 10000 2.53 38 01:29 28.05.2020
2313 Clouds 11 1022 100 10000 1 20 00:46 28.05.2020
2314 Clouds 11 1022 100 10000 2.54 40 00:19 28.05.2020
2315 Clouds 11 1022 100 10000 2.54 40 23:54 27.05.2020
2316 Clouds 11 1022 100 10000 2.54 40 23:36 27.05.2020
2317 Clouds 12 1022 87 10000 2 30 23:18 27.05.2020
2318 Clouds 12 1022 87 10000 2 30 23:18 27.05.2020
2319 Clouds 12 1022 87 10000 2 40 22:41 27.05.2020
2320 Clouds 12 1022 87 10000 2 40 22:22 27.05.2020
2321 Clouds 13 1023 82 10000 3 40 21:55 27.05.2020
2322 Clouds 13 1023 82 10000 3 20 21:37 27.05.2020
2323 Clouds 13 1022 82 10000 2 30 21:18 27.05.2020
2324 Clear 14 1022 76 10000 3 20 20:54 27.05.2020
2325 Clouds 14 1022 76 10000 3 20 20:36 27.05.2020
2326 Clouds 14 1022 72 10000 3 10 20:18 27.05.2020
2327 Clouds 15 1022 72 10000 2 40 19:41 27.05.2020
2328 Clouds 16 1022 67 10000 3 50 19:20 27.05.2020
2329 Clouds 16 1022 67 10000 4 60 18:43 27.05.2020
2330 Clouds 15 1022 67 10000 4 60 18:20 27.05.2020
2331 Clouds 16 1022 67 10000 4 60 17:57 27.05.2020
2332 Clouds 17 1022 67 10000 3 30 17:38 27.05.2020
2333 Rain 17 1022 63 10000 4 60 17:19 27.05.2020
2334 Rain 17 1022 63 10000 4 60 16:55 27.05.2020
2335 Clouds 17 1022 63 10000 5 50 16:37 27.05.2020
2336 Clouds 17 1022 67 10000 4 40 16:18 27.05.2020
2337 Clouds 17 1022 63 10000 5 50 16:18 27.05.2020
2338 Clouds 16 1022 63 10000 3 20 15:46 27.05.2020
2339 Clouds 17 1022 63 10000 3 20 15:21 27.05.2020
2340 Clouds 16 1022 72 10000 4 30 14:46 27.05.2020
2341 Clouds 16 1022 72 10000 4 30 14:22 27.05.2020
2342 Clouds 16 1022 72 10000 4 30 14:22 27.05.2020
2343 Rain 15 1022 82 10000 4 60 13:58 27.05.2020
2344 Clouds 15 1022 82 10000 5 60 13:39 27.05.2020
2345 Clouds 15 1023 77 10000 3 20 13:20 27.05.2020
2346 Clouds 16 1023 72 10000 3 20 12:42 27.05.2020
2347 Clouds 15 1023 72 10000 3 20 12:23 27.05.2020
2348 Clouds 15 1023 76 10000 3 20 11:42 27.05.2020
2349 Clouds 15 1023 76 10000 2 40 11:24 27.05.2020
2350 Clouds 15 1023 76 10000 2 40 10:59 27.05.2020
2351 Clouds 15 1023 82 10000 4 30 10:41 27.05.2020
2352 Clouds 14 1023 82 10000 4 30 10:23 27.05.2020
2353 Clouds 13 1023 82 10000 3 50 09:55 27.05.2020
2354 Clouds 13 1023 87 10000 3 40 09:37 27.05.2020
2355 Clouds 13 1023 87 10000 3 40 09:19 27.05.2020
2356 Clouds 13 1023 93 10000 3 20 08:42 27.05.2020
2357 Clouds 12 1023 93 10000 3 20 08:23 27.05.2020
2358 Clouds 11 1023 100 10000 2 10 07:52 27.05.2020
2359 Clouds 11 1023 100 10000 3 40 07:34 27.05.2020
2360 Clouds 11 1023 93 10000 3 20 06:55 27.05.2020
2361 Clouds 11 1022 93 10000 3 10 06:24 27.05.2020
2362 Rain 10 1022 100 10000 3 30 05:50 27.05.2020
2363 Rain 10 1022 100 10000 3 20 05:23 27.05.2020
2364 Clouds 10 1022 100 10000 4 20 02:46 27.05.2020
2365 Clouds 10 1022 100 10000 4 20 02:24 27.05.2020
2366 Clouds 10 1023 100 10000 4 10 01:31 27.05.2020
2367 Clouds 10 1023 100 10000 4 10 01:31 27.05.2020
2368 Clouds 10 1023 100 10000 3 20 00:47 27.05.2020
2369 Clouds 10 1023 100 10000 4 10 00:21 27.05.2020
2370 Clouds 10 1023 100 10000 4 10 23:58 26.05.2020
2371 Rain 11 1023 93 10000 4 20 23:39 26.05.2020
2372 Rain 11 1023 100 10000 4 30 23:20 26.05.2020
2373 Rain 11 1023 100 10000 3 30 22:42 26.05.2020
2374 Rain 11 1023 100 10000 3 30 22:23 26.05.2020
2375 Rain 11 1023 93 10000 3 30 21:59 26.05.2020
2376 Rain 11 1023 93 9000 4 40 21:40 26.05.2020
2377 Rain 11 1023 93 9000 4 40 21:22 26.05.2020
2378 Clouds 11 1023 93 10000 4 30 20:58 26.05.2020
2379 Clouds 11 1023 93 10000 5 10 20:39 26.05.2020
2380 Clouds 11 1023 93 10000 5 10 20:39 26.05.2020
2381 Clouds 11 1023 93 10000 5 10 20:19 26.05.2020
2382 Clouds 11 1023 93 10000 4 20 19:40 26.05.2020
2383 Rain 11 1023 93 10000 4 20 19:20 26.05.2020
2384 Rain 11 1023 93 10000 3 30 18:58 26.05.2020
2385 Rain 11 1023 87 10000 4 50 18:39 26.05.2020
2386 Clouds 13 1023 71 10000 7 30 18:20 26.05.2020
2387 Rain 14 1022 67 10000 6 10 17:40 26.05.2020
2388 Clouds 14 1022 67 10000 5 20 17:21 26.05.2020
2389 Clouds 14 1022 67 10000 5 20 16:48 26.05.2020
2390 Clouds 15 1022 67 10000 5 30 16:23 26.05.2020
2391 Clouds 14 1023 67 10000 5 50 15:58 26.05.2020
2392 Clouds 15 1023 71 10000 5 40 15:39 26.05.2020
2393 Clouds 15 1023 72 10000 6 40 15:19 26.05.2020
2394 Clouds 15 1023 76 10000 6 20 14:45 26.05.2020
2395 Clouds 15 1023 76 10000 6 20 14:27 26.05.2020
2396 Clouds 15 1023 72 10000 5 30 13:58 26.05.2020
2397 Clouds 15 1023 82 10000 5 40 13:40 26.05.2020
2398 Clouds 15 1023 82 10000 5 40 13:21 26.05.2020
2399 Clouds 14 1023 82 10000 3 40 12:44 26.05.2020
2400 Rain 14 1023 87 10000 3 40 12:22 26.05.2020
2401 Rain 14 1023 87 10000 3 40 11:59 26.05.2020
2402 Rain 13 1023 87 10000 4 40 11:40 26.05.2020
2403 Rain 13 1023 87 10000 3 60 11:19 26.05.2020
2404 Rain 12 1023 93 9000 4 70 10:44 26.05.2020
2405 Rain 12 1023 93 9000 4 70 10:19 26.05.2020
2406 Rain 12 1023 93 10000 3 80 09:55 26.05.2020
2407 Rain 12 1023 93 10000 3 80 09:37 26.05.2020
2408 Rain 12 1023 93 9000 3 80 09:18 26.05.2020
2409 Rain 11 1023 100 10000 3 70 08:39 26.05.2020
2410 Rain 11 1023 100 10000 4 70 08:21 26.05.2020
2411 Rain 11 1022 100 10000 5 80 07:41 26.05.2020
2412 Rain 11 1022 93 10000 4 80 07:22 26.05.2020
2413 Rain 11 1022 93 10000 4 80 06:49 26.05.2020
2414 Clouds 10 1022 93 10000 4 80 06:23 26.05.2020
2415 Rain 10 1022 100 10000 3 80 05:41 26.05.2020
2416 Rain 10 1022 100 10000 3 80 04:59 26.05.2020
2417 Rain 10 1021 100 10000 3 90 04:41 26.05.2020
2418 Rain 10 1021 100 10000 3 90 04:22 26.05.2020
2419 Rain 10 1021 100 9000 3 90 03:28 26.05.2020
2420 Clouds 10 1021 93 10000 4 100 02:32 26.05.2020
2421 Clouds 10 1021 93 10000 4 90 01:41 26.05.2020
2422 Clouds 10 1021 93 9000 3 90 00:39 26.05.2020
2423 Rain 10 1021 100 7000 4 90 00:20 26.05.2020
2424 Rain 10 1021 100 7000 4 90 23:58 25.05.2020
2425 Rain 10 1021 100 9000 3 80 23:38 25.05.2020
2426 Rain 11 1021 100 8000 4 80 23:19 25.05.2020
2427 Rain 11 1021 100 8000 4 80 22:55 25.05.2020
2428 Rain 11 1021 100 9000 4 70 22:37 25.05.2020
2429 Rain 11 1021 100 9000 4 70 22:37 25.05.2020
2430 Rain 11 1020 100 7000 3 90 22:19 25.05.2020
2431 Rain 11 1020 100 7000 3 90 21:58 25.05.2020
2432 Rain 11 1020 100 9000 4 90 21:37 25.05.2020
2433 Rain 11 1020 100 10000 4 90 21:18 25.05.2020
2434 Rain 11 1020 100 10000 4 90 21:18 25.05.2020
2435 Rain 11 1020 100 9000 5 70 20:57 25.05.2020
2436 Rain 11 1020 100 9000 5 70 20:38 25.05.2020
2437 Rain 11 1020 100 6000 4 70 20:19 25.05.2020
2438 Rain 11 1020 100 6000 4 50 19:41 25.05.2020
2439 Rain 10 1019 100 7000 5 50 19:19 25.05.2020
2440 Rain 10 1019 100 7000 5 50 18:58 25.05.2020
2441 Rain 10 1019 100 10000 4 40 18:40 25.05.2020
2442 Rain 10 1019 100 10000 4 40 18:20 25.05.2020
2443 Rain 10 1019 100 3400 5 30 17:44 25.05.2020
2444 Rain 10 1019 100 3400 5 30 17:25 25.05.2020
2445 Mist 10 1020 100 2900 5 30 16:58 25.05.2020
2446 Rain 10 1020 93 3400 5 40 16:40 25.05.2020
2447 Rain 10 1020 93 3400 5 40 16:21 25.05.2020
2448 Rain 10 1019 93 4000 6 40 15:45 25.05.2020
2449 Rain 10 1019 93 4000 6 40 15:20 25.05.2020
2450 Mist 10 1019 93 4200 6 50 14:59 25.05.2020
2451 Rain 10 1019 93 4200 6 50 14:59 25.05.2020
2452 Rain 11 1019 93 8000 5 50 14:40 25.05.2020
2453 Rain 11 1019 93 8000 5 50 14:22 25.05.2020
2454 Rain 11 1020 87 10000 5 40 13:55 25.05.2020
2455 Rain 11 1020 87 9000 5 40 13:37 25.05.2020
2456 Rain 11 1020 93 10000 4 30 13:18 25.05.2020
2457 Rain 11 1020 93 8000 4 40 12:39 25.05.2020
2458 Rain 10 1020 100 9000 3 40 12:21 25.05.2020
2459 Rain 10 1020 100 9000 3 40 11:56 25.05.2020
2460 Rain 10 1020 93 7000 4 20 11:37 25.05.2020
2461 Rain 10 1020 93 9000 3 20 11:18 25.05.2020
2462 Rain 10 1020 93 9000 3 30 10:41 25.05.2020
2463 Rain 10 1020 93 9000 3 30 10:41 25.05.2020
2464 Rain 11 1020 81 10000 4 50 10:21 25.05.2020
2465 Rain 11 1020 81 10000 4 50 09:56 25.05.2020
2466 Rain 11 1020 87 10000 3 30 09:38 25.05.2020
2467 Rain 11 1019 87 10000 3 360 09:19 25.05.2020
2468 Rain 11 1020 81 10000 2 10 08:43 25.05.2020
2469 Rain 11 1020 81 10000 2 10 08:24 25.05.2020
2470 Rain 10 1020 87 10000 2.41 84 07:58 25.05.2020
2471 Rain 10 1019 93 10000 2.41 84 07:39 25.05.2020
2472 Rain 11 1019 93 9000 2.01 87 07:19 25.05.2020
2473 Rain 10 1019 93 8000 2.01 87 06:41 25.05.2020
2474 Rain 10 1019 87 10000 1.97 92 06:19 25.05.2020
2475 Rain 11 1018 76 10000 1.12 25 03:31 25.05.2020
2476 Clouds 11 1019 66 10000 1 0 02:52 25.05.2020
2477 Clouds 11 1019 66 10000 1 0 02:34 25.05.2020
2478 Clouds 11 1019 71 10000 1 100 01:42 25.05.2020
2479 Clouds 11 1019 66 10000 1 80 00:47 25.05.2020
2480 Clouds 12 1019 66 10000 1 80 00:26 25.05.2020
2481 Clouds 12 1019 62 10000 2 30 23:58 24.05.2020
2482 Clouds 12 1019 54 10000 2 120 23:39 24.05.2020
2483 Clouds 12 1019 54 10000 2 120 23:39 24.05.2020
2484 Clouds 12 1019 54 10000 2 120 23:20 24.05.2020
2485 Clouds 12 1019 54 10000 2 110 22:55 24.05.2020
2486 Clouds 12 1019 71 10000 2 90 22:37 24.05.2020
2487 Clouds 12 1019 71 10000 1 0 22:18 24.05.2020
2488 Clouds 12 1019 71 10000 1 0 22:18 24.05.2020
2489 Clouds 12 1019 71 10000 1 0 21:55 24.05.2020
2490 Clouds 13 1019 62 10000 2 90 21:36 24.05.2020
2491 Clouds 13 1019 54 10000 2 100 21:18 24.05.2020
2492 Clouds 13 1019 54 10000 2 120 20:43 24.05.2020
2493 Clouds 13 1019 54 10000 2 120 20:43 24.05.2020
2494 Clouds 13 1019 50 10000 2 110 20:21 24.05.2020
2495 Clouds 13 1019 50 10000 2 110 19:56 24.05.2020
2496 Clouds 14 1019 47 10000 2 100 19:37 24.05.2020
2497 Clouds 14 1019 50 10000 2 120 19:18 24.05.2020
2498 Clouds 14 1019 50 10000 2 110 18:42 24.05.2020
2499 Clouds 15 1019 44 10000 2 100 18:23 24.05.2020
2500 Clouds 15 1019 44 10000 1 0 17:57 24.05.2020
2501 Clouds 15 1019 44 10000 1 0 17:38 24.05.2020
2502 Clouds 15 1019 44 10000 1 0 17:19 24.05.2020
2503 Clouds 16 1018 44 10000 2 140 16:56 24.05.2020
2504 Clouds 16 1018 44 10000 1 0 16:37 24.05.2020
2505 Clouds 16 1018 47 10000 2 20 16:19 24.05.2020
2506 Clouds 16 1018 47 10000 2 120 15:55 24.05.2020
2507 Clouds 16 1018 47 10000 2 120 15:36 24.05.2020
2508 Clouds 15 1018 47 10000 3 100 15:18 24.05.2020
2509 Clouds 16 1018 47 10000 3 100 15:18 24.05.2020
2510 Clouds 16 1018 51 10000 3 90 14:41 24.05.2020
2511 Clouds 16 1018 51 10000 3 90 14:41 24.05.2020
2512 Clouds 16 1019 50 10000 2 80 14:22 24.05.2020
2513 Clouds 16 1019 50 10000 2 80 13:56 24.05.2020
2514 Clouds 15 1019 50 10000 3 100 13:38 24.05.2020
2515 Clouds 15 1019 41 10000 1 0 13:19 24.05.2020
2516 Clouds 16 1019 41 10000 1 0 12:56 24.05.2020
2517 Clouds 15 1019 47 10000 2 50 12:37 24.05.2020
2518 Clouds 15 1019 47 10000 1 0 12:19 24.05.2020
2519 Clouds 15 1019 47 10000 1 0 11:54 24.05.2020
2520 Clouds 15 1019 47 10000 2 350 11:36 24.05.2020
2521 Clouds 15 1019 47 10000 2 20 11:18 24.05.2020
2522 Clouds 16 1019 47 10000 3 10 10:41 24.05.2020
2523 Clouds 15 1019 47 10000 3 10 10:23 24.05.2020
2524 Clouds 14 1019 50 10000 4 60 09:56 24.05.2020
2525 Clouds 13 1019 50 10000 1 0 09:38 24.05.2020
2526 Clouds 13 1019 54 10000 2 70 09:18 24.05.2020
2527 Clouds 13 1019 58 10000 2 10 08:41 24.05.2020
2528 Clear 12 1019 58 10000 2 10 08:23 24.05.2020
2529 Clear 12 1019 62 10000 2 10 07:58 24.05.2020
2530 Clear 12 1019 66 10000 2 360 07:39 24.05.2020
2531 Clear 10 1020 81 10000 1 0 07:20 24.05.2020
2532 Clear 7 1020 87 10000 2 260 06:39 24.05.2020
2533 Clear 7 1020 93 10000 2 260 05:50 24.05.2020
2534 Clear 5 1020 93 10000 2 240 03:57 24.05.2020
2535 Clear 5 1020 93 10000 2 250 03:37 24.05.2020
2536 Clear 6 1020 93 10000 2 260 02:24 24.05.2020
2537 Clear 6 1020 93 10000 2 260 01:18 24.05.2020
2538 Clear 6 1020 93 10000 2 260 00:37 24.05.2020
2539 Clear 5 1020 93 10000 2 250 00:19 24.05.2020
2540 Clear 7 1020 87 10000 2 250 23:39 23.05.2020
2541 Clear 7 1021 81 10000 2 320 23:20 23.05.2020
2542 Clear 7 1021 75 10000 2 320 22:55 23.05.2020
2543 Clear 7 1021 75 10000 2 320 22:37 23.05.2020
2544 Clear 7 1021 75 10000 2 320 22:37 23.05.2020
2545 Clouds 8 1021 75 10000 3 320 22:18 23.05.2020
2546 Clouds 8 1021 75 10000 3 320 21:56 23.05.2020
2547 Clouds 9 1021 70 10000 3 320 21:36 23.05.2020
2548 Clouds 9 1021 66 10000 3 340 21:18 23.05.2020
2549 Clouds 10 1021 66 10000 3 350 20:40 23.05.2020
2550 Clouds 10 1020 66 10000 3 360 20:20 23.05.2020
2551 Clouds 10 1020 66 10000 3 360 19:59 23.05.2020
2552 Clouds 10 1020 61 10000 5 360 19:40 23.05.2020
2553 Clouds 10 1020 61 10000 4 360 19:19 23.05.2020
2554 Clouds 10 1020 61 10000 5 360 18:42 23.05.2020
2555 Clouds 10 1020 61 10000 5 360 18:23 23.05.2020
2556 Clouds 11 1020 57 10000 5 350 17:58 23.05.2020
2557 Clouds 11 1020 57 10000 5 350 17:40 23.05.2020
2558 Clouds 11 1020 57 10000 5 350 17:21 23.05.2020
2559 Clouds 12 1020 58 10000 5 340 16:59 23.05.2020
2560 Clouds 13 1020 58 10000 4 10 16:41 23.05.2020
2561 Clouds 12 1020 58 10000 4 10 16:20 23.05.2020
2562 Clouds 12 1020 66 10000 4 10 15:57 23.05.2020
2563 Clouds 12 1020 71 10000 5 10 15:39 23.05.2020
2564 Clouds 12 1020 62 10000 5 20 15:20 23.05.2020
2565 Clouds 13 1019 58 10000 5 340 14:42 23.05.2020
2566 Clouds 12 1019 58 10000 5 340 14:23 23.05.2020
2567 Clouds 12 1020 66 10000 4 330 13:55 23.05.2020
2568 Rain 12 1020 66 10000 5 330 13:37 23.05.2020
2569 Clouds 12 1019 54 10000 4 320 13:18 23.05.2020
2570 Clouds 12 1019 54 10000 4 300 12:41 23.05.2020
2571 Clouds 12 1020 57 10000 4 320 12:19 23.05.2020
2572 Clouds 12 1020 57 10000 4 320 11:57 23.05.2020
2573 Clouds 12 1020 62 10000 4 300 11:37 23.05.2020
2574 Clouds 12 1019 54 10000 6 330 11:18 23.05.2020
2575 Clouds 12 1019 54 10000 6 330 10:54 23.05.2020
2576 Rain 12 1019 54 10000 4 300 10:36 23.05.2020
2577 Clouds 12 1019 57 10000 3 350 10:18 23.05.2020
2578 Clouds 12 1019 57 10000 4 340 09:41 23.05.2020
2579 Clouds 12 1019 57 10000 4 340 09:23 23.05.2020
2580 Clear 11 1019 57 10000 4 340 08:57 23.05.2020
2581 Clear 11 1019 57 10000 4 330 08:37 23.05.2020
2582 Clear 10 1019 61 10000 4 340 08:18 23.05.2020
2583 Clear 10 1019 61 10000 4 340 08:18 23.05.2020
2584 Clear 9 1019 70 10000 4 340 07:43 23.05.2020
2585 Clear 9 1019 70 10000 4 340 07:22 23.05.2020
2586 Clear 8 1019 75 10000 5 330 06:42 23.05.2020
2587 Clear 7 1019 75 10000 4 330 05:51 23.05.2020
2588 Clear 6 1018 75 10000 3 310 03:52 23.05.2020
2589 Clear 6 1018 75 10000 3 330 03:23 23.05.2020
2590 Clear 6 1018 81 10000 3 300 03:23 23.05.2020
2591 Clear 6 1018 75 10000 3 310 02:31 23.05.2020
2592 Clouds 7 1018 81 10000 2 290 01:28 23.05.2020
2593 Clouds 8 1018 81 10000 3 280 00:53 23.05.2020
2594 Clouds 8 1018 75 10000 3 280 00:34 23.05.2020
2595 Clouds 8 1018 75 10000 2 290 23:59 22.05.2020
2596 Clouds 8 1018 75 10000 2 300 23:40 22.05.2020
2597 Clouds 8 1018 75 10000 2 280 23:20 22.05.2020
2598 Clouds 8 1018 75 10000 2 280 22:57 22.05.2020
2599 Clouds 9 1018 81 10000 2 280 22:39 22.05.2020
2600 Clouds 9 1018 76 10000 2 290 22:20 22.05.2020
2601 Clouds 9 1018 70 10000 2 340 21:46 22.05.2020
2602 Clear 9 1018 70 10000 2 340 21:22 22.05.2020
2603 Clear 9 1018 70 10000 2 360 20:56 22.05.2020
2604 Clear 9 1018 70 10000 2 30 20:38 22.05.2020
2605 Clouds 9 1018 70 10000 2 30 20:19 22.05.2020
2606 Clouds 10 1017 61 10000 2 350 19:44 22.05.2020
2607 Clouds 10 1017 61 10000 3 20 19:25 22.05.2020
2608 Clouds 10 1017 61 10000 3 20 18:54 22.05.2020
2609 Clouds 11 1017 57 10000 5 20 18:36 22.05.2020
2610 Clouds 11 1017 62 10000 5 30 18:18 22.05.2020
2611 Clouds 11 1017 53 10000 4 20 17:39 22.05.2020
2612 Clouds 11 1017 53 10000 4 20 17:39 22.05.2020
2613 Rain 12 1016 57 10000 5 20 17:19 22.05.2020
2614 Rain 10 1016 57 10000 5 20 16:55 22.05.2020
2615 Clouds 11 1017 66 10000 5 20 16:37 22.05.2020
2616 Clouds 11 1016 57 10000 6 40 16:19 22.05.2020
2617 Rain 13 1016 43 10000 6 340 15:42 22.05.2020
2618 Rain 13 1016 43 10000 6 340 15:42 22.05.2020
2619 Clouds 12 1016 50 10000 7 320 15:21 22.05.2020
2620 Clouds 12 1016 57 10000 8 310 14:45 22.05.2020
2621 Clouds 10 1016 66 10000 7 320 14:26 22.05.2020
2622 Clouds 10 1016 66 10000 7 320 14:26 22.05.2020
2623 Rain 9 1016 75 8000 8 330 13:50 22.05.2020
2624 Rain 10 1016 75 8000 8 330 13:22 22.05.2020
2625 Rain 10 1016 75 8000 8 330 13:22 22.05.2020
2626 Rain 11 1016 66 10000 7 300 12:59 22.05.2020
2627 Rain 10 1016 61 10000 7 310 12:39 22.05.2020
2628 Clouds 9 1016 70 9000 7 330 12:21 22.05.2020
2629 Clouds 10 1016 61 10000 5 320 11:44 22.05.2020
2630 Clouds 10 1016 57 10000 7 320 11:22 22.05.2020
2631 Clouds 10 1016 57 10000 7 320 10:57 22.05.2020
2632 Clouds 9 1015 66 10000 6 310 10:38 22.05.2020
2633 Rain 8 1015 75 9000 7 310 10:19 22.05.2020
2634 Rain 7 1016 81 9000 7 340 09:47 22.05.2020
2635 Clouds 7 1015 70 10000 5 330 09:21 22.05.2020
2636 Clouds 7 1015 70 10000 5 330 08:57 22.05.2020
2637 Clouds 7 1015 65 10000 6 340 08:39 22.05.2020
2638 Clouds 7 1015 65 10000 6 340 08:18 22.05.2020
2639 Clouds 7 1015 70 10000 8 320 07:48 22.05.2020
2640 Clouds 7 1015 75 10000 7 340 07:22 22.05.2020
2641 Clouds 6 1015 80 10000 6 330 06:46 22.05.2020
2642 Clouds 5 1015 80 10000 6 330 06:28 22.05.2020
2643 Clouds 6 1015 75 10000 6 320 05:35 22.05.2020
2644 Clouds 6 1015 75 10000 5 280 04:48 22.05.2020
2645 Clouds 6 1014 75 10000 2 240 03:50 22.05.2020
2646 Clouds 7 1014 75 10000 2 240 03:29 22.05.2020
2647 Clouds 6 1015 80 10000 2 260 01:58 22.05.2020
2648 Clouds 6 1015 75 10000 2 300 01:32 22.05.2020
2649 Clouds 7 1015 65 10000 5 340 00:52 22.05.2020
2650 Clouds 7 1015 65 10000 5 340 00:30 22.05.2020
2651 Clouds 8 1015 61 10000 5 310 23:56 21.05.2020
2652 Clouds 8 1015 65 10000 3 280 23:37 21.05.2020
2653 Clouds 8 1015 65 10000 3 280 23:37 21.05.2020
2654 Clouds 8 1015 60 10000 3 320 23:19 21.05.2020
2655 Clouds 9 1015 60 10000 3 320 22:57 21.05.2020
2656 Clouds 8 1015 65 10000 4 330 22:37 21.05.2020
2657 Clouds 9 1015 56 10000 3 310 22:18 21.05.2020
2658 Clear 10 1015 59 10000 3 330 21:46 21.05.2020
2659 Clear 10 1015 54 10000 3 330 21:26 21.05.2020
2660 Clear 10 1014 43 10000 4 310 20:56 21.05.2020
2661 Clouds 11 1014 43 10000 4 310 20:37 21.05.2020
2662 Clouds 11 1014 37 10000 4 310 20:19 21.05.2020
2663 Clouds 12 1014 35 10000 5 310 19:39 21.05.2020
2664 Clouds 12 1014 35 10000 5 290 19:19 21.05.2020
2665 Clouds 13 1014 32 10000 5 300 18:41 21.05.2020
2666 Clouds 14 1014 32 10000 5 300 18:21 21.05.2020
2667 Clouds 14 1014 33 10000 4 310 17:59 21.05.2020
2668 Clouds 14 1014 33 10000 4 310 17:59 21.05.2020
2669 Clouds 15 1014 30 10000 5 320 17:41 21.05.2020
2670 Clouds 14 1014 33 10000 6 300 17:22 21.05.2020
2671 Clouds 15 1014 30 10000 6 270 16:47 21.05.2020
2672 Clouds 15 1014 30 10000 6 270 16:25 21.05.2020
2673 Clouds 15 1014 35 10000 6 280 15:56 21.05.2020
2674 Clouds 14 1014 33 10000 6 300 15:38 21.05.2020
2675 Clouds 16 1014 33 10000 3 310 15:19 21.05.2020
2676 Clouds 15 1014 37 10000 6 340 14:40 21.05.2020
2677 Clouds 15 1014 35 10000 6 310 14:19 21.05.2020
2678 Clouds 15 1014 36 10000 6 320 13:42 21.05.2020
2679 Clear 14 1014 37 10000 5 310 13:22 21.05.2020
2680 Clear 15 1014 37 10000 5 310 12:58 21.05.2020
2681 Clear 15 1014 35 10000 6 320 12:38 21.05.2020
2682 Clear 14 1015 35 10000 6 320 12:19 21.05.2020
2683 Clear 13 1015 40 10000 7 320 11:42 21.05.2020
2684 Rain 13 1015 40 10000 7 320 11:24 21.05.2020
2685 Rain 13 1015 46 10000 7 320 10:59 21.05.2020
2686 Rain 13 1015 42 10000 6 320 10:39 21.05.2020
2687 Clear 13 1015 40 10000 7 310 10:20 21.05.2020
2688 Clear 12 1015 40 10000 7 310 09:55 21.05.2020
2689 Clear 12 1015 40 10000 6 300 09:37 21.05.2020
2690 Clear 11 1015 40 10000 6 300 09:18 21.05.2020
2691 Clear 10 1015 50 10000 4 310 08:45 21.05.2020
2692 Clear 10 1015 50 10000 4 310 08:45 21.05.2020
2693 Clear 10 1015 55 10000 4 310 08:26 21.05.2020
2694 Clear 9 1015 57 10000 3 290 07:47 21.05.2020
2695 Clear 10 1015 57 10000 3 290 07:27 21.05.2020
2696 Clear 8 1015 61 10000 3 330 06:52 21.05.2020
2697 Clear 7 1015 75 10000 3 310 05:58 21.05.2020
2698 Clear 6 1015 80 10000 3 310 05:22 21.05.2020
2699 Clear 7 1015 65 10000 3 360 03:22 21.05.2020
2700 Clear 8 1015 61 10000 3 330 02:45 21.05.2020
2701 Clouds 8 1015 61 10000 3 330 02:25 21.05.2020
2702 Clouds 8 1015 60 10000 3 330 01:45 21.05.2020
2703 Clouds 9 1015 60 10000 3 330 01:19 21.05.2020
2704 Clouds 9 1015 60 10000 4 330 00:51 21.05.2020
2705 Clouds 9 1015 64 10000 4 330 00:23 21.05.2020
2706 Clouds 10 1014 53 10000 4 330 23:41 20.05.2020
2707 Clouds 10 1014 53 10000 3 320 23:20 20.05.2020
2708 Clouds 10 1014 53 10000 3 320 22:57 20.05.2020
2709 Clouds 10 1014 50 10000 4 330 22:38 20.05.2020
2710 Clouds 11 1014 57 10000 4 330 22:20 20.05.2020
2711 Clouds 11 1014 57 10000 3 340 21:40 20.05.2020
2712 Clouds 11 1014 57 10000 3 10 21:21 20.05.2020
2713 Clouds 12 1013 54 10000 4 10 20:44 20.05.2020
2714 Clouds 12 1013 47 10000 4 360 20:25 20.05.2020
2715 Clouds 13 1013 50 10000 4 350 19:57 20.05.2020
2716 Clouds 13 1013 50 10000 4 350 19:38 20.05.2020
2717 Clouds 13 1012 62 10000 2 10 19:19 20.05.2020
2718 Clouds 13 1012 54 10000 5 30 18:43 20.05.2020
2719 Rain 14 1012 54 10000 5 340 18:24 20.05.2020
2720 Clouds 14 1012 54 10000 6 330 17:44 20.05.2020
2721 Clouds 14 1012 62 10000 6 330 17:24 20.05.2020
2722 Clouds 14 1012 54 10000 6 330 17:24 20.05.2020
2723 Clouds 14 1012 66 10000 4 30 16:58 20.05.2020
2724 Clouds 14 1012 66 10000 4 30 16:39 20.05.2020
2725 Clouds 14 1012 66 10000 4 30 16:21 20.05.2020
2726 Rain 16 1011 51 10000 6 320 15:44 20.05.2020
2727 Clear 17 1011 51 10000 6 320 15:25 20.05.2020
2728 Clouds 16 1011 51 10000 6 310 14:59 20.05.2020
2729 Rain 16 1011 54 10000 7 310 14:37 20.05.2020
2730 Rain 17 1011 58 10000 6 310 14:19 20.05.2020
2731 Clouds 16 1012 58 10000 6 330 13:39 20.05.2020
2732 Clouds 17 1012 55 10000 6 320 13:18 20.05.2020
2733 Clouds 15 1012 62 10000 6 330 12:42 20.05.2020
2734 Clouds 14 1012 62 10000 8 320 12:21 20.05.2020
2735 Clouds 15 1012 67 10000 7 330 11:39 20.05.2020
2736 Clouds 14 1012 87 10000 6 330 11:20 20.05.2020
2737 Clouds 13 1012 87 10000 6 330 10:55 20.05.2020
2738 Rain 13 1012 82 10000 5 300 10:37 20.05.2020
2739 Rain 13 1011 87 7000 6 320 10:19 20.05.2020
2740 Clouds 13 1011 82 10000 6 310 09:41 20.05.2020
2741 Rain 13 1011 87 10000 5 310 09:20 20.05.2020
2742 Clouds 13 1011 82 10000 6 300 08:42 20.05.2020
2743 Clouds 13 1011 82 10000 7 310 08:20 20.05.2020
2744 Clouds 12 1011 82 10000 7 310 07:50 20.05.2020
2745 Clouds 12 1011 87 10000 7 300 07:25 20.05.2020
2746 Clouds 12 1011 87 10000 5 320 06:55 20.05.2020
2747 Clouds 12 1011 93 10000 4 300 06:20 20.05.2020
2748 Rain 12 1010 93 10000 4 270 04:59 20.05.2020
2749 Clouds 12 1010 93 10000 3 270 04:19 20.05.2020
2750 Rain 12 1011 93 7000 2 270 03:35 20.05.2020
2751 Rain 13 1011 87 10000 5 280 01:45 20.05.2020
2752 Rain 13 1011 87 10000 3 250 01:23 20.05.2020
2753 Clouds 13 1011 93 10000 2 250 00:41 20.05.2020
2754 Clouds 13 1012 87 10000 3 230 00:21 20.05.2020
2755 Clouds 13 1012 93 10000 2 240 23:37 19.05.2020
2756 Rain 13 1012 87 10000 3 230 23:19 19.05.2020
2757 Rain 13 1012 87 10000 3 230 22:55 19.05.2020
2758 Rain 13 1012 93 10000 2 230 22:36 19.05.2020
2759 Rain 13 1013 93 10000 2 270 22:18 19.05.2020
2760 Rain 13 1013 93 10000 3 220 21:55 19.05.2020
2761 Rain 13 1013 93 10000 3 220 21:36 19.05.2020
2762 Rain 13 1013 93 10000 2 230 21:18 19.05.2020
2763 Rain 13 1013 93 10000 2 230 20:55 19.05.2020
2764 Rain 13 1013 93 10000 2 240 20:37 19.05.2020
2765 Clouds 13 1013 87 10000 2 230 20:19 19.05.2020
2766 Rain 14 1013 87 10000 2 220 19:38 19.05.2020
2767 Rain 14 1013 87 10000 3 210 19:20 19.05.2020
2768 Rain 14 1014 82 10000 2 230 18:45 19.05.2020
2769 Rain 15 1014 82 10000 2 230 18:23 19.05.2020
2770 Rain 15 1014 82 10000 2 240 17:58 19.05.2020
2771 Rain 15 1014 77 10000 3 290 17:39 19.05.2020
2772 Clouds 16 1014 77 10000 3 300 17:20 19.05.2020
2773 Clouds 16 1015 77 10000 4 300 16:42 19.05.2020
2774 Clouds 16 1015 77 10000 4 300 16:23 19.05.2020
2775 Clouds 16 1015 77 10000 5 300 15:58 19.05.2020
2776 Rain 15 1015 82 10000 4 280 15:39 19.05.2020
2777 Rain 14 1015 82 10000 2 270 15:20 19.05.2020
2778 Rain 15 1015 82 10000 2 270 14:54 19.05.2020
2779 Rain 14 1016 87 10000 3 260 14:36 19.05.2020
2780 Rain 14 1016 87 10000 4 240 14:18 19.05.2020
2781 Rain 14 1016 87 10000 4 240 13:54 19.05.2020
2782 Rain 14 1016 93 10000 3 210 13:36 19.05.2020
2783 Rain 13 1017 93 9000 3 200 13:18 19.05.2020
2784 Rain 12 1017 100 10000 2 190 12:40 19.05.2020
2785 Rain 11 1017 93 10000 2 180 12:22 19.05.2020
2786 Rain 11 1017 93 10000 2 180 11:59 19.05.2020
2787 Rain 11 1017 93 9000 2 160 11:40 19.05.2020
2788 Rain 11 1017 93 10000 2 150 11:21 19.05.2020
2789 Rain 10 1017 93 10000 2 150 10:49 19.05.2020
2790 Rain 10 1017 100 10000 2 170 10:29 19.05.2020
2791 Rain 10 1018 93 9000 2 220 09:59 19.05.2020
2792 Rain 10 1018 93 9000 1 260 09:41 19.05.2020
2793 Rain 10 1018 93 9000 1 260 09:23 19.05.2020
2794 Rain 10 1019 93 10000 2 240 08:44 19.05.2020
2795 Rain 10 1019 93 10000 2 240 08:24 19.05.2020
2796 Rain 10 1019 87 10000 3 250 07:45 19.05.2020
2797 Rain 10 1019 87 10000 3 250 07:26 19.05.2020
2798 Rain 10 1019 87 10000 2 230 06:54 19.05.2020
2799 Clouds 9 1019 87 10000 2 230 06:25 19.05.2020
2800 Clouds 10 1019 87 10000 2 240 05:42 19.05.2020
2801 Clouds 9 1019 93 10000 2 220 04:56 19.05.2020
2802 Clouds 9 1019 93 10000 2 230 04:32 19.05.2020
2803 Clouds 9 1019 81 10000 2 260 01:32 19.05.2020
2804 Clouds 9 1020 81 10000 2 260 00:47 19.05.2020
2805 Clouds 9 1020 76 10000 2 240 00:25 19.05.2020
2806 Clouds 10 1020 76 10000 2 240 23:58 18.05.2020
2807 Clouds 10 1020 76 10000 2 240 23:58 18.05.2020
2808 Clouds 10 1020 76 10000 3 260 23:39 18.05.2020
2809 Clouds 10 1020 76 10000 3 260 23:19 18.05.2020
2810 Clouds 10 1019 71 10000 3 310 22:41 18.05.2020
2811 Clouds 10 1019 71 10000 3 310 22:22 18.05.2020
2812 Clouds 11 1019 66 10000 4 320 21:56 18.05.2020
2813 Clear 11 1019 62 10000 6 310 21:38 18.05.2020
2814 Clouds 11 1019 62 10000 6 310 21:38 18.05.2020
2815 Clear 12 1019 62 10000 6 320 21:18 18.05.2020
2816 Clouds 12 1019 62 10000 6 310 20:43 18.05.2020
2817 Clouds 12 1018 62 10000 5 320 20:22 18.05.2020
2818 Clouds 12 1018 62 10000 5 320 19:58 18.05.2020
2819 Clouds 13 1018 62 10000 6 330 19:40 18.05.2020
2820 Clouds 14 1017 62 10000 5 330 19:19 18.05.2020
2821 Clouds 14 1017 54 10000 8 310 18:46 18.05.2020
2822 Clouds 15 1017 54 10000 8 310 18:24 18.05.2020
2823 Clouds 15 1017 51 10000 8 290 17:54 18.05.2020
2824 Rain 15 1017 55 10000 7 290 17:36 18.05.2020
2825 Rain 15 1017 54 10000 8 310 17:18 18.05.2020
2826 Rain 15 1017 54 10000 8 310 17:18 18.05.2020
2827 Rain 15 1017 54 10000 8 310 17:18 18.05.2020
2828 Rain 15 1016 54 10000 7 300 16:43 18.05.2020
2829 Rain 15 1016 48 10000 7 300 16:21 18.05.2020
2830 Rain 16 1016 44 10000 10 290 15:57 18.05.2020
2831 Rain 16 1016 44 10000 10 290 15:39 18.05.2020
2832 Rain 17 1016 44 10000 10 290 15:20 18.05.2020
2833 Rain 17 1015 39 10000 12 280 14:56 18.05.2020
2834 Rain 18 1015 39 10000 11 270 14:38 18.05.2020
2835 Rain 18 1015 36 10000 10 260 14:19 18.05.2020
2836 Rain 19 1015 39 10000 11 270 13:41 18.05.2020
2837 Clouds 17 1016 44 10000 9 260 13:20 18.05.2020
2838 Clouds 17 1016 44 10000 9 260 12:58 18.05.2020
2839 Clouds 18 1016 42 10000 9 250 12:39 18.05.2020
2840 Clouds 18 1016 42 10000 9 250 12:19 18.05.2020
2841 Clouds 17 1016 51 10000 8 270 11:47 18.05.2020
2842 Clouds 16 1016 51 10000 8 270 11:47 18.05.2020
2843 Clouds 17 1016 51 10000 8 270 11:27 18.05.2020
2844 Clouds 15 1017 51 10000 8 270 10:59 18.05.2020
2845 Clouds 15 1017 51 10000 8 270 10:41 18.05.2020
2846 Clouds 16 1017 51 10000 8 270 10:22 18.05.2020
2847 Clouds 15 1017 58 10000 6 270 09:44 18.05.2020
2848 Clouds 14 1017 58 10000 6 270 09:25 18.05.2020
2849 Clouds 13 1017 62 10000 5 270 08:46 18.05.2020
2850 Clouds 12 1017 62 10000 5 280 08:27 18.05.2020
2851 Clouds 12 1017 62 10000 5 280 07:58 18.05.2020
2852 Clear 11 1018 66 10000 5 290 07:39 18.05.2020
2853 Clear 11 1018 71 10000 5 290 07:20 18.05.2020
2854 Clear 10 1018 76 10000 5 290 06:45 18.05.2020
2855 Clear 9 1017 87 10000 4 280 05:50 18.05.2020
2856 Clear 10 1017 87 10000 4 280 05:26 18.05.2020
2857 Clear 10 1016 81 10000 4 280 03:37 18.05.2020
2858 Clouds 11 1016 87 10000 4 280 02:30 18.05.2020
2859 Rain 11 1016 93 10000 3 260 01:23 18.05.2020
2860 Clouds 11 1015 93 10000 3 250 00:27 18.05.2020
2861 Clouds 11 1016 93 10000 3 250 23:58 17.05.2020
2862 Clouds 11 1016 93 10000 3 250 23:58 17.05.2020
2863 Clouds 11 1016 93 10000 4 250 23:40 17.05.2020
2864 Clouds 11 1016 93 10000 4 250 23:20 17.05.2020
2865 Clouds 11 1016 93 10000 4 250 22:57 17.05.2020
2866 Clouds 11 1016 93 10000 3 240 22:37 17.05.2020
2867 Clouds 11 1016 93 10000 3 240 22:37 17.05.2020
2868 Clouds 11 1016 93 10000 3 240 22:19 17.05.2020
2869 Clouds 11 1016 93 10000 3 240 21:56 17.05.2020
2870 Clouds 11 1016 93 10000 2 220 21:38 17.05.2020
2871 Rain 11 1015 87 10000 2 210 21:18 17.05.2020
2872 Clouds 11 1016 87 10000 3 220 20:42 17.05.2020
2873 Clouds 11 1016 87 10000 3 220 20:22 17.05.2020
2874 Clouds 12 1016 87 10000 4 230 19:57 17.05.2020
2875 Rain 12 1016 81 10000 3 230 19:39 17.05.2020
2876 Rain 12 1016 81 10000 3 230 19:20 17.05.2020
2877 Clouds 13 1016 76 10000 6 220 18:43 17.05.2020
2878 Clouds 13 1016 76 10000 6 220 18:24 17.05.2020
2879 Clouds 14 1016 71 10000 6 230 17:59 17.05.2020
2880 Clouds 14 1016 62 10000 6 230 17:39 17.05.2020
2881 Clouds 14 1016 62 10000 5 220 17:21 17.05.2020
2882 Clouds 15 1016 58 10000 7 230 16:40 17.05.2020
2883 Clouds 15 1016 58 10000 7 230 16:40 17.05.2020
2884 Clouds 15 1016 55 10000 6 230 16:21 17.05.2020
2885 Clouds 15 1016 55 10000 6 230 15:59 17.05.2020
2886 Rain 17 1016 48 10000 3 230 15:39 17.05.2020
2887 Rain 17 1017 48 10000 4 230 15:21 17.05.2020
2888 Rain 17 1017 48 10000 4 230 14:54 17.05.2020
2889 Rain 17 1017 48 10000 4 230 14:54 17.05.2020
2890 Rain 17 1017 51 10000 4 230 14:36 17.05.2020
2891 Rain 17 1018 51 10000 4 220 14:18 17.05.2020
2892 Rain 18 1018 48 10000 5 230 13:40 17.05.2020
2893 Rain 18 1019 48 10000 6 230 13:20 17.05.2020
2894 Clear 8 1021 81 10000 2 230 04:51 17.05.2020
2895 Clear 7 1021 81 10000 2 230 03:18 17.05.2020
2896 Clouds 9 1021 75 10000 2 240 02:20 17.05.2020
2897 Clouds 9 1021 75 10000 2 220 01:47 17.05.2020
2898 Clouds 10 1020 70 10000 2 240 00:41 17.05.2020
2899 Clouds 10 1020 66 10000 3 250 00:21 17.05.2020
2900 Clouds 11 1020 61 10000 2 260 23:40 16.05.2020
2901 Clouds 11 1020 61 10000 2 260 23:21 16.05.2020
2902 Clouds 12 1020 62 10000 3 270 22:58 16.05.2020
2903 Clouds 12 1020 58 10000 3 260 22:40 16.05.2020
2904 Clouds 12 1020 58 10000 4 270 22:20 16.05.2020
2905 Clouds 12 1020 58 10000 4 270 21:55 16.05.2020
2906 Clouds 13 1020 58 10000 3 260 21:36 16.05.2020
2907 Clouds 13 1020 58 10000 3 260 21:36 16.05.2020
2908 Clear 13 1020 50 10000 3 260 21:18 16.05.2020
2909 Clear 13 1019 50 10000 3 260 20:42 16.05.2020
2910 Clouds 13 1019 50 10000 3 260 20:22 16.05.2020
2911 Clouds 14 1018 38 10000 5 270 19:59 16.05.2020
2912 Clouds 15 1018 38 10000 5 270 19:40 16.05.2020
2913 Clouds 15 1018 38 10000 5 270 19:40 16.05.2020
2914 Clouds 16 1018 38 10000 6 270 19:22 16.05.2020
2915 Clouds 16 1018 38 10000 6 270 19:22 16.05.2020
2916 Clouds 16 1018 38 10000 7 280 18:44 16.05.2020
2917 Clouds 16 1018 38 10000 7 280 18:25 16.05.2020
2918 Clouds 17 1018 36 10000 8 280 17:58 16.05.2020
2919 Clouds 17 1018 39 10000 7 280 17:40 16.05.2020
2920 Clouds 18 1018 39 10000 8 280 17:20 16.05.2020
2921 Clouds 17 1018 42 10000 8 280 16:42 16.05.2020
2922 Clouds 18 1018 42 10000 8 280 16:23 16.05.2020
2923 Clouds 18 1018 42 10000 8 280 16:23 16.05.2020
2924 Clouds 17 1018 44 10000 7 290 15:58 16.05.2020
2925 Clouds 18 1018 48 10000 7 280 15:40 16.05.2020
2926 Clouds 17 1018 48 10000 7 270 15:20 16.05.2020
2927 Clouds 17 1018 48 10000 7 270 14:48 16.05.2020
2928 Clouds 16 1018 48 10000 7 270 14:21 16.05.2020
2929 Clouds 17 1018 47 10000 6 260 13:59 16.05.2020
2930 Clouds 17 1018 51 10000 5 260 13:41 16.05.2020
2931 Clouds 17 1018 51 10000 5 260 13:23 16.05.2020
2932 Clouds 15 1018 54 10000 5 270 12:56 16.05.2020
2933 Clouds 16 1018 51 10000 5 280 12:38 16.05.2020
2934 Clouds 16 1018 63 10000 6 290 12:18 16.05.2020
2935 Clouds 15 1018 62 10000 5 250 11:40 16.05.2020
2936 Rain 15 1018 67 10000 5 260 11:22 16.05.2020
2937 Rain 14 1018 66 10000 5 260 10:56 16.05.2020
2938 Rain 14 1018 66 10000 5 260 10:37 16.05.2020
2939 Rain 13 1017 66 10000 5 290 10:19 16.05.2020
2940 Clouds 12 1017 71 10000 6 280 09:45 16.05.2020
2941 Clouds 12 1017 71 10000 6 280 09:27 16.05.2020
2942 Clouds 11 1017 76 10000 5 280 08:45 16.05.2020
2943 Clouds 10 1017 87 10000 5 270 08:23 16.05.2020
2944 Clouds 10 1017 87 10000 5 270 08:23 16.05.2020
2945 Clouds 10 1017 87 10000 5 270 07:56 16.05.2020
2946 Clouds 9 1017 93 10000 4 270 07:38 16.05.2020
2947 Clouds 9 1017 93 10000 4 270 07:19 16.05.2020
2948 Clouds 8 1017 93 10000 3 290 06:45 16.05.2020
2949 Rain 8 1017 93 10000 3 290 06:19 16.05.2020
2950 Rain 7 1016 100 10000 2 310 05:40 16.05.2020
2951 Clouds 7 1016 100 10000 3 310 04:51 16.05.2020
2952 Clouds 8 1015 93 9000 1 300 03:25 16.05.2020
2953 Clouds 8 1015 93 9000 1 0 02:38 16.05.2020
2954 Rain 8 1015 93 10000 1 290 01:56 16.05.2020
2955 Rain 8 1015 93 10000 1 290 01:35 16.05.2020
2956 Rain 8 1015 93 10000 1 260 00:55 16.05.2020
2957 Rain 7 1015 100 10000 1 240 00:37 16.05.2020
2958 Rain 8 1015 93 10000 1 0 00:18 16.05.2020
2959 Rain 8 1015 93 9000 1 0 23:37 15.05.2020
2960 Rain 8 1015 100 7000 1 0 23:18 15.05.2020
2961 Rain 8 1015 100 9000 2 290 22:40 15.05.2020
2962 Rain 8 1016 93 7000 2 320 22:20 15.05.2020
2963 Rain 9 1016 93 7000 2 320 21:55 15.05.2020
2964 Rain 9 1016 93 7000 2 320 21:55 15.05.2020
2965 Rain 9 1015 87 9000 3 300 21:36 15.05.2020
2966 Rain 9 1015 81 10000 3 310 21:18 15.05.2020
2967 Rain 10 1013 71 10000 3 30 20:43 15.05.2020
2968 Rain 10 1013 71 10000 3 30 20:43 15.05.2020
2969 Rain 10 1013 71 10000 3 30 20:25 15.05.2020
2970 Rain 11 1013 57 10000 3 330 19:59 15.05.2020
2971 Rain 11 1013 54 10000 2 300 19:41 15.05.2020
2972 Clouds 12 1013 54 10000 2 230 19:22 15.05.2020
2973 Rain 13 1013 50 10000 2 220 18:47 15.05.2020
2974 Rain 13 1014 47 10000 3 220 18:27 15.05.2020
2975 Rain 13 1014 47 10000 3 220 17:57 15.05.2020
2976 Clouds 14 1014 41 10000 4 230 17:36 15.05.2020
2977 Clouds 14 1014 46 10000 2 260 17:18 15.05.2020
2978 Clouds 15 1014 46 10000 2 260 16:54 15.05.2020
2979 Clouds 15 1014 44 10000 2 250 16:36 15.05.2020
2980 Clouds 15 1014 38 10000 2 280 16:18 15.05.2020
2981 Clouds 16 1015 41 10000 4 280 15:40 15.05.2020
2982 Clouds 16 1015 35 10000 4 250 15:20 15.05.2020
2983 Clouds 16 1015 41 10000 1 0 14:56 15.05.2020
2984 Clouds 16 1015 41 10000 1 0 14:38 15.05.2020
2985 Clouds 15 1015 41 10000 1 0 14:19 15.05.2020
2986 Clouds 17 1016 36 10000 2 320 13:41 15.05.2020
2987 Clouds 15 1016 41 10000 2 190 13:22 15.05.2020
2988 Clouds 15 1016 38 10000 3 290 12:42 15.05.2020
2989 Clouds 15 1016 38 10000 3 290 12:21 15.05.2020
2990 Clouds 15 1016 41 10000 2 80 11:59 15.05.2020
2991 Clouds 15 1017 44 10000 1 0 11:40 15.05.2020
2992 Clouds 13 1017 38 10000 2 250 11:21 15.05.2020
2993 Clouds 13 1017 38 10000 2 250 11:21 15.05.2020
2994 Clouds 14 1017 38 10000 2 250 10:59 15.05.2020
2995 Clouds 13 1018 43 10000 2 260 10:41 15.05.2020
2996 Clouds 13 1018 43 10000 2 260 10:23 15.05.2020
2997 Clouds 12 1018 50 10000 1 0 09:59 15.05.2020
2998 Clouds 12 1018 50 10000 2 290 09:38 15.05.2020
2999 Clear 11 1018 54 10000 1 0 09:19 15.05.2020
3000 Clear 11 1018 54 10000 1 0 08:57 15.05.2020
3001 Clear 11 1018 53 10000 1 0 08:37 15.05.2020
3002 Clear 9 1017 61 10000 2.11 328 08:18 15.05.2020
3003 Clear 10 1017 70 10000 2.11 328 07:44 15.05.2020
3004 Clear 9 1017 70 10000 2.26 324 07:24 15.05.2020
3005 Clear 7 1017 87 10000 2 310 06:41 15.05.2020
3006 Rain 5 1017 100 10000 2 260 05:49 15.05.2020
3007 Clear 4 1016 100 9000 3 270 04:27 15.05.2020
3008 Clear 5 1016 100 9000 3 270 03:45 15.05.2020
3009 Clouds 5 1015 100 8000 3 270 02:30 15.05.2020
3010 Clouds 6 1015 100 7000 3 280 01:20 15.05.2020
3011 Clouds 6 1015 93 9000 3 290 00:48 15.05.2020
3012 Clouds 6 1015 93 9000 3 290 00:29 15.05.2020
3013 Clouds 7 1014 93 10000 3 320 23:44 14.05.2020
3014 Clouds 7 1014 87 10000 3 320 23:21 14.05.2020
3015 Clouds 7 1014 87 10000 3 320 22:59 14.05.2020
3016 Clouds 7 1014 87 10000 4 330 22:40 14.05.2020
3017 Clouds 8 1014 93 10000 4 320 22:19 14.05.2020
3018 Clouds 8 1014 93 10000 4 320 21:56 14.05.2020
3019 Clouds 8 1013 93 10000 4 330 21:37 14.05.2020
3020 Clouds 8 1013 93 10000 4 330 21:19 14.05.2020
3021 Clouds 8 1012 87 10000 5 330 20:42 14.05.2020
3022 Clouds 9 1012 87 10000 5 330 20:21 14.05.2020
3023 Clouds 9 1012 87 10000 5 330 19:59 14.05.2020
3024 Clouds 9 1011 87 10000 5 350 19:39 14.05.2020
3025 Clouds 9 1011 93 10000 6 350 19:20 14.05.2020
3026 Rain 9 1011 93 10000 6 350 18:58 14.05.2020
3027 Rain 9 1011 93 10000 6 350 18:58 14.05.2020
3028 Rain 9 1010 93 9000 5 350 18:38 14.05.2020
3029 Rain 9 1010 93 9000 5 350 18:20 14.05.2020
3030 Rain 10 1010 93 9000 5 340 17:58 14.05.2020
3031 Rain 10 1010 93 9000 3 330 17:37 14.05.2020
3032 Rain 10 1009 93 6000 5 340 17:19 14.05.2020
3033 Rain 10 1009 93 6000 5 340 16:57 14.05.2020
3034 Clouds 10 1009 87 10000 5 330 16:38 14.05.2020
3035 Clouds 11 1008 81 10000 4 320 16:18 14.05.2020
3036 Clouds 12 1008 81 10000 4 320 15:55 14.05.2020
3037 Clouds 12 1008 87 10000 4 310 15:36 14.05.2020
3038 Clouds 12 1008 87 10000 4 310 15:36 14.05.2020
3039 Clouds 12 1008 87 10000 3 290 15:18 14.05.2020
3040 Clouds 12 1008 81 10000 2 270 14:40 14.05.2020
3041 Clouds 12 1008 87 10000 1 0 14:20 14.05.2020
3042 Clouds 13 1008 87 10000 1 0 13:57 14.05.2020
3043 Clouds 12 1009 81 10000 1 0 13:38 14.05.2020
3044 Clouds 11 1009 93 10000 1 0 13:20 14.05.2020
3045 Rain 11 1009 93 10000 1 0 12:58 14.05.2020
3046 Rain 10 1009 93 10000 1 0 12:38 14.05.2020
3047 Rain 10 1009 93 10000 1 0 12:20 14.05.2020
3048 Rain 10 1008 93 10000 3 120 11:57 14.05.2020
3049 Rain 10 1009 93 10000 2 110 11:38 14.05.2020
3050 Rain 10 1009 93 10000 2 110 11:38 14.05.2020
3051 Rain 10 1010 87 10000 2 90 11:20 14.05.2020
3052 Rain 10 1009 93 10000 2 110 11:20 14.05.2020
3053 Rain 9 1010 93 9000 2 30 10:45 14.05.2020
3054 Rain 9 1010 93 9000 2 30 10:26 14.05.2020
3055 Rain 9 1009 87 10000 2 20 09:57 14.05.2020
3056 Rain 9 1009 87 10000 2 20 09:39 14.05.2020
3057 Rain 9 1009 87 10000 2 20 09:19 14.05.2020
3058 Rain 8 1010 93 10000 3 130 08:40 14.05.2020
3059 Rain 8 1010 93 10000 3 130 08:20 14.05.2020
3060 Rain 8 1010 93 10000 3 130 07:45 14.05.2020
3061 Rain 8 1010 93 10000 3 130 07:24 14.05.2020
3062 Rain 9 1011 87 9000 2 120 06:54 14.05.2020
3063 Rain 9 1011 87 9000 2 120 06:29 14.05.2020
3064 Rain 9 1012 81 10000 3 170 05:46 14.05.2020
3065 Rain 9 1012 81 10000 3 170 05:23 14.05.2020
3066 Rain 10 1012 66 10000 2 140 04:25 14.05.2020
3067 Rain 10 1012 61 10000 2 140 03:22 14.05.2020
3068 Rain 11 1013 46 10000 2 150 02:41 14.05.2020
3069 Rain 12 1013 46 10000 3 150 01:56 14.05.2020
3070 Clouds 12 1013 46 10000 3 160 01:19 14.05.2020
3071 Clouds 12 1014 43 10000 2 170 00:43 14.05.2020
3072 Clouds 12 1015 43 10000 3 180 00:21 14.05.2020
3073 Clouds 12 1015 43 10000 2 180 23:40 13.05.2020
3074 Clouds 12 1015 43 10000 2 180 23:21 13.05.2020
3075 Clouds 13 1015 43 10000 3 190 22:42 13.05.2020
3076 Clouds 13 1015 57 10000 3 190 22:23 13.05.2020
3077 Clouds 13 1015 43 10000 3 190 22:23 13.05.2020
3078 Clouds 13 1015 57 10000 3 190 21:59 13.05.2020
3079 Clouds 13 1015 57 10000 3 190 21:59 13.05.2020
3080 Clouds 13 1015 57 10000 3 180 21:40 13.05.2020
3081 Clouds 13 1015 59 10000 3 190 21:20 13.05.2020
3082 Clouds 13 1015 59 10000 4 200 20:59 13.05.2020
3083 Clouds 14 1015 59 10000 4 200 20:39 13.05.2020
3084 Clouds 14 1015 57 10000 3 210 20:21 13.05.2020
3085 Clouds 14 1016 57 10000 3 220 19:43 13.05.2020
3086 Clouds 14 1016 53 10000 3 220 19:24 13.05.2020
3087 Clouds 14 1016 35 10000 3 230 18:55 13.05.2020
3088 Clear 15 1016 30 10000 4 230 18:36 13.05.2020
3089 Clear 15 1016 30 10000 4 250 18:18 13.05.2020
3090 Clear 15 1016 33 10000 5 230 17:38 13.05.2020
3091 Clear 15 1016 33 10000 6 240 17:19 13.05.2020
3092 Clear 15 1017 33 10000 5 240 16:54 13.05.2020
3093 Clear 15 1017 33 10000 5 240 16:36 13.05.2020
3094 Clear 15 1017 33 10000 5 240 16:36 13.05.2020
3095 Clear 15 1017 33 10000 4 220 16:18 13.05.2020
3096 Clear 14 1017 39 10000 5 260 15:42 13.05.2020
3097 Clear 15 1017 37 10000 5 260 15:19 13.05.2020
3098 Clear 15 1018 37 10000 4 260 14:56 13.05.2020
3099 Clear 15 1018 35 10000 3 260 14:38 13.05.2020
3100 Clear 15 1018 37 10000 3 250 14:19 13.05.2020
3101 Clear 13 1018 40 10000 4 230 13:55 13.05.2020
3102 Clear 14 1018 40 10000 4 230 13:36 13.05.2020
3103 Clear 15 1019 37 10000 4 240 13:18 13.05.2020
3104 Clear 13 1019 40 10000 6 260 12:42 13.05.2020
3105 Clear 12 1019 43 10000 3 250 12:21 13.05.2020
3106 Clear 12 1019 43 10000 3 250 11:56 13.05.2020
3107 Clear 12 1019 39 10000 4 270 11:38 13.05.2020
3108 Clear 11 1019 42 10000 4 280 11:20 13.05.2020
3109 Clear 12 1019 42 10000 4 280 10:58 13.05.2020
3110 Clear 11 1019 42 10000 4 270 10:38 13.05.2020
3111 Clouds 11 1019 45 10000 4 270 10:19 13.05.2020
3112 Clouds 9 1019 45 10000 4 270 09:49 13.05.2020
3113 Clouds 9 1019 45 10000 4 270 09:49 13.05.2020
3114 Clear 9 1019 49 10000 4 270 09:24 13.05.2020
3115 Clear 9 1020 57 10000 4 270 08:59 13.05.2020
3116 Clear 8 1020 61 10000 4 270 08:39 13.05.2020
3117 Clear 7 1019 65 10000 4 270 08:20 13.05.2020
3118 Clear 7 1019 65 10000 4 270 07:52 13.05.2020
3119 Clear 6 1019 62 10000 4 270 07:33 13.05.2020
3120 Clear 6 1019 62 10000 3 270 06:55 13.05.2020
3121 Clear 5 1018 69 10000 3 260 06:35 13.05.2020
3122 Clear 3 1017 80 10000 3 260 05:43 13.05.2020
3123 Clear 2 1017 80 10000 2 270 03:58 13.05.2020
3124 Clear 3 1016 69 10000 5 310 02:38 13.05.2020
3125 Clouds 4 1015 64 10000 6 320 01:46 13.05.2020
3126 Clouds 4 1015 64 10000 6 310 00:58 13.05.2020
3127 Clouds 5 1015 60 10000 7 310 00:25 13.05.2020
3128 Clouds 5 1014 60 10000 7 310 23:59 12.05.2020
3129 Clouds 5 1014 60 10000 7 320 23:39 12.05.2020
3130 Clouds 5 1014 60 10000 7 320 23:20 12.05.2020
3131 Clouds 5 1013 60 10000 7 320 22:42 12.05.2020
3132 Clouds 5 1013 60 10000 7 310 22:22 12.05.2020
3133 Clouds 5 1013 60 10000 7 310 21:57 12.05.2020
3134 Clouds 6 1012 60 10000 8 320 21:38 12.05.2020
3135 Clouds 6 1012 56 10000 8 320 21:20 12.05.2020
3136 Clouds 6 1012 56 10000 8 320 21:20 12.05.2020
3137 Clouds 6 1011 56 10000 9 330 20:59 12.05.2020
3138 Clouds 6 1011 56 10000 9 330 20:39 12.05.2020
3139 Clouds 6 1010 56 10000 10 320 20:21 12.05.2020
3140 Clouds 6 1009 56 10000 11 310 19:58 12.05.2020
3141 Clouds 6 1009 56 10000 11 310 19:39 12.05.2020
3142 Clouds 6 1009 56 10000 11 310 19:21 12.05.2020
3143 Clouds 6 1008 60 10000 8 320 18:56 12.05.2020
3144 Clouds 7 1008 56 10000 12 310 18:38 12.05.2020
3145 Clouds 8 1007 56 10000 9 320 18:19 12.05.2020
3146 Clouds 9 1006 57 10000 11 320 17:42 12.05.2020
3147 Clouds 9 1006 57 10000 11 320 17:24 12.05.2020
3148 Clouds 11 1005 53 10000 11 300 16:47 12.05.2020
3149 Clouds 12 1005 53 10000 11 300 16:26 12.05.2020
3150 Clouds 15 1003 62 10000 9 280 15:56 12.05.2020
3151 Clouds 15 1003 62 10000 9 280 15:38 12.05.2020
3152 Clouds 17 1002 63 10000 11 270 15:19 12.05.2020
3153 Clouds 17 1002 63 10000 11 270 14:57 12.05.2020
3154 Clouds 19 1001 59 10000 10 260 14:37 12.05.2020
3155 Clouds 18 1001 59 10000 10 260 14:19 12.05.2020
3156 Clouds 18 1000 68 10000 6 240 13:57 12.05.2020
3157 Clouds 19 1000 68 10000 6 240 13:39 12.05.2020
3158 Clouds 19 1000 72 10000 6 230 13:19 12.05.2020
3159 Clouds 18 1000 72 10000 6 230 12:57 12.05.2020
3160 Clouds 17 999 82 10000 4 220 12:39 12.05.2020
3161 Clouds 18 999 82 10000 4 220 12:21 12.05.2020
3162 Rain 16 999 87 10000 5 200 11:57 12.05.2020
3163 Rain 16 999 87 10000 5 200 11:38 12.05.2020
3164 Clouds 15 999 87 10000 5 190 11:20 12.05.2020
3165 Clouds 15 999 87 10000 5 210 10:57 12.05.2020
3166 Clouds 15 999 87 10000 5 210 10:39 12.05.2020
3167 Clouds 15 999 87 10000 5 210 10:20 12.05.2020
3168 Rain 15 999 87 10000 4 230 09:58 12.05.2020
3169 Rain 15 998 93 10000 2 220 09:39 12.05.2020
3170 Rain 14 998 93 10000 2 170 09:20 12.05.2020
3171 Rain 14 998 93 10000 5 190 08:42 12.05.2020
3172 Rain 13 999 87 9000 4 210 08:22 12.05.2020
3173 Rain 13 999 87 9000 4 210 07:58 12.05.2020
3174 Rain 13 999 82 10000 5 220 07:40 12.05.2020
3175 Rain 13 999 82 10000 5 220 07:20 12.05.2020
3176 Rain 14 998 67 10000 2 190 06:38 12.05.2020
3177 Rain 14 998 67 10000 2 190 06:38 12.05.2020
3178 Rain 14 998 67 10000 2 190 06:19 12.05.2020
3179 Rain 15 999 51 10000 4 220 05:45 12.05.2020
3180 Rain 16 998 48 10000 4 180 03:57 12.05.2020
3181 Clouds 16 1000 48 10000 5 180 03:19 12.05.2020
3182 Rain 17 1000 48 10000 5 190 02:27 12.05.2020
3183 Rain 18 1001 42 10000 5 180 01:40 12.05.2020
3184 Clouds 18 1001 45 10000 5 180 00:59 12.05.2020
3185 Clouds 19 1001 42 10000 5 190 00:24 12.05.2020
3186 Clouds 20 1002 45 10000 5 190 23:57 11.05.2020
3187 Clouds 20 1002 46 10000 5 190 23:38 11.05.2020
3188 Clouds 20 1002 46 10000 5 190 23:19 11.05.2020
3189 Clouds 21 1002 43 10000 5 190 22:56 11.05.2020
3190 Clouds 21 1002 43 10000 5 190 22:56 11.05.2020
3191 Clouds 21 1002 43 10000 5 190 22:38 11.05.2020
3192 Clouds 21 1002 43 10000 5 190 22:19 11.05.2020
3193 Clouds 21 1002 43 10000 5 190 21:55 11.05.2020
3194 Clouds 21 1002 43 10000 5 190 21:55 11.05.2020
3195 Clouds 21 1003 43 10000 4 180 21:36 11.05.2020
3196 Clouds 21 1003 43 10000 4 180 21:36 11.05.2020
3197 Clouds 22 1003 40 10000 4 180 21:18 11.05.2020
3198 Clouds 22 1003 40 10000 4 180 20:54 11.05.2020
3199 Clouds 22 1003 38 10000 3 180 20:36 11.05.2020
3200 Clear 23 1003 38 10000 3 200 20:18 11.05.2020
3201 Clear 23 1003 36 10000 3 190 19:41 11.05.2020
3202 Clear 24 1004 33 10000 4 200 19:22 11.05.2020
3203 Clear 24 1004 33 10000 4 200 18:57 11.05.2020
3204 Clear 25 1004 29 10000 4 200 18:38 11.05.2020
3205 Clouds 26 1004 29 10000 6 230 18:19 11.05.2020
3206 Clouds 26 1004 29 10000 6 230 17:57 11.05.2020
3207 Clouds 27 1004 28 10000 6 210 17:39 11.05.2020
3208 Clouds 27 1005 28 10000 5 210 17:20 11.05.2020
3209 Clouds 27 1005 30 10000 5 200 16:56 11.05.2020
3210 Clouds 27 1005 30 10000 5 200 16:37 11.05.2020
3211 Clouds 26 1005 31 10000 5 190 16:18 11.05.2020
3212 Clouds 26 1006 34 10000 6 180 15:42 11.05.2020
3213 Clear 26 1006 34 10000 4 190 15:20 11.05.2020
3214 Clear 25 1007 36 10000 4 200 14:58 11.05.2020
3215 Clear 26 1007 36 10000 4 200 14:40 11.05.2020
3216 Clouds 25 1007 36 10000 4 210 14:21 11.05.2020
3217 Clouds 24 1008 35 10000 3 200 13:42 11.05.2020
3218 Clouds 24 1008 35 10000 3 200 13:23 11.05.2020
3219 Clouds 24 1008 33 10000 4 220 12:59 11.05.2020
3220 Clouds 24 1009 33 10000 4 210 12:41 11.05.2020
3221 Clouds 23 1009 33 10000 4 210 12:23 11.05.2020
3222 Clouds 23 1009 33 10000 4 210 11:57 11.05.2020
3223 Clouds 24 1009 35 10000 4 220 11:39 11.05.2020
3224 Clouds 24 1010 35 10000 4 210 11:21 11.05.2020
3225 Clouds 23 1010 35 10000 4 210 10:58 11.05.2020
3226 Clouds 22 1010 40 10000 4 220 10:39 11.05.2020
3227 Clouds 22 1010 37 10000 5 220 10:21 11.05.2020
3228 Clouds 22 1010 40 10000 4 220 10:21 11.05.2020
3229 Clouds 22 1010 37 10000 5 220 09:58 11.05.2020
3230 Clouds 21 1010 43 10000 4 220 09:39 11.05.2020
3231 Clouds 20 1010 45 10000 3 240 09:19 11.05.2020
3232 Clouds 19 1010 48 10000 3 240 08:44 11.05.2020
3233 Clouds 19 1010 48 10000 3 240 08:25 11.05.2020
3234 Clouds 18 1010 52 10000 2 230 07:59 11.05.2020
3235 Clouds 16 1011 59 10000 2 230 07:41 11.05.2020
3236 Clouds 16 1011 59 10000 2 230 07:23 11.05.2020
3237 Clouds 12 1011 87 10000 2 240 06:39 11.05.2020
3238 Clouds 10 1011 81 10000 1 220 05:54 11.05.2020
3239 Clouds 8 1011 93 10000 2 220 05:23 11.05.2020
3240 Clouds 9 1011 93 10000 2 230 03:56 11.05.2020
3241 Clear 10 1011 93 10000 1 230 02:36 11.05.2020
3242 Clear 10 1011 87 10000 1 240 02:18 11.05.2020
3243 Clear 12 1011 87 10000 2 230 01:21 11.05.2020
3244 Clear 12 1011 87 10000 2 230 00:41 11.05.2020
3245 Clear 13 1011 81 10000 2 230 00:18 11.05.2020
3246 Clear 13 1011 81 10000 1 0 23:40 10.05.2020
3247 Clear 13 1011 81 10000 1 230 23:20 10.05.2020
3248 Clear 13 1011 81 10000 1 230 22:55 10.05.2020
3249 Clear 13 1011 76 10000 2 230 22:37 10.05.2020
3250 Clear 13 1011 76 10000 1 230 22:18 10.05.2020
3251 Clear 14 1011 76 10000 1 200 21:42 10.05.2020
3252 Clear 14 1011 71 10000 2 210 21:18 10.05.2020
3253 Clear 16 1011 58 10000 2 210 20:43 10.05.2020
3254 Clouds 17 1011 58 10000 2 210 20:25 10.05.2020
3255 Clouds 18 1011 48 10000 2 220 19:59 10.05.2020
3256 Clouds 19 1011 42 10000 2 220 19:39 10.05.2020
3257 Clouds 19 1011 42 10000 2 220 19:39 10.05.2020
3258 Clouds 19 1011 42 10000 2 220 19:21 10.05.2020
3259 Clouds 20 1011 40 10000 1 0 19:21 10.05.2020
3260 Clouds 20 1011 37 10000 2 260 18:56 10.05.2020
3261 Clouds 20 1011 37 10000 2 260 18:36 10.05.2020
3262 Clouds 20 1011 40 10000 5 300 18:18 10.05.2020
3263 Clouds 21 1010 35 10000 4 280 17:58 10.05.2020
3264 Clouds 21 1010 35 10000 4 280 17:39 10.05.2020
3265 Clouds 21 1011 37 10000 5 280 17:20 10.05.2020
3266 Clouds 21 1011 37 10000 5 280 16:44 10.05.2020
3267 Clouds 21 1011 35 10000 4 320 16:21 10.05.2020
3268 Clouds 21 1011 35 10000 4 320 15:58 10.05.2020
3269 Clouds 21 1011 40 10000 5 280 15:40 10.05.2020
3270 Clouds 21 1011 37 10000 5 330 15:22 10.05.2020
3271 Clouds 21 1011 37 10000 5 330 14:56 10.05.2020
3272 Clouds 21 1011 40 10000 4 300 14:38 10.05.2020
3273 Clouds 21 1011 37 10000 6 290 14:19 10.05.2020
3274 Clouds 21 1011 37 10000 6 290 14:19 10.05.2020
3275 Clouds 21 1011 37 10000 6 290 13:58 10.05.2020
3276 Clouds 21 1011 40 10000 5 310 13:37 10.05.2020
3277 Clouds 20 1011 37 10000 5 310 13:19 10.05.2020
3278 Clouds 21 1011 37 10000 6 310 12:56 10.05.2020
3279 Clouds 20 1011 37 10000 6 310 12:37 10.05.2020
3280 Clouds 19 1011 42 10000 6 350 12:19 10.05.2020
3281 Clouds 19 1011 42 10000 6 350 12:19 10.05.2020
3282 Clouds 19 1011 42 10000 6 350 11:54 10.05.2020
3283 Clouds 19 1011 39 10000 5 350 11:36 10.05.2020
3284 Clouds 19 1011 39 10000 6 330 11:18 10.05.2020
3285 Clouds 19 1011 45 10000 5 340 10:42 10.05.2020
3286 Clouds 19 1011 45 10000 5 340 10:24 10.05.2020
3287 Clouds 18 1011 48 10000 5 310 09:42 10.05.2020
3288 Clouds 16 1011 55 10000 5 300 09:23 10.05.2020
3289 -273 0 0 0 0 0 08:59 10.05.2020
3290 Clouds 15 1011 67 10000 3 290 08:40 10.05.2020
3291 Clouds 13 1011 71 10000 3 270 08:22 10.05.2020
3292 Clouds 12 1011 66 10000 3 270 07:42 10.05.2020
3293 Clouds 13 1011 66 10000 3 270 07:19 10.05.2020
3294 Clouds 13 1011 66 10000 5 270 06:50 10.05.2020
3295 Clouds 12 1010 66 10000 3 250 06:27 10.05.2020
3296 Clouds 11 1010 71 10000 2 240 05:46 10.05.2020
3297 Clouds 11 1010 76 10000 2 250 04:48 10.05.2020
3298 Clouds 11 1010 76 10000 2 250 04:29 10.05.2020
3299 Clouds 12 1011 66 10000 2 240 03:51 10.05.2020
3300 Clouds 12 1011 66 10000 3 260 03:30 10.05.2020
3301 Clouds 11 1011 66 10000 2 240 02:25 10.05.2020
3302 Clouds 11 1011 61 10000 2 240 01:59 10.05.2020
3303 Clouds 12 1011 57 10000 2 250 01:40 10.05.2020
3304 Clouds 11 1011 61 10000 2 240 01:18 10.05.2020
3305 Clouds 12 1011 61 10000 2 240 00:52 10.05.2020
3306 Clouds 11 1012 70 10000 3 230 00:22 10.05.2020
3307 Clouds 11 1012 76 10000 2 230 23:40 09.05.2020
3308 Clouds 11 1012 76 10000 2 230 23:22 09.05.2020
3309 Clouds 10 1012 87 10000 1 230 22:59 09.05.2020
3310 Clouds 10 1012 81 10000 1 210 22:41 09.05.2020
3311 Clouds 11 1012 81 10000 1 230 22:22 09.05.2020
3312 Clouds 10 1012 81 10000 1 230 21:57 09.05.2020
3313 Clouds 10 1012 81 9000 1 0 21:39 09.05.2020
3314 Clouds 12 1012 71 10000 1 170 21:20 09.05.2020
3315 Clouds 12 1012 71 10000 1 170 20:57 09.05.2020
3316 Clouds 14 1012 50 9000 1.63 219 20:38 09.05.2020
3317 Clouds 14 1012 44 10000 0.63 229 20:19 09.05.2020
3318 Clouds 14 1012 44 10000 0.63 229 19:54 09.05.2020
3319 Clouds 15 1012 41 10000 1 350 19:36 09.05.2020
3320 Clouds 16 1012 36 10000 1 0 19:18 09.05.2020
3321 Clouds 15 1012 36 10000 3 330 18:41 09.05.2020
3322 Clouds 16 1012 36 10000 4 340 18:21 09.05.2020
3323 Clouds 17 1012 36 10000 6 310 17:44 09.05.2020
3324 Clouds 16 1012 36 10000 6 310 17:23 09.05.2020
3325 Clouds 17 1012 33 10000 6 310 16:56 09.05.2020
3326 Clouds 17 1012 33 10000 4 320 16:37 09.05.2020
3327 Clouds 17 1012 41 10000 5 330 16:18 09.05.2020
3328 Clouds 17 1013 39 10000 3 310 15:42 09.05.2020
3329 Clouds 17 1013 39 10000 3 310 15:22 09.05.2020
3330 Clouds 17 1013 33 10000 5 310 14:55 09.05.2020
3331 Clouds 17 1013 43 10000 4 360 14:37 09.05.2020
3332 Clouds 16 1013 36 10000 2 40 14:18 09.05.2020
3333 Clouds 16 1013 33 10000 2 310 13:43 09.05.2020
3334 Clouds 16 1013 36 10000 3 20 13:22 09.05.2020
3335 Clouds 16 1013 36 10000 3 20 12:59 09.05.2020
3336 Clouds 16 1013 33 10000 3 20 12:39 09.05.2020
3337 Clouds 15 1014 36 10000 2 70 12:21 09.05.2020
3338 Clouds 16 1014 41 10000 1 0 11:45 09.05.2020
3339 Clouds 15 1014 36 10000 3 330 11:20 09.05.2020
3340 Clouds 15 1014 36 10000 3 330 10:54 09.05.2020
3341 Clouds 14 1014 35 10000 4 320 10:36 09.05.2020
3342 Clouds 15 1014 41 10000 3 360 10:18 09.05.2020
3343 Clouds 14 1014 48 10000 3 330 09:43 09.05.2020
3344 Clouds 14 1014 43 10000 2 340 09:20 09.05.2020
3345 Clouds 14 1014 43 10000 2 340 08:54 09.05.2020
3346 Clouds 12 1014 54 10000 2 280 08:54 09.05.2020
3347 Clouds 12 1014 54 10000 2 280 08:35 09.05.2020
3348 Clouds 11 1014 57 10000 3 280 07:56 09.05.2020
3349 Clouds 11 1014 70 10000 2 270 07:38 09.05.2020
3350 Clouds 8 1014 75 10000 2 250 07:20 09.05.2020
3351 Clouds 6 1014 81 10000 2 250 06:27 09.05.2020
3352 Clouds 5 1014 93 10000 2 250 05:50 09.05.2020
3353 Clouds 5 1014 100 10000 2 250 05:20 09.05.2020
3354 Clouds 5 1014 93 10000 2 230 03:39 09.05.2020
3355 Clouds 3 1014 93 10000 2 240 02:54 09.05.2020
3356 Clouds 3 1014 100 9000 2 230 02:30 09.05.2020
3357 Clouds 5 1014 93 9000 1 240 01:49 09.05.2020
3358 Clear 4 1014 100 8000 2 240 01:21 09.05.2020
3359 Clear 5 1015 93 9000 2 250 00:42 09.05.2020
3360 Clear 5 1015 93 9000 2.09 315 00:18 09.05.2020
3361 Clear 5 1015 93 10000 2.09 315 23:43 08.05.2020
3362 Clear 5 1015 93 10000 2.29 318 23:25 08.05.2020
3363 Clear 5 1015 93 9000 2.29 318 22:55 08.05.2020
3364 Clear 7 1015 80 9000 1 250 22:37 08.05.2020
3365 Clear 7 1015 75 10000 2.53 326 22:19 08.05.2020
3366 Clear 7 1015 75 10000 2.53 326 21:54 08.05.2020
3367 Clear 7 1015 81 10000 1 260 21:36 08.05.2020
3368 Clear 8 1015 75 10000 1 290 21:18 08.05.2020
3369 Clear 10 1015 75 10000 1 290 20:55 08.05.2020
3370 Clear 9 1015 61 10000 1 330 20:36 08.05.2020
3371 Clear 9 1015 61 10000 1 330 20:36 08.05.2020
3372 Clouds 11 1014 53 10000 1 360 20:18 08.05.2020
3373 Clouds 12 1014 59 10000 2 350 19:41 08.05.2020
3374 Clouds 12 1014 56 10000 3 20 19:21 08.05.2020
3375 Clouds 13 1014 56 10000 3 20 18:45 08.05.2020
3376 Clouds 13 1014 52 10000 3 20 18:27 08.05.2020
3377 Clouds 14 1014 35 10000 3 360 17:43 08.05.2020
3378 Clouds 14 1014 47 10000 4 10 17:20 08.05.2020
3379 Clouds 14 1014 47 10000 4 10 16:56 08.05.2020
3380 Clouds 14 1013 33 10000 5 360 16:38 08.05.2020
3381 Clouds 14 1013 37 10000 5 40 16:19 08.05.2020
3382 Clouds 15 1013 33 10000 6 340 15:43 08.05.2020
3383 Clouds 14 1013 35 10000 5 320 15:22 08.05.2020
3384 Clouds 15 1013 35 10000 5 320 14:57 08.05.2020
3385 Clouds 14 1014 37 10000 6 340 14:39 08.05.2020
3386 Clouds 14 1014 37 10000 7 320 14:19 08.05.2020
3387 Clouds 14 1014 33 10000 7 310 13:55 08.05.2020
3388 Clouds 14 1014 33 10000 7 310 13:37 08.05.2020
3389 Clouds 13 1014 32 10000 6 320 13:18 08.05.2020
3390 Clouds 14 1014 33 10000 5 340 12:42 08.05.2020
3391 Clear 14 1014 33 10000 5 340 12:23 08.05.2020
3392 Clear 14 1014 41 10000 7 330 11:45 08.05.2020
3393 Clear 14 1014 41 10000 7 330 11:24 08.05.2020
3394 Clear 13 1014 45 10000 6 360 10:59 08.05.2020
3395 Clear 13 1014 45 10000 6 360 10:59 08.05.2020
3396 Clear 13 1014 46 10000 7 350 10:41 08.05.2020
3397 Clear 12 1014 46 10000 6 340 10:19 08.05.2020
3398 Clear 12 1014 46 10000 6 340 09:58 08.05.2020
3399 Clear 11 1014 50 10000 6 320 09:39 08.05.2020
3400 Clear 10 1014 57 10000 5 350 09:18 08.05.2020
3401 Clear 9 1013 57 10000 5 340 08:45 08.05.2020
3402 Clear 9 1013 57 10000 5 340 08:22 08.05.2020
3403 Clear 8 1013 70 10000 6 340 07:44 08.05.2020
3404 Clear 7 1013 70 10000 6 340 07:25 08.05.2020
3405 Clear 7 1013 65 10000 6 330 06:51 08.05.2020
3406 Clear 6 1013 70 10000 5 330 06:24 08.05.2020
3407 Clear 5 1012 75 10000 4 320 05:58 08.05.2020
3408 Clear 5 1011 81 10000 5 330 04:44 08.05.2020
3409 Clear 6 1011 93 10000 4 310 02:38 08.05.2020
3410 Clouds 7 1011 87 10000 4 320 01:56 08.05.2020
3411 Clouds 7 1011 87 10000 4 320 01:29 08.05.2020
3412 Clouds 7 1011 93 10000 4 310 00:58 08.05.2020
3413 Clouds 7 1011 93 10000 4 310 00:39 08.05.2020
3414 Clouds 8 1011 87 10000 4 310 00:20 08.05.2020
3415 Clouds 8 1010 87 10000 3 310 23:42 07.05.2020
3416 Clouds 7 1010 93 10000 3 310 23:23 07.05.2020
3417 Clouds 7 1010 93 10000 3 310 22:57 07.05.2020
3418 Clouds 8 1010 93 10000 4 300 22:39 07.05.2020
3419 Clouds 8 1010 100 10000 3 300 22:19 07.05.2020
3420 Rain 8 1010 100 10000 3 300 21:55 07.05.2020
3421 Rain 8 1010 100 10000 3 290 21:37 07.05.2020
3422 Rain 8 1009 93 10000 4 300 21:19 07.05.2020
3423 Clouds 8 1009 93 10000 4 320 20:42 07.05.2020
3424 Clouds 8 1009 93 10000 4 320 20:23 07.05.2020
3425 Clouds 9 1009 93 10000 4 330 19:58 07.05.2020
3426 Clouds 9 1008 87 10000 3 20 19:38 07.05.2020
3427 Rain 9 1008 87 10000 4 320 19:20 07.05.2020
3428 Rain 9 1007 93 10000 4 300 18:45 07.05.2020
3429 Clouds 9 1007 93 10000 4 300 18:26 07.05.2020
3430 Rain 9 1007 93 10000 4 290 17:57 07.05.2020
3431 Rain 9 1007 93 10000 4 310 17:36 07.05.2020
3432 Rain 9 1007 93 10000 4 310 17:18 07.05.2020
3433 Rain 9 1006 93 10000 3 300 16:40 07.05.2020
3434 Rain 8 1006 93 10000 3 270 16:18 07.05.2020
3435 Rain 8 1006 100 9000 4 250 15:56 07.05.2020
3436 Rain 7 1006 100 9000 4 250 15:37 07.05.2020
3437 Rain 7 1006 100 9000 4 250 15:37 07.05.2020
3438 Rain 7 1006 100 6000 3 260 15:18 07.05.2020
3439 Rain 7 1006 93 3400 4 230 14:44 07.05.2020
3440 Rain 7 1006 93 3400 4 230 14:21 07.05.2020
3441 Rain 7 1005 93 2800 4 220 13:45 07.05.2020
3442 Rain 7 1005 93 2800 4 220 13:26 07.05.2020
3443 Rain 7 1005 93 10000 4 230 12:55 07.05.2020
3444 Rain 7 1005 93 9000 5 220 12:37 07.05.2020
3445 Rain 6 1005 93 10000 4 230 12:18 07.05.2020
3446 Rain 6 1005 93 10000 5 240 11:39 07.05.2020
3447 Rain 6 1005 93 10000 4 230 11:21 07.05.2020
3448 Rain 6 1004 93 10000 5 240 10:44 07.05.2020
3449 Rain 6 1004 93 10000 5 250 10:25 07.05.2020
3450 Rain 5 1004 93 10000 5 250 09:56 07.05.2020
3451 Rain 5 1004 93 10000 5 270 09:38 07.05.2020
3452 Rain 5 1004 93 10000 5 260 09:18 07.05.2020
3453 Rain 5 1004 93 10000 5 260 09:18 07.05.2020
3454 Rain 5 1004 93 10000 5 250 08:42 07.05.2020
3455 Rain 4 1004 93 10000 5 250 08:22 07.05.2020
3456 Rain 4 1004 100 10000 5 260 07:57 07.05.2020
3457 Rain 4 1004 100 10000 5 260 07:57 07.05.2020
3458 Rain 4 1004 93 10000 7 270 07:39 07.05.2020
3459 Rain 4 1004 93 10000 7 280 07:18 07.05.2020
3460 Rain 5 1004 93 10000 6 270 06:37 07.05.2020
3461 Rain 5 1003 93 10000 4 270 05:47 07.05.2020
3462 Rain 5 1003 100 10000 2 240 04:27 07.05.2020
3463 Rain 6 1003 87 10000 4 270 03:29 07.05.2020
3464 Rain 6 1003 93 10000 4 280 02:59 07.05.2020
3465 Rain 6 1003 93 10000 5 280 02:24 07.05.2020
3466 Rain 6 1003 93 10000 4 260 01:25 07.05.2020
3467 Rain 6 1003 93 10000 5 270 00:51 07.05.2020
3468 Rain 6 1003 93 10000 5 270 00:30 07.05.2020
3469 Rain 6 1004 93 10000 3 270 23:58 06.05.2020
3470 Rain 6 1004 93 10000 3 270 23:38 06.05.2020
3471 Rain 6 1003 100 10000 4 270 23:19 06.05.2020
3472 Rain 7 1004 93 8000 4 290 22:54 06.05.2020
3473 Rain 7 1004 93 8000 4 290 22:36 06.05.2020
3474 Rain 7 1004 93 9000 4 280 22:18 06.05.2020
3475 Rain 7 1004 93 8000 4 270 21:42 06.05.2020
3476 Rain 8 1004 93 9000 4 260 21:22 06.05.2020
3477 Rain 7 1004 93 9000 4 260 20:56 06.05.2020
3478 Rain 8 1004 87 10000 4 270 20:37 06.05.2020
3479 Rain 8 1004 93 10000 3 260 20:19 06.05.2020
3480 Rain 8 1004 93 10000 3 270 19:56 06.05.2020
3481 Rain 8 1004 93 10000 3 270 19:37 06.05.2020
3482 Rain 8 1004 87 10000 3 270 19:18 06.05.2020
3483 Rain 9 1004 87 10000 3 270 18:55 06.05.2020
3484 Rain 8 1004 93 10000 3 280 18:36 06.05.2020
3485 Rain 8 1004 93 10000 3 260 18:18 06.05.2020
3486 Rain 8 1004 87 10000 5 280 17:54 06.05.2020
3487 Rain 8 1004 87 10000 5 280 17:36 06.05.2020
3488 Rain 8 1004 87 10000 4 280 17:18 06.05.2020
3489 Rain 9 1004 76 10000 6 270 16:54 06.05.2020
3490 Rain 9 1004 76 10000 6 270 16:36 06.05.2020
3491 Clouds 10 1004 81 10000 6 280 16:18 06.05.2020
3492 Rain 10 1004 81 10000 7 280 15:42 06.05.2020
3493 Clouds 11 1004 76 10000 6 260 15:22 06.05.2020
3494 Clouds 11 1004 76 10000 6 260 14:56 06.05.2020
3495 Clouds 10 1004 76 10000 5 280 14:38 06.05.2020
3496 Clouds 10 1004 87 10000 8 260 14:18 06.05.2020
3497 Clouds 10 1004 87 10000 8 260 14:18 06.05.2020
3498 Clouds 11 1004 81 10000 8 270 13:56 06.05.2020
3499 Clouds 11 1004 81 10000 8 270 13:37 06.05.2020
3500 Clouds 12 1004 81 10000 7 260 13:18 06.05.2020
3501 Clouds 13 1004 76 10000 6 250 12:42 06.05.2020
3502 Clouds 13 1003 76 10000 7 270 12:24 06.05.2020
3503 Clouds 16 1003 67 10000 4 280 11:41 06.05.2020
3504 Clouds 16 1003 67 10000 4 280 11:41 06.05.2020
3505 Clouds 16 1003 67 10000 4 280 11:21 06.05.2020
3506 Clouds 15 1003 62 10000 4 290 10:58 06.05.2020
3507 Clouds 15 1003 67 10000 4 260 10:38 06.05.2020
3508 Clouds 15 1003 67 10000 4 260 10:19 06.05.2020
3509 Clouds 14 1003 71 10000 3 260 09:45 06.05.2020
3510 Clouds 14 1004 76 10000 4 250 09:24 06.05.2020
3511 Clouds 14 1004 76 10000 4 250 08:55 06.05.2020
3512 Clouds 14 1004 76 10000 4 250 08:55 06.05.2020
3513 Clear 14 1004 67 10000 3 300 08:36 06.05.2020
3514 Clouds 13 1004 71 10000 3 310 08:18 06.05.2020
3515 Clouds 13 1004 76 10000 2 300 07:40 06.05.2020
3516 Clouds 13 1004 76 10000 2 300 07:21 06.05.2020
3517 Clouds 12 1004 81 10000 3 290 06:56 06.05.2020
3518 Clouds 11 1004 87 10000 2 290 06:38 06.05.2020
3519 Clouds 11 1004 93 10000 3 270 06:18 06.05.2020
3520 Clouds 11 1004 93 10000 4 260 05:37 06.05.2020
3521 Clouds 11 1004 93 10000 2 340 04:41 06.05.2020
3522 Clouds 12 1005 81 10000 3 270 03:47 06.05.2020
3523 Clouds 12 1005 81 10000 3 270 03:22 06.05.2020
3524 Clouds 12 1005 87 10000 3 270 02:30 06.05.2020
3525 Clouds 12 1005 87 10000 2 260 01:56 06.05.2020
3526 Clouds 12 1005 87 10000 2 260 01:34 06.05.2020
3527 Clouds 12 1005 87 10000 3 270 00:55 06.05.2020
3528 Clouds 12 1006 87 10000 2 240 00:31 06.05.2020
3529 Clouds 12 1006 87 10000 2 290 23:57 05.05.2020
3530 Clouds 13 1006 82 10000 2 290 23:39 05.05.2020
3531 Clouds 13 1006 93 10000 2 270 23:19 05.05.2020
3532 Clouds 13 1006 93 10000 2 270 23:19 05.05.2020
3533 Clouds 13 1007 93 10000 2 260 22:42 05.05.2020
3534 Clouds 13 1007 93 10000 2 260 22:20 05.05.2020
3535 Clouds 13 1007 93 10000 2 250 21:58 05.05.2020
3536 Clouds 13 1007 87 10000 1 260 21:40 05.05.2020
3537 Clouds 13 1007 87 10000 2 260 21:21 05.05.2020
3538 Clouds 13 1007 87 10000 2 260 20:58 05.05.2020
3539 Clouds 13 1007 82 10000 2 300 20:39 05.05.2020
3540 Clouds 14 1007 76 10000 2 300 20:19 05.05.2020
3541 Clouds 14 1007 76 10000 2 300 19:57 05.05.2020
3542 Clouds 14 1007 76 10000 3 300 19:37 05.05.2020
3543 Clouds 14 1007 76 10000 3 300 19:18 05.05.2020
3544 Clouds 14 1007 76 10000 3 300 19:18 05.05.2020
3545 Clouds 14 1007 76 10000 3 300 18:54 05.05.2020
3546 Clouds 14 1007 76 10000 4 300 18:36 05.05.2020
3547 Clouds 15 1008 76 10000 5 310 18:18 05.05.2020
3548 Clouds 15 1008 76 10000 4 270 17:41 05.05.2020
3549 Clouds 15 1007 82 10000 5 300 17:23 05.05.2020
3550 Clouds 15 1007 82 10000 5 300 16:57 05.05.2020
3551 Clouds 15 1007 82 10000 5 300 16:57 05.05.2020
3552 Clouds 15 1007 77 10000 6 290 16:36 05.05.2020
3553 Clouds 16 1007 77 10000 6 280 16:18 05.05.2020
3554 Clouds 15 1008 77 10000 5 260 15:42 05.05.2020
3555 Clouds 17 1008 72 10000 3 270 15:23 05.05.2020
3556 Clouds 17 1008 72 10000 3 270 15:23 05.05.2020
3557 Clouds 15 1008 72 10000 3 270 14:58 05.05.2020
3558 Clouds 17 1008 77 10000 4 280 14:39 05.05.2020
3559 Clouds 17 1008 77 10000 4 280 14:39 05.05.2020
3560 Clouds 17 1008 77 10000 4 290 14:21 05.05.2020
3561 Clouds 17 1008 77 10000 4 290 13:58 05.05.2020
3562 Clouds 15 1008 77 10000 4 290 13:40 05.05.2020
3563 Clouds 15 1009 77 10000 4 290 13:21 05.05.2020
3564 Clouds 15 1009 77 10000 4 290 12:59 05.05.2020
3565 Clouds 17 1009 82 10000 4 290 12:39 05.05.2020
3566 Clouds 15 1009 87 10000 3 270 12:20 05.05.2020
3567 Clouds 15 1009 87 10000 3 270 12:20 05.05.2020
3568 Clouds 15 1009 87 10000 3 270 11:55 05.05.2020
3569 Clouds 14 1009 82 10000 3 260 11:36 05.05.2020
3570 Clouds 14 1009 87 10000 4 270 11:18 05.05.2020
3571 Clouds 15 1009 87 10000 3 270 10:39 05.05.2020
3572 Clouds 14 1009 93 10000 4 260 10:19 05.05.2020
3573 Clouds 14 1009 93 10000 4 260 09:58 05.05.2020
3574 Clouds 15 1009 87 10000 5 290 09:40 05.05.2020
3575 Clouds 13 1009 100 9000 5 290 09:22 05.05.2020
3576 Clouds 13 1009 100 7000 5 280 08:41 05.05.2020
3577 Clouds 13 1009 100 7000 5 280 08:20 05.05.2020
3578 Clouds 13 1009 100 10000 4 280 07:57 05.05.2020
3579 Clouds 14 1009 100 10000 4 280 07:38 05.05.2020
3580 Clouds 14 1009 100 9000 3 260 07:18 05.05.2020
3581 Clouds 13 1009 100 7000 2 270 06:45 05.05.2020
3582 Clouds 12 1009 100 7000 2 260 06:21 05.05.2020
3583 Mist 12 1008 100 5000 2 240 05:36 05.05.2020
3584 Clouds 12 1008 100 8000 2 310 03:34 05.05.2020
3585 Clouds 12 1009 100 6000 2 280 01:42 05.05.2020
3586 Clouds 13 1009 100 6000 4 280 00:52 05.05.2020
3587 Mist 12 1009 100 2400 3 270 00:21 05.05.2020
3588 Mist 13 1009 100 4200 3.16 342 23:45 04.05.2020
3589 Rain 13 1009 100 5000 1 0 23:21 04.05.2020
3590 Rain 14 1009 100 5000 1 0 22:56 04.05.2020
3591 Rain 14 1009 100 5000 1 0 22:56 04.05.2020
3592 Rain 14 1010 100 6000 2 260 22:38 04.05.2020
3593 Rain 14 1010 100 6000 2 260 22:19 04.05.2020
3594 Rain 14 1010 100 6000 1 280 21:53 04.05.2020
3595 Rain 13 1009 100 9000 3.48 345 21:33 04.05.2020
3596 Rain 13 1009 100 9000 3.48 345 21:33 04.05.2020
3597 Clouds 13 1009 93 9000 1 0 20:56 04.05.2020
3598 Rain 13 1009 93 10000 1 0 20:36 04.05.2020
3599 Rain 14 1009 93 10000 1 0 20:18 04.05.2020
3600 Rain 15 1009 87 10000 3 360 19:41 04.05.2020
3601 Rain 15 1009 93 10000 3 320 19:21 04.05.2020
3602 Rain 15 1009 93 10000 1 0 18:56 04.05.2020
3603 Rain 15 1009 93 10000 1 0 18:37 04.05.2020
3604 Rain 15 1009 93 10000 1 0 18:18 04.05.2020
3605 Rain 15 1009 93 10000 1 0 18:18 04.05.2020
3606 Rain 15 1009 93 10000 1 0 17:55 04.05.2020
3607 Clouds 16 1008 87 10000 2 320 17:37 04.05.2020
3608 Clouds 15 1008 93 10000 3 270 17:18 04.05.2020
3609 Clouds 15 1008 87 10000 2 70 16:42 04.05.2020
3610 Clouds 15 1008 87 10000 2 70 16:42 04.05.2020
3611 Clouds 15 1008 87 10000 2 70 16:21 04.05.2020
3612 Thunderstorm 16 1008 93 10000 3 360 15:46 04.05.2020
3613 Thunderstorm 17 1009 71 3100 3 210 15:25 04.05.2020
3614 Thunderstorm 17 1009 71 3100 3 210 15:25 04.05.2020
3615 Thunderstorm 17 1009 71 3100 3 210 14:57 04.05.2020
3616 Thunderstorm 17 1009 71 3100 3 210 14:57 04.05.2020
3617 Thunderstorm 19 1008 63 10000 5 240 14:38 04.05.2020
3618 Thunderstorm 19 1008 63 10000 5 240 14:38 04.05.2020
3619 Thunderstorm 19 1008 63 10000 5 240 14:38 04.05.2020
3620 Thunderstorm 19 1008 63 10000 5 240 14:38 04.05.2020
3621 Thunderstorm 19 1008 63 10000 5 240 14:38 04.05.2020
3622 Thunderstorm 21 1008 56 10000 2 20 13:59 04.05.2020
3623 Thunderstorm 21 1008 56 10000 2 20 13:59 04.05.2020
3624 Thunderstorm 20 1008 56 10000 2 20 13:59 04.05.2020
3625 Clouds 21 1008 56 10000 2 360 13:55 04.05.2020
3626 Clouds 21 1008 56 10000 2 360 13:55 04.05.2020
3627 Clouds 22 1009 64 10000 2 50 12:48 04.05.2020
3628 Clouds 22 1009 64 10000 2 50 12:48 04.05.2020
3629 Clouds 22 1009 64 10000 2 50 12:48 04.05.2020
3630 Clouds 22 1009 64 10000 2 50 12:48 04.05.2020
3631 Clouds 22 1009 64 10000 2 50 12:48 04.05.2020
3632 Clouds 21 1009 64 10000 2 50 12:22 04.05.2020
3633 Clouds 21 1009 64 10000 2 50 12:22 04.05.2020
3634 Clouds 21 1009 64 10000 2 50 12:21 04.05.2020
3635 Clouds 21 1009 64 10000 2 50 12:21 04.05.2020
3636 Clouds 18 1009 68 10000 1 0 09:33 04.05.2020
3637 Clouds 17 1009 72 10000 1 0 08:57 04.05.2020
3638 Clouds 17 1009 72 10000 1 0 08:57 04.05.2020
3639 Clouds 17 1009 72 10000 1 0 08:57 04.05.2020
3640 Clouds 15 1008 87 10000 2 30 07:49 04.05.2020
3641 Clouds 15 1008 87 10000 2 30 07:48 04.05.2020
3642 Clouds 15 1008 87 10000 2 30 07:47 04.05.2020
3643 Clouds 15 1008 87 10000 2 10 07:24 04.05.2020
3644 Clouds 12 1008 93 10000 2 60 04:55 04.05.2020
3645 Clouds 12 1007 93 10000 2 40 03:20 04.05.2020
3646 Clouds 12 1007 93 10000 2 40 03:20 04.05.2020
3647 Clouds 12 1007 93 10000 1 0 02:30 04.05.2020
3648 Rain 13 1007 82 10000 3 70 00:38 04.05.2020
3649 Rain 13 1008 87 10000 3 60 23:46 03.05.2020
3650 Rain 14 1008 82 10000 3 70 23:25 03.05.2020
3651 Rain 14 1008 82 10000 3 70 22:56 03.05.2020
3652 Rain 14 1008 82 10000 4 60 22:38 03.05.2020
3653 Rain 14 1008 82 10000 4 60 22:38 03.05.2020
3654 Rain 14 1008 82 10000 4 60 22:38 03.05.2020
3655 Clouds 14 1008 77 10000 4 50 22:20 03.05.2020
3656 Clouds 15 1008 77 10000 5 50 21:41 03.05.2020
3657 Clouds 15 1008 82 10000 4 20 21:20 03.05.2020
3658 Clouds 15 1008 82 10000 5 10 20:47 03.05.2020
3659 Rain 15 1008 82 10000 5 10 20:23 03.05.2020
3660 Clouds 15 1008 72 10000 2 240 19:55 03.05.2020
3661 Clouds 15 1008 72 10000 2 240 19:37 03.05.2020
3662 Rain 15 1008 72 10000 3 360 19:18 03.05.2020
3663 Rain 15 1008 72 10000 3 320 18:39 03.05.2020
3664 Rain 15 1008 72 10000 3 320 18:39 03.05.2020
3665 Rain 16 1007 72 10000 4 320 18:20 03.05.2020
3666 Rain 16 1007 77 10000 4 280 17:42 03.05.2020
3667 Clouds 17 1007 72 10000 4 250 17:22 03.05.2020
3668 Clouds 17 1007 72 10000 4 250 16:58 03.05.2020
3669 Thunderstorm 18 1006 67 10000 2 270 16:39 03.05.2020
3670 Thunderstorm 19 1006 59 10000 2 180 16:18 03.05.2020
3671 Thunderstorm 19 1006 59 10000 2 180 15:55 03.05.2020
3672 Thunderstorm 20 1006 46 10000 2 80 15:37 03.05.2020
3673 Thunderstorm 20 1006 46 10000 2 80 15:37 03.05.2020
3674 Thunderstorm 20 1006 46 10000 2 80 15:37 03.05.2020
3675 Thunderstorm 22 1006 43 10000 1 0 15:19 03.05.2020
3676 Clouds 21 1006 52 10000 3 70 14:41 03.05.2020
3677 Clouds 21 1006 52 10000 3 70 14:22 03.05.2020
3678 Clouds 22 1006 53 10000 5 60 14:22 03.05.2020
3679 Clouds 21 1006 52 10000 3 70 14:22 03.05.2020
3680 Clouds 21 1006 52 10000 3 70 14:22 03.05.2020
3681 Clouds 21 1007 56 10000 2 10 14:00 03.05.2020
3682 Rain 22 1007 56 10000 2 10 13:33 03.05.2020
3683 Rain 22 1007 56 10000 2 10 13:33 03.05.2020
3684 Clouds 22 1007 60 10000 2 50 12:47 03.05.2020
3685 Clouds 21 1007 60 10000 2 50 12:25 03.05.2020
3686 Clouds 21 1007 60 10000 2 50 12:25 03.05.2020
3687 Clouds 21 1007 60 10000 2 50 12:25 03.05.2020
3688 Clouds 21 1008 60 10000 3 70 11:57 03.05.2020
3689 Clouds 20 1008 64 10000 3 340 11:39 03.05.2020
3690 Clouds 20 1008 68 10000 2 20 11:20 03.05.2020
3691 Clouds 20 1008 64 10000 3 340 11:20 03.05.2020
3692 Clouds 21 1008 68 10000 2 20 10:52 03.05.2020
3693 Clouds 20 1008 77 10000 2 320 10:24 03.05.2020
3694 Clouds 20 1008 77 10000 2 320 10:24 03.05.2020
3695 Rain 17 1008 82 10000 3 310 09:39 03.05.2020
3696 Clear 17 1008 82 10000 3 310 09:39 03.05.2020
3697 Clouds 18 1008 77 10000 2 310 08:57 03.05.2020
3698 Clouds 16 1008 82 10000 2 310 08:32 03.05.2020
3699 Clouds 16 1008 82 10000 2 310 08:32 03.05.2020
3700 Clouds 16 1008 82 10000 2 310 08:32 03.05.2020
3701 Clouds 16 1008 82 10000 2 310 08:32 03.05.2020
3702 Clouds 16 1008 82 10000 2 310 08:32 03.05.2020
3703 Clouds 15 1007 87 10000 2 300 07:40 03.05.2020
3704 Rain 14 1007 100 7000 1 0 06:35 03.05.2020
3705 Rain 13 1006 100 6000 1.41 127 05:49 03.05.2020
3706 Rain 13 1006 100 6000 1.41 127 05:31 03.05.2020
3707 Rain 12 1006 100 9000 1 0 04:27 03.05.2020
3708 Rain 13 1006 100 8000 1.6 124 03:30 03.05.2020
3709 Rain 13 1006 100 9000 1.99 153 02:31 03.05.2020
3710 Rain 13 1006 100 9000 1.99 153 01:48 03.05.2020
3711 Rain 13 1006 100 9000 1.64 163 01:27 03.05.2020
3712 Rain 13 1006 100 10000 1 250 00:57 03.05.2020
3713 Rain 13 1006 100 10000 1 250 00:57 03.05.2020
3714 Rain 13 1006 93 10000 1.31 175 00:38 03.05.2020
3715 Rain 13 1006 93 10000 1 0 00:20 03.05.2020
3716 Rain 13 1006 93 10000 2 130 23:44 02.05.2020
3717 Clouds 13 1006 93 10000 2 130 23:26 02.05.2020
3718 Clouds 13 1005 93 10000 1 0 22:56 02.05.2020
3719 Clouds 13 1006 93 10000 3 110 22:37 02.05.2020
3720 Clouds 13 1006 93 10000 1 0 22:18 02.05.2020
3721 Clouds 13 1006 100 10000 2 120 21:40 02.05.2020
3722 Clouds 13 1006 93 10000 1 130 21:19 02.05.2020
3723 Clouds 13 1006 93 10000 1 130 20:57 02.05.2020
3724 Clouds 14 1006 87 10000 1 0 20:37 02.05.2020
3725 Clouds 15 1006 87 10000 4 270 20:19 02.05.2020
3726 Clouds 15 1006 87 10000 4 270 19:57 02.05.2020
3727 Rain 15 1006 87 10000 2 230 19:38 02.05.2020
3728 Rain 15 1006 87 10000 2 230 19:38 02.05.2020
3729 Rain 16 1006 82 10000 3 250 19:19 02.05.2020
3730 Rain 15 1006 82 10000 3 250 18:56 02.05.2020
3731 Rain 16 1005 93 10000 4.33 200 18:37 02.05.2020
3732 Rain 16 1005 87 10000 3 330 18:18 02.05.2020
3733 Thunderstorm 16 1005 87 10000 3 280 17:40 02.05.2020
3734 Thunderstorm 16 1005 82 6000 2 230 17:20 02.05.2020
3735 Thunderstorm 16 1005 82 6000 2 230 16:59 02.05.2020
3736 Thunderstorm 19 1004 49 10000 2 180 16:40 02.05.2020
3737 Rain 20 1004 49 10000 2 180 16:22 02.05.2020
3738 Thunderstorm 21 1004 49 10000 4 180 15:43 02.05.2020
3739 Clouds 21 1005 46 10000 5 190 15:20 02.05.2020
3740 Clouds 22 1005 46 10000 5 190 14:58 02.05.2020
3741 Clouds 22 1005 46 10000 5 170 14:40 02.05.2020
3742 Thunderstorm 22 1005 49 10000 4 150 14:21 02.05.2020
3743 Rain 23 1005 49 10000 4 170 13:40 02.05.2020
3744 Clouds 22 1006 49 10000 4 150 13:22 02.05.2020
3745 Clouds 22 1006 49 10000 4 150 12:55 02.05.2020
3746 Clouds 22 1006 52 10000 4 150 12:37 02.05.2020
3747 Clear 20 1006 56 10000 2 120 12:18 02.05.2020
3748 Clouds 19 1006 63 10000 3 110 11:41 02.05.2020
3749 Rain 18 1006 77 10000 3 100 11:22 02.05.2020
3750 Rain 18 1006 77 10000 3 100 10:59 02.05.2020
3751 Clouds 18 1006 77 10000 3 110 10:39 02.05.2020
3752 Clouds 17 1006 82 9000 3 90 10:21 02.05.2020
3753 Clouds 17 1006 82 9000 3 90 09:57 02.05.2020
3754 Clouds 16 1007 82 6000 4 110 09:38 02.05.2020
3755 Mist 15 1007 87 5000 3 110 09:20 02.05.2020
3756 Mist 15 1007 87 5000 3 110 09:20 02.05.2020
3757 Mist 15 1007 87 5000 3 110 09:20 02.05.2020
3758 Mist 15 1007 93 4000 3 90 08:49 02.05.2020
3759 Mist 14 1007 93 4000 3 90 08:30 02.05.2020
3760 Mist 13 1007 100 2700 3 100 07:48 02.05.2020
3761 Mist 13 1007 100 2700 3 100 07:29 02.05.2020
3762 Mist 12 1007 93 2500 4 90 06:52 02.05.2020
3763 Mist 11 1007 93 2900 4 90 05:30 02.05.2020
3764 Mist 11 1007 93 3600 3 100 04:59 02.05.2020
3765 Mist 11 1007 93 5000 3 90 04:25 02.05.2020
3766 Clouds 12 1007 93 7000 3 90 03:18 02.05.2020
3767 Clouds 12 1007 93 7000 3 90 02:26 02.05.2020
3768 Clouds 11 1007 93 7000 3 100 01:50 02.05.2020
3769 Clouds 11 1008 93 8000 3 90 00:58 02.05.2020
3770 Clouds 12 1008 93 9000 3 110 00:36 02.05.2020
3771 Clouds 12 1008 93 9000 4 100 00:18 02.05.2020
3772 Clouds 13 1008 87 9000 4 100 23:39 01.05.2020
3773 Clouds 12 1008 87 10000 4 100 23:20 01.05.2020
3774 Clouds 12 1008 87 10000 4 100 22:56 01.05.2020
3775 Clouds 12 1008 100 9000 3 90 22:37 01.05.2020
3776 Clouds 12 1008 93 9000 2 100 22:18 01.05.2020
3777 Clouds 12 1008 93 9000 2 100 21:55 01.05.2020
3778 Clouds 12 1008 87 10000 2 100 21:37 01.05.2020
3779 Clouds 12 1008 87 10000 2 120 21:18 01.05.2020
3780 Clouds 13 1008 87 10000 2 120 20:55 01.05.2020
3781 Clouds 13 1008 87 10000 3 120 20:37 01.05.2020
3782 Clouds 13 1008 87 10000 3 120 20:37 01.05.2020
3783 Clouds 13 1008 82 10000 4 110 20:18 01.05.2020
3784 Clouds 14 1007 77 10000 3 110 19:41 01.05.2020
3785 Clouds 14 1007 77 10000 2 120 19:22 01.05.2020
3786 Clouds 15 1007 77 10000 2 120 18:57 01.05.2020
3787 Clouds 15 1008 77 10000 3 110 18:38 01.05.2020
3788 Clouds 16 1008 67 10000 2 120 18:19 01.05.2020
3789 Clouds 16 1008 67 10000 2 120 17:56 01.05.2020
3790 Clouds 16 1008 63 10000 3 110 17:37 01.05.2020
3791 Clouds 16 1008 63 10000 3 110 17:37 01.05.2020
3792 Clouds 16 1008 63 10000 3 70 17:19 01.05.2020
3793 Clouds 16 1008 63 10000 3 70 16:55 01.05.2020
3794 Clouds 17 1008 67 10000 3 60 16:37 01.05.2020
3795 Clouds 16 1008 72 10000 1 0 16:18 01.05.2020
3796 Clouds 16 1008 67 10000 1.78 49 15:42 01.05.2020
3797 Clouds 16 1008 67 10000 1.78 49 15:42 01.05.2020
3798 Clouds 16 1008 67 10000 1.66 44 15:23 01.05.2020
3799 Clouds 17 1008 67 10000 1 0 14:54 01.05.2020
3800 Clouds 16 1009 67 10000 1.42 42 14:36 01.05.2020
3801 Clouds 17 1009 72 10000 1 0 14:18 01.05.2020
3802 Clouds 16 1009 67 10000 2 360 13:40 01.05.2020
3803 Clouds 15 1009 71 10000 1.22 46 13:22 01.05.2020
3804 Clouds 15 1009 71 10000 1.22 46 12:56 01.05.2020
3805 Clouds 14 1009 76 10000 1 0 12:37 01.05.2020
3806 Clouds 14 1009 76 10000 1 0 12:19 01.05.2020
3807 Clouds 14 1009 76 10000 2 30 11:47 01.05.2020
3808 Clouds 13 1009 76 10000 2 30 11:26 01.05.2020
3809 Clouds 12 1009 81 10000 2 10 10:59 01.05.2020
3810 Clouds 11 1009 87 10000 3 10 10:40 01.05.2020
3811 Clouds 11 1009 87 10000 3 360 10:20 01.05.2020
3812 Clouds 11 1009 87 10000 3 10 09:44 01.05.2020
3813 Clouds 11 1009 87 10000 3 20 09:21 01.05.2020
3814 Clouds 10 1009 87 10000 3 20 08:59 01.05.2020
3815 Clouds 10 1009 87 10000 3 20 08:41 01.05.2020
3816 Clouds 10 1009 93 10000 2 30 08:22 01.05.2020
3817 Clouds 10 1009 93 10000 2 30 08:22 01.05.2020
3818 Clouds 10 1009 93 9000 2 10 07:46 01.05.2020
3819 Clouds 10 1009 93 9000 2 10 07:23 01.05.2020
3820 Clouds 10 1009 93 8000 3 30 06:54 01.05.2020
3821 Mist 10 1008 100 3900 2 360 05:38 01.05.2020
3822 Mist 10 1008 100 3300 3 360 04:49 01.05.2020
3823 Mist 11 1008 100 3200 3 10 03:31 01.05.2020
3824 Mist 11 1007 100 5000 3 20 02:45 01.05.2020
3825 Mist 12 1007 100 5000 3 20 02:25 01.05.2020
3826 Clouds 12 1007 100 6000 4 10 01:29 01.05.2020
3827 Clouds 12 1007 93 9000 3 30 00:59 01.05.2020
3828 Clouds 13 1007 93 8000 2 40 00:37 01.05.2020
3829 Rain 13 1007 93 9000 2 350 00:19 01.05.2020
3830 Rain 13 1007 93 9000 2 350 23:55 30.04.2020
3831 Rain 13 1007 93 9000 2 350 23:55 30.04.2020
3832 Rain 13 1007 93 10000 2 340 23:37 30.04.2020
3833 Clouds 14 1007 87 10000 3 350 23:18 30.04.2020
3834 Clouds 13 1006 93 10000 4.71 358 22:41 30.04.2020
3835 Clouds 13 1006 87 10000 2 240 22:21 30.04.2020
3836 Clouds 13 1006 93 10000 1 110 21:56 30.04.2020
3837 Clouds 13 1006 93 10000 1 110 21:38 30.04.2020
3838 Rain 14 1006 87 10000 2 120 21:19 30.04.2020
3839 Rain 14 1006 87 10000 2 120 20:54 30.04.2020
3840 Rain 14 1006 87 10000 3 140 20:36 30.04.2020
3841 Rain 14 1006 87 10000 1 0 20:18 30.04.2020
3842 Clouds 14 1006 87 10000 3 120 19:42 30.04.2020
3843 Clouds 14 1006 87 10000 3 120 19:23 30.04.2020
3844 Rain 14 1005 87 10000 3 80 18:56 30.04.2020
3845 Clouds 14 1005 82 10000 5 50 18:37 30.04.2020
3846 Rain 15 1005 77 10000 5 40 18:19 30.04.2020
3847 Rain 15 1005 77 10000 5 40 17:55 30.04.2020
3848 Rain 15 1005 77 9000 5 350 17:37 30.04.2020
3849 Rain 16 1005 72 9000 6 350 17:18 30.04.2020
3850 Thunderstorm 16 1005 72 9000 6 350 16:54 30.04.2020
3851 Clouds 18 1005 59 10000 6 360 16:36 30.04.2020
3852 Clouds 18 1005 59 10000 6 360 16:36 30.04.2020
3853 Clouds 21 1004 38 10000 6 220 16:18 30.04.2020
3854 Rain 23 1004 40 10000 5 220 15:43 30.04.2020
3855 Rain 23 1004 40 10000 6 220 15:21 30.04.2020
3856 Rain 23 1004 43 10000 5 200 14:42 30.04.2020
3857 Rain 23 1004 43 10000 5 200 14:42 30.04.2020
3858 Clear 23 1004 43 10000 5 190 14:21 30.04.2020
3859 Clear 23 1004 43 10000 5 190 13:58 30.04.2020
3860 Clear 23 1004 43 10000 5 180 13:40 30.04.2020
3861 Clouds 23 1005 46 10000 6 210 13:21 30.04.2020
3862 Clouds 23 1005 46 10000 6 210 12:58 30.04.2020
3863 Clear 22 1005 49 10000 5 190 12:39 30.04.2020
3864 Clear 21 1005 52 10000 4 190 12:18 30.04.2020
3865 Clear 20 1005 55 10000 2 190 11:38 30.04.2020
3866 Clear 19 1005 59 10000 2 170 11:19 30.04.2020
3867 Clear 19 1005 59 10000 2 170 11:19 30.04.2020
3868 Clear 19 1005 59 10000 2 170 10:57 30.04.2020
3869 Clear 19 1005 63 10000 2 180 10:38 30.04.2020
3870 Rain 18 1005 63 10000 2 150 10:18 30.04.2020
3871 Rain 17 1005 63 10000 1 0 09:44 30.04.2020
3872 Rain 16 1005 67 10000 3 220 09:24 30.04.2020
3873 Rain 16 1005 67 10000 3 220 08:58 30.04.2020
3874 Rain 16 1005 67 10000 3 220 08:58 30.04.2020
3875 Rain 15 1005 62 10000 3 220 08:39 30.04.2020
3876 Rain 15 1005 62 10000 3 220 08:20 30.04.2020
3877 Rain 14 1005 71 10000 3 230 07:43 30.04.2020
3878 Rain 14 1005 71 10000 3 230 07:24 30.04.2020
3879 Rain 13 1005 66 10000 2 220 06:48 30.04.2020
3880 Rain 12 1005 66 10000 2 210 05:49 30.04.2020
3881 Rain 12 1005 66 10000 2 210 05:28 30.04.2020
3882 Rain 12 1005 66 10000 2 200 04:32 30.04.2020
3883 Rain 12 1005 66 10000 3 200 03:52 30.04.2020
3884 Rain 13 1005 62 10000 3 190 02:29 30.04.2020
3885 Rain 13 1005 62 10000 4 200 01:58 30.04.2020
3886 Clouds 14 1005 58 10000 4 220 01:20 30.04.2020
3887 Clouds 14 1005 54 10000 5 210 00:40 30.04.2020
3888 Clouds 15 1005 51 10000 6 210 00:18 30.04.2020
3889 Clouds 15 1005 51 10000 6 210 00:18 30.04.2020
3890 Clouds 15 1005 51 10000 6 210 23:54 29.04.2020
3891 Clouds 15 1005 51 10000 5 200 23:36 29.04.2020
3892 Clouds 16 1005 51 10000 6 200 23:18 29.04.2020
3893 Clouds 16 1005 45 10000 5 190 22:39 29.04.2020
3894 Clouds 16 1005 45 10000 5 190 22:20 29.04.2020
3895 Clouds 17 1004 39 10000 3 200 21:56 29.04.2020
3896 Clouds 18 1004 37 10000 3 190 21:36 29.04.2020
3897 Clouds 19 1005 37 10000 3 180 21:18 29.04.2020
3898 Clouds 18 1004 37 10000 2 180 20:40 29.04.2020
3899 Clouds 19 1004 32 10000 2 190 20:20 29.04.2020
3900 Clouds 19 1004 32 10000 2 190 19:57 29.04.2020
3901 Clouds 20 1004 30 10000 3 190 19:39 29.04.2020
3902 Clouds 20 1004 30 10000 4 200 19:18 29.04.2020
3903 Clouds 21 1004 30 10000 3 220 18:42 29.04.2020
3904 Clouds 21 1004 30 10000 3 220 18:42 29.04.2020
3905 Clouds 22 1004 28 10000 4 230 18:22 29.04.2020
3906 Clouds 22 1004 28 10000 4 230 17:56 29.04.2020
3907 Clouds 23 1004 27 10000 5 220 17:38 29.04.2020
3908 Clouds 23 1004 28 10000 5 220 17:20 29.04.2020
3909 Clouds 23 1005 27 10000 5 250 16:38 29.04.2020
3910 Clouds 23 1005 27 10000 5 250 16:38 29.04.2020
3911 Clouds 23 1005 27 10000 5 250 16:19 29.04.2020
3912 Clouds 23 1005 27 10000 5 240 15:57 29.04.2020
3913 Clouds 23 1005 27 10000 6 240 15:39 29.04.2020
3914 Clear 23 1005 27 10000 6 240 15:20 29.04.2020
3915 Clear 23 1005 28 10000 5 240 14:46 29.04.2020
3916 Clouds 23 1005 28 10000 5 240 14:27 29.04.2020
3917 Clouds 23 1005 30 10000 5 220 13:59 29.04.2020
3918 Clouds 23 1005 30 10000 5 220 13:59 29.04.2020
3919 Clouds 23 1006 30 10000 5 220 13:40 29.04.2020
3920 Clouds 23 1006 30 10000 5 220 13:20 29.04.2020
3921 Clouds 23 1006 30 10000 5 210 13:20 29.04.2020
3922 Clouds 23 1006 30 10000 5 210 12:57 29.04.2020
3923 Clouds 22 1006 32 10000 5 210 12:38 29.04.2020
3924 Clouds 21 1006 32 10000 4 210 12:18 29.04.2020
3925 Clouds 21 1007 34 10000 4 210 11:39 29.04.2020
3926 Clouds 20 1007 34 10000 4 210 11:20 29.04.2020
3927 Clouds 20 1007 37 10000 4 220 10:57 29.04.2020
3928 Clear 19 1007 42 10000 4 230 10:37 29.04.2020
3929 Clear 19 1007 42 10000 4 230 10:37 29.04.2020
3930 Clear 18 1007 42 10000 4 230 10:19 29.04.2020
3931 Clear 17 1007 44 10000 5 240 09:42 29.04.2020
3932 Clear 16 1007 44 10000 4 220 09:22 29.04.2020
3933 Clear 14 1007 47 10000 5 230 08:55 29.04.2020
3934 Clear 14 1007 47 10000 5 230 08:36 29.04.2020
3935 Clouds 13 1007 50 10000 4 230 08:18 29.04.2020
3936 Clouds 12 1007 54 10000 4 230 07:39 29.04.2020
3937 Clouds 12 1007 57 10000 4 230 07:18 29.04.2020
3938 Clouds 11 1007 61 10000 4 230 06:48 29.04.2020
3939 Clouds 10 1007 61 10000 4 230 06:30 29.04.2020
3940 Clouds 9 1007 65 10000 3 230 05:21 29.04.2020
3941 Clouds 10 1007 61 10000 3 230 04:21 29.04.2020
3942 Clouds 10 1007 61 10000 3 230 03:59 29.04.2020
3943 Clear 11 1007 50 10000 4 190 02:39 29.04.2020
3944 Clouds 12 1008 63 10000 4 180 01:44 29.04.2020
3945 Clouds 12 1008 58 10000 5 170 01:20 29.04.2020
3946 Clouds 13 1008 58 10000 5 180 00:39 29.04.2020
3947 Clouds 13 1009 54 10000 4 180 00:19 29.04.2020
3948 Clouds 13 1009 54 10000 5 180 23:47 28.04.2020
3949 Clouds 13 1009 52 10000 4 180 23:23 28.04.2020
3950 Clouds 14 1009 52 10000 4 190 22:40 28.04.2020
3951 Clouds 14 1009 50 10000 4 190 22:22 28.04.2020
3952 Clouds 14 1009 50 10000 4 190 21:59 28.04.2020
3953 Clouds 14 1009 51 10000 3 190 21:41 28.04.2020
3954 Clouds 14 1009 38 10000 4 200 21:23 28.04.2020
3955 Clouds 15 1009 38 10000 4 200 20:59 28.04.2020
3956 Clouds 15 1009 38 10000 3 210 20:40 28.04.2020
3957 Clouds 15 1009 38 10000 3 200 20:21 28.04.2020
3958 Clouds 16 1009 38 10000 3 200 19:58 28.04.2020
3959 Clouds 16 1009 54 10000 3 220 19:39 28.04.2020
3960 Clouds 16 1009 51 10000 3 220 19:20 28.04.2020
3961 Clouds 17 1009 51 10000 4 220 18:57 28.04.2020
3962 Clouds 18 1009 31 10000 5 220 18:38 28.04.2020
3963 Clouds 18 1009 31 10000 5 230 18:18 28.04.2020
3964 Clouds 19 1009 29 10000 5 220 17:38 28.04.2020
3965 Clouds 19 1010 29 10000 5 230 17:19 28.04.2020
3966 Clouds 19 1010 29 10000 5 230 16:58 28.04.2020
3967 Clouds 19 1010 29 10000 4 230 16:40 28.04.2020
3968 Clouds 19 1010 29 10000 4 230 16:40 28.04.2020
3969 Clouds 19 1010 32 10000 4 230 16:22 28.04.2020
3970 Clouds 18 1010 32 10000 4 230 15:56 28.04.2020
3971 Clouds 19 1010 32 10000 7 220 15:38 28.04.2020
3972 Clouds 19 1010 32 10000 7 220 15:20 28.04.2020
3973 Clouds 19 1011 32 10000 4 230 14:55 28.04.2020
3974 Clouds 19 1011 32 10000 4 230 14:37 28.04.2020
3975 Clouds 18 1011 31 10000 5 230 14:18 28.04.2020
3976 Clouds 18 1011 31 10000 5 230 13:55 28.04.2020
3977 Clouds 18 1011 40 10000 5 240 13:37 28.04.2020
3978 Clouds 18 1012 41 10000 5 230 13:19 28.04.2020
3979 Clouds 18 1012 34 10000 6 240 12:43 28.04.2020
3980 Clouds 17 1012 37 10000 5 250 12:23 28.04.2020
3981 Clouds 16 1012 31 10000 5 250 11:43 28.04.2020
3982 Clear 17 1012 31 10000 5 250 11:23 28.04.2020
3983 Clear 17 1012 36 10000 5 240 10:58 28.04.2020
3984 Clear 16 1013 36 10000 4 250 10:38 28.04.2020
3985 Clear 16 1013 38 10000 5 240 10:19 28.04.2020
3986 Clear 15 1013 38 10000 4 260 09:45 28.04.2020
3987 Clear 14 1013 43 10000 5 250 09:26 28.04.2020
3988 Clear 13 1013 43 10000 3 250 08:57 28.04.2020
3989 Clear 13 1013 43 10000 3 250 08:38 28.04.2020
3990 Clouds 11 1013 49 10000 3 250 08:20 28.04.2020
3991 Clouds 10 1013 49 10000 3 250 07:44 28.04.2020
3992 Clouds 10 1013 65 10000 3 250 07:19 28.04.2020
3993 Clouds 7 1013 75 10000 1 240 06:43 28.04.2020
3994 Clouds 1 1013 61 10000 1 230 05:56 28.04.2020
3995 Clouds 1 1013 63 10000 1 230 05:37 28.04.2020
3996 Clouds 1 1013 63 10000 1 230 04:39 28.04.2020
3997 Clouds 4 1013 64 10000 2 230 02:39 28.04.2020
3998 Clouds 4 1013 93 10000 2 230 01:58 28.04.2020
3999 Clouds 5 1012 86 10000 1 230 01:22 28.04.2020
4000 Clouds 7 1012 62 10000 1 250 00:45 28.04.2020
4001 Clouds 6 1012 60 10000 2 270 00:18 28.04.2020
4002 Clouds 8 1012 60 10000 2 270 23:43 27.04.2020
4003 Clouds 9 1012 56 10000 2 310 23:21 27.04.2020
4004 Clouds 9 1012 49 10000 2 320 22:43 27.04.2020
4005 Clouds 9 1012 49 10000 2 320 22:43 27.04.2020
4006 Clear 10 1012 43 10000 2 310 22:23 27.04.2020
4007 Clear 10 1012 43 10000 2 310 21:58 27.04.2020
4008 Clear 10 1012 43 10000 2 310 21:39 27.04.2020
4009 Clear 11 1011 37 10000 3 320 21:20 27.04.2020
4010 Clear 11 1011 37 10000 3 320 20:58 27.04.2020
4011 Clear 12 1011 37 10000 3 320 20:39 27.04.2020
4012 Clouds 12 1011 35 10000 3 320 20:21 27.04.2020
4013 Clouds 13 1010 32 10000 4 320 19:57 27.04.2020
4014 Clouds 13 1010 32 10000 4 320 19:38 27.04.2020
4015 Clouds 13 1010 30 10000 6 330 19:19 27.04.2020
4016 Clouds 14 1010 30 10000 6 330 18:56 27.04.2020
4017 Clouds 14 1010 28 10000 5 320 18:37 27.04.2020
4018 Clouds 14 1009 26 10000 8 310 18:18 27.04.2020
4019 Clouds 15 1009 26 10000 8 320 17:41 27.04.2020
4020 Clouds 15 1009 26 10000 9 310 17:20 27.04.2020
4021 Clouds 16 1009 26 10000 9 310 16:54 27.04.2020
4022 Clouds 15 1009 28 10000 8 290 16:36 27.04.2020
4023 Clouds 15 1009 30 10000 8 300 16:18 27.04.2020
4024 Clouds 15 1009 30 10000 8 300 15:55 27.04.2020
4025 Clouds 15 1009 28 10000 8 300 15:36 27.04.2020
4026 Clouds 15 1009 30 10000 8 330 15:18 27.04.2020
4027 Clouds 15 1009 33 10000 6 330 14:40 27.04.2020
4028 Clouds 14 1009 32 10000 7 330 14:19 27.04.2020
4029 Clouds 14 1009 32 10000 7 330 13:57 27.04.2020
4030 Clouds 14 1009 30 10000 8 310 13:38 27.04.2020
4031 Clouds 14 1009 33 10000 8 310 13:18 27.04.2020
4032 Clouds 13 1009 37 10000 7 310 12:43 27.04.2020
4033 Rain 13 1009 37 10000 7 300 12:22 27.04.2020
4034 Rain 12 1009 37 10000 7 310 11:56 27.04.2020
4035 Rain 12 1009 37 10000 7 310 11:37 27.04.2020
4036 Rain 12 1009 40 10000 8 300 11:18 27.04.2020
4037 Rain 12 1009 42 10000 7 310 10:42 27.04.2020
4038 Rain 12 1009 42 10000 7 310 10:24 27.04.2020
4039 Rain 11 1009 43 10000 6 310 09:58 27.04.2020
4040 Clouds 11 1009 43 10000 6 310 09:39 27.04.2020
4041 Clouds 10 1009 46 10000 5 290 09:18 27.04.2020
4042 Clouds 10 1009 46 10000 5 290 08:52 27.04.2020
4043 Clouds 8 1009 49 10000 3 270 08:32 27.04.2020
4044 Clouds 6 1009 52 10000 3 280 07:45 27.04.2020
4045 Clouds 6 1009 52 10000 3 280 07:27 27.04.2020
4046 Clouds 6 1009 60 10000 3 270 06:58 27.04.2020
4047 Clouds 5 1009 60 10000 3 270 06:30 27.04.2020
4048 Clouds 4 1009 64 10000 3 280 05:56 27.04.2020
4049 Clouds 4 1009 59 10000 2 280 05:19 27.04.2020
4050 Clouds 4 1008 55 10000 4 300 04:39 27.04.2020
4051 Clouds 5 1008 52 10000 4 300 03:45 27.04.2020
4052 Clouds 5 1008 52 10000 4 300 03:45 27.04.2020
4053 Clouds 6 1008 48 10000 5 300 02:30 27.04.2020
4054 Clouds 6 1007 42 10000 5 300 01:20 27.04.2020
4055 Clouds 7 1007 45 10000 5 300 00:40 27.04.2020
4056 Clouds 7 1007 45 10000 5 300 00:40 27.04.2020
4057 Clouds 7 1007 39 10000 5 320 00:18 27.04.2020
4058 Clouds 7 1007 39 10000 5 320 23:55 26.04.2020
4059 Clouds 8 1007 39 10000 5 320 23:36 26.04.2020
4060 Clouds 8 1007 39 10000 5 320 23:36 26.04.2020
4061 Clouds 8 1007 42 10000 5 320 23:18 26.04.2020
4062 Clouds 8 1007 36 10000 5 320 22:40 26.04.2020
4063 Clouds 8 1007 36 10000 5 320 22:21 26.04.2020
4064 Clouds 8 1006 39 10000 7 320 21:59 26.04.2020
4065 Clouds 8 1006 39 10000 7 320 21:59 26.04.2020
4066 Clouds 9 1006 39 10000 6 310 21:41 26.04.2020
4067 Clouds 9 1006 39 10000 4 320 21:19 26.04.2020
4068 Clouds 9 1006 39 10000 4 320 20:59 26.04.2020
4069 Clouds 9 1006 39 10000 4 330 20:39 26.04.2020
4070 Clouds 9 1006 39 10000 4 330 20:19 26.04.2020
4071 Clouds 9 1006 39 10000 4 330 19:58 26.04.2020
4072 Clouds 9 1005 42 10000 4 340 19:37 26.04.2020
4073 Clouds 10 1005 37 10000 3 340 19:19 26.04.2020
4074 Clouds 10 1004 39 10000 5 330 18:44 26.04.2020
4075 Clouds 11 1004 37 10000 6 330 18:24 26.04.2020
4076 Clouds 11 1004 37 10000 6 340 17:45 26.04.2020
4077 Clouds 11 1004 40 10000 7 340 17:24 26.04.2020
4078 -273 0 0 0 0 0 17:00 26.04.2020
4079 Clouds 11 1003 37 10000 6 340 16:40 26.04.2020
4080 Clouds 12 1003 34 10000 8 320 16:21 26.04.2020
4081 Clouds 12 1003 34 10000 8 320 15:58 26.04.2020
4082 Clouds 12 1003 34 10000 7 350 15:38 26.04.2020
4083 Clouds 12 1002 34 10000 7 340 15:20 26.04.2020
4084 Clouds 12 1002 37 10000 8 340 14:54 26.04.2020
4085 Clouds 12 1002 37 10000 8 340 14:36 26.04.2020
4086 Clouds 12 1002 37 10000 7 350 14:18 26.04.2020
4087 Clouds 12 1002 37 10000 8 330 13:41 26.04.2020
4088 Clouds 12 1002 37 10000 6 350 13:23 26.04.2020
4089 Clouds 12 1002 37 10000 6 350 12:57 26.04.2020
4090 Clouds 11 1001 43 10000 6 360 12:39 26.04.2020
4091 Clouds 12 1001 50 10000 7 350 12:20 26.04.2020
4092 Clouds 11 1001 50 10000 7 350 11:57 26.04.2020
4093 Clouds 11 1001 45 10000 9 360 11:38 26.04.2020
4094 Clouds 11 1000 45 10000 8 350 11:20 26.04.2020
4095 Clouds 10 1000 61 10000 9 340 10:55 26.04.2020
4096 Clouds 10 1000 61 10000 9 340 10:36 26.04.2020
4097 Clouds 9 1000 70 10000 6 350 10:18 26.04.2020
4098 Clouds 9 999 75 10000 6 340 09:39 26.04.2020
4099 Clouds 8 999 81 10000 8 340 09:20 26.04.2020
4100 Clouds 7 999 81 10000 6 350 08:42 26.04.2020
4101 Rain 7 999 81 10000 6 350 08:23 26.04.2020
4102 Rain 6 998 93 10000 7 350 07:50 26.04.2020
4103 Rain 6 998 93 10000 7 350 07:25 26.04.2020
4104 Rain 6 998 93 10000 7 350 06:56 26.04.2020
4105 Rain 6 998 100 9000 7 350 06:33 26.04.2020
4106 Rain 7 997 93 10000 6 350 05:54 26.04.2020
4107 Rain 7 997 93 10000 8 350 05:35 26.04.2020
4108 Rain 8 996 100 7000 6 360 04:42 26.04.2020
4109 Rain 9 996 93 5000 5 360 03:49 26.04.2020
4110 Rain 9 995 100 6000 5 20 02:44 26.04.2020
4111 Rain 9 995 100 6000 5 20 02:21 26.04.2020
4112 Rain 9 995 93 9000 1 0 01:38 26.04.2020
4113 Rain 10 995 93 6000 2 120 01:19 26.04.2020
4114 Rain 10 995 100 6000 2 300 00:38 26.04.2020
4115 Rain 9 995 100 7000 2.8 329 00:18 26.04.2020
4116 Rain 8 995 100 7000 1 260 23:38 25.04.2020
4117 Rain 8 995 100 7000 1 260 23:20 25.04.2020
4118 Rain 8 995 100 7000 1 300 22:54 25.04.2020
4119 Rain 8 995 93 10000 2.8 329 22:36 25.04.2020
4120 Rain 10 995 93 10000 1 0 22:18 25.04.2020
4121 Rain 10 995 93 10000 1 290 21:39 25.04.2020
4122 Rain 10 995 93 10000 1 290 21:20 25.04.2020
4123 Rain 11 996 81 10000 3 170 20:55 25.04.2020
4124 Rain 11 996 81 10000 3 170 20:37 25.04.2020
4125 Clouds 12 996 81 10000 3 210 20:19 25.04.2020
4126 Clouds 12 996 76 9000 3 240 19:41 25.04.2020
4127 Clouds 13 995 76 10000 2 60 19:22 25.04.2020
4128 Clouds 13 995 76 10000 2 60 18:57 25.04.2020
4129 Rain 13 996 71 10000 3 360 18:39 25.04.2020
4130 Rain 14 996 58 10000 6 350 18:20 25.04.2020
4131 Rain 16 995 39 10000 5 240 17:55 25.04.2020
4132 Rain 17 995 39 10000 5 240 17:37 25.04.2020
4133 Rain 18 995 42 10000 5 220 17:18 25.04.2020
4134 Rain 18 995 42 10000 3 220 16:48 25.04.2020
4135 Rain 18 995 42 10000 3 220 16:28 25.04.2020
4136 Rain 18 996 45 10000 3 210 15:59 25.04.2020
4137 Rain 18 996 51 10000 2 260 15:39 25.04.2020
4138 Clouds 18 996 36 10000 4 240 15:19 25.04.2020
4139 Clouds 18 996 36 10000 4 240 14:57 25.04.2020
4140 Clouds 18 996 39 10000 2 240 14:38 25.04.2020
4141 Clouds 17 996 39 10000 2 240 14:19 25.04.2020
4142 Clouds 19 996 44 10000 7 240 13:43 25.04.2020
4143 Clouds 21 996 28 10000 6 240 13:19 25.04.2020
4144 Clouds 21 996 28 10000 6 240 12:58 25.04.2020
4145 Rain 20 996 28 10000 7 260 12:39 25.04.2020
4146 Rain 20 997 29 10000 6 230 12:20 25.04.2020
4147 Rain 20 997 32 10000 6 230 11:55 25.04.2020
4148 Rain 20 997 32 10000 6 230 11:37 25.04.2020
4149 Rain 19 997 32 10000 6 240 11:19 25.04.2020
4150 Rain 19 998 32 10000 5 240 10:42 25.04.2020
4151 Rain 18 998 36 10000 4 240 10:22 25.04.2020
4152 Rain 17 998 36 10000 5 240 09:47 25.04.2020
4153 Rain 17 998 36 10000 5 240 09:27 25.04.2020
4154 Clouds 16 998 38 10000 3 220 08:57 25.04.2020
4155 Clouds 14 999 38 10000 3 230 08:38 25.04.2020
4156 Clouds 14 999 64 10000 1 0 08:20 25.04.2020
4157 Clouds 12 999 40 10000 3 240 07:47 25.04.2020
4158 Clouds 13 999 40 10000 3 240 07:24 25.04.2020
4159 Clouds 11 1000 64 10000 2 240 06:45 25.04.2020
4160 Clouds 10 1000 49 10000 3 230 06:18 25.04.2020
4161 Clouds 6 1000 59 10000 2 250 05:39 25.04.2020
4162 Clouds 7 1001 56 10000 1 250 04:47 25.04.2020
4163 Clouds 7 1001 56 10000 2 260 02:59 25.04.2020
4164 Clouds 7 1002 56 10000 2 260 02:20 25.04.2020
4165 Clouds 7 1002 56 10000 2 260 01:52 25.04.2020
4166 Clouds 7 1002 56 10000 2 240 01:27 25.04.2020
4167 Clouds 9 1003 56 10000 2 240 00:52 25.04.2020
4168 Clouds 8 1003 56 10000 2 240 00:31 25.04.2020
4169 Clouds 11 1003 48 10000 2 240 23:44 24.04.2020
4170 Clouds 11 1003 48 10000 2 240 23:23 24.04.2020
4171 Clouds 11 1004 49 10000 2 240 22:56 24.04.2020
4172 Clouds 11 1004 48 10000 2 230 22:56 24.04.2020
4173 Clouds 11 1004 48 10000 2 230 22:38 24.04.2020
4174 Clouds 11 1004 46 10000 2 220 22:19 24.04.2020
4175 Clouds 11 1004 46 10000 2 220 21:55 24.04.2020
4176 Clouds 13 1004 40 10000 2 230 21:36 24.04.2020
4177 Clouds 13 1004 40 10000 2 230 21:18 24.04.2020
4178 Clouds 13 1004 40 10000 2 230 20:54 24.04.2020
4179 Clouds 14 1004 37 10000 2 230 20:36 24.04.2020
4180 Clouds 15 1004 30 10000 3 260 20:18 24.04.2020
4181 Clouds 16 1004 31 10000 4 260 19:39 24.04.2020
4182 Clouds 17 1004 29 10000 5 270 19:20 24.04.2020
4183 Clouds 18 1004 25 10000 6 280 18:44 24.04.2020
4184 Clouds 18 1004 25 10000 6 280 18:25 24.04.2020
4185 Clouds 19 1005 25 10000 6 290 17:55 24.04.2020
4186 Clouds 19 1005 25 10000 6 290 17:37 24.04.2020
4187 Clouds 18 1005 27 10000 7 300 17:18 24.04.2020
4188 Clouds 19 1005 27 10000 7 300 16:56 24.04.2020
4189 Clouds 19 1005 25 10000 7 300 16:38 24.04.2020
4190 Clouds 19 1005 25 10000 6 290 16:20 24.04.2020
4191 Clouds 19 1006 27 10000 7 280 15:40 24.04.2020
4192 Clouds 19 1006 27 10000 7 280 15:20 24.04.2020
4193 Clouds 20 1006 24 10000 7 270 14:41 24.04.2020
4194 Clouds 20 1006 24 10000 7 270 14:22 24.04.2020
4195 Clouds 18 1007 27 10000 7 270 13:59 24.04.2020
4196 Clouds 19 1007 27 10000 5 290 13:41 24.04.2020
4197 Clouds 19 1007 27 10000 5 290 13:20 24.04.2020
4198 Clouds 19 1007 27 10000 7 310 12:57 24.04.2020
4199 Clouds 19 1007 27 10000 7 310 12:57 24.04.2020
4200 Clouds 20 1008 27 10000 7 310 12:39 24.04.2020
4201 Clouds 18 1008 35 10000 6 290 12:19 24.04.2020
4202 Clouds 18 1008 27 10000 7 280 11:43 24.04.2020
4203 Clouds 18 1008 27 10000 7 280 11:21 24.04.2020
4204 Clouds 17 1009 35 10000 5 280 10:57 24.04.2020
4205 Clouds 17 1009 35 10000 6 270 10:38 24.04.2020
4206 Clouds 16 1009 36 10000 5 270 10:19 24.04.2020
4207 Clouds 16 1010 38 10000 4 280 09:54 24.04.2020
4208 Clouds 16 1010 38 10000 4 280 09:36 24.04.2020
4209 Clear 15 1010 56 10000 3 270 09:18 24.04.2020
4210 Clear 13 1010 46 10000 3 280 08:41 24.04.2020
4211 Clear 12 1010 56 10000 3 280 08:19 24.04.2020
4212 Clear 10 1010 56 9000 3 270 07:47 24.04.2020
4213 Clear 10 1010 56 10000 3 260 07:27 24.04.2020
4214 Clear 9 1010 56 10000 3 260 06:59 24.04.2020
4215 Clear 8 1011 60 10000 2 250 06:41 24.04.2020
4216 Clear 4 1010 69 10000 2 240 05:49 24.04.2020
4217 Clear 5 1011 60 10000 3 230 04:48 24.04.2020
4218 Clouds 6 1011 56 10000 3 230 03:28 24.04.2020
4219 Clouds 6 1012 56 10000 2 240 02:47 24.04.2020
4220 Clouds 6 1012 64 10000 2 240 02:20 24.04.2020
4221 Clouds 8 1012 52 10000 2 230 01:37 24.04.2020
4222 Clouds 8 1013 52 10000 2 230 00:43 24.04.2020
4223 Clouds 7 1013 56 10000 2 230 00:18 24.04.2020
4224 Clouds 11 1013 42 10000 2 240 23:45 23.04.2020
4225 Clouds 10 1013 42 10000 2 240 23:26 23.04.2020
4226 Clouds 9 1013 45 9000 2 230 22:57 23.04.2020
4227 Clouds 9 1013 45 10000 2 240 22:38 23.04.2020
4228 Clouds 9 1013 45 9000 1 240 22:19 23.04.2020
4229 Clouds 9 1013 45 9000 1 240 21:56 23.04.2020
4230 Clouds 11 1014 42 10000 2 220 21:38 23.04.2020
4231 Clouds 11 1014 42 10000 2 220 21:20 23.04.2020
4232 Clouds 12 1014 34 10000 2 230 20:54 23.04.2020
4233 Clouds 13 1014 30 10000 2 230 20:36 23.04.2020
4234 Clouds 14 1014 28 10000 3 260 20:18 23.04.2020
4235 Clouds 14 1014 28 10000 4 280 19:42 23.04.2020
4236 Clouds 14 1014 28 10000 4 280 19:22 23.04.2020
4237 Clouds 16 1014 25 10000 4 290 18:58 23.04.2020
4238 Clouds 17 1014 20 10000 4 300 18:39 23.04.2020
4239 Clouds 17 1014 20 10000 4 300 18:39 23.04.2020
4240 Clouds 17 1014 18 10000 6 300 18:21 23.04.2020
4241 Clouds 18 1014 18 10000 6 300 17:56 23.04.2020
4242 Clouds 18 1014 16 10000 5 290 17:38 23.04.2020
4243 Clouds 18 1015 16 10000 5 310 17:20 23.04.2020
4244 Clouds 18 1015 15 10000 5 300 16:44 23.04.2020
4245 Clouds 18 1015 15 10000 5 300 16:44 23.04.2020
4246 Clouds 18 1015 17 10000 6 270 16:21 23.04.2020
4247 Clouds 18 1016 17 10000 6 320 15:43 23.04.2020
4248 Clear 18 1016 17 10000 6 310 15:24 23.04.2020
4249 -273 0 0 0 0 0 14:59 23.04.2020
4250 Clear 17 1017 16 10000 5 270 14:40 23.04.2020
4251 Clouds 18 1017 16 10000 5 270 14:21 23.04.2020
4252 Clouds 17 1017 19 10000 4 310 13:58 23.04.2020
4253 Clouds 17 1017 19 10000 4 310 13:39 23.04.2020
4254 Clouds 16 1018 18 10000 4 310 13:20 23.04.2020
4255 Clouds 17 1018 18 10000 4 310 12:56 23.04.2020
4256 Clear 16 1018 19 10000 5 320 12:38 23.04.2020
4257 Clear 16 1019 18 10000 4 340 12:19 23.04.2020
4258 Clear 15 1019 22 10000 3 270 11:46 23.04.2020
4259 Clear 15 1019 22 10000 3 270 11:27 23.04.2020
4260 Clear 14 1020 24 10000 4 340 10:56 23.04.2020
4261 Clear 14 1020 24 10000 4 340 10:38 23.04.2020
4262 Clear 14 1020 22 10000 3 330 10:19 23.04.2020
4263 Clear 13 1020 24 10000 3 320 09:38 23.04.2020
4264 Clear 12 1020 30 10000 1 0 09:18 23.04.2020
4265 Clear 11 1020 32 10000 1 0 08:47 23.04.2020
4266 Clear 11 1020 32 10000 1 0 08:29 23.04.2020
4267 Clear 9 1020 39 10000 2.75 327 07:45 23.04.2020
4268 Clear 9 1020 39 10000 2.75 327 07:24 23.04.2020
4269 Clear 7 1020 52 10000 1 250 06:57 23.04.2020
4270 Clear 5 1020 60 10000 1 250 06:39 23.04.2020
4271 Clear 2 1020 64 10000 1 260 05:32 23.04.2020
4272 Clear 1 1019 64 10000 2 270 04:54 23.04.2020
4273 Clouds 2 1019 74 10000 1 270 02:41 23.04.2020
4274 Clouds 2 1019 74 10000 1 250 02:22 23.04.2020
4275 Clouds 2 1020 74 10000 1 230 01:35 23.04.2020
4276 Clouds 4 1020 69 10000 1 250 00:49 23.04.2020
4277 Clouds 3 1019 60 10000 1 0 00:25 23.04.2020
4278 Clouds 4 1019 69 10000 1 300 23:53 22.04.2020
4279 Clouds 8 1019 52 10000 2.5 340 23:26 22.04.2020
4280 Clouds 8 1019 52 10000 2.5 340 22:58 22.04.2020
4281 Clouds 8 1019 48 10000 1 310 22:39 22.04.2020
4282 Clouds 10 1019 45 10000 1 310 22:19 22.04.2020
4283 Clouds 9 1019 45 10000 1 310 21:56 22.04.2020
4284 Clouds 10 1019 42 10000 2 350 21:38 22.04.2020
4285 Clouds 10 1019 37 10000 3 360 21:20 22.04.2020
4286 Clouds 10 1019 37 10000 3 360 20:54 22.04.2020
4287 Clouds 11 1019 34 10000 3 360 20:36 22.04.2020
4288 Clouds 11 1018 32 10000 4 360 20:18 22.04.2020
4289 Clouds 12 1018 32 10000 4 10 19:54 22.04.2020
4290 Clouds 12 1018 32 10000 4 10 19:54 22.04.2020
4291 Clouds 12 1018 32 10000 4 10 19:36 22.04.2020
4292 Clouds 12 1018 32 10000 4 10 19:36 22.04.2020
4293 Clouds 13 1018 30 10000 5 20 19:18 22.04.2020
4294 Clouds 13 1018 30 10000 5 20 19:18 22.04.2020
4295 Clouds 14 1018 30 10000 5 10 18:55 22.04.2020
4296 Clouds 14 1018 30 10000 5 10 18:36 22.04.2020
4297 Clouds 15 1017 28 10000 4 10 18:18 22.04.2020
4298 Clouds 15 1017 28 10000 5 20 17:42 22.04.2020
4299 Clouds 16 1017 25 10000 5 20 17:23 22.04.2020
4300 Clouds 16 1018 26 10000 4 30 16:46 22.04.2020
4301 Clouds 16 1018 26 10000 4 30 16:28 22.04.2020
4302 Clouds 15 1018 30 10000 6 40 15:54 22.04.2020
4303 Clouds 15 1018 30 10000 4 360 15:54 22.04.2020
4304 Clouds 15 1018 30 10000 6 40 15:36 22.04.2020
4305 Clouds 15 1018 30 10000 5 20 15:18 22.04.2020
4306 Clouds 15 1018 30 10000 5 20 14:55 22.04.2020
4307 Clouds 15 1019 36 10000 5 10 14:36 22.04.2020
4308 Clouds 15 1019 35 10000 5 20 14:18 22.04.2020
4309 Clouds 15 1019 36 10000 4 330 13:43 22.04.2020
4310 Clouds 14 1019 43 10000 4 350 13:20 22.04.2020
4311 Clouds 14 1019 43 10000 5 360 12:42 22.04.2020
4312 Rain 12 1019 49 10000 3 350 12:23 22.04.2020
4313 Rain 12 1019 49 10000 3 350 11:58 22.04.2020
4314 Clouds 12 1019 46 10000 5 320 11:38 22.04.2020
4315 Rain 12 1020 46 10000 5 320 11:19 22.04.2020
4316 Clouds 11 1020 49 10000 6 320 10:42 22.04.2020
4317 Clouds 11 1020 49 10000 6 320 10:24 22.04.2020
4318 Rain 11 1020 49 10000 5 330 09:43 22.04.2020
4319 Clouds 10 1020 59 10000 5 330 09:24 22.04.2020
4320 Clouds 9 1021 52 10000 4 310 08:59 22.04.2020
4321 -273 0 0 0 0 0 08:59 22.04.2020
4322 Clouds 8 1021 56 10000 4 290 08:41 22.04.2020
4323 Clouds 7 1021 56 10000 4 290 08:23 22.04.2020
4324 Clouds 7 1021 56 10000 4 270 07:54 22.04.2020
4325 Clouds 6 1021 60 10000 3 260 07:33 22.04.2020
4326 Clouds 6 1021 60 10000 2 260 06:59 22.04.2020
4327 Clouds 5 1021 64 10000 2 260 06:39 22.04.2020
4328 Clouds 4 1021 64 10000 2 250 05:39 22.04.2020
4329 Clouds 4 1021 64 10000 2 280 04:34 22.04.2020
4330 Clear 2 1022 74 10000 2 260 02:59 22.04.2020
4331 Clear 3 1022 69 10000 2 240 01:56 22.04.2020
4332 Clear 3 1022 69 10000 2 270 01:38 22.04.2020
4333 Clear 3 1022 69 10000 3 320 01:19 22.04.2020
4334 Clear 3 1022 59 10000 3 320 00:41 22.04.2020
4335 Clear 4 1022 52 10000 3 320 00:20 22.04.2020
4336 Clear 4 1022 55 10000 2 330 23:44 21.04.2020
4337 Clear 4 1022 55 10000 2 330 23:21 21.04.2020
4338 Clear 4 1022 52 10000 2 330 22:55 21.04.2020
4339 Clear 5 1022 48 10000 3 340 22:37 21.04.2020
4340 Clear 6 1022 52 10000 3 330 22:19 21.04.2020
4341 Clear 5 1022 52 10000 3 330 21:42 21.04.2020
4342 Rain 5 1022 52 10000 4 320 21:23 21.04.2020
4343 Rain 6 1022 52 10000 4 320 20:58 21.04.2020
4344 Rain 6 1022 48 10000 3 320 20:40 21.04.2020
4345 Rain 7 1022 45 10000 3 330 20:21 21.04.2020
4346 Clouds 8 1022 49 10000 5 360 19:41 21.04.2020
4347 Rain 8 1022 45 10000 6 10 19:20 21.04.2020
4348 Rain 8 1022 45 10000 6 10 18:59 21.04.2020
4349 Rain 9 1022 42 10000 5 10 18:39 21.04.2020
4350 Rain 9 1022 42 10000 5 10 18:39 21.04.2020
4351 Rain 9 1022 42 10000 6 20 18:19 21.04.2020
4352 Rain 9 1022 42 10000 6 20 17:59 21.04.2020
4353 Rain 10 1022 42 10000 4 10 17:39 21.04.2020
4354 Rain 10 1022 39 10000 5 360 17:19 21.04.2020
4355 Rain 10 1022 39 10000 5 360 17:19 21.04.2020
4356 Rain 10 1022 39 10000 4 20 16:54 21.04.2020
4357 Rain 10 1022 39 10000 4 20 16:36 21.04.2020
4358 Rain 10 1021 39 10000 4 20 16:18 21.04.2020
4359 Rain 10 1022 37 10000 5 20 15:42 21.04.2020
4360 Clouds 10 1022 39 10000 4 10 15:23 21.04.2020
4361 Clouds 10 1022 39 10000 4 10 14:59 21.04.2020
4362 Clouds 11 1022 39 10000 5 330 14:40 21.04.2020
4363 Clouds 11 1022 34 10000 6 360 14:22 21.04.2020
4364 Clouds 11 1022 34 10000 6 360 13:54 21.04.2020
4365 Clouds 11 1022 37 10000 6 340 13:36 21.04.2020
4366 Clouds 10 1022 34 10000 6 20 13:18 21.04.2020
4367 Clouds 10 1022 34 10000 4 20 12:38 21.04.2020
4368 Clear 9 1022 31 10000 5 20 12:19 21.04.2020
4369 Clear 10 1022 31 10000 5 20 11:57 21.04.2020
4370 Clouds 9 1022 39 10000 6 10 11:38 21.04.2020
4371 Clouds 9 1022 39 10000 6 10 11:18 21.04.2020
4372 Clouds 9 1022 39 10000 6 10 10:57 21.04.2020
4373 Clouds 9 1022 42 10000 5 360 10:39 21.04.2020
4374 Clouds 9 1022 42 10000 5 30 10:20 21.04.2020
4375 Clouds 8 1022 45 10000 5 30 09:38 21.04.2020
4376 Clear 7 1022 52 10000 4 340 09:20 21.04.2020
4377 Clear 7 1022 52 10000 4 340 08:58 21.04.2020
4378 Clear 7 1022 56 10000 3 330 08:39 21.04.2020
4379 Clear 5 1022 60 10000 3 360 08:19 21.04.2020
4380 Clear 5 1022 64 10000 3 350 07:49 21.04.2020
4381 Clear 4 1022 64 10000 3 350 07:24 21.04.2020
4382 Clear 3 1022 64 9000 4 330 06:50 21.04.2020
4383 Clear 3 1022 64 10000 3 330 06:22 21.04.2020
4384 Clear 3 1022 59 10000 3 330 05:49 21.04.2020
4385 Clear 3 1022 59 8000 3 320 04:24 21.04.2020
4386 Clear 3 1022 59 9000 3 330 03:45 21.04.2020
4387 Clouds 5 1022 52 10000 4 350 01:46 21.04.2020
4388 Clouds 5 1022 52 10000 4 350 01:28 21.04.2020
4389 Clouds 6 1022 48 10000 4 350 00:37 21.04.2020
4390 Clouds 6 1022 48 10000 4 350 23:47 20.04.2020
4391 Clouds 6 1022 48 10000 4 350 23:25 20.04.2020
4392 Clouds 6 1022 48 10000 4 350 22:58 20.04.2020
4393 Clouds 6 1021 45 10000 3 340 22:39 20.04.2020
4394 Clouds 7 1021 45 10000 3 350 22:21 20.04.2020
4395 Clouds 7 1021 45 10000 3 350 21:58 20.04.2020
4396 Clear 7 1022 45 10000 4 340 21:39 20.04.2020
4397 Clouds 7 1021 45 10000 4 350 21:19 20.04.2020
4398 Clouds 7 1021 45 10000 4 350 20:58 20.04.2020
4399 Clouds 7 1021 45 10000 4 350 20:39 20.04.2020
4400 Clouds 7 1021 52 10000 5 360 20:19 20.04.2020
4401 Clouds 7 1020 45 10000 5 10 19:58 20.04.2020
4402 Clouds 7 1020 45 10000 5 10 19:39 20.04.2020
4403 Clouds 8 1020 45 10000 5 360 19:19 20.04.2020
4404 Clouds 8 1020 42 10000 5 350 18:43 20.04.2020
4405 Clouds 8 1020 42 10000 5 350 18:24 20.04.2020
4406 Clouds 9 1020 39 10000 5 350 17:58 20.04.2020
4407 Clouds 9 1020 42 10000 5 10 17:39 20.04.2020
4408 Clouds 9 1020 42 10000 5 10 17:21 20.04.2020
4409 Clouds 9 1020 45 10000 5 340 16:59 20.04.2020
4410 Clouds 10 1019 39 10000 5 340 16:39 20.04.2020
4411 Clouds 9 1019 42 10000 7 360 16:19 20.04.2020
4412 Clouds 10 1019 39 10000 6 10 15:45 20.04.2020
4413 Clouds 10 1019 39 10000 6 10 15:24 20.04.2020
4414 Clouds 10 1019 37 10000 6 330 14:58 20.04.2020
4415 Clouds 10 1019 45 10000 6 360 14:40 20.04.2020
4416 Clouds 10 1019 39 10000 6 330 14:19 20.04.2020
4417 Clouds 10 1019 39 10000 6 330 14:19 20.04.2020
4418 Clouds 11 1019 39 10000 6 330 13:54 20.04.2020
4419 Clouds 11 1019 39 10000 6 330 13:54 20.04.2020
4420 Clouds 11 1019 39 10000 6 10 13:54 20.04.2020
4421 Clouds 11 1019 39 10000 6 10 13:36 20.04.2020
4422 Clouds 10 1019 42 10000 5 360 13:18 20.04.2020
4423 Clouds 10 1019 49 10000 6 40 12:42 20.04.2020
4424 Clouds 10 1019 43 10000 7 30 12:21 20.04.2020
4425 Clouds 9 1019 45 10000 7 10 11:42 20.04.2020
4426 Clouds 9 1019 45 10000 7 10 11:22 20.04.2020
4427 Clouds 8 1019 49 10000 8 10 10:57 20.04.2020
4428 Clouds 8 1019 52 10000 6 350 10:39 20.04.2020
4429 Clouds 8 1018 48 10000 6 350 10:20 20.04.2020
4430 Clouds 7 1018 48 10000 6 350 09:58 20.04.2020
4431 Clear 7 1018 48 10000 5 340 09:39 20.04.2020
4432 Clear 5 1018 65 10000 4 330 09:21 20.04.2020
4433 Clear 5 1018 69 10000 3 330 08:41 20.04.2020
4434 Clear 4 1018 62 10000 4 340 08:23 20.04.2020
4435 Clear 4 1018 62 10000 4 340 07:53 20.04.2020
4436 Clear 3 1018 62 10000 4 340 07:29 20.04.2020
4437 Clear 3 1018 62 10000 4 340 07:29 20.04.2020
4438 Clear 3 1018 80 10000 5 350 06:58 20.04.2020
4439 Clear 2 1017 86 10000 4 360 06:36 20.04.2020
4440 Clear 1 1017 80 10000 3 350 05:44 20.04.2020
4441 Clear 2 1017 80 10000 3 330 04:28 20.04.2020
4442 Clouds 3 1016 86 10000 3 320 02:47 20.04.2020
4443 Clouds 3 1016 93 9000 2 320 01:56 20.04.2020
4444 Clouds 3 1016 93 9000 2 320 01:28 20.04.2020
4445 Rain 2 1016 93 10000 1 50 00:39 20.04.2020
4446 Rain 4 1016 86 10000 1 40 23:59 19.04.2020
4447 Clouds 4 1015 86 10000 2 30 23:39 19.04.2020
4448 Rain 4 1016 86 9000 6 350 23:20 19.04.2020
4449 Rain 5 1015 60 10000 8 360 22:44 19.04.2020
4450 Rain 6 1015 60 10000 8 360 22:24 19.04.2020
4451 Rain 7 1015 52 7000 5 350 21:59 19.04.2020
4452 Clouds 8 1014 49 7000 8 360 21:41 19.04.2020
4453 Clouds 8 1014 49 7000 8 360 21:41 19.04.2020
4454 Rain 9 1014 34 10000 4 360 21:22 19.04.2020
4455 Rain 10 1014 34 10000 4 360 20:56 19.04.2020
4456 Rain 9 1013 34 10000 5 360 20:38 19.04.2020
4457 Rain 10 1013 34 10000 5 360 20:20 19.04.2020
4458 Rain 10 1013 34 10000 5 360 20:20 19.04.2020
4459 Rain 10 1013 27 10000 4 350 19:55 19.04.2020
4460 Rain 10 1013 27 10000 2 10 19:37 19.04.2020
4461 Rain 11 1012 25 10000 1 0 19:19 19.04.2020
4462 Rain 11 1012 25 10000 1 0 18:54 19.04.2020
4463 Clouds 11 1012 27 10000 3 310 18:36 19.04.2020
4464 Clouds 11 1013 23 10000 3 330 18:18 19.04.2020
4465 Clouds 12 1013 25 10000 4 280 17:41 19.04.2020
4466 Clouds 12 1013 25 10000 5 280 17:23 19.04.2020
4467 Clouds 13 1013 22 10000 6 290 16:59 19.04.2020
4468 Clouds 13 1013 22 10000 6 290 16:39 19.04.2020
4469 Clouds 13 1013 22 10000 6 290 16:21 19.04.2020
4470 Clouds 13 1013 23 10000 4 310 15:54 19.04.2020
4471 Clouds 13 1013 25 10000 4 300 15:36 19.04.2020
4472 Clouds 13 1013 25 10000 5 300 15:18 19.04.2020
4473 Clouds 13 1013 26 10000 6 270 14:38 19.04.2020
4474 Clouds 13 1014 26 10000 4 270 14:20 19.04.2020
4475 Clouds 13 1014 26 10000 4 270 13:56 19.04.2020
4476 Clouds 12 1014 27 10000 4 270 13:36 19.04.2020
4477 Clouds 12 1014 29 10000 5 280 13:18 19.04.2020
4478 Clouds 13 1014 27 10000 5 260 12:43 19.04.2020
4479 Clouds 11 1014 27 10000 4 290 12:24 19.04.2020
4480 Clouds 11 1015 27 10000 4 290 11:39 19.04.2020
4481 Clouds 11 1015 29 10000 5 320 11:20 19.04.2020
4482 Clouds 11 1015 29 10000 5 320 10:59 19.04.2020
4483 Clouds 10 1015 31 10000 3 290 10:41 19.04.2020
4484 Clouds 10 1015 34 10000 4 280 10:20 19.04.2020
4485 Clouds 10 1015 34 10000 4 280 09:51 19.04.2020
4486 Clouds 9 1015 36 10000 4 280 09:32 19.04.2020
4487 Clouds 8 1016 39 10000 4 290 08:59 19.04.2020
4488 Clouds 8 1016 42 10000 4 280 08:38 19.04.2020
4489 Clouds 7 1016 45 10000 3 270 08:18 19.04.2020
4490 Clouds 6 1016 48 10000 4 270 07:45 19.04.2020
4491 Clouds 6 1016 56 8000 2 270 07:25 19.04.2020
4492 Smoke 4 1016 64 5000 2 240 06:37 19.04.2020
4493 Smoke 4 1016 64 4400 2 250 06:18 19.04.2020
4494 Smoke 4 1016 69 5000 1 250 04:56 19.04.2020
4495 Smoke 2 1015 64 5000 1 240 03:24 19.04.2020
4496 Smoke 3 1016 64 5000 1 240 02:22 19.04.2020
4497 Smoke 4 1016 64 5000 2 270 01:39 19.04.2020
4498 Clouds 5 1016 51 6000 1 250 01:19 19.04.2020
4499 Clouds 5 1016 51 7000 2.13 298 00:40 19.04.2020
4500 Clouds 5 1016 51 7000 2.12 321 00:19 19.04.2020
4501 Clouds 6 1016 48 7000 2 20 23:40 18.04.2020
4502 Clouds 6 1016 44 7000 2 20 23:19 18.04.2020
4503 Clouds 6 1016 38 6000 3 10 22:43 18.04.2020
4504 Clouds 6 1016 38 6000 3 10 22:23 18.04.2020
4505 Smoke 7 1016 35 5000 2 350 21:58 18.04.2020
4506 Smoke 7 1016 35 5000 2 350 21:38 18.04.2020
4507 Clouds 7 1016 33 8000 1 0 21:20 18.04.2020
4508 Clouds 7 1016 33 8000 1 0 20:54 18.04.2020
4509 Clouds 8 1016 31 9000 3 330 20:36 18.04.2020
4510 Clouds 8 1015 31 10000 3 310 20:18 18.04.2020
4511 Clouds 9 1015 29 10000 4 310 19:40 18.04.2020
4512 Clouds 9 1015 27 10000 4 320 19:22 18.04.2020
4513 Clouds 10 1015 27 10000 5 320 18:39 18.04.2020
4514 Clear 10 1015 23 10000 5 320 18:20 18.04.2020
4515 Clear 11 1015 23 10000 5 320 17:56 18.04.2020
4516 Clear 12 1015 25 10000 5 320 17:38 18.04.2020
4517 Clear 11 1015 25 10000 5 300 17:18 18.04.2020
4518 Clear 12 1015 25 10000 5 320 16:42 18.04.2020
4519 Clear 12 1015 27 10000 5 310 16:22 18.04.2020
4520 Clear 12 1015 27 10000 5 310 15:55 18.04.2020
4521 Clear 12 1015 27 10000 5 320 15:37 18.04.2020
4522 Clear 12 1015 27 10000 5 330 15:19 18.04.2020
4523 Clear 12 1015 25 10000 6 290 14:42 18.04.2020
4524 Clear 12 1015 25 10000 5 300 14:19 18.04.2020
4525 Clear 11 1015 27 9000 6 320 13:43 18.04.2020
4526 Clear 11 1015 27 9000 6 320 13:43 18.04.2020
4527 Clear 11 1015 27 9000 6 320 13:21 18.04.2020
4528 Clear 11 1016 29 10000 5 290 12:43 18.04.2020
4529 Clouds 10 1016 36 8000 6 290 12:25 18.04.2020
4530 Clouds 10 1016 36 8000 6 290 11:59 18.04.2020
4531 Smoke 9 1016 36 5000 5 290 11:40 18.04.2020
4532 Smoke 9 1016 36 5000 5 290 11:21 18.04.2020
4533 Smoke 9 1016 45 1500 5 280 10:54 18.04.2020
4534 Smoke 8 1016 49 2100 5 310 10:36 18.04.2020
4535 Smoke 9 1016 52 1900 3 340 10:18 18.04.2020
4536 Smoke 8 1016 48 3800 3 320 09:40 18.04.2020
4537 Smoke 7 1016 48 3800 3 320 09:20 18.04.2020
4538 Smoke 6 1016 52 4500 3 330 08:43 18.04.2020
4539 Smoke 6 1016 56 1700 3 310 08:23 18.04.2020
4540 Smoke 5 1015 60 3000 3 310 07:49 18.04.2020
4541 Smoke 5 1015 60 3000 3 310 07:30 18.04.2020
4542 Smoke 3 1015 69 4700 2 260 06:50 18.04.2020
4543 Clear 3 1014 69 6000 2 240 05:50 18.04.2020
4544 Clear 3 1014 64 8000 2 240 04:57 18.04.2020
4545 Clear 3 1014 59 10000 3 320 04:32 18.04.2020
4546 Clear 4 1014 60 7000 4 320 03:43 18.04.2020
4547 Clouds 5 1014 60 6000 5 320 02:42 18.04.2020
4548 Clouds 5 1014 60 6000 5 320 02:21 18.04.2020
4549 Clouds 5 1014 60 6000 5 320 02:21 18.04.2020
4550 Smoke 6 1013 65 4700 3 310 01:45 18.04.2020
4551 Smoke 6 1013 65 4700 3 310 01:22 18.04.2020
4552 Smoke 6 1013 65 4900 3 270 00:37 18.04.2020
4553 Smoke 6 1012 65 5000 2 280 00:18 18.04.2020
4554 Smoke 7 1012 60 5000 3 310 23:41 17.04.2020
4555 Smoke 7 1012 60 5000 3 310 23:20 17.04.2020
4556 Smoke 7 1012 56 4700 4 320 22:58 17.04.2020
4557 Smoke 7 1012 52 4800 4 330 22:40 17.04.2020
4558 Smoke 7 1012 52 5000 3 330 22:20 17.04.2020
4559 Smoke 8 1012 52 4300 3 330 21:58 17.04.2020
4560 Smoke 8 1012 52 4300 3 330 21:39 17.04.2020
4561 Smoke 8 1012 52 4000 5 350 21:19 17.04.2020
4562 Smoke 8 1012 52 4000 5 350 20:55 17.04.2020
4563 Smoke 8 1012 52 4000 5 10 20:36 17.04.2020
4564 Smoke 8 1011 39 4800 7 10 20:18 17.04.2020
4565 Clouds 9 1010 31 8000 7 360 19:46 17.04.2020
4566 Clouds 10 1010 31 8000 7 360 19:24 17.04.2020
4567 Clouds 12 1009 23 9000 5 290 18:48 17.04.2020
4568 Clouds 12 1009 23 9000 5 290 18:25 17.04.2020
4569 Clouds 13 1010 23 9000 6 290 17:59 17.04.2020
4570 Clouds 13 1009 23 10000 6 300 17:37 17.04.2020
4571 Clouds 13 1009 22 10000 6 300 17:19 17.04.2020
4572 Clouds 13 1009 22 10000 6 300 17:19 17.04.2020
4573 Clouds 13 1010 22 10000 7 290 16:44 17.04.2020
4574 Clouds 14 1010 20 10000 6 320 16:24 17.04.2020
4575 Clouds 13 1010 20 10000 6 320 15:58 17.04.2020
4576 Clouds 14 1010 20 10000 7 290 15:38 17.04.2020
4577 Clear 14 1010 22 10000 7 300 15:19 17.04.2020
4578 Clear 13 1010 22 10000 9 290 14:41 17.04.2020
4579 Clear 13 1010 22 10000 9 290 14:41 17.04.2020
4580 Clear 13 1010 22 10000 7 300 14:22 17.04.2020
4581 Clear 13 1010 22 10000 7 300 13:58 17.04.2020
4582 Clear 13 1010 23 10000 7 320 13:37 17.04.2020
4583 Clear 13 1010 25 10000 7 300 13:18 17.04.2020
4584 Clear 13 1010 23 10000 7 330 12:46 17.04.2020
4585 Clear 12 1010 23 10000 7 330 12:26 17.04.2020
4586 Clear 11 1010 32 10000 7 310 11:42 17.04.2020
4587 Clear 10 1011 34 10000 7 300 11:20 17.04.2020
4588 Clear 10 1011 37 10000 8 310 10:59 17.04.2020
4589 Clear 10 1011 37 10000 8 310 10:39 17.04.2020
4590 Clouds 9 1011 39 10000 8 300 10:19 17.04.2020
4591 Clouds 9 1011 39 10000 8 300 09:54 17.04.2020
4592 Smoke 8 1011 45 4600 8 320 09:36 17.04.2020
4593 Smoke 7 1011 52 4300 6 310 09:18 17.04.2020
4594 Smoke 7 1011 52 4300 6 310 08:44 17.04.2020
4595 Smoke 7 1011 52 4300 6 310 08:24 17.04.2020
4596 Clouds 6 1010 55 7000 5 300 07:44 17.04.2020
4597 Clouds 6 1010 65 7000 5 290 07:24 17.04.2020
4598 Clouds 6 1010 65 7000 4 290 06:52 17.04.2020
4599 Clouds 5 1009 65 10000 3 280 06:23 17.04.2020
4600 Clouds 5 1009 65 10000 4 280 05:38 17.04.2020
4601 Clouds 7 1009 60 10000 5 280 03:22 17.04.2020
4602 Clouds 8 1008 60 10000 5 290 02:37 17.04.2020
4603 Clouds 9 1008 59 8000 8 300 01:30 17.04.2020
4604 Clouds 9 1008 59 8000 8 300 00:58 17.04.2020
4605 Clouds 10 1007 55 8000 6 300 00:20 17.04.2020
4606 Clouds 10 1007 50 7000 6 300 23:45 16.04.2020
4607 Clouds 11 1007 50 6000 7 310 23:23 16.04.2020
4608 Clouds 11 1007 50 6000 7 310 22:58 16.04.2020
4609 Smoke 11 1006 50 5000 7 310 22:38 16.04.2020
4610 Smoke 12 1006 50 4000 6 330 22:20 16.04.2020
4611 Dust 13 1006 47 4000 7 330 21:43 16.04.2020
4612 Dust 13 1005 38 4900 6 340 21:21 16.04.2020
4613 Dust 14 1005 38 4900 6 340 21:00 16.04.2020
4614 Clouds 15 1004 23 8000 6 310 20:40 16.04.2020
4615 Clouds 16 1003 23 9000 7 280 20:21 16.04.2020
4616 Clouds 17 1003 22 7000 8 290 19:55 16.04.2020
4617 Clouds 17 1003 22 7000 8 290 19:37 16.04.2020
4618 Clouds 17 1003 22 7000 7 290 19:18 16.04.2020
4619 Dust 18 1003 22 5000 9 300 18:43 16.04.2020
4620 Dust 18 1003 20 4900 12 290 18:25 16.04.2020
4621 Dust 19 1003 19 5000 15 280 17:57 16.04.2020
4622 Dust 19 1003 19 5000 15 280 17:39 16.04.2020
4623 Dust 19 1002 24 4500 12 280 17:20 16.04.2020
4624 Dust 19 1002 24 3500 13 270 16:43 16.04.2020
4625 Dust 19 1002 25 4400 14 280 16:25 16.04.2020
4626 Dust 19 1003 35 3800 12 290 15:46 16.04.2020
4627 Dust 19 1003 36 3800 12 290 15:20 16.04.2020
4628 Dust 19 1003 36 4400 14 280 14:59 16.04.2020
4629 Dust 19 1003 25 4700 16 280 14:41 16.04.2020
4630 Clouds 18 1003 31 9000 16 270 14:23 16.04.2020
4631 Clouds 18 1003 31 9000 16 270 13:58 16.04.2020
4632 Clouds 18 1004 34 9000 13 260 13:40 16.04.2020
4633 Clouds 17 1004 38 10000 11 260 13:21 16.04.2020
4634 Clouds 15 1005 47 10000 11 250 12:57 16.04.2020
4635 Clouds 15 1005 47 10000 11 250 12:38 16.04.2020
4636 Clouds 14 1006 47 10000 11 250 12:19 16.04.2020
4637 Clouds 13 1006 47 10000 11 250 11:56 16.04.2020
4638 Clouds 13 1007 50 10000 9 260 11:38 16.04.2020
4639 Clouds 12 1008 54 10000 10 250 11:19 16.04.2020
4640 Clouds 12 1008 54 10000 10 250 10:55 16.04.2020
4641 Clouds 12 1009 53 10000 10 260 10:36 16.04.2020
4642 Clouds 11 1009 57 10000 8 260 10:18 16.04.2020
4643 Clouds 9 1010 65 10000 8 260 09:39 16.04.2020
4644 Clouds 8 1011 65 10000 7 250 09:20 16.04.2020
4645 Clouds 8 1011 65 10000 7 250 09:20 16.04.2020
4646 Clouds 8 1011 70 10000 7 260 08:45 16.04.2020
4647 Clouds 7 1011 65 10000 7 250 08:26 16.04.2020
4648 Clouds 7 1011 65 10000 7 250 07:59 16.04.2020
4649 Clouds 7 1012 70 10000 7 260 07:41 16.04.2020
4650 Clouds 7 1012 70 10000 6 260 07:20 16.04.2020
4651 Clouds 6 1012 70 10000 5 260 06:41 16.04.2020
4652 Clouds 6 1012 70 10000 5 260 06:22 16.04.2020
4653 Clouds 6 1012 70 10000 5 260 04:52 16.04.2020
4654 Clouds 6 1013 70 10000 5 260 03:25 16.04.2020
4655 Clouds 6 1013 70 10000 5 260 02:58 16.04.2020
4656 Clouds 6 1013 70 10000 6 270 02:34 16.04.2020
4657 Clouds 6 1014 70 10000 6 290 01:23 16.04.2020
4658 Clouds 6 1013 70 10000 6 280 00:49 16.04.2020
4659 Clouds 6 1013 70 10000 5 280 00:21 16.04.2020
4660 Clouds 5 1013 68 10000 5 280 23:44 15.04.2020
4661 Clouds 5 1013 68 10000 6 270 23:24 15.04.2020
4662 Clouds 6 1013 68 10000 6 270 22:59 15.04.2020
4663 Clouds 5 1013 68 10000 6 270 22:38 15.04.2020
4664 Clouds 5 1013 68 10000 5 270 22:20 15.04.2020
4665 Clouds 5 1013 68 10000 5 270 21:54 15.04.2020
4666 Clouds 5 1013 63 10000 5 270 21:36 15.04.2020
4667 Rain 5 1013 67 10000 7 280 21:18 15.04.2020
4668 Clouds 5 1013 65 10000 8 290 20:41 15.04.2020
4669 Clouds 6 1013 56 10000 7 280 20:22 15.04.2020
4670 Clouds 6 1013 56 10000 7 280 19:59 15.04.2020
4671 Clouds 6 1013 52 10000 7 290 19:40 15.04.2020
4672 Clouds 6 1012 45 10000 7 290 19:20 15.04.2020
4673 Clouds 7 1012 45 10000 9 300 18:41 15.04.2020
4674 Clouds 7 1012 42 10000 8 290 18:22 15.04.2020
4675 Clouds 7 1012 42 10000 8 290 17:58 15.04.2020
4676 Clouds 8 1012 36 10000 9 290 17:58 15.04.2020
4677 Clouds 8 1012 36 10000 9 290 17:39 15.04.2020
4678 Clouds 8 1012 36 10000 8 270 17:20 15.04.2020
4679 Clouds 8 1012 36 10000 8 270 16:56 15.04.2020
4680 Clouds 8 1012 36 10000 8 280 16:37 15.04.2020
4681 Clouds 8 1012 39 10000 8 280 16:19 15.04.2020
4682 Clouds 8 1012 39 10000 8 280 15:56 15.04.2020
4683 Clouds 8 1011 36 10000 9 290 15:38 15.04.2020
4684 Clouds 8 1012 33 10000 8 270 15:19 15.04.2020
4685 Clouds 9 1012 33 10000 8 270 14:55 15.04.2020
4686 Clouds 9 1012 33 10000 8 280 14:37 15.04.2020
4687 Clouds 8 1012 36 10000 8 280 14:19 15.04.2020
4688 Clouds 8 1012 36 10000 8 290 13:56 15.04.2020
4689 Clouds 8 1012 36 10000 8 290 13:36 15.04.2020
4690 Clouds 8 1012 39 10000 8 270 13:18 15.04.2020
4691 Clouds 8 1013 39 10000 9 310 12:42 15.04.2020
4692 Clouds 8 1013 39 10000 9 310 12:23 15.04.2020
4693 Clouds 7 1013 39 10000 9 290 11:58 15.04.2020
4694 Clouds 7 1013 36 10000 7 290 11:39 15.04.2020
4695 Clouds 7 1013 41 10000 8 300 11:21 15.04.2020
4696 Clouds 6 1013 45 10000 9 300 10:39 15.04.2020
4697 Clouds 6 1013 45 10000 9 300 10:21 15.04.2020
4698 Clouds 6 1013 48 10000 9 280 09:58 15.04.2020
4699 Clouds 6 1013 56 10000 7 280 09:40 15.04.2020
4700 Clear 4 1013 64 10000 6 280 09:21 15.04.2020
4701 Clear 4 1013 64 10000 6 280 08:58 15.04.2020
4702 Clear 3 1014 64 10000 6 270 08:39 15.04.2020
4703 Clear 3 1014 69 10000 5 280 08:19 15.04.2020
4704 Clear 2 1014 74 10000 4 280 07:51 15.04.2020
4705 Clear 2 1014 74 10000 4 280 07:31 15.04.2020
4706 Clear 1 1013 74 10000 4 280 06:33 15.04.2020
4707 Clear 0 1013 74 10000 4 270 05:50 15.04.2020
4708 Clear 0 1013 74 10000 4 280 04:50 15.04.2020
4709 Clear 0 1013 74 10000 4 280 04:26 15.04.2020
4710 Clouds 0 1013 67 10000 3 270 03:26 15.04.2020
4711 Clouds 1 1013 67 10000 3 270 02:53 15.04.2020
4712 Clouds 1 1012 67 10000 3 270 01:56 15.04.2020
4713 Clouds 1 1012 74 10000 4 280 01:27 15.04.2020
4714 Clouds 2 1012 74 10000 4 280 00:54 15.04.2020
4715 Clouds 2 1012 80 10000 3 260 00:31 15.04.2020
4716 Clouds 2 1012 86 10000 2 260 23:57 14.04.2020
4717 Clouds 1 1012 58 10000 2 250 23:39 14.04.2020
4718 Clouds 1 1012 58 10000 2 250 23:21 14.04.2020
4719 Clouds 2 1012 58 10000 2 250 22:58 14.04.2020
4720 Clouds 2 1012 58 10000 3 260 22:39 14.04.2020
4721 Clouds 1 1012 100 10000 2 260 22:21 14.04.2020
4722 Clouds 1 1012 100 10000 2 260 21:58 14.04.2020
4723 Clouds 2 1012 93 10000 3 260 21:40 14.04.2020
4724 Clouds 2 1012 93 10000 3 260 21:20 14.04.2020
4725 Clouds 2 1012 93 10000 3 260 20:59 14.04.2020
4726 Clouds 2 1012 93 9000 3 250 20:40 14.04.2020
4727 Clouds 2 1012 93 9000 3 250 20:21 14.04.2020
4728 Clouds 2 1011 93 9000 3 240 20:21 14.04.2020
4729 Clouds 2 1011 93 10000 3 240 19:41 14.04.2020
4730 Clouds 2 1011 93 10000 3 240 19:23 14.04.2020
4731 Clouds 2 1011 93 10000 2 230 19:23 14.04.2020
4732 Clouds 2 1011 93 10000 2 230 18:59 14.04.2020
4733 Clouds 2 1011 93 10000 2 220 18:41 14.04.2020
4734 Rain 2 1011 80 9000 2 260 18:22 14.04.2020
4735 Rain 3 1011 74 10000 1 0 17:58 14.04.2020
4736 Rain 3 1011 74 10000 1 0 17:39 14.04.2020
4737 Rain 3 1011 74 10000 1 0 17:20 14.04.2020
4738 Clouds 3 1010 74 10000 2 20 16:57 14.04.2020
4739 Rain 3 1010 74 10000 2 90 16:38 14.04.2020
4740 Rain 3 1010 74 10000 2 90 16:20 14.04.2020
4741 Clouds 4 1010 55 9000 3 100 15:56 14.04.2020
4742 Clouds 4 1010 74 10000 2 90 15:38 14.04.2020
4743 Rain 3 1010 74 10000 2 90 15:18 14.04.2020
4744 Rain 2 1010 93 9000 4 40 14:56 14.04.2020
4745 Clouds 3 1010 93 6000 4 330 14:38 14.04.2020
4746 Clouds 3 1010 93 7000 3 330 14:19 14.04.2020
4747 Clouds 2 1010 100 4500 5 330 13:43 14.04.2020
4748 Clouds 2 1010 100 4500 5 330 13:43 14.04.2020
4749 Snow 2 1010 93 7000 5 320 13:24 14.04.2020
4750 Snow 2 1010 93 7000 5 320 12:56 14.04.2020
4751 Snow 2 1010 61 4800 5 320 12:38 14.04.2020
4752 Rain 3 1009 69 9000 5 330 12:18 14.04.2020
4753 Clouds 5 1009 65 6000 7 320 11:41 14.04.2020
4754 Rain 5 1008 81 7000 5 340 11:22 14.04.2020
4755 Clouds 6 1008 86 10000 5 320 10:55 14.04.2020
4756 Clouds 6 1008 86 10000 5 320 10:37 14.04.2020
4757 Clouds 5 1008 86 10000 4 350 10:18 14.04.2020
4758 Clouds 5 1006 93 0 0.45 359 09:41 14.04.2020
4759 Clouds 5 1007 86 10000 5 10 09:22 14.04.2020
4760 Clouds 5 1007 86 10000 4 10 08:55 14.04.2020
4761 Rain 4 1007 93 9000 7 10 08:36 14.04.2020
4762 Rain 4 1007 93 9000 6 360 08:18 14.04.2020
4763 Rain 4 1006 86 8000 5 10 07:49 14.04.2020
4764 Rain 5 1006 93 5000 6 360 07:25 14.04.2020
4765 Rain 6 1006 87 5000 7 350 06:45 14.04.2020
4766 Rain 7 1007 60 0 5.34 338 06:45 14.04.2020
4767 Clouds 9 1004 71 10000 6 320 05:43 14.04.2020
4768 Rain 9 1006 83 0 5.79 314 05:43 14.04.2020
4769 Rain 11 1003 50 10000 3 210 03:28 14.04.2020
4770 Rain 11 1003 66 10000 2 220 02:33 14.04.2020
4771 Rain 13 1003 66 10000 2 240 01:27 14.04.2020
4772 Rain 13 1003 66 10000 3 230 00:50 14.04.2020
4773 Rain 14 1003 33 10000 5 210 00:24 14.04.2020
4774 Rain 15 1003 33 10000 5 210 23:57 13.04.2020
4775 Rain 15 1003 33 10000 5 210 23:37 13.04.2020
4776 Rain 15 1003 33 10000 4 210 23:18 13.04.2020
4777 Rain 15 1004 33 10000 4 220 22:42 13.04.2020
4778 Rain 15 1004 33 10000 4 220 22:23 13.04.2020
4779 Rain 16 1004 31 10000 4 220 21:59 13.04.2020
4780 Rain 16 1004 29 10000 5 220 21:40 13.04.2020
4781 Clouds 17 1004 27 10000 5 220 21:21 13.04.2020
4782 Clouds 17 1004 27 10000 5 220 20:58 13.04.2020
4783 Clouds 17 1004 27 10000 5 220 20:58 13.04.2020
4784 Clouds 17 1004 27 10000 4 220 20:39 13.04.2020
4785 Clouds 17 1004 27 10000 5 220 20:19 13.04.2020
4786 Clouds 17 1004 27 10000 5 220 19:58 13.04.2020
4787 Clouds 18 1004 47 10000 5 220 19:37 13.04.2020
4788 Clouds 18 1005 31 10000 4 250 19:18 13.04.2020
4789 Clouds 18 1005 31 10000 4 250 18:56 13.04.2020
4790 Clouds 19 1005 29 10000 7 260 18:37 13.04.2020
4791 Clouds 19 1005 24 10000 7 230 18:18 13.04.2020
4792 Clouds 20 1005 24 10000 7 230 17:56 13.04.2020
4793 Clouds 21 1005 40 10000 5 230 17:36 13.04.2020
4794 Clouds 20 1005 40 10000 5 230 17:18 13.04.2020
4795 Clouds 21 1005 40 10000 5 230 16:57 13.04.2020
4796 Clouds 21 1005 40 10000 6 220 16:37 13.04.2020
4797 Clouds 21 1005 40 10000 6 220 16:18 13.04.2020
4798 Clouds 21 1006 40 10000 6 230 16:18 13.04.2020
4799 Clouds 21 1006 22 10000 7 230 15:46 13.04.2020
4800 Clouds 21 1006 22 10000 7 230 15:28 13.04.2020
4801 Clouds 21 1008 24 10000 6 210 14:58 13.04.2020
4802 Clouds 21 1008 24 10000 6 210 14:40 13.04.2020
4803 Clouds 21 1008 24 10000 6 210 14:21 13.04.2020
4804 Clouds 20 1008 32 10000 7 220 13:56 13.04.2020
4805 Clouds 20 1009 32 10000 6 210 13:38 13.04.2020
4806 Clouds 19 1010 32 10000 7 210 13:19 13.04.2020
4807 Clouds 19 1010 32 10000 7 210 12:58 13.04.2020
4808 Clouds 18 1010 32 10000 5 190 12:39 13.04.2020
4809 Clouds 18 1011 41 10000 5 190 12:19 13.04.2020
4810 Clouds 18 1011 41 10000 5 190 12:19 13.04.2020
4811 Clouds 18 1011 41 10000 5 190 11:57 13.04.2020
4812 Clouds 16 1011 31 10000 5 200 11:38 13.04.2020
4813 Clouds 15 1012 35 10000 4 190 11:18 13.04.2020
4814 Clouds 14 1012 37 10000 4 190 10:54 13.04.2020
4815 Clouds 14 1012 37 10000 4 190 10:36 13.04.2020
4816 Clouds 14 1012 37 10000 4 190 10:18 13.04.2020
4817 Clear 12 1013 40 10000 4 200 09:43 13.04.2020
4818 Clear 10 1013 39 10000 4 200 09:24 13.04.2020
4819 Clear 9 1014 45 10000 4 210 08:45 13.04.2020
4820 Clear 8 1014 45 10000 4 210 08:26 13.04.2020
4821 Clear 7 1014 45 10000 4 210 07:45 13.04.2020
4822 Clear 7 1014 45 10000 4 210 07:26 13.04.2020
4823 Clear 6 1015 48 10000 4 210 06:56 13.04.2020
4824 Clear 5 1015 48 10000 4 210 06:37 13.04.2020
4825 Clear 5 1015 44 10000 3 200 05:40 13.04.2020
4826 Clear 5 1015 44 10000 3 200 05:19 13.04.2020
4827 Clear 5 1016 41 10000 3 200 04:31 13.04.2020
4828 Clear 5 1017 38 10000 4 200 03:54 13.04.2020
4829 Clouds 5 1017 38 10000 4 200 03:34 13.04.2020
4830 Clouds 6 1017 33 10000 4 200 02:40 13.04.2020
4831 Clouds 5 1018 30 10000 4 200 01:46 13.04.2020
4832 Clouds 6 1018 30 10000 4 200 01:27 13.04.2020
4833 Clouds 6 1019 28 10000 4 200 01:27 13.04.2020
4834 Clouds 6 1019 28 10000 4 200 00:46 13.04.2020
4835 Clouds 5 1019 28 10000 3 200 00:24 13.04.2020
4836 Clouds 6 1019 28 10000 3 200 23:56 12.04.2020
4837 Clouds 6 1019 28 10000 3 200 23:37 12.04.2020
4838 Clouds 6 1020 24 10000 4 190 23:18 12.04.2020
4839 Clouds 6 1020 24 10000 3 190 22:41 12.04.2020
4840 Clouds 7 1020 24 10000 3 180 22:19 12.04.2020
4841 Clouds 7 1020 24 10000 3 190 22:19 12.04.2020
4842 Clouds 7 1020 24 10000 3 180 21:59 12.04.2020
4843 Clouds 7 1020 24 10000 3 190 21:37 12.04.2020
4844 Clear 8 1020 23 10000 2 180 21:18 12.04.2020
4845 Clear 8 1021 24 10000 2 170 20:42 12.04.2020
4846 Clear 8 1021 24 10000 2 170 20:23 12.04.2020
4847 Clear 8 1021 23 10000 2 180 19:58 12.04.2020
4848 Clear 9 1021 23 10000 1 0 19:40 12.04.2020
4849 Clear 10 1021 20 10000 2 220 19:19 12.04.2020
4850 Clear 11 1021 18 10000 3 230 18:56 12.04.2020
4851 Clear 11 1022 20 10000 4 220 18:37 12.04.2020
4852 Clear 11 1022 20 10000 4 220 18:18 12.04.2020
4853 Clear 12 1022 20 10000 3 230 17:41 12.04.2020
4854 Clear 12 1022 20 10000 3 240 17:23 12.04.2020
4855 Clear 12 1022 20 10000 3 240 16:59 12.04.2020
4856 Clear 12 1023 18 10000 4 230 16:39 12.04.2020
4857 Clear 12 1023 18 10000 4 230 16:20 12.04.2020
4858 Clear 12 1024 20 10000 4 220 15:49 12.04.2020
4859 Clear 12 1024 20 10000 4 220 15:31 12.04.2020
4860 Clouds 12 1024 20 10000 4 230 14:56 12.04.2020
4861 Clouds 11 1025 23 10000 4 230 14:37 12.04.2020
4862 Clouds 12 1025 23 10000 4 230 14:18 12.04.2020
4863 Clouds 11 1026 25 10000 4 270 13:43 12.04.2020
4864 Clouds 12 1026 25 10000 4 270 13:25 12.04.2020
4865 Clouds 11 1026 25 10000 3 280 12:55 12.04.2020
4866 Clouds 11 1027 25 10000 3 290 12:37 12.04.2020
4867 Clouds 10 1027 29 10000 3 350 12:18 12.04.2020
4868 Clouds 10 1027 29 10000 3 350 11:56 12.04.2020
4869 Clouds 10 1027 29 10000 3 160 11:36 12.04.2020
4870 Clouds 9 1028 31 10000 3 280 11:18 12.04.2020
4871 Clouds 9 1028 31 10000 3 280 10:54 12.04.2020
4872 Clouds 8 1028 31 10000 2 190 10:36 12.04.2020
4873 Clouds 8 1028 31 10000 2 190 10:18 12.04.2020
4874 Clouds 7 1028 39 10000 2 230 09:40 12.04.2020
4875 Clouds 6 1028 41 10000 3 230 09:21 12.04.2020
4876 Clouds 6 1028 41 10000 3 230 08:56 12.04.2020
4877 Clouds 6 1028 41 10000 2 240 08:38 12.04.2020
4878 Clouds 6 1028 41 10000 2 240 08:19 12.04.2020
4879 Clouds 4 1028 51 10000 2 270 07:42 12.04.2020
4880 Clouds 2 1028 64 10000 1 230 07:18 12.04.2020
4881 Clear -3 1028 68 10000 1 250 06:35 12.04.2020
4882 Clear -4 1027 73 10000 1 240 05:51 12.04.2020
4883 Clear -4 1027 79 10000 1 250 05:29 12.04.2020
4884 Clear 1 1027 67 10000 2 250 03:44 12.04.2020
4885 Clear -1 1027 61 10000 2 250 03:22 12.04.2020
4886 Clear 1 1027 50 10000 2.74 1 02:34 12.04.2020
4887 Clear 2 1027 50 10000 3 30 01:48 12.04.2020
4888 Clear 3 1027 44 10000 3 30 00:58 12.04.2020
4889 Clear 3 1027 44 10000 3 30 00:39 12.04.2020
4890 Clear 4 1026 38 10000 3 30 00:19 12.04.2020
4891 Clear 5 1026 38 10000 4 40 23:46 11.04.2020
4892 Clear 5 1026 38 10000 4 40 23:25 11.04.2020
4893 Clear 6 1025 33 10000 4 30 22:42 11.04.2020
4894 Clear 6 1025 33 10000 4 30 22:23 11.04.2020
4895 Clear 6 1025 33 10000 4 30 22:23 11.04.2020
4896 Clear 6 1025 33 10000 4 30 22:23 11.04.2020
4897 Clear 6 1025 33 10000 4 30 21:57 11.04.2020
4898 Clouds 7 1025 30 10000 5 30 21:38 11.04.2020
4899 Clouds 7 1025 30 10000 5 30 21:19 11.04.2020
4900 Clouds 7 1024 30 10000 5 30 20:58 11.04.2020
4901 Clouds 8 1024 31 10000 5 20 20:40 11.04.2020
4902 Clouds 8 1024 31 10000 5 20 20:21 11.04.2020
4903 Clouds 8 1024 31 10000 5 20 20:21 11.04.2020
4904 Clouds 9 1022 24 10000 5 10 19:58 11.04.2020
4905 Clouds 9 1022 24 10000 5 10 19:40 11.04.2020
4906 Clouds 9 1022 24 10000 5 10 19:20 11.04.2020
4907 Clouds 10 1022 23 10000 5 350 18:58 11.04.2020
4908 Clouds 10 1021 21 10000 6 350 18:39 11.04.2020
4909 Clouds 11 1021 21 10000 7 330 18:21 11.04.2020
4910 Clouds 11 1021 21 10000 7 330 17:59 11.04.2020
4911 Clouds 11 1021 23 10000 7 340 17:41 11.04.2020
4912 Clouds 11 1021 23 10000 7 340 17:22 11.04.2020
4913 Clouds 12 1020 23 10000 8 330 16:59 11.04.2020
4914 Clouds 12 1020 25 10000 8 330 16:41 11.04.2020
4915 Clouds 12 1020 25 10000 8 330 16:20 11.04.2020
4916 Clouds 13 1020 26 10000 8 340 16:20 11.04.2020
4917 Clouds 13 1020 22 10000 8 320 15:40 11.04.2020
4918 Clouds 13 1020 22 10000 8 320 15:19 11.04.2020
4919 Clouds 14 1020 22 10000 9 320 14:44 11.04.2020
4920 Clouds 13 1020 22 10000 9 320 14:25 11.04.2020
4921 -273 0 0 0 0 0 14:00 11.04.2020
4922 Clouds 13 1020 23 10000 8 320 13:41 11.04.2020
4923 Clouds 13 1020 23 10000 8 320 13:22 11.04.2020
4924 Clouds 12 1020 26 10000 7 300 13:22 11.04.2020
4925 Clouds 13 1020 26 10000 8 310 12:43 11.04.2020
4926 Clouds 13 1020 26 10000 8 310 12:43 11.04.2020
4927 Clouds 12 1020 27 10000 7 310 12:22 11.04.2020
4928 Clouds 12 1020 27 10000 7 310 11:59 11.04.2020
4929 Clouds 11 1020 29 10000 7 330 11:40 11.04.2020
4930 Clouds 11 1020 29 10000 7 330 11:20 11.04.2020
4931 Clouds 11 1020 29 10000 6 310 10:56 11.04.2020
4932 Clouds 11 1021 31 10000 5 300 10:36 11.04.2020
4933 Clouds 10 1021 31 10000 5 300 10:18 11.04.2020
4934 Clouds 10 1021 34 10000 5 330 09:41 11.04.2020
4935 Clear 10 1021 34 10000 5 330 09:22 11.04.2020
4936 Clear 9 1021 39 10000 3 340 08:54 11.04.2020
4937 Clear 7 1021 45 10000 2 280 08:36 11.04.2020
4938 Clear 7 1021 45 10000 2 280 08:18 11.04.2020
4939 Clear 4 1020 51 10000 3 280 07:41 11.04.2020
4940 Clear 3 1020 59 10000 3 270 07:23 11.04.2020
4941 Clear 1 1020 55 10000 3 270 06:37 11.04.2020
4942 Clear 0 1020 65 10000 2 250 05:57 11.04.2020
4943 Clear 2 1020 59 9000 2 250 03:57 11.04.2020
4944 Clouds 3 1019 51 10000 3 320 02:51 11.04.2020
4945 Clear 4 1019 41 10000 3 330 01:26 11.04.2020
4946 Clear 5 1019 38 10000 3 320 00:55 11.04.2020
4947 Clear 5 1019 38 10000 3 320 00:37 11.04.2020
4948 Clear 5 1019 38 10000 3 330 00:18 11.04.2020
4949 Clear 5 1019 38 10000 3 320 23:41 10.04.2020
4950 Clear 5 1019 38 10000 3 330 23:19 10.04.2020
4951 Clear 5 1019 38 10000 3 330 22:57 10.04.2020
4952 Clear 6 1019 38 10000 4 340 22:37 10.04.2020
4953 Clear 6 1019 38 10000 4 340 22:19 10.04.2020
4954 Clear 7 1019 33 10000 5 340 21:41 10.04.2020
4955 Clear 8 1019 33 10000 4 320 21:21 10.04.2020
4956 Clear 8 1019 33 10000 4 320 20:57 10.04.2020
4957 Clear 8 1018 33 10000 4 330 20:38 10.04.2020
4958 Clear 8 1018 29 10000 4 340 20:19 10.04.2020
4959 Clear 9 1017 29 10000 5 360 19:55 10.04.2020
4960 Clear 9 1017 29 10000 5 360 19:37 10.04.2020
4961 Clear 9 1017 27 10000 6 360 19:18 10.04.2020
4962 Clear 10 1017 27 10000 6 360 18:55 10.04.2020
4963 Clear 10 1016 25 10000 5 10 18:37 10.04.2020
4964 Clear 11 1016 25 10000 6 340 18:18 10.04.2020
4965 Clear 12 1016 25 10000 6 340 17:56 10.04.2020
4966 Clear 12 1016 23 10000 8 310 17:38 10.04.2020
4967 Clear 12 1016 23 10000 8 310 17:18 10.04.2020
4968 Clear 12 1016 22 10000 9 310 16:42 10.04.2020
4969 Clear 12 1016 22 10000 9 310 16:23 10.04.2020
4970 Clouds 13 1016 22 10000 7 320 15:58 10.04.2020
4971 Clouds 13 1015 23 9000 8 330 15:39 10.04.2020
4972 Clouds 13 1015 23 9000 8 330 15:21 10.04.2020
4973 Clouds 13 1015 35 10000 7 350 14:58 10.04.2020
4974 Clouds 13 1015 30 10000 8 330 14:58 10.04.2020
4975 Clouds 13 1015 35 10000 7 350 14:39 10.04.2020
4976 Clouds 13 1015 35 10000 7 350 14:21 10.04.2020
4977 Clouds 12 1015 37 10000 8 330 13:49 10.04.2020
4978 Clouds 12 1015 50 10000 5 20 13:23 10.04.2020
4979 Clouds 12 1015 54 10000 5 30 12:56 10.04.2020
4980 Clouds 12 1015 54 10000 5 30 12:37 10.04.2020
4981 Rain 12 1015 62 10000 5 360 12:19 10.04.2020
4982 Clouds 11 1015 66 10000 6 10 11:43 10.04.2020
4983 Clouds 11 1015 66 10000 6 10 11:24 10.04.2020
4984 Clouds 11 1014 62 10000 6 10 10:57 10.04.2020
4985 Clouds 12 1014 66 10000 6 20 10:38 10.04.2020
4986 Clouds 13 1013 62 10000 5 330 10:19 10.04.2020
4987 Rain 13 1013 58 10000 3 340 09:43 10.04.2020
4988 Rain 13 1013 58 10000 3 340 09:43 10.04.2020
4989 Rain 12 1013 58 10000 3 340 09:21 10.04.2020
4990 Rain 11 1013 76 8000 5 300 08:50 10.04.2020
4991 Rain 11 1013 76 8000 5 300 08:27 10.04.2020
4992 Rain 11 1013 76 8000 5 300 08:27 10.04.2020
4993 Rain 10 1013 81 8000 3 300 07:55 10.04.2020
4994 Rain 10 1013 66 7000 6 300 07:37 10.04.2020
4995 Rain 10 1012 53 8000 4 320 07:19 10.04.2020
4996 Rain 11 1012 53 7000 4 340 06:31 10.04.2020
4997 Rain 11 1012 53 7000 4 340 06:31 10.04.2020
4998 Clouds 11 1011 53 7000 3 340 05:59 10.04.2020
4999 Clouds 10 1011 53 8000 3 330 05:29 10.04.2020
5000 Clouds 9 1012 52 10000 3 270 04:54 10.04.2020
5001 Clouds 9 1011 42 10000 2 250 03:35 10.04.2020
5002 Clouds 10 1011 42 10000 3 250 02:51 10.04.2020
5003 Clouds 10 1011 42 10000 3 250 02:32 10.04.2020
5004 Clouds 9 1012 42 10000 3 250 01:46 10.04.2020
5005 Clouds 8 1012 42 10000 3 250 01:25 10.04.2020
5006 Clouds 10 1012 39 10000 2 250 00:46 10.04.2020
5007 Clear 9 1012 39 10000 2 250 00:20 10.04.2020
5008 Clear 8 1013 45 8000 3 230 23:42 09.04.2020
5009 Clear 8 1013 45 7000 2 230 23:24 09.04.2020
5010 Clear 8 1013 45 7000 2 230 22:57 09.04.2020
5011 Clear 8 1013 45 7000 2 250 22:38 09.04.2020
5012 Clear 8 1013 45 7000 2 250 22:20 09.04.2020
5013 Clouds 10 1014 42 6000 2 220 21:38 09.04.2020
5014 Clouds 10 1014 42 6000 2 220 21:20 09.04.2020
5015 Clouds 12 1014 40 8000 1 220 20:47 09.04.2020
5016 Clouds 12 1014 40 8000 1 220 20:23 09.04.2020
5017 Clouds 16 1014 25 9000 2 230 19:59 09.04.2020
5018 Clouds 16 1014 25 9000 2 230 19:39 09.04.2020
5019 Clouds 17 1014 25 10000 2 260 19:20 09.04.2020
5020 Clouds 18 1014 22 10000 4 270 18:42 09.04.2020
5021 Clear 19 1015 22 10000 4 260 18:21 09.04.2020
5022 Clear 20 1015 22 10000 5 280 17:43 09.04.2020
5023 Clear 20 1015 22 10000 5 280 17:25 09.04.2020
5024 Clear 20 1015 20 10000 4 260 17:00 09.04.2020
5025 Clear 20 1016 20 10000 6 260 16:39 09.04.2020
5026 Clear 20 1016 20 10000 6 260 16:19 09.04.2020
5027 Clear 20 1016 22 10000 5 280 15:56 09.04.2020
5028 Clear 20 1016 22 10000 5 280 15:56 09.04.2020
5029 Clear 20 1016 24 10000 5 280 15:37 09.04.2020
5030 Clouds 20 1017 25 10000 3 270 15:19 09.04.2020
5031 Clouds 19 1018 33 9000 4 260 14:42 09.04.2020
5032 Clouds 19 1018 33 10000 4 270 14:21 09.04.2020
5033 Clouds 18 1018 33 10000 4 270 13:57 09.04.2020
5034 Clouds 18 1019 31 10000 3 280 13:39 09.04.2020
5035 Clouds 17 1019 33 10000 4 250 13:21 09.04.2020
5036 Clouds 17 1020 36 10000 3 250 12:43 09.04.2020
5037 Clear 16 1020 33 10000 2 250 12:24 09.04.2020
5038 Clear 16 1020 33 10000 2 250 11:59 09.04.2020
5039 Clear 16 1020 33 10000 2 250 11:59 09.04.2020
5040 Clear 16 1021 36 10000 3 300 11:41 09.04.2020
5041 Clear 15 1021 38 10000 2 270 11:20 09.04.2020
5042 Clear 15 1021 38 10000 2 270 10:57 09.04.2020
5043 Clear 15 1021 41 10000 2 250 10:39 09.04.2020
5044 Clear 14 1022 44 10000 2 220 10:20 09.04.2020
5045 Clear 13 1022 50 10000 2 220 09:55 09.04.2020
5046 Clear 13 1022 50 10000 2 220 09:37 09.04.2020
5047 Clear 12 1022 54 10000 2 180 09:19 09.04.2020
5048 Clear 11 1022 54 10000 2 190 08:43 09.04.2020
5049 Clear 11 1022 54 10000 2 190 08:23 09.04.2020
5050 Clear 8 1023 65 9000 1.12 262 07:55 09.04.2020
5051 Clear 6 1023 75 10000 1.12 262 07:24 09.04.2020
5052 Clear 1 1022 62 10000 1.12 262 06:52 09.04.2020
5053 Clear 1 1022 72 10000 0.23 297 05:59 09.04.2020
5054 Clear 1 1023 72 10000 0.23 297 05:38 09.04.2020
5055 Clear 3 1023 74 10000 1 90 03:36 09.04.2020
5056 Clear 6 1023 69 10000 2 90 02:21 09.04.2020
5057 Clear 8 1023 61 10000 2 80 01:40 09.04.2020
5058 Clear 8 1023 69 10000 3 60 01:20 09.04.2020
5059 Clouds 9 1023 69 10000 3 60 00:40 09.04.2020
5060 Clouds 10 1023 63 10000 4 60 00:19 09.04.2020
5061 Clouds 10 1023 63 10000 4 60 23:56 08.04.2020
5062 Clear 11 1023 43 10000 4 50 23:37 08.04.2020
5063 Clear 10 1023 43 10000 4 30 23:19 08.04.2020
5064 Clear 10 1023 43 10000 3 20 22:42 08.04.2020
5065 Clear 12 1023 37 10000 4 40 22:24 08.04.2020
5066 Clear 11 1023 34 10000 3 350 21:56 08.04.2020
5067 Clear 12 1023 34 10000 3 350 21:37 08.04.2020
5068 Clear 11 1023 34 10000 3 350 21:37 08.04.2020
5069 Clear 12 1023 30 10000 3 350 21:19 08.04.2020
5070 Clear 12 1023 30 10000 3 350 20:56 08.04.2020
5071 Clear 13 1023 28 10000 3 360 20:38 08.04.2020
5072 Clear 14 1023 28 10000 3 360 20:19 08.04.2020
5073 Clear 14 1023 28 10000 3 350 19:41 08.04.2020
5074 Clear 15 1023 28 10000 3 360 19:22 08.04.2020
5075 Clear 16 1023 26 10000 5 20 18:56 08.04.2020
5076 Clear 16 1023 26 10000 5 20 18:37 08.04.2020
5077 Clear 17 1022 23 10000 6 20 18:19 08.04.2020
5078 Clear 19 1022 22 10000 5 10 17:42 08.04.2020
5079 Clouds 19 1022 24 10000 6 320 17:22 08.04.2020
5080 Clouds 19 1022 24 10000 6 320 16:57 08.04.2020
5081 Clouds 19 1022 22 8000 6 320 16:39 08.04.2020
5082 Clouds 19 1023 22 10000 7 330 16:20 08.04.2020
5083 Clear 20 1023 18 10000 8 330 15:39 08.04.2020
5084 Clear 20 1023 18 10000 8 330 15:39 08.04.2020
5085 Clear 20 1023 18 10000 8 330 15:21 08.04.2020
5086 Clouds 20 1023 17 10000 7 320 14:59 08.04.2020
5087 Clouds 20 1023 17 10000 7 320 14:40 08.04.2020
5088 Clouds 20 1024 22 10000 9 310 14:22 08.04.2020
5089 Clear 20 1024 29 10000 9 300 13:44 08.04.2020
5090 Clear 20 1024 22 10000 8 300 13:21 08.04.2020
5091 Clear 20 1024 22 10000 8 300 12:58 08.04.2020
5092 Clear 20 1024 19 10000 9 300 12:58 08.04.2020
5093 Clear 20 1024 19 10000 9 300 12:39 08.04.2020
5094 Clear 19 1024 20 10000 8 280 12:18 08.04.2020
5095 Clear 18 1025 25 10000 8 270 11:42 08.04.2020
5096 Clear 18 1025 23 10000 7 290 11:23 08.04.2020
5097 Clear 17 1026 25 10000 7 280 10:58 08.04.2020
5098 Clear 17 1026 25 10000 7 280 10:40 08.04.2020
5099 Clear 16 1026 26 10000 6 270 10:21 08.04.2020
5100 Clear 16 1026 26 10000 6 270 09:57 08.04.2020
5101 Clear 15 1026 24 10000 6 270 09:39 08.04.2020
5102 Clear 13 1027 24 10000 6 270 09:18 08.04.2020
5103 Clear 13 1027 24 10000 6 270 09:18 08.04.2020
5104 Clear 13 1027 24 10000 6 270 08:56 08.04.2020
5105 Clear 12 1027 25 10000 6 250 08:38 08.04.2020
5106 Clear 11 1027 29 10000 6 260 08:20 08.04.2020
5107 Clear 9 1027 34 10000 5 260 07:42 08.04.2020
5108 Clear 8 1028 36 10000 4 240 07:20 08.04.2020
5109 Clear 6 1028 38 10000 4 230 06:23 08.04.2020
5110 Clear 4 1029 44 10000 3 240 04:54 08.04.2020
5111 Clear 9 1030 36 10000 3 240 02:50 08.04.2020
5112 Clear 9 1030 33 10000 3 240 02:21 08.04.2020
5113 Clear 9 1030 33 10000 3 240 01:56 08.04.2020
5114 Clear 9 1030 36 10000 3 230 01:27 08.04.2020
5115 Clear 9 1031 39 10000 3 230 01:27 08.04.2020
5116 Clear 10 1031 36 10000 3 230 00:44 08.04.2020
5117 Clear 10 1031 36 10000 3 230 00:23 08.04.2020
5118 Clear 9 1031 34 10000 3 230 23:40 07.04.2020
5119 Clear 9 1031 34 10000 3 230 23:22 07.04.2020
5120 Clear 9 1031 36 10000 3 220 22:58 07.04.2020
5121 Clear 10 1031 31 10000 3 210 22:40 07.04.2020
5122 Clear 10 1031 31 10000 3 210 22:21 07.04.2020
5123 Clear 11 1031 29 10000 3 200 21:58 07.04.2020
5124 Clear 11 1032 29 10000 3 200 21:40 07.04.2020
5125 Clear 12 1032 26 10000 2 190 21:20 07.04.2020
5126 Clear 12 1032 26 10000 2 190 20:57 07.04.2020
5127 Clear 12 1032 26 10000 2 190 20:39 07.04.2020
5128 Clear 12 1032 26 10000 2 170 20:20 07.04.2020
5129 Clear 12 1032 26 10000 2 170 20:20 07.04.2020
5130 Clear 13 1032 24 10000 1 180 19:57 07.04.2020
5131 Clear 13 1032 24 10000 1 180 19:37 07.04.2020
5132 Clear 14 1032 22 10000 2 210 19:18 07.04.2020
5133 Clear 14 1032 22 10000 2 210 18:56 07.04.2020
5134 Clear 15 1032 21 10000 2 210 18:38 07.04.2020
5135 Clear 15 1032 21 10000 2 210 18:19 07.04.2020
5136 Clear 17 1033 20 10000 3 250 17:44 07.04.2020
5137 Clear 17 1033 20 10000 3 250 17:20 07.04.2020
5138 Clear 17 1033 21 10000 3 240 16:46 07.04.2020
5139 Clear 17 1033 21 10000 3 240 16:27 07.04.2020
5140 Clear 17 1034 21 10000 3 210 15:56 07.04.2020
5141 Clear 17 1034 21 10000 3 210 15:38 07.04.2020
5142 Clear 17 1034 21 10000 3 210 15:19 07.04.2020
5143 Clear 17 1035 23 10000 2 290 14:41 07.04.2020
5144 Clear 17 1035 23 10000 2 290 14:22 07.04.2020
5145 Clear 17 1035 21 10000 1 0 13:56 07.04.2020
5146 Clear 17 1035 23 10000 2 160 13:37 07.04.2020
5147 Clear 17 1036 23 10000 2 310 13:18 07.04.2020
5148 Clear 17 1036 23 10000 2 310 12:54 07.04.2020
5149 Clear 16 1036 23 10000 2 170 12:36 07.04.2020
5150 Clear 15 1036 24 10000 2 210 12:18 07.04.2020
5151 Clear 15 1036 24 10000 2 160 11:42 07.04.2020
5152 Clear 15 1036 24 10000 2 160 11:22 07.04.2020
5153 Clear 15 1036 24 10000 2 170 10:57 07.04.2020
5154 Clear 14 1037 26 10000 2 190 10:37 07.04.2020
5155 Clear 14 1037 26 10000 2 190 10:18 07.04.2020
5156 Clear 13 1037 28 10000 1 0 09:44 07.04.2020
5157 Clear 11 1037 29 10000 2 150 09:18 07.04.2020
5158 Clear 10 1037 34 10000 2 130 08:43 07.04.2020
5159 Clear 9 1037 39 10000 2 120 08:25 07.04.2020
5160 Clear 8 1037 39 10000 2 120 07:59 07.04.2020
5161 Clear 7 1036 60 8000 2 110 07:40 07.04.2020
5162 Clear 7 1036 60 8000 2 110 07:40 07.04.2020
5163 Clear 3 1036 59 8000 2 100 07:21 07.04.2020
5164 Clear 3 1036 59 8000 2 100 07:21 07.04.2020
5165 Clear -1 1036 46 9000 1 110 06:49 07.04.2020
5166 Clear -1 1036 56 8000 1 100 06:21 07.04.2020
5167 Clear -1 1036 80 7000 1 0 05:38 07.04.2020
5168 Clear 0 1035 56 7000 1 290 04:40 07.04.2020
5169 Clear 0 1035 52 6000 2 280 03:25 07.04.2020
5170 Clear 0 1035 52 6000 1 280 02:54 07.04.2020
5171 Clear 1 1035 64 7000 0.64 289 01:48 07.04.2020
5172 Clear 1 1035 69 7000 0.64 289 01:25 07.04.2020
5173 Clear 2 1035 51 7000 2 110 00:29 07.04.2020
5174 Clear 2 1035 55 6000 3 90 23:55 06.04.2020
5175 Clear 3 1035 55 8000 0.33 348 23:36 06.04.2020
5176 Smoke 4 1035 51 5000 0.33 348 23:18 06.04.2020
5177 Smoke 4 1035 55 4900 1 0 22:39 06.04.2020
5178 Smoke 5 1035 48 5000 0.33 348 22:21 06.04.2020
5179 Smoke 5 1035 48 5000 0.33 348 21:57 06.04.2020
5180 Clear 6 1035 41 7000 0.94 294 21:38 06.04.2020
5181 Clear 7 1035 39 6000 0.96 309 21:18 06.04.2020
5182 Clear 8 1035 39 6000 0.96 309 20:55 06.04.2020
5183 Clear 9 1035 36 7000 1 0 20:37 06.04.2020
5184 Clear 9 1035 34 10000 2 70 20:18 06.04.2020
5185 Clear 10 1034 31 10000 2 30 19:41 06.04.2020
5186 Clear 12 1034 24 10000 4 320 19:22 06.04.2020
5187 Clear 12 1034 24 10000 4 320 18:57 06.04.2020
5188 Clear 13 1034 24 10000 4 290 18:39 06.04.2020
5189 Clear 13 1034 22 10000 5 310 18:20 06.04.2020
5190 Clear 14 1034 20 10000 4 300 17:42 06.04.2020
5191 Clear 14 1035 20 10000 4 290 17:20 06.04.2020
5192 Clear 14 1035 20 10000 4 290 16:50 06.04.2020
5193 Clear 15 1035 22 10000 4 310 16:31 06.04.2020
5194 Clear 15 1035 20 10000 5 320 15:41 06.04.2020
5195 Clear 14 1036 22 10000 4 250 14:00 06.04.2020
5196 Clear 14 1036 22 10000 4 250 14:00 06.04.2020
5197 Clear 14 1036 24 10000 3 310 13:40 06.04.2020
5198 Clear 14 1036 24 10000 3 310 13:40 06.04.2020
5199 Clear 14 1036 24 10000 3 310 13:19 06.04.2020
5200 Clear 14 1036 24 10000 3 310 13:19 06.04.2020
5201 Clear 14 1036 24 10000 3 310 13:19 06.04.2020
5202 Clear 14 1036 24 10000 3 310 13:19 06.04.2020
5203 Clear 12 1037 27 10000 4 260 12:22 06.04.2020
5204 Clear 12 1037 27 10000 4 250 11:55 06.04.2020
5205 Clear 12 1037 27 10000 2 310 11:33 06.04.2020
5206 Clear 11 1037 27 10000 2 310 11:33 06.04.2020
5207 Clear 12 1037 27 10000 2 310 11:33 06.04.2020
5208 Clear 11 1037 27 10000 2 310 11:33 06.04.2020
5209 Clear 12 1037 27 10000 2 310 11:33 06.04.2020
5210 Clear 10 1038 29 10000 3 290 10:52 06.04.2020
5211 Clear 10 1038 29 10000 3 290 10:52 06.04.2020
5212 Clear 10 1038 29 10000 3 290 10:52 06.04.2020
5213 Clear 10 1038 29 10000 3 290 10:52 06.04.2020
5214 Clear 10 1038 29 10000 3 290 10:52 06.04.2020
5215 Clear 10 1037 27 10000 3 310 10:22 06.04.2020
5216 Clear 11 1037 29 10000 2 320 09:47 06.04.2020
5217 Clear 11 1037 29 10000 2 320 09:47 06.04.2020
5218 Clear 9 1037 29 10000 2 190 09:21 06.04.2020
5219 Clear 8 1037 33 10000 2 200 08:55 06.04.2020
5220 Clear 8 1037 36 10000 2 230 08:31 06.04.2020
5221 Clear 6 1037 48 9000 1.38 325 07:39 06.04.2020
5222 Clear -3 1036 74 10000 1.38 325 06:47 06.04.2020
5223 Clear -3 1036 74 10000 1.38 325 06:24 06.04.2020
5224 Clear -2 1036 68 10000 1 0 04:20 06.04.2020
5225 Clear 3 1035 47 10000 1 70 02:59 06.04.2020
5226 Clouds 2 1035 63 10000 3 30 02:36 06.04.2020
5227 Clouds 2 1034 50 10000 3 10 01:28 06.04.2020
5228 Clouds 3 1034 43 10000 2 310 00:44 06.04.2020
5229 Clouds 2 1034 43 10000 2 310 00:23 06.04.2020
5230 Clear 4 1034 43 10000 2 250 23:44 05.04.2020
5231 Clear 4 1034 43 10000 2 280 23:25 05.04.2020
5232 Clear 4 1034 43 10000 2 280 23:25 05.04.2020
5233 Clear 5 1033 40 9000 2 280 22:55 05.04.2020
5234 Clear 4 1033 40 9000 2 280 22:37 05.04.2020
5235 Clear 5 1033 40 10000 2 300 22:18 05.04.2020
5236 Clear 7 1033 30 10000 2 310 21:46 05.04.2020
5237 Clear 7 1033 30 10000 2 310 21:25 05.04.2020
5238 Clear 7 1033 35 10000 2 350 20:47 05.04.2020
5239 Clear 6 1033 35 10000 2 360 20:19 05.04.2020
5240 Clear 6 1033 35 10000 2 360 20:19 05.04.2020
5241 Clear 6 1033 35 10000 2 360 20:18 05.04.2020
5242 Clear 6 1033 35 10000 2 360 20:18 05.04.2020
5243 Clear 6 1033 35 10000 2 360 20:18 05.04.2020
5244 Clear 7 1032 30 10000 2 10 19:37 05.04.2020
5245 Clear 7 1032 30 10000 2 10 19:19 05.04.2020
5246 Clear 9 1031 28 10000 3 20 18:44 05.04.2020
5247 Clear 9 1031 28 10000 3 20 18:44 05.04.2020
5248 Clear 9 1031 28 10000 3 20 18:44 05.04.2020
5249 Clear 10 1031 25 10000 4 20 18:44 05.04.2020
5250 Clear 10 1031 25 10000 4 20 18:44 05.04.2020
5251 Clear 11 1031 21 10000 4 20 17:52 05.04.2020
5252 Clear 11 1031 21 10000 4 20 17:52 05.04.2020
5253 Clear 11 1031 21 10000 4 20 17:52 05.04.2020
5254 Clear 11 1031 21 10000 4 20 17:52 05.04.2020
5255 Clear 11 1031 21 10000 4 20 17:52 05.04.2020
5256 Clear 11 1031 18 10000 3 360 17:24 05.04.2020
5257 Clear 11 1031 18 10000 3 360 17:24 05.04.2020
5258 Clear 11 1031 18 10000 3 360 17:24 05.04.2020
5259 Clear 12 1031 20 10000 4 20 16:56 05.04.2020
5260 Clear 12 1031 20 10000 4 20 16:54 05.04.2020
5261 Clear 12 1031 20 10000 4 20 16:53 05.04.2020
5262 Clear 12 1031 20 10000 4 20 16:53 05.04.2020
5263 Clear 12 1031 20 10000 4 20 16:53 05.04.2020
5264 Clear 11 1031 21 10000 4 30 16:20 05.04.2020
5265 Clear 12 1031 21 10000 5 30 15:51 05.04.2020
5266 Clear 12 1031 20 10000 4 10 15:32 05.04.2020
5267 Clear 12 1031 20 10000 4 10 15:32 05.04.2020
5268 Clear 12 1031 22 10000 4 10 14:50 05.04.2020
5269 Clear 12 1031 22 10000 4 10 14:50 05.04.2020
5270 Clear 11 1031 20 10000 7 330 14:25 05.04.2020
5271 Clear 11 1031 20 10000 7 330 14:25 05.04.2020
5272 Clear 11 1032 20 10000 5 360 13:43 05.04.2020
5273 Clear 11 1032 20 10000 5 360 13:43 05.04.2020
5274 Clear 11 1032 21 10000 6 360 12:49 05.04.2020
5275 Clear 11 1032 21 10000 7 340 12:49 05.04.2020
5276 Clear 11 1032 29 10000 6 340 11:41 05.04.2020
5277 Clear 10 1032 29 10000 7 320 11:21 05.04.2020
5278 Clear 10 1032 34 10000 7 330 10:49 05.04.2020
5279 Clear 9 1032 34 10000 5 340 10:25 05.04.2020
5280 Clear 9 1032 34 10000 5 340 10:24 05.04.2020
5281 Clear 8 1032 36 9000 4 340 09:58 05.04.2020
5282 Clear 8 1032 36 9000 4 340 09:39 05.04.2020
5283 Clear 8 1032 39 9000 3 360 09:39 05.04.2020
5284 Clear 8 1032 36 9000 4 340 09:39 05.04.2020
5285 Clear 8 1032 39 9000 3 360 09:20 05.04.2020
5286 Clear 8 1032 39 9000 3 360 09:20 05.04.2020
5287 Clear 8 1032 39 9000 3 360 09:20 05.04.2020
5288 Clear 8 1032 39 9000 3 360 09:20 05.04.2020
5289 Clear 8 1032 39 9000 3 360 09:20 05.04.2020
5290 Smoke 3 1031 55 3200 3 290 07:31 05.04.2020
5291 Smoke 1 1029 66 5000 2 250 04:36 05.04.2020
5292 Clear 0 1029 66 6000 3 320 03:31 05.04.2020
5293 Clouds -1 1029 54 7000 2 290 02:51 05.04.2020
5294 Clouds 1 1028 59 9000 2 260 01:47 05.04.2020
5295 Clouds 2 1028 59 9000 2 270 01:28 05.04.2020
5296 Clouds 3 1028 43 9000 2 260 00:44 05.04.2020
5297 Clouds 4 1027 40 8000 2 250 00:21 05.04.2020
5298 Clear 3 1027 40 7000 2 250 23:54 04.04.2020
5299 Clear 4 1027 43 6000 2 280 23:36 04.04.2020
5300 Clear 4 1027 43 6000 2 280 23:18 04.04.2020
5301 Clear 5 1026 35 7000 2 290 22:40 04.04.2020
5302 Clear 5 1026 32 9000 2 310 22:21 04.04.2020
5303 Clear 6 1026 30 10000 2 330 21:58 04.04.2020
5304 Clear 6 1025 26 10000 3 330 21:39 04.04.2020
5305 Clear 6 1025 26 10000 3 330 21:19 04.04.2020
5306 Clear 6 1025 26 10000 3 330 21:19 04.04.2020
5307 Clear 7 1025 22 10000 2 330 20:58 04.04.2020
5308 Clear 8 1025 20 10000 3 330 20:39 04.04.2020
5309 Clear 8 1025 20 10000 3 330 20:20 04.04.2020
5310 Clouds 8 1024 21 10000 3 330 19:57 04.04.2020
5311 Clouds 8 1024 21 10000 4 320 19:37 04.04.2020
5312 Clear 9 1023 19 10000 4 310 19:18 04.04.2020
5313 Clear 9 1023 19 10000 4 310 18:55 04.04.2020
5314 Clear 10 1023 18 10000 6 300 18:37 04.04.2020
5315 Clear 10 1023 18 10000 6 300 18:18 04.04.2020
5316 Clear 12 1022 17 10000 7 300 17:40 04.04.2020
5317 Clear 12 1022 17 10000 7 300 17:20 04.04.2020
5318 Clear 12 1022 16 10000 7 300 16:55 04.04.2020
5319 Clouds 13 1022 16 10000 6 320 16:37 04.04.2020
5320 Clear 13 1022 16 10000 6 320 16:37 04.04.2020
5321 Clear 13 1022 16 10000 6 320 16:18 04.04.2020
5322 Clouds 13 1022 19 10000 6 300 15:40 04.04.2020
5323 Clear 13 1022 19 10000 6 300 15:22 04.04.2020
5324 Clear 13 1022 19 10000 7 310 14:57 04.04.2020
5325 Clear 13 1022 19 10000 7 310 14:57 04.04.2020
5326 Clear 13 1021 18 10000 6 300 14:39 04.04.2020
5327 Clear 13 1021 18 10000 6 300 14:20 04.04.2020
5328 Clear 13 1021 18 10000 6 290 13:55 04.04.2020
5329 Clear 13 1021 22 10000 8 310 13:37 04.04.2020
5330 Clear 13 1021 22 10000 8 310 13:18 04.04.2020
5331 Clear 12 1021 23 10000 4 300 12:43 04.04.2020
5332 Clear 12 1021 23 10000 4 300 12:23 04.04.2020
5333 Clear 12 1021 23 10000 6 300 11:55 04.04.2020
5334 Clear 11 1021 27 10000 5 300 11:36 04.04.2020
5335 Clear 11 1021 27 10000 5 300 11:18 04.04.2020
5336 Clear 11 1021 34 10000 6 310 10:55 04.04.2020
5337 Clear 10 1021 37 10000 5 330 10:37 04.04.2020
5338 Clear 10 1021 37 10000 5 330 10:18 04.04.2020
5339 Clear 10 1021 39 10000 3 340 09:44 04.04.2020
5340 Clear 9 1021 42 10000 3 350 09:25 04.04.2020
5341 Clouds 8 1020 42 10000 4 340 08:58 04.04.2020
5342 Clouds 7 1020 48 10000 4 310 08:38 04.04.2020
5343 Clouds 7 1020 48 10000 4 310 08:19 04.04.2020
5344 Clouds 5 1019 64 10000 3 260 07:40 04.04.2020
5345 Clouds 5 1019 64 10000 3 260 07:22 04.04.2020
5346 Clouds 3 1019 64 10000 3 260 06:46 04.04.2020
5347 Clouds 3 1018 64 10000 3 250 05:57 04.04.2020
5348 Clouds 3 1017 64 10000 2 300 05:39 04.04.2020
5349 Clouds 2 1017 64 10000 2 300 05:21 04.04.2020
5350 Clouds 3 1016 59 10000 2 250 04:24 04.04.2020
5351 Clouds 5 1016 55 10000 2 250 03:45 04.04.2020
5352 Clouds 5 1015 55 10000 2 240 02:49 04.04.2020
5353 Clouds 6 1015 48 10000 2 260 02:30 04.04.2020
5354 Clouds 6 1014 48 10000 3 260 01:50 04.04.2020
5355 Clouds 6 1014 41 10000 2 270 01:22 04.04.2020
5356 Clouds 6 1014 41 10000 2 270 01:22 04.04.2020
5357 Clouds 6 1014 42 10000 3 280 00:47 04.04.2020
5358 Clouds 7 1013 44 9000 2 270 00:26 04.04.2020
5359 Clouds 8 1012 38 10000 3 260 23:39 03.04.2020
5360 Clouds 7 1012 38 10000 3 260 23:21 03.04.2020
5361 Clouds 8 1012 36 10000 3 260 22:56 03.04.2020
5362 Clouds 8 1012 36 10000 3 260 22:37 03.04.2020
5363 Clouds 8 1012 33 10000 2 250 22:18 03.04.2020
5364 Clouds 8 1012 35 9000 3 240 21:43 03.04.2020
5365 Clear 9 1011 31 8000 2 230 21:22 03.04.2020
5366 Clear 9 1011 33 7000 2 260 20:56 03.04.2020
5367 Clear 9 1010 28 8000 2 230 20:37 03.04.2020
5368 Clear 10 1010 28 8000 2 230 20:19 03.04.2020
5369 Clear 10 1010 26 9000 2 220 19:56 03.04.2020
5370 Clear 11 1009 23 10000 2 220 19:37 03.04.2020
5371 Clear 11 1009 23 10000 2 220 19:19 03.04.2020
5372 Clear 12 1009 22 10000 3 240 18:58 03.04.2020
5373 Clear 13 1009 20 10000 4 250 18:40 03.04.2020
5374 Clear 13 1009 20 10000 4 250 18:22 03.04.2020
5375 Clear 14 1008 19 10000 7 260 17:43 03.04.2020
5376 Clear 14 1008 19 10000 7 260 17:21 03.04.2020
5377 Clear 14 1008 19 10000 7 260 17:21 03.04.2020
5378 Clear 15 1008 19 10000 6 240 16:58 03.04.2020
5379 Clear 15 1008 21 10000 7 230 16:40 03.04.2020
5380 Clear 15 1008 21 10000 7 230 16:21 03.04.2020
5381 Clear 15 1008 19 10000 6 240 15:56 03.04.2020
5382 Clear 15 1008 19 10000 6 240 15:37 03.04.2020
5383 Clear 15 1008 19 10000 7 230 15:19 03.04.2020
5384 Clear 15 1009 19 10000 6 240 14:41 03.04.2020
5385 Clear 14 1009 19 10000 6 240 14:22 03.04.2020
5386 Clear 14 1009 19 10000 6 240 13:57 03.04.2020
5387 Clear 14 1009 19 10000 6 240 13:37 03.04.2020
5388 Clear 14 1009 21 10000 5 230 13:18 03.04.2020
5389 Clear 14 1010 20 10000 8 230 12:43 03.04.2020
5390 Clear 14 1010 20 10000 8 230 12:20 03.04.2020
5391 Clear 14 1010 22 10000 7 240 11:56 03.04.2020
5392 Clear 13 1010 20 10000 7 230 11:37 03.04.2020
5393 Clear 13 1010 20 10000 7 230 11:18 03.04.2020
5394 Clear 12 1010 23 10000 6 240 10:57 03.04.2020
5395 Clear 12 1010 23 10000 6 220 10:38 03.04.2020
5396 Clear 12 1010 23 10000 6 220 10:20 03.04.2020
5397 Clear 11 1010 25 10000 4 220 09:57 03.04.2020
5398 Clear 11 1010 25 10000 4 220 09:39 03.04.2020
5399 Clear 10 1010 25 10000 4 230 09:21 03.04.2020
5400 Clear 8 1010 28 10000 4 230 08:55 03.04.2020
5401 Clear 7 1010 30 10000 4 220 08:36 03.04.2020
5402 Clear 7 1010 30 10000 4 220 08:18 03.04.2020
5403 Clear 3 1010 40 10000 4 230 07:41 03.04.2020
5404 Clear 0 1010 54 10000 2 240 07:23 03.04.2020
5405 Clear -2 1010 54 10000 2 260 06:38 03.04.2020
5406 Clear -2 1010 54 10000 2 250 06:20 03.04.2020
5407 Clear -2 1010 58 10000 2 240 05:34 03.04.2020
5408 Clear -1 1010 58 10000 2 240 03:40 03.04.2020
5409 Clear 0 1010 64 9000 2 230 02:53 03.04.2020
5410 Clear 0 1011 58 9000 2 220 01:36 03.04.2020
5411 Clear 0 1011 58 9000 2 220 01:18 03.04.2020
5412 Clear 0 1011 64 9000 2 220 00:34 03.04.2020
5413 Clear 0 1011 50 6000 2 220 23:57 02.04.2020
5414 Clear 1 1011 59 7000 1 240 23:39 02.04.2020
5415 Clear 1 1011 59 7000 1 240 23:19 02.04.2020
5416 Clear 1 1011 59 7000 2 210 22:43 02.04.2020
5417 Clear 2 1011 55 6000 1 220 22:24 02.04.2020
5418 Smoke 3 1011 51 5000 2 220 21:59 02.04.2020
5419 Smoke 3 1011 51 5000 2 220 21:59 02.04.2020
5420 Smoke 3 1011 51 5000 2 220 21:59 02.04.2020
5421 Clear 4 1011 44 6000 1 220 21:37 02.04.2020
5422 Clear 4 1011 44 6000 1 220 21:19 02.04.2020
5423 Clear 4 1011 47 6000 1 230 20:54 02.04.2020
5424 Clear 5 1011 44 6000 2 220 20:36 02.04.2020
5425 Clear 5 1011 44 6000 2 220 20:18 02.04.2020
5426 Clear 8 1010 28 10000 2 250 19:42 02.04.2020
5427 Clear 9 1010 26 10000 3 270 19:20 02.04.2020
5428 Clear 9 1010 26 10000 3 270 18:56 02.04.2020
5429 Clear 10 1010 25 10000 4 280 18:38 02.04.2020
5430 Clear 10 1010 23 10000 5 270 18:18 02.04.2020
5431 Clear 11 1010 23 10000 5 270 17:43 02.04.2020
5432 Clear 11 1010 23 10000 6 270 17:24 02.04.2020
5433 Clear 11 1010 25 10000 8 280 16:58 02.04.2020
5434 Clear 11 1010 23 10000 8 260 16:40 02.04.2020
5435 Clear 12 1010 23 10000 8 260 16:22 02.04.2020
5436 Clear 12 1010 23 10000 6 270 15:57 02.04.2020
5437 Clear 12 1010 23 10000 7 270 15:39 02.04.2020
5438 Clear 12 1010 23 10000 7 270 15:19 02.04.2020
5439 Clear 11 1011 25 10000 7 260 14:57 02.04.2020
5440 Clear 11 1011 25 10000 7 260 14:38 02.04.2020
5441 Clear 11 1011 23 10000 9 260 14:18 02.04.2020
5442 Clear 11 1011 23 10000 9 260 13:55 02.04.2020
5443 Clear 10 1012 25 10000 8 270 13:37 02.04.2020
5444 Clear 10 1012 25 10000 8 270 13:18 02.04.2020
5445 Clear 11 1012 27 10000 8 260 12:45 02.04.2020
5446 Clear 10 1012 26 10000 8 260 12:19 02.04.2020
5447 Clear 9 1012 29 10000 7 270 11:57 02.04.2020
5448 Clear 9 1012 29 10000 7 270 11:57 02.04.2020
5449 Clear 8 1012 29 10000 7 280 11:39 02.04.2020
5450 Clear 8 1012 29 10000 7 280 11:20 02.04.2020
5451 Clear 8 1012 29 10000 7 280 11:20 02.04.2020
5452 Clear 8 1013 33 10000 8 270 10:56 02.04.2020
5453 Clear 7 1013 33 10000 8 260 10:38 02.04.2020
5454 Clear 7 1013 33 10000 8 260 10:38 02.04.2020
5455 Clear 7 1013 33 10000 8 260 10:20 02.04.2020
5456 Clear 7 1014 36 10000 7 270 09:58 02.04.2020
5457 Clear 7 1014 36 10000 7 270 09:39 02.04.2020
5458 Clouds 6 1014 38 10000 5 260 09:20 02.04.2020
5459 Clouds 4 1014 41 10000 5 260 08:47 02.04.2020
5460 Clouds 3 1014 44 10000 5 250 08:27 02.04.2020
5461 Clouds 2 1014 47 10000 5 260 07:47 02.04.2020
5462 Clouds 1 1014 50 10000 3 250 07:22 02.04.2020
5463 Clouds 0 1014 58 10000 3 250 06:59 02.04.2020
5464 Clouds -1 1014 58 10000 3 240 06:23 02.04.2020
5465 Clouds -1 1014 58 10000 3 230 05:45 02.04.2020
5466 Clouds -2 1014 58 10000 3 240 04:50 02.04.2020
5467 Clouds 0 1014 73 10000 3 260 02:19 02.04.2020
5468 Clouds 1 1014 47 10000 3 270 00:58 02.04.2020
5469 Clouds 1 1014 47 10000 4 260 00:36 02.04.2020
5470 Clouds 1 1014 47 10000 4 260 00:18 02.04.2020
5471 Clouds 1 1014 47 10000 4 260 23:38 01.04.2020
5472 Clouds 2 1014 47 10000 4 260 23:19 01.04.2020
5473 Clouds 2 1014 43 10000 4 270 22:41 01.04.2020
5474 Clouds 3 1014 40 10000 5 270 22:22 01.04.2020
5475 Clouds 3 1015 40 10000 5 270 21:58 01.04.2020
5476 Clouds 3 1015 40 10000 5 270 21:39 01.04.2020
5477 Clouds 3 1015 40 10000 5 270 21:19 01.04.2020
5478 Clouds 3 1015 40 10000 5 270 20:56 01.04.2020
5479 Clouds 4 1015 38 10000 5 260 20:38 01.04.2020
5480 Clouds 4 1015 38 10000 5 260 20:18 01.04.2020
5481 Clouds 4 1015 38 10000 5 260 19:55 01.04.2020
5482 Clouds 4 1015 35 10000 5 270 19:37 01.04.2020
5483 Clouds 5 1015 32 10000 5 270 19:19 01.04.2020
5484 Clouds 5 1015 32 10000 8 280 18:41 01.04.2020
5485 Clouds 6 1015 30 10000 8 270 18:21 01.04.2020
5486 Clouds 6 1015 30 10000 8 270 17:56 01.04.2020
5487 Clouds 7 1015 30 10000 8 270 17:37 01.04.2020
5488 Clouds 7 1015 30 10000 8 270 17:18 01.04.2020
5489 Clouds 7 1015 28 10000 7 290 16:56 01.04.2020
5490 Clouds 7 1015 28 10000 8 270 16:38 01.04.2020
5491 Clouds 7 1015 30 10000 8 290 16:19 01.04.2020
5492 Clouds 7 1015 30 10000 8 290 15:42 01.04.2020
5493 Clouds 7 1016 30 10000 9 280 15:22 01.04.2020
5494 Clouds 7 1016 33 10000 9 290 14:59 01.04.2020
5495 Clouds 7 1016 30 10000 8 290 14:39 01.04.2020
5496 Clouds 6 1016 30 10000 8 290 14:21 01.04.2020
5497 Clouds 7 1017 33 10000 8 290 13:59 01.04.2020
5498 Clouds 7 1017 33 10000 8 290 13:59 01.04.2020
5499 Clouds 5 1017 35 10000 9 280 13:38 01.04.2020
5500 Clouds 5 1017 35 10000 9 280 13:19 01.04.2020
5501 Clouds 5 1017 33 10000 8 290 12:57 01.04.2020
5502 Clouds 6 1018 32 10000 10 270 12:37 01.04.2020
5503 Clouds 6 1018 32 10000 10 270 12:18 01.04.2020
5504 Clouds 6 1018 32 10000 10 270 12:18 01.04.2020
5505 Clouds 5 1018 35 10000 9 270 11:56 01.04.2020
5506 Clouds 4 1018 38 10000 8 280 11:37 01.04.2020
5507 Clouds 5 1018 38 10000 8 280 11:18 01.04.2020
5508 Clouds 4 1019 41 10000 7 280 10:38 01.04.2020
5509 Clouds 4 1019 41 10000 7 280 10:20 01.04.2020
5510 Clouds 4 1019 48 10000 6 260 09:58 01.04.2020
5511 Clouds 3 1020 51 10000 5 270 09:39 01.04.2020
5512 Clouds 3 1020 51 10000 5 270 09:19 01.04.2020
5513 Clouds 1 1020 55 10000 5 270 08:43 01.04.2020
5514 Clouds 1 1020 67 10000 5 270 08:18 01.04.2020
5515 Clouds -2 1020 54 10000 4 270 07:48 01.04.2020
5516 Clouds -2 1020 54 10000 4 270 07:22 01.04.2020
5517 Clouds -3 1020 53 10000 2 240 06:58 01.04.2020
5518 Clouds -4 1020 57 10000 2 240 06:27 01.04.2020
5519 Clouds -5 1020 57 10000 3 230 05:59 01.04.2020
5520 Clouds -6 1020 73 8000 2 230 04:36 01.04.2020
5521 Clouds -5 1020 57 10000 2 230 03:35 01.04.2020
5522 Clear -5 1020 53 9000 2 230 02:57 01.04.2020
5523 Clouds -6 1020 67 7000 2 240 02:21 01.04.2020
5524 Clouds -5 1021 58 6000 3 230 01:40 01.04.2020
5525 Clouds -5 1021 58 6000 3 230 01:22 01.04.2020
5526 Clouds -5 1021 58 6000 2 230 00:46 01.04.2020
5527 Clouds -5 1021 67 6000 1 230 00:21 01.04.2020
5528 Smoke -5 1021 62 5000 1 220 23:48 31.03.2020
5529 Clouds -5 1021 58 7000 1 0 23:28 31.03.2020
5530 Clouds -4 1021 62 10000 1.41 308 22:59 31.03.2020
5531 Clouds -4 1021 62 10000 1.41 308 22:37 31.03.2020
5532 Clouds -3 1021 53 10000 1 80 22:19 31.03.2020
5533 Clouds -1 1020 39 10000 1 70 21:57 31.03.2020
5534 Clouds -1 1020 39 10000 1 70 21:39 31.03.2020
5535 Clouds 0 1020 68 10000 1 0 21:20 31.03.2020
5536 Clouds 0 1020 68 10000 1 0 20:55 31.03.2020
5537 Clouds 0 1020 68 10000 1 0 20:37 31.03.2020
5538 Clouds 1 1020 31 10000 3 350 20:18 31.03.2020
5539 Clouds 2 1020 27 10000 2 350 19:42 31.03.2020
5540 Clouds 2 1020 27 10000 2 350 19:24 31.03.2020
5541 Clouds 2 1020 25 10000 4 340 18:59 31.03.2020
5542 Clouds 3 1020 25 10000 4 340 18:41 31.03.2020
5543 Clouds 4 1019 23 10000 5 350 18:19 31.03.2020
5544 Clouds 4 1019 23 10000 5 350 17:55 31.03.2020
5545 Clouds 4 1019 29 10000 5 30 17:37 31.03.2020
5546 Clouds 4 1019 34 10000 3 20 17:19 31.03.2020
5547 Clouds 4 1019 35 10000 5 40 16:41 31.03.2020
5548 Clouds 4 1019 35 10000 5 40 16:20 31.03.2020
5549 Clouds 4 1019 38 10000 5 40 15:58 31.03.2020
5550 Clouds 4 1019 38 10000 5 40 15:58 31.03.2020
5551 Clouds 5 1019 35 10000 4 330 15:40 31.03.2020
5552 Clouds 4 1019 35 10000 4 330 15:22 31.03.2020
5553 Clouds 4 1019 40 10000 6 10 14:58 31.03.2020
5554 Clouds 4 1019 40 10000 6 10 14:58 31.03.2020
5555 Clouds 4 1019 47 10000 4 340 14:39 31.03.2020
5556 Clouds 4 1019 47 10000 4 340 14:21 31.03.2020
5557 Clouds 3 1020 51 10000 5 360 13:43 31.03.2020
5558 Clouds 3 1020 51 10000 5 360 13:20 31.03.2020
5559 Clouds 3 1020 55 10000 6 360 12:59 31.03.2020
5560 Snow 2 1020 59 4100 5 340 12:40 31.03.2020
5561 Snow 1 1020 76 4100 5 340 12:19 31.03.2020
5562 Snow 0 1019 68 6000 7 330 11:41 31.03.2020
5563 Snow 0 1019 68 6000 7 330 11:20 31.03.2020
5564 Snow -1 1019 68 9000 6 340 10:59 31.03.2020
5565 Snow -1 1019 74 7000 6 330 10:40 31.03.2020
5566 Snow 0 1019 74 7000 6 330 10:22 31.03.2020
5567 Clouds -1 1019 68 9000 6 340 09:59 31.03.2020
5568 Snow -1 1019 74 10000 6 340 09:40 31.03.2020
5569 Snow -2 1019 74 10000 6 340 09:22 31.03.2020
5570 Snow -2 1018 74 10000 6 320 08:57 31.03.2020
5571 Snow -2 1018 79 9000 6 330 08:38 31.03.2020
5572 Snow -1 1018 79 9000 6 330 08:19 31.03.2020
5573 Snow -1 1018 79 9000 6 330 08:19 31.03.2020
5574 Snow -2 1017 79 8000 6 330 07:56 31.03.2020
5575 Snow -2 1017 79 9000 4 330 07:37 31.03.2020
5576 Snow -2 1017 79 7000 6 340 07:18 31.03.2020
5577 Clouds -2 1016 74 10000 6 330 06:43 31.03.2020
5578 Clouds -2 1016 74 10000 6 320 05:59 31.03.2020
5579 Clouds -2 1016 74 10000 6 320 05:39 31.03.2020
5580 Clouds -1 1015 74 10000 7 310 03:34 31.03.2020
5581 Clouds -1 1015 80 10000 6 310 01:54 31.03.2020
5582 Clouds -1 1015 80 10000 7 310 01:34 31.03.2020
5583 Clouds -1 1014 80 10000 7 320 00:46 31.03.2020
5584 Clouds -1 1014 80 10000 7 320 00:25 31.03.2020
5585 Clouds -1 1014 80 10000 7 320 23:41 30.03.2020
5586 Clouds -1 1014 80 10000 7 320 23:20 30.03.2020
5587 Clouds 0 1014 86 10000 5 330 22:58 30.03.2020
5588 Snow 0 1014 86 10000 7 320 22:39 30.03.2020
5589 -273 0 0 0 0 0 22:20 30.03.2020
5590 Snow 0 1013 86 9000 7 330 21:58 30.03.2020
5591 Snow 0 1013 85 4900 6 340 21:39 30.03.2020
5592 Snow 0 1013 85 4900 6 340 21:39 30.03.2020
5593 Snow 0 1013 68 4900 6 340 21:20 30.03.2020
5594 Snow 0 1013 68 9000 7 330 20:59 30.03.2020
5595 Snow 1 1013 80 10000 6 320 20:39 30.03.2020
5596 Snow 1 1013 80 10000 6 320 20:20 30.03.2020
5597 Snow 1 1013 80 10000 6 320 20:20 30.03.2020
5598 Snow 1 1013 80 10000 6 320 20:20 30.03.2020
5599 Clouds 2 1012 74 10000 6 330 19:56 30.03.2020
5600 Clouds 2 1012 69 10000 7 330 19:38 30.03.2020
5601 Clouds 2 1012 69 10000 7 330 19:38 30.03.2020
5602 Clouds 2 1012 69 10000 7 330 19:20 30.03.2020
5603 Clouds 3 1011 69 10000 7 330 18:43 30.03.2020
5604 Clouds 3 1011 69 10000 7 330 18:25 30.03.2020
5605 Clouds 3 1011 69 10000 8 320 17:58 30.03.2020
5606 Clouds 3 1011 74 10000 7 330 17:39 30.03.2020
5607 Clouds 3 1011 74 10000 7 330 17:39 30.03.2020
5608 Clouds 4 1011 74 10000 7 330 17:20 30.03.2020
5609 Clouds 4 1010 69 10000 7 330 16:58 30.03.2020
5610 Clouds 4 1010 69 10000 7 330 16:39 30.03.2020
5611 Clouds 6 1010 61 10000 9 310 16:20 30.03.2020
5612 Clouds 5 1010 69 10000 8 320 16:20 30.03.2020
5613 Clouds 5 1010 69 10000 8 320 16:20 30.03.2020
5614 Clouds 6 1010 61 10000 9 310 15:56 30.03.2020
5615 Clouds 6 1009 61 10000 8 320 15:37 30.03.2020
5616 Clouds 6 1009 55 10000 8 320 15:19 30.03.2020
5617 Clouds 7 1009 65 10000 8 310 14:56 30.03.2020
5618 Clouds 8 1008 61 10000 7 330 14:37 30.03.2020
5619 Clouds 8 1008 61 10000 7 330 14:18 30.03.2020
5620 Clouds 8 1008 61 10000 8 320 13:55 30.03.2020
5621 Clouds 8 1008 61 10000 8 320 13:55 30.03.2020
5622 Clouds 8 1008 57 10000 7 330 13:37 30.03.2020
5623 Clouds 9 1008 57 10000 7 330 13:18 30.03.2020
5624 Clouds 10 1007 53 10000 8 320 12:43 30.03.2020
5625 Clouds 10 1007 53 10000 8 320 12:20 30.03.2020
5626 Clouds 10 1007 53 10000 7 320 11:57 30.03.2020
5627 Clouds 10 1007 53 10000 7 330 11:39 30.03.2020
5628 Clouds 10 1007 53 10000 7 330 11:21 30.03.2020
5629 Clouds 9 1007 57 10000 6 340 10:41 30.03.2020
5630 Clouds 9 1007 57 10000 6 340 10:23 30.03.2020
5631 Clouds 9 1006 57 10000 5 340 09:58 30.03.2020
5632 Clouds 9 1006 57 10000 5 340 09:39 30.03.2020
5633 Clouds 8 1006 72 10000 5 330 09:19 30.03.2020
5634 Clouds 7 1006 72 10000 5 330 08:43 30.03.2020
5635 Clouds 6 1006 72 10000 5 330 08:23 30.03.2020
5636 Clouds 6 1005 72 10000 7 320 07:53 30.03.2020
5637 Clouds 6 1005 72 10000 5 330 07:34 30.03.2020
5638 Clouds 6 1005 72 10000 6 350 06:57 30.03.2020
5639 Clouds 7 1004 56 10000 5 340 06:33 30.03.2020
5640 Clouds 7 1004 56 10000 5 340 05:55 30.03.2020
5641 Clouds 7 1004 56 10000 5 340 05:33 30.03.2020
5642 Clouds 7 1003 49 10000 4 340 04:24 30.03.2020
5643 Clouds 6 1003 52 10000 2 290 03:44 30.03.2020
5644 Clouds 7 1003 45 10000 3 330 02:42 30.03.2020
5645 Clouds 4 1003 56 6000 1 0 01:48 30.03.2020
5646 Smoke 8 1003 42 6000 1 0 00:55 30.03.2020
5647 Smoke 6 1003 52 5000 2 270 00:24 30.03.2020
5648 Smoke 8 1003 52 3900 3 260 23:43 29.03.2020
5649 Smoke 7 1003 52 3900 0.96 261 23:24 29.03.2020
5650 Smoke 6 1003 56 3700 1 0 22:59 29.03.2020
5651 Smoke 7 1003 56 3700 0.96 261 22:39 29.03.2020
5652 Smoke 7 1003 56 3700 0.96 261 22:19 29.03.2020
5653 Smoke 7 1003 56 3700 0.96 261 22:19 29.03.2020
5654 Smoke 8 1003 52 3800 1 270 21:58 29.03.2020
5655 Clouds 7 1003 52 6000 1 280 21:36 29.03.2020
5656 Clouds 8 1003 45 7000 0.86 21 21:18 29.03.2020
5657 Clouds 8 1003 45 7000 0.86 21 20:55 29.03.2020
5658 Clouds 9 1003 39 8000 0.86 21 20:36 29.03.2020
5659 Clouds 12 1003 27 9000 1 0 20:18 29.03.2020
5660 Clouds 13 1003 30 10000 1 330 19:42 29.03.2020
5661 Clouds 14 1003 24 10000 1 0 19:24 29.03.2020
5662 Clouds 16 1003 23 10000 1 0 18:58 29.03.2020
5663 Clouds 16 1003 23 10000 1 0 18:40 29.03.2020
5664 Clouds 17 1003 20 10000 2 280 18:21 29.03.2020
5665 Clouds 17 1003 20 10000 2 280 17:59 29.03.2020
5666 Clouds 18 1003 20 10000 3 280 17:41 29.03.2020
5667 Clouds 18 1003 20 10000 3 280 17:22 29.03.2020
5668 Clouds 18 1003 23 10000 3 270 16:58 29.03.2020
5669 Clouds 19 1003 17 10000 3 290 16:39 29.03.2020
5670 Clouds 19 1003 17 10000 3 290 16:21 29.03.2020
5671 Clouds 19 1003 20 10000 2 290 15:58 29.03.2020
5672 Clouds 19 1003 17 10000 1 0 15:39 29.03.2020
5673 Clouds 19 1003 17 10000 1 0 15:19 29.03.2020
5674 Clouds 18 1003 17 10000 3 50 14:55 29.03.2020
5675 Clouds 18 1004 17 10000 2 270 14:36 29.03.2020
5676 Clouds 18 1004 17 10000 2 270 14:36 29.03.2020
5677 Clouds 18 1004 16 10000 2 250 14:18 29.03.2020
5678 Clouds 17 1004 20 10000 2 70 13:42 29.03.2020
5679 Clouds 18 1005 23 10000 2 350 13:22 29.03.2020
5680 Clouds 17 1005 21 10000 2 80 12:58 29.03.2020
5681 Clouds 17 1005 21 10000 2 80 12:39 29.03.2020
5682 Clouds 17 1005 21 10000 2 30 12:19 29.03.2020
5683 Clouds 17 1005 21 10000 2 30 11:58 29.03.2020
5684 Clouds 16 1005 25 10000 1 0 11:37 29.03.2020
5685 Clouds 16 1005 25 10000 1 0 11:19 29.03.2020
5686 Clouds 13 1006 30 10000 1 0 10:39 29.03.2020
5687 Clouds 11 1006 37 10000 1 0 10:20 29.03.2020
5688 Clouds 12 1006 37 10000 1 0 09:56 29.03.2020
5689 Clouds 12 1006 37 10000 1 0 09:56 29.03.2020
5690 Clouds 10 1006 39 10000 1.3 109 09:37 29.03.2020
5691 Clouds 10 1006 39 10000 1.18 71 09:18 29.03.2020
5692 Clouds 8 1006 42 10000 2 70 08:43 29.03.2020
5693 Clouds 8 1006 42 10000 2 70 08:24 29.03.2020
5694 Clouds 3 1007 69 10000 1 90 07:47 29.03.2020
5695 Clouds 3 1007 60 10000 1.18 71 07:23 29.03.2020
5696 Clouds 2 1007 64 10000 2 70 05:59 29.03.2020
5697 Clouds 2 1007 55 10000 1 70 04:56 29.03.2020
5698 Clouds 5 1008 44 10000 2 80 03:41 29.03.2020
5699 Clouds 3 1008 51 10000 1 90 01:57 29.03.2020
5700 Clouds 3 1009 51 10000 1 100 01:39 29.03.2020
5701 Clouds 3 1009 51 10000 1 100 01:20 29.03.2020
5702 Clouds 3 1009 48 10000 1 80 00:40 29.03.2020
5703 Clouds 3 1010 48 10000 1.29 75 00:18 29.03.2020
5704 Clouds 4 1010 48 10000 2 70 23:40 28.03.2020
5705 Clouds 4 1010 48 10000 2 70 23:22 28.03.2020
5706 Clouds 7 1010 33 10000 2 100 22:43 28.03.2020
5707 Clouds 8 1010 33 10000 2 100 22:22 28.03.2020
5708 Clouds 8 1010 31 10000 2 80 21:57 28.03.2020
5709 Clouds 8 1011 36 10000 3 90 21:39 28.03.2020
5710 Clouds 9 1011 36 10000 3 90 21:19 28.03.2020
5711 Clouds 9 1011 33 10000 2 80 20:56 28.03.2020
5712 Clouds 9 1011 31 10000 2 90 20:37 28.03.2020
5713 Clouds 9 1011 31 10000 2 90 20:19 28.03.2020
5714 Clouds 9 1011 33 9000 2 60 19:55 28.03.2020
5715 Clouds 9 1011 33 7000 1 90 19:36 28.03.2020
5716 Clouds 10 1011 33 7000 1 90 19:18 28.03.2020
5717 Clouds 12 1011 20 10000 2 80 18:39 28.03.2020
5718 Clouds 12 1011 20 10000 2 80 18:39 28.03.2020
5719 Clouds 14 1011 17 10000 2 130 18:20 28.03.2020
5720 Clouds 15 1011 14 10000 4 110 17:42 28.03.2020
5721 Clouds 15 1011 15 10000 3 100 17:22 28.03.2020
5722 Clouds 16 1011 15 10000 3 100 16:59 28.03.2020
5723 Clouds 17 1012 13 10000 5 100 16:38 28.03.2020
5724 Clouds 17 1012 13 10000 5 100 16:18 28.03.2020
5725 Clouds 18 1012 12 10000 6 80 15:40 28.03.2020
5726 Clouds 18 1012 12 10000 6 80 15:19 28.03.2020
5727 Clouds 18 1013 16 10000 7 80 14:58 28.03.2020
5728 Clouds 18 1013 15 10000 5 90 14:40 28.03.2020
5729 Clouds 18 1013 15 10000 5 90 14:21 28.03.2020
5730 Clouds 18 1013 20 10000 6 70 13:43 28.03.2020
5731 Clouds 17 1014 21 10000 6 60 13:23 28.03.2020
5732 Clouds 16 1015 25 10000 7 60 12:41 28.03.2020
5733 Clouds 16 1015 25 10000 7 60 12:22 28.03.2020
5734 Clouds 15 1016 28 10000 5 60 11:43 28.03.2020
5735 Clouds 14 1016 30 10000 5 80 11:24 28.03.2020
5736 Clouds 13 1016 30 10000 5 80 10:58 28.03.2020
5737 Clouds 13 1017 30 10000 5 80 10:38 28.03.2020
5738 Clouds 13 1017 30 10000 5 80 10:18 28.03.2020
5739 Clouds 13 1017 30 10000 3 60 09:43 28.03.2020
5740 Clouds 12 1018 34 10000 4 90 09:23 28.03.2020
5741 Clouds 12 1018 32 10000 4 80 08:56 28.03.2020
5742 Clouds 11 1018 34 10000 5 80 08:37 28.03.2020
5743 Clouds 10 1018 34 10000 5 80 08:18 28.03.2020
5744 Clouds 9 1018 34 10000 6 80 07:42 28.03.2020
5745 Clouds 8 1018 36 10000 5 80 06:58 28.03.2020
5746 Clouds 8 1019 39 10000 4 80 06:35 28.03.2020
5747 Clouds 8 1019 39 10000 4 90 05:42 28.03.2020
5748 Clouds 8 1019 39 10000 4 90 05:21 28.03.2020
5749 Clouds 7 1019 45 10000 4 80 04:40 28.03.2020
5750 Clouds 8 1019 39 10000 4 80 03:34 28.03.2020
5751 Clouds 8 1020 39 10000 4 80 01:53 28.03.2020
5752 Clouds 8 1020 42 10000 4 70 01:25 28.03.2020
5753 Clouds 8 1021 42 10000 3 80 00:56 28.03.2020
5754 Clouds 8 1021 42 10000 3 70 00:35 28.03.2020
5755 Clouds 9 1021 39 10000 3 80 23:54 27.03.2020
5756 Clouds 8 1021 34 10000 3 80 23:36 27.03.2020
5757 Clouds 10 1022 31 10000 2 70 23:18 27.03.2020
5758 Clouds 9 1022 31 10000 2 70 22:54 27.03.2020
5759 Clouds 10 1022 27 10000 2 70 22:36 27.03.2020
5760 Clouds 10 1022 27 10000 2 70 22:18 27.03.2020
5761 Clouds 11 1023 25 10000 2 70 21:42 27.03.2020
5762 Clouds 11 1023 25 10000 2 70 21:23 27.03.2020
5763 Clouds 12 1023 23 10000 4 60 20:58 27.03.2020
5764 Clouds 12 1023 23 10000 4 60 20:58 27.03.2020
5765 Clouds 12 1023 23 10000 4 60 20:58 27.03.2020
5766 Clouds 12 1023 22 10000 4 60 20:39 27.03.2020
5767 Clouds 12 1023 22 10000 4 60 20:20 27.03.2020
5768 Clouds 11 1023 23 10000 3 60 19:56 27.03.2020
5769 Clouds 12 1023 23 10000 3 50 19:38 27.03.2020
5770 Clouds 12 1023 23 10000 3 50 19:19 27.03.2020
5771 Clouds 11 1024 25 10000 3 60 18:43 27.03.2020
5772 Clouds 12 1024 20 10000 3 60 18:23 27.03.2020
5773 Clouds 13 1024 19 10000 4 70 17:57 27.03.2020
5774 Clouds 13 1024 19 10000 4 70 17:38 27.03.2020
5775 Clouds 15 1024 15 10000 5 80 17:19 27.03.2020
5776 Clouds 16 1024 13 10000 5 80 16:44 27.03.2020
5777 Clouds 16 1024 13 10000 5 80 16:25 27.03.2020
5778 Clouds 16 1025 13 10000 4 80 15:45 27.03.2020
5779 Clouds 16 1025 13 10000 4 80 15:27 27.03.2020
5780 Clouds 15 1025 14 10000 6 90 14:57 27.03.2020
5781 Clouds 16 1026 13 10000 6 60 14:39 27.03.2020
5782 Clouds 16 1026 17 10000 5 70 14:21 27.03.2020
5783 Clouds 16 1026 17 10000 7 50 13:43 27.03.2020
5784 Clouds 16 1026 17 10000 7 50 13:22 27.03.2020
5785 Clouds 16 1027 15 10000 5 80 12:59 27.03.2020
5786 Clouds 15 1027 19 10000 6 80 12:41 27.03.2020
5787 Clouds 15 1028 21 10000 6 80 12:19 27.03.2020
5788 Clouds 14 1028 22 10000 3 60 11:43 27.03.2020
5789 Clouds 15 1028 22 10000 3 60 11:25 27.03.2020
5790 Clouds 13 1028 24 10000 4 60 10:57 27.03.2020
5791 Clouds 12 1029 27 10000 5 70 10:39 27.03.2020
5792 Clouds 12 1029 27 10000 5 70 10:20 27.03.2020
5793 Clouds 12 1029 25 10000 4 80 09:58 27.03.2020
5794 Clouds 12 1029 25 10000 4 80 09:58 27.03.2020
5795 Clouds 11 1029 31 10000 3 80 09:39 27.03.2020
5796 Clouds 10 1029 31 10000 3 80 09:21 27.03.2020
5797 Clouds 11 1029 29 10000 3 90 08:58 27.03.2020
5798 Clouds 10 1030 31 10000 3 90 08:39 27.03.2020
5799 Clouds 9 1030 31 10000 3 90 08:21 27.03.2020
5800 Clouds 8 1030 33 10000 2 80 07:53 27.03.2020
5801 Clouds 6 1030 41 10000 3 80 07:28 27.03.2020
5802 Clouds 6 1030 48 10000 2 90 06:57 27.03.2020
5803 Clouds 4 1030 55 10000 3 70 06:37 27.03.2020
5804 Clouds 4 1030 40 10000 2 90 05:37 27.03.2020
5805 Clear 2 1031 72 10000 3 90 02:50 27.03.2020
5806 Clear 0 1031 67 10000 2 90 01:36 27.03.2020
5807 Clear 4 1031 43 10000 3 80 00:55 27.03.2020
5808 Clear -1 1031 58 10000 2 70 00:32 27.03.2020
5809 Clear 0 1032 67 10000 2 70 23:44 26.03.2020
5810 Clear 1 1032 47 10000 2 80 23:24 26.03.2020
5811 Clear 1 1032 47 10000 2 80 22:59 26.03.2020
5812 Clear 1 1032 47 10000 2 80 22:59 26.03.2020
5813 Clear 1 1032 47 10000 2 70 22:39 26.03.2020
5814 Clear 1 1032 47 10000 2 70 22:20 26.03.2020
5815 Clear 1 1032 47 10000 2 70 22:20 26.03.2020
5816 Clear 4 1032 43 10000 1 80 21:58 26.03.2020
5817 Clear 3 1032 40 10000 1 0 21:39 26.03.2020
5818 Clear 6 1032 40 10000 1 0 21:21 26.03.2020
5819 Clear 5 1032 40 10000 1 40 20:58 26.03.2020
5820 Clear 6 1032 38 10000 1 70 20:38 26.03.2020
5821 Clouds 7 1032 38 10000 1 70 20:20 26.03.2020
5822 Clouds 7 1032 33 10000 2 50 19:56 26.03.2020
5823 Clouds 7 1032 35 10000 2 70 19:38 26.03.2020
5824 Clouds 7 1032 35 10000 2 70 19:38 26.03.2020
5825 Clouds 7 1032 33 10000 2 60 19:20 26.03.2020
5826 Clouds 8 1032 33 10000 2 60 18:55 26.03.2020
5827 Clouds 8 1032 33 10000 2 60 18:55 26.03.2020
5828 Clouds 8 1032 33 10000 2 70 18:37 26.03.2020
5829 Clouds 8 1032 28 10000 2 60 18:18 26.03.2020
5830 Clouds 9 1032 26 10000 2 70 17:42 26.03.2020
5831 Clouds 10 1032 23 10000 3 70 17:19 26.03.2020
5832 Clouds 11 1033 21 10000 4 80 16:45 26.03.2020
5833 Clouds 11 1033 21 10000 4 80 16:27 26.03.2020
5834 Clouds 11 1033 20 10000 5 80 15:58 26.03.2020
5835 Clouds 11 1033 21 10000 6 80 15:40 26.03.2020
5836 Clouds 11 1033 21 10000 6 80 15:21 26.03.2020
5837 Clouds 12 1033 22 10000 5 60 14:57 26.03.2020
5838 Clouds 12 1034 22 10000 5 90 14:38 26.03.2020
5839 Clouds 12 1034 22 10000 5 90 14:38 26.03.2020
5840 Clouds 12 1034 22 10000 4 90 14:19 26.03.2020
5841 Clear 11 1034 21 10000 5 100 13:43 26.03.2020
5842 Clear 11 1034 21 10000 5 100 13:23 26.03.2020
5843 Clear 11 1035 21 10000 6 80 12:56 26.03.2020
5844 Clear 11 1035 23 10000 5 80 12:37 26.03.2020
5845 Clear 10 1035 21 10000 4 60 12:19 26.03.2020
5846 Clear 11 1036 23 10000 5 100 11:44 26.03.2020
5847 Clear 9 1036 23 10000 6 60 11:20 26.03.2020
5848 Clear 9 1036 23 10000 6 60 10:56 26.03.2020
5849 Clear 9 1036 23 10000 6 80 10:37 26.03.2020
5850 Clear 10 1036 23 10000 6 80 10:18 26.03.2020
5851 Clear 10 1036 23 10000 6 80 10:18 26.03.2020
5852 Clear 8 1036 26 10000 5 80 09:42 26.03.2020
5853 Clear 8 1036 26 10000 5 80 09:19 26.03.2020
5854 Clear 7 1036 26 10000 5 80 08:46 26.03.2020
5855 Clear 6 1036 28 10000 4 80 08:27 26.03.2020
5856 Clear 5 1036 32 10000 4 80 07:58 26.03.2020
5857 Clear 4 1036 37 10000 3 80 07:40 26.03.2020
5858 Clear 4 1036 37 10000 3 80 07:20 26.03.2020
5859 Clear 4 1036 37 10000 3 80 07:20 26.03.2020
5860 Clear 2 1036 67 10000 2 90 06:46 26.03.2020
5861 Clear -5 1036 62 10000 2 80 05:52 26.03.2020
5862 Clear -2 1036 58 10000 2 80 03:58 26.03.2020
5863 Clear -1 1036 58 10000 1 60 03:35 26.03.2020
5864 Clear -2 1036 58 10000 1 30 02:53 26.03.2020
5865 Clear -4 1036 68 10000 2.34 44 01:44 26.03.2020
5866 Clear -1 1036 54 10000 2.37 53 00:43 26.03.2020
5867 Clear -1 1036 58 10000 1 0 23:45 25.03.2020
5868 Clear -3 1036 58 10000 1 0 23:27 25.03.2020
5869 Clear -3 1036 63 10000 2.28 64 22:57 25.03.2020
5870 Clear 1 1036 46 10000 1 80 22:38 25.03.2020
5871 Clear 1 1036 46 10000 1 80 22:19 25.03.2020
5872 Clear 1 1036 54 10000 2.28 64 21:54 25.03.2020
5873 Clear 0 1036 58 10000 1 70 21:36 25.03.2020
5874 Clear 1 1036 58 10000 1 70 21:18 25.03.2020
5875 Clear 2 1036 69 10000 1 30 20:39 25.03.2020
5876 Clear 3 1036 61 10000 1 30 20:20 25.03.2020
5877 Clear 3 1036 62 10000 1 30 19:58 25.03.2020
5878 Clear 3 1036 40 10000 1 40 19:39 25.03.2020
5879 Clear 3 1036 40 10000 1 40 19:21 25.03.2020
5880 Clear 4 1036 43 10000 3 10 18:54 25.03.2020
5881 Clear 5 1035 27 10000 3 60 18:36 25.03.2020
5882 Clear 5 1035 27 10000 3 60 18:18 25.03.2020
5883 Clear 5 1035 27 10000 4 70 17:41 25.03.2020
5884 Clear 7 1035 24 10000 5 80 17:23 25.03.2020
5885 Clear 7 1035 24 10000 5 80 16:59 25.03.2020
5886 Clear 7 1036 24 10000 4 70 16:39 25.03.2020
5887 Clear 7 1036 24 10000 4 70 16:21 25.03.2020
5888 Clear 7 1036 24 10000 4 70 16:21 25.03.2020
5889 Clear 8 1036 20 10000 5 60 15:44 25.03.2020
5890 Clear 8 1036 20 10000 5 60 15:21 25.03.2020
5891 Clear 8 1036 20 10000 5 80 14:59 25.03.2020
5892 Clear 7 1036 20 10000 6 80 14:40 25.03.2020
5893 Clear 8 1036 20 10000 6 80 14:20 25.03.2020
5894 Clear 7 1036 22 10000 6 70 13:46 25.03.2020
5895 Clear 7 1037 22 10000 5 50 13:25 25.03.2020
5896 Clear 7 1037 24 10000 5 80 12:54 25.03.2020
5897 Clear 7 1037 24 10000 5 70 12:36 25.03.2020
5898 Clear 7 1037 24 10000 5 70 12:18 25.03.2020
5899 Clear 7 1038 26 10000 4 70 11:41 25.03.2020
5900 Clear 7 1038 26 10000 4 70 11:21 25.03.2020
5901 Clear 6 1038 26 10000 4 80 10:59 25.03.2020
5902 Clear 6 1038 26 10000 4 80 10:59 25.03.2020
5903 Clear 6 1038 27 10000 4 80 10:40 25.03.2020
5904 Clear 6 1038 27 10000 4 80 10:40 25.03.2020
5905 Clear 5 1038 27 10000 4 80 10:19 25.03.2020
5906 Clear 6 1038 30 10000 5 50 09:58 25.03.2020
5907 Clear 5 1038 32 10000 5 70 09:39 25.03.2020
5908 Clear 5 1038 32 10000 5 70 09:21 25.03.2020
5909 Clear 4 1038 32 10000 5 60 08:43 25.03.2020
5910 Clear 3 1038 34 10000 3 60 08:25 25.03.2020
5911 Clear 3 1038 34 10000 3 60 08:25 25.03.2020
5912 Clear 2 1038 40 10000 4 70 07:58 25.03.2020
5913 Clear 1 1038 74 10000 3 50 07:38 25.03.2020
5914 Clear 1 1038 74 10000 3 50 07:18 25.03.2020
5915 Clear -1 1037 58 10000 2 30 06:43 25.03.2020
5916 Clear -1 1037 58 10000 2 30 06:25 25.03.2020
5917 Clear -2 1037 53 10000 2 40 05:47 25.03.2020
5918 Clear -2 1037 49 10000 2 50 04:46 25.03.2020
5919 Clear -2 1037 53 10000 2 40 03:58 25.03.2020
5920 Clear -2 1037 58 10000 3 20 03:34 25.03.2020
5921 Clear -2 1036 53 10000 2 20 01:41 25.03.2020
5922 Clear -2 1036 53 10000 2 20 01:41 25.03.2020
5923 Clear -2 1036 49 10000 1 0 00:51 25.03.2020
5924 Clear -1 1036 53 10000 2 30 00:32 25.03.2020
5925 Clear -1 1036 53 10000 1 0 23:59 24.03.2020
5926 Clear -1 1036 46 10000 2 30 23:40 24.03.2020
5927 Clear -1 1036 46 10000 2 30 23:20 24.03.2020
5928 Clear -1 1036 46 10000 2 40 22:55 24.03.2020
5929 Clear -1 1036 46 10000 1 0 22:36 24.03.2020
5930 Clear -1 1036 46 10000 1 0 22:18 24.03.2020
5931 Clear 0 1036 42 10000 3 30 21:42 24.03.2020
5932 Clear 0 1036 42 10000 3 30 21:19 24.03.2020
5933 Clear 0 1036 42 10000 3 30 20:59 24.03.2020
5934 Clear 0 1036 78 10000 3 40 20:41 24.03.2020
5935 Clear 0 1036 73 10000 3 40 20:22 24.03.2020
5936 Clear 0 1036 73 10000 3 40 19:48 24.03.2020
5937 Clear 0 1036 73 10000 3 40 19:48 24.03.2020
5938 Clear 1 1036 73 10000 3 30 19:23 24.03.2020
5939 Clear 1 1035 73 10000 3 30 18:59 24.03.2020
5940 Clear 1 1035 34 10000 4 30 18:40 24.03.2020
5941 Clear 1 1035 34 10000 5 40 18:20 24.03.2020
5942 Clear 2 1035 31 10000 6 50 17:58 24.03.2020
5943 Clear 2 1035 31 10000 6 50 17:40 24.03.2020
5944 Clear 2 1035 31 10000 5 30 17:22 24.03.2020
5945 Clear 3 1035 31 10000 5 30 16:57 24.03.2020
5946 Clear 3 1035 31 10000 5 30 16:57 24.03.2020
5947 Clear 3 1035 29 10000 5 40 16:38 24.03.2020
5948 Clear 3 1035 29 10000 5 40 16:20 24.03.2020
5949 Clear 3 1035 29 10000 5 30 15:43 24.03.2020
5950 Clear 3 1035 29 10000 6 40 15:25 24.03.2020
5951 Clear 3 1035 29 10000 5 10 14:57 24.03.2020
5952 Clear 3 1035 29 10000 6 60 14:37 24.03.2020
5953 Clear 3 1035 29 10000 6 60 14:18 24.03.2020
5954 Clear 3 1036 29 10000 7 50 13:41 24.03.2020
5955 Clear 3 1036 29 10000 7 50 13:22 24.03.2020
5956 Clear 3 1036 32 10000 6 60 12:45 24.03.2020
5957 Clear 3 1036 32 10000 6 60 12:27 24.03.2020
5958 Clear 2 1036 31 10000 5 30 11:57 24.03.2020
5959 Clear 3 1036 32 10000 6 30 11:38 24.03.2020
5960 Clear 2 1036 34 10000 7 50 11:18 24.03.2020
5961 Clear 1 1037 34 10000 5 30 10:42 24.03.2020
5962 Clear 1 1037 34 10000 5 30 10:19 24.03.2020
5963 Clear 1 1037 34 10000 5 30 10:19 24.03.2020
5964 Clear 1 1037 34 10000 5 50 09:48 24.03.2020
5965 Rain 1 1037 34 10000 5 50 09:27 24.03.2020
5966 Rain 1 1037 34 10000 4 40 08:58 24.03.2020
5967 Clear 0 1037 46 10000 4 30 08:38 24.03.2020
5968 Clear 0 1037 46 10000 4 30 08:20 24.03.2020
5969 Clear -1 1036 50 10000 4 10 07:44 24.03.2020
5970 Clear -2 1036 50 10000 4 10 07:22 24.03.2020
5971 Clear -3 1036 53 10000 1 40 06:42 24.03.2020
5972 Clear -4 1036 62 10000 2 20 06:21 24.03.2020
5973 Clear -6 1035 57 10000 3 30 04:52 24.03.2020
5974 Clear -5 1035 53 10000 5 30 03:41 24.03.2020
5975 Clear -5 1035 49 10000 4 20 02:44 24.03.2020
5976 Clear -5 1035 57 10000 3 10 00:57 24.03.2020
5977 Clear -5 1035 53 10000 3 10 00:28 24.03.2020
5978 Clear -4 1035 53 10000 3 360 23:59 23.03.2020
5979 Clear -4 1035 49 10000 2 10 23:38 23.03.2020
5980 Clear -4 1035 53 10000 3 10 23:19 23.03.2020
5981 Clear -4 1035 45 10000 3 30 22:45 23.03.2020
5982 Clear -4 1035 45 10000 3 30 22:23 23.03.2020
5983 Clear -3 1035 42 10000 3 50 21:55 23.03.2020
5984 Clear -3 1035 42 10000 3 60 21:37 23.03.2020
5985 Clear -4 1035 42 10000 3 60 21:19 23.03.2020
5986 Clear -3 1035 42 10000 3 60 20:55 23.03.2020
5987 Clear -2 1035 39 10000 4 50 20:36 23.03.2020
5988 Clear -2 1035 39 10000 5 60 20:18 23.03.2020
5989 Clear -2 1035 39 10000 4 50 20:18 23.03.2020
5990 Clear -2 1035 39 10000 5 60 19:41 23.03.2020
5991 Clear -2 1035 42 10000 4 50 19:22 23.03.2020
5992 Clear -1 1035 36 10000 6 50 18:56 23.03.2020
5993 Clear -1 1035 36 10000 6 50 18:38 23.03.2020
5994 Clear -1 1035 42 10000 5 40 18:18 23.03.2020
5995 Clear 0 1034 36 10000 7 40 17:41 23.03.2020
5996 Clear 0 1034 32 10000 7 30 17:20 23.03.2020
5997 Clear 1 1034 32 10000 7 30 16:55 23.03.2020
5998 Clear 1 1033 31 10000 6 40 16:36 23.03.2020
5999 Clear 1 1033 31 10000 6 40 16:18 23.03.2020
6000 Clear 2 1033 31 10000 6 40 15:40 23.03.2020
6001 Clear 2 1033 31 10000 6 40 15:19 23.03.2020
6002 Clear 2 1033 31 10000 8 50 14:38 23.03.2020
6003 Clear 2 1033 31 10000 8 50 14:19 23.03.2020
6004 Clear 2 1033 34 10000 7 30 13:57 23.03.2020
6005 Clear 2 1033 31 10000 8 40 13:38 23.03.2020
6006 Clear 2 1033 31 10000 8 40 13:38 23.03.2020
6007 Clear 2 1033 31 10000 8 40 13:38 23.03.2020
6008 Clear 2 1033 31 10000 8 40 13:20 23.03.2020
6009 Clear 2 1033 34 10000 7 30 12:43 23.03.2020
6010 Clear 2 1033 34 10000 7 30 12:25 23.03.2020
6011 Clear 1 1034 29 10000 7 40 11:56 23.03.2020
6012 Clear 1 1034 29 10000 7 40 11:38 23.03.2020
6013 Clear 1 1034 29 10000 7 40 11:38 23.03.2020
6014 Clear 1 1033 30 10000 7 20 11:19 23.03.2020
6015 Clear 1 1033 30 10000 7 20 10:56 23.03.2020
6016 Clear 1 1034 30 10000 7 20 10:36 23.03.2020
6017 Clear 1 1033 30 10000 7 40 10:18 23.03.2020
6018 Clear 0 1033 30 10000 7 60 09:42 23.03.2020
6019 Clear 0 1033 42 10000 8 50 09:20 23.03.2020
6020 Clear 0 1033 46 10000 7 50 08:38 23.03.2020
6021 Clouds 0 1033 46 10000 7 50 08:20 23.03.2020
6022 Clouds -1 1033 50 10000 7 50 07:54 23.03.2020
6023 Clouds -2 1033 53 10000 6 60 07:34 23.03.2020
6024 Clouds -2 1032 53 10000 6 50 06:58 23.03.2020
6025 Clouds -2 1032 53 10000 6 50 06:40 23.03.2020
6026 Clouds -3 1031 58 10000 5 50 05:44 23.03.2020
6027 Clouds -4 1031 58 10000 5 50 04:41 23.03.2020
6028 Clouds -3 1030 58 10000 6 30 02:59 23.03.2020
6029 Clouds -2 1029 54 10000 5 30 01:50 23.03.2020
6030 Clouds -2 1029 50 10000 5 50 00:50 23.03.2020
6031 Clouds -1 1029 50 10000 5 50 00:29 23.03.2020
6032 Clouds -1 1028 54 10000 6 60 23:44 22.03.2020
6033 Clouds -1 1028 54 10000 6 60 23:24 22.03.2020
6034 Clouds -1 1028 54 10000 6 60 22:42 22.03.2020
6035 Clouds -1 1028 54 10000 6 60 22:22 22.03.2020
6036 Clouds 0 1027 48 10000 5 60 21:54 22.03.2020
6037 Clouds 0 1027 48 10000 5 50 21:36 22.03.2020
6038 Clouds 0 1027 48 10000 5 50 21:18 22.03.2020
6039 Clouds 1 1027 48 10000 6 40 20:42 22.03.2020
6040 Clouds 1 1027 48 10000 6 40 20:24 22.03.2020
6041 Clouds 1 1026 59 10000 7 30 19:57 22.03.2020
6042 Clouds 1 1026 59 10000 7 30 19:39 22.03.2020
6043 Clouds 2 1025 51 10000 5 50 19:19 22.03.2020
6044 Clouds 2 1025 51 10000 5 50 18:58 22.03.2020
6045 Clouds 2 1025 55 10000 7 50 18:40 22.03.2020
6046 Rain 2 1024 59 10000 6 40 18:21 22.03.2020
6047 Rain 2 1024 64 10000 5 40 17:57 22.03.2020
6048 Rain 2 1024 64 10000 5 40 17:38 22.03.2020
6049 Rain 2 1024 64 10000 5 40 17:20 22.03.2020
6050 Rain 2 1023 64 10000 6 30 16:57 22.03.2020
6051 Rain 3 1023 69 10000 6 30 16:39 22.03.2020
6052 Rain 3 1023 69 10000 6 30 16:20 22.03.2020
6053 Rain 2 1023 53 10000 2 20 15:40 22.03.2020
6054 Rain 2 1023 53 10000 2 20 15:19 22.03.2020
6055 Rain 2 1022 53 10000 4 10 14:46 22.03.2020
6056 Rain 1 1022 86 7000 6 10 14:18 22.03.2020
6057 Rain 1 1022 86 4600 5 30 13:43 22.03.2020
6058 Snow 1 1022 87 5000 5 30 13:20 22.03.2020
6059 Snow 0 1022 87 8000 4 20 12:57 22.03.2020
6060 Snow 0 1021 87 3500 4 30 12:38 22.03.2020
6061 Snow 0 1021 87 1200 4 20 12:18 22.03.2020
6062 Snow 0 1021 87 600 5 50 11:43 22.03.2020
6063 Snow 0 1021 91 600 5 50 11:25 22.03.2020
6064 Snow 0 1020 91 650 5 40 10:58 22.03.2020
6065 Snow 0 1020 91 1300 5 50 10:39 22.03.2020
6066 Snow 0 1020 91 1300 5 50 10:21 22.03.2020
6067 Snow 1 1019 91 1300 5 10 09:43 22.03.2020
6068 Snow 1 1019 91 1300 5 10 09:43 22.03.2020
6069 Snow 1 1019 91 1300 5 10 09:24 22.03.2020
6070 Snow 1 1019 86 6000 6 20 08:48 22.03.2020
6071 Clouds 1 1018 80 10000 5 350 08:48 22.03.2020
6072 Clouds 1 1018 80 10000 5 350 08:48 22.03.2020
6073 Clouds 2 1018 80 10000 5 350 08:29 22.03.2020
6074 Clouds 2 1018 80 10000 4 350 07:53 22.03.2020
6075 Clouds 2 1018 80 10000 5 340 07:32 22.03.2020
6076 Clouds 2 1017 80 10000 5 340 06:40 22.03.2020
6077 Clouds 1 1017 80 10000 4 350 05:37 22.03.2020
6078 Clouds 2 1017 80 10000 4 350 03:47 22.03.2020
6079 Clouds 2 1016 75 10000 6 10 01:36 22.03.2020
6080 Clouds 3 1016 77 10000 5 10 00:49 22.03.2020
6081 Clouds 3 1016 77 10000 5 10 00:29 22.03.2020
6082 Clouds 3 1016 77 10000 6 10 23:44 21.03.2020
6083 Clouds 3 1016 61 10000 5 20 23:21 21.03.2020
6084 Clouds 4 1016 61 10000 5 20 22:58 21.03.2020
6085 Clouds 4 1016 69 10000 6 20 22:37 21.03.2020
6086 Clouds 4 1016 69 10000 6 20 22:18 21.03.2020
6087 Clouds 4 1016 69 10000 4 30 21:56 21.03.2020
6088 Clouds 4 1016 65 10000 5 30 21:37 21.03.2020
6089 Clouds 5 1016 65 10000 5 30 21:18 21.03.2020
6090 Clouds 5 1016 65 10000 6 20 20:41 21.03.2020
6091 Rain 5 1016 65 10000 6 20 20:20 21.03.2020
6092 Clouds 6 1016 56 10000 6 360 19:45 21.03.2020
6093 Clouds 6 1016 60 10000 6 360 19:25 21.03.2020
6094 Clouds 6 1016 56 10000 5 10 18:59 21.03.2020
6095 Clouds 7 1016 48 10000 4 20 18:40 21.03.2020
6096 Clouds 7 1016 52 10000 5 360 18:20 21.03.2020
6097 Clouds 7 1016 48 10000 5 340 17:57 21.03.2020
6098 Clouds 7 1016 48 10000 5 340 17:39 21.03.2020
6099 Clouds 8 1015 45 10000 6 340 17:21 21.03.2020
6100 Clouds 8 1015 45 10000 3 20 16:41 21.03.2020
6101 Clouds 8 1015 45 10000 3 20 16:22 21.03.2020
6102 Clouds 8 1015 42 10000 3 20 15:57 21.03.2020
6103 Clouds 9 1015 45 10000 6 10 15:39 21.03.2020
6104 Clouds 9 1015 42 10000 3 360 15:21 21.03.2020
6105 Clouds 10 1015 42 10000 3 330 14:55 21.03.2020
6106 Clouds 9 1015 42 10000 5 350 14:37 21.03.2020
6107 Clouds 9 1015 42 10000 5 350 14:18 21.03.2020
6108 Clouds 10 1015 39 10000 4 350 13:57 21.03.2020
6109 Clouds 10 1015 42 10000 5 360 13:38 21.03.2020
6110 Clouds 10 1015 39 10000 3 350 13:19 21.03.2020
6111 Clouds 10 1015 39 10000 2 30 12:41 21.03.2020
6112 Clouds 10 1015 39 10000 4 350 12:20 21.03.2020
6113 Clouds 10 1015 39 10000 4 350 11:59 21.03.2020
6114 Clouds 10 1016 36 10000 4 20 11:39 21.03.2020
6115 Clouds 10 1016 36 10000 4 20 11:39 21.03.2020
6116 Clouds 10 1016 39 10000 4 10 11:20 21.03.2020
6117 Clouds 9 1016 39 10000 4 10 10:58 21.03.2020
6118 Clouds 9 1016 42 10000 4 350 10:39 21.03.2020
6119 Clouds 9 1016 42 10000 4 350 10:21 21.03.2020
6120 Clouds 9 1016 42 10000 4 360 09:58 21.03.2020
6121 Clouds 9 1016 42 10000 4 360 09:38 21.03.2020
6122 Clouds 8 1016 39 10000 4 350 09:20 21.03.2020
6123 Clouds 9 1016 39 10000 4 350 08:55 21.03.2020
6124 Clouds 8 1016 39 10000 4 340 08:37 21.03.2020
6125 Clouds 8 1016 39 10000 4 340 08:18 21.03.2020
6126 Clouds 8 1016 39 10000 4 340 07:32 21.03.2020
6127 Clouds 7 1016 42 10000 3 330 06:49 21.03.2020
6128 Clouds 7 1016 42 10000 3 310 06:29 21.03.2020
6129 Clouds 7 1016 45 10000 3 310 05:50 21.03.2020
6130 Clouds 7 1016 45 10000 2 310 05:23 21.03.2020
6131 Clouds 6 1017 45 9000 2 270 03:32 21.03.2020
6132 Clouds 6 1017 52 8000 1 0 02:35 21.03.2020
6133 Clouds 6 1017 48 6000 1.37 181 01:40 21.03.2020
6134 Clouds 6 1017 48 6000 1.37 181 01:20 21.03.2020
6135 Clouds 5 1018 52 6000 1 210 00:38 21.03.2020
6136 Smoke 6 1018 52 5000 1.09 166 23:59 20.03.2020
6137 Clouds 5 1018 60 6000 1 200 23:40 20.03.2020
6138 Clouds 6 1018 48 6000 0.79 123 23:18 20.03.2020
6139 Clouds 6 1019 45 6000 0.79 123 22:42 20.03.2020
6140 Clouds 6 1019 45 6000 0.79 123 22:24 20.03.2020
6141 Clouds 6 1019 45 6000 0.79 123 21:57 20.03.2020
6142 Clouds 7 1019 48 6000 0.79 123 21:39 20.03.2020
6143 Clouds 6 1019 48 6000 0.79 123 21:19 20.03.2020
6144 Clouds 6 1019 56 7000 0.79 123 20:57 20.03.2020
6145 Clouds 7 1019 39 9000 1 150 20:39 20.03.2020
6146 Clouds 7 1019 39 9000 1 150 20:39 20.03.2020
6147 Clouds 6 1019 39 9000 1 150 20:18 20.03.2020
6148 Clouds 7 1020 42 9000 1 95 19:46 20.03.2020
6149 Clouds 7 1020 42 6000 1 150 19:19 20.03.2020
6150 Clouds 9 1020 31 6000 1 160 18:56 20.03.2020
6151 Clouds 8 1020 36 8000 1 120 18:37 20.03.2020
6152 Clouds 9 1020 34 10000 2 100 18:19 20.03.2020
6153 Clouds 10 1020 29 10000 1 120 17:40 20.03.2020
6154 Clear 10 1020 29 10000 2 80 17:22 20.03.2020
6155 Clear 11 1020 29 10000 2 80 16:59 20.03.2020
6156 Clear 11 1020 27 10000 2 50 16:41 20.03.2020
6157 Clear 11 1020 27 10000 2 50 16:20 20.03.2020
6158 Clear 12 1020 25 10000 2 60 15:43 20.03.2020
6159 Clear 12 1020 25 10000 2 60 15:22 20.03.2020
6160 Clear 12 1020 23 10000 3 130 14:57 20.03.2020
6161 Clear 12 1020 25 10000 2 40 14:38 20.03.2020
6162 Clear 12 1020 25 10000 2 40 14:19 20.03.2020
6163 Clear 12 1021 27 10000 3 100 13:46 20.03.2020
6164 Clear 12 1021 32 10000 3 30 13:20 20.03.2020
6165 Clear 12 1021 30 10000 4 30 12:54 20.03.2020
6166 Clear 12 1021 30 10000 4 30 12:36 20.03.2020
6167 Clear 11 1022 32 10000 4 350 12:18 20.03.2020
6168 Clear 11 1022 34 10000 3 360 11:39 20.03.2020
6169 Clear 11 1022 34 10000 3 40 11:20 20.03.2020
6170 Clear 11 1022 34 10000 3 40 10:54 20.03.2020
6171 Clear 10 1022 37 10000 4 320 10:36 20.03.2020
6172 Clear 10 1022 37 10000 4 320 10:18 20.03.2020
6173 Clear 10 1022 42 10000 3 40 09:43 20.03.2020
6174 Clear 9 1022 45 10000 4 50 09:20 20.03.2020
6175 Clear 9 1022 42 10000 3 40 08:43 20.03.2020
6176 Clouds 8 1022 49 10000 3 40 08:23 20.03.2020
6177 Clear 8 1022 52 10000 4 10 07:57 20.03.2020
6178 Clear 7 1022 62 10000 4 10 07:38 20.03.2020
6179 Clear 8 1022 62 10000 4 10 07:19 20.03.2020
6180 Clear 6 1021 62 10000 4 10 06:42 20.03.2020
6181 Clouds 7 1021 65 10000 5 10 04:57 20.03.2020
6182 Clouds 8 1021 61 10000 5 10 04:27 20.03.2020
6183 Clouds 8 1020 65 10000 5 10 02:43 20.03.2020
6184 Clouds 9 1019 76 10000 6 20 01:50 20.03.2020
6185 Clouds 11 1018 62 10000 4 320 00:38 20.03.2020
6186 Clouds 12 1018 58 10000 5 310 23:55 19.03.2020
6187 Clouds 12 1018 58 10000 5 310 23:36 19.03.2020
6188 Rain 13 1018 58 10000 5 310 23:18 19.03.2020
6189 Rain 13 1018 58 10000 5 310 22:38 19.03.2020
6190 Rain 13 1018 58 10000 5 310 22:20 19.03.2020
6191 Rain 13 1018 58 10000 4 310 21:57 19.03.2020
6192 Rain 13 1018 54 10000 4 320 21:38 19.03.2020
6193 Rain 12 1018 54 10000 4 330 21:18 19.03.2020
6194 Rain 13 1018 50 10000 5 320 20:42 19.03.2020
6195 Rain 13 1018 50 10000 5 320 20:24 19.03.2020
6196 Clouds 13 1018 50 10000 3 330 19:57 19.03.2020
6197 Clouds 13 1018 47 10000 4 330 19:38 19.03.2020
6198 Clouds 14 1018 44 10000 4 330 19:20 19.03.2020
6199 Clouds 14 1018 41 10000 4 330 18:56 19.03.2020
6200 Clouds 14 1018 41 10000 4 330 18:56 19.03.2020
6201 Clouds 14 1018 41 10000 4 330 18:38 19.03.2020
6202 Clouds 14 1018 41 10000 4 330 18:38 19.03.2020
6203 Clouds 13 1017 69 10000 2 320 18:19 19.03.2020
6204 Clouds 15 1017 36 10000 5 300 17:42 19.03.2020
6205 Clouds 16 1017 33 10000 5 310 17:19 19.03.2020
6206 Clouds 16 1017 33 10000 5 310 17:19 19.03.2020
6207 Clouds 17 1017 33 10000 6 320 16:45 19.03.2020
6208 Clouds 17 1017 33 10000 6 320 16:45 19.03.2020
6209 Clouds 17 1017 33 10000 6 320 16:25 19.03.2020
6210 Clouds 18 1017 31 10000 7 300 15:58 19.03.2020
6211 Clouds 18 1017 31 10000 7 300 15:40 19.03.2020
6212 Clouds 18 1017 31 10000 7 300 15:18 19.03.2020
6213 Clouds 18 1018 31 10000 5 280 14:43 19.03.2020
6214 Clouds 18 1018 31 10000 5 280 14:21 19.03.2020
6215 Clouds 18 1019 31 10000 6 290 13:41 19.03.2020
6216 Clouds 18 1018 34 10000 4 280 13:20 19.03.2020
6217 Clouds 18 1019 31 10000 6 300 12:58 19.03.2020
6218 Clouds 18 1019 31 10000 5 300 12:40 19.03.2020
6219 Clouds 18 1019 39 10000 5 300 12:21 19.03.2020
6220 Clouds 17 1020 39 10000 4 270 11:43 19.03.2020
6221 Clouds 15 1020 47 10000 5 270 11:24 19.03.2020
6222 Clouds 15 1020 47 10000 5 270 10:57 19.03.2020
6223 Clouds 14 1021 47 10000 4 260 10:38 19.03.2020
6224 Clouds 14 1021 47 10000 4 260 10:19 19.03.2020
6225 Clouds 12 1021 50 10000 4 270 09:45 19.03.2020
6226 Clouds 12 1021 50 10000 4 270 09:27 19.03.2020
6227 Clouds 10 1021 53 10000 4 270 08:59 19.03.2020
6228 Clouds 9 1021 57 10000 4 260 08:41 19.03.2020
6229 Clouds 9 1021 57 10000 4 260 08:19 19.03.2020
6230 Clouds 7 1022 72 10000 3 260 07:44 19.03.2020
6231 Clouds 6 1022 60 10000 3 250 07:23 19.03.2020
6232 Clouds 6 1022 72 10000 3 250 06:34 19.03.2020
6233 Clouds 4 1022 74 10000 3 250 05:47 19.03.2020
6234 Clouds 3 1023 74 10000 3 240 04:53 19.03.2020
6235 Clouds 3 1023 80 10000 3 240 04:34 19.03.2020
6236 Clouds 4 1024 74 10000 3 240 02:34 19.03.2020
6237 Clear 3 1025 80 7000 2 240 00:57 19.03.2020
6238 Clear 4 1025 80 6000 2 240 00:21 19.03.2020
6239 Clear 4 1025 74 7000 2 260 23:46 18.03.2020
6240 Clear 4 1025 74 7000 2 260 23:27 18.03.2020
6241 Clear 5 1025 74 7000 3 220 22:44 18.03.2020
6242 Clear 4 1025 74 7000 3 220 22:24 18.03.2020
6243 Clear 4 1026 74 8000 3 220 21:59 18.03.2020
6244 Clear 5 1026 69 6000 2 220 21:41 18.03.2020
6245 Clear 5 1026 69 6000 2 220 21:21 18.03.2020
6246 Clear 4 1026 69 6000 1 240 20:57 18.03.2020
6247 Clear 5 1026 69 6000 1 230 20:38 18.03.2020
6248 Clear 6 1026 69 6000 1 230 20:19 18.03.2020
6249 Smoke 6 1026 65 5000 1 220 19:55 18.03.2020
6250 Clear 7 1027 65 6000 3 230 19:36 18.03.2020
6251 Clear 7 1027 56 6000 2 230 19:18 18.03.2020
6252 Clear 8 1027 58 8000 2 240 18:41 18.03.2020
6253 Clear 9 1027 56 10000 2 230 18:20 18.03.2020
6254 Clear 10 1027 46 10000 2 250 17:57 18.03.2020
6255 Clear 10 1027 46 10000 2 250 17:39 18.03.2020
6256 Clear 10 1027 48 8000 4 260 17:20 18.03.2020
6257 Clear 11 1027 48 8000 4 260 16:54 18.03.2020
6258 Clear 11 1027 48 10000 4 270 16:36 18.03.2020
6259 Clear 12 1027 48 10000 4 270 16:18 18.03.2020
6260 Clear 12 1028 40 10000 5 270 15:44 18.03.2020
6261 Clear 12 1028 40 10000 5 270 15:20 18.03.2020
6262 Clear 12 1028 40 10000 5 270 14:44 18.03.2020
6263 Clouds 12 1028 40 10000 5 260 14:21 18.03.2020
6264 Clouds 12 1029 40 10000 5 250 13:42 18.03.2020
6265 Clear 12 1029 40 10000 5 250 13:20 18.03.2020
6266 Clouds 12 1029 40 10000 5 220 12:59 18.03.2020
6267 Clouds 12 1029 40 10000 3 230 12:41 18.03.2020
6268 Clouds 11 1030 49 10000 4 230 12:19 18.03.2020
6269 Clear 11 1030 49 10000 3 220 11:39 18.03.2020
6270 Clear 10 1031 62 10000 4 250 11:20 18.03.2020
6271 Clear 10 1031 62 10000 4 250 10:58 18.03.2020
6272 Clear 9 1031 49 10000 3 230 10:38 18.03.2020
6273 Clear 9 1031 49 10000 3 230 10:20 18.03.2020
6274 Clear 9 1031 49 10000 3 200 09:43 18.03.2020
6275 Clear 8 1031 62 10000 3 190 09:25 18.03.2020
6276 Clear 7 1031 52 10000 2 200 08:56 18.03.2020
6277 Clear 5 1031 62 10000 2 210 08:38 18.03.2020
6278 Clouds 3 1031 75 8000 1 0 08:20 18.03.2020
6279 Mist 1 1030 86 5000 2 180 07:44 18.03.2020
6280 Mist -1 1030 86 3700 0.69 209 07:26 18.03.2020
6281 Fog 0 1031 100 2300 1 0 06:44 18.03.2020
6282 Mist -4 1031 100 3200 1 190 06:20 18.03.2020
6283 Mist -4 1030 100 5000 0.69 209 05:34 18.03.2020
6284 Mist -3 1030 100 5000 0.28 312 04:24 18.03.2020
6285 Mist -2 1029 100 4800 0.28 312 02:43 18.03.2020
6286 Clear -2 1029 100 6000 0.71 354 01:48 18.03.2020
6287 Clear -2 1028 92 6000 0.95 355 01:26 18.03.2020
6288 Mist -1 1028 86 5000 1.4 342 00:24 18.03.2020
6289 Mist 0 1028 96 5000 2 80 23:47 17.03.2020
6290 Clouds -1 1028 100 7000 1 0 23:27 17.03.2020
6291 Clear 0 1028 96 7000 0.64 2 22:55 17.03.2020
6292 Clouds 1 1028 94 7000 0.36 32 22:37 17.03.2020
6293 Clouds 0 1028 86 9000 1 0 22:18 17.03.2020
6294 Clear 1 1027 80 9000 2 80 21:39 17.03.2020
6295 Clear 2 1027 80 9000 2 80 21:21 17.03.2020
6296 -273 0 0 0 0 0 21:20 17.03.2020
6297 Clear 2 1027 74 9000 2 80 20:39 17.03.2020
6298 Clear 2 1027 74 9000 2 80 20:39 17.03.2020
6299 Clouds 3 1027 74 10000 2 80 20:21 17.03.2020
6300 Clouds 3 1027 74 10000 2 80 19:56 17.03.2020
6301 Clouds 4 1026 69 10000 1 100 19:38 17.03.2020
6302 Clouds 5 1026 60 10000 2 110 19:18 17.03.2020
6303 Clouds 5 1026 60 10000 1.24 39 18:55 17.03.2020
6304 Clouds 5 1026 60 10000 1.24 39 18:37 17.03.2020
6305 Clouds 6 1025 56 10000 1.24 39 18:19 17.03.2020
6306 Clouds 6 1025 52 10000 1 0 17:40 17.03.2020
6307 Rain 7 1025 52 10000 0.7 46 17:21 17.03.2020
6308 Rain 7 1025 52 10000 1 0 16:45 17.03.2020
6309 Rain 7 1025 52 10000 1 0 16:20 17.03.2020
6310 Rain 7 1024 49 10000 1 0 15:58 17.03.2020
6311 Clouds 7 1024 52 10000 0.7 46 15:39 17.03.2020
6312 Clouds 7 1024 48 10000 1 0 15:18 17.03.2020
6313 Clouds 7 1024 48 10000 1 0 14:41 17.03.2020
6314 Clouds 7 1024 48 10000 2 220 14:21 17.03.2020
6315 Clouds 7 1024 48 10000 2 220 14:21 17.03.2020
6316 Clouds 7 1024 48 10000 3 210 13:43 17.03.2020
6317 Rain 7 1024 45 10000 2 230 13:25 17.03.2020
6318 Clouds 7 1024 45 10000 2 230 12:54 17.03.2020
6319 Clouds 7 1024 45 10000 2 230 12:36 17.03.2020
6320 Rain 7 1024 45 10000 2 210 12:18 17.03.2020
6321 Rain 7 1024 45 10000 2 210 11:42 17.03.2020
6322 Rain 6 1023 45 10000 2 190 11:24 17.03.2020
6323 Rain 6 1023 45 10000 2 190 10:57 17.03.2020
6324 Rain 6 1023 45 10000 2 190 10:57 17.03.2020
6325 Clouds 6 1023 44 10000 2 220 10:37 17.03.2020
6326 Clouds 6 1023 44 10000 2 220 10:18 17.03.2020
6327 Rain 5 1023 44 10000 3 230 09:46 17.03.2020
6328 Rain 5 1023 44 10000 3 250 09:20 17.03.2020
6329 Rain 4 1023 44 10000 3 240 08:59 17.03.2020
6330 Rain 4 1023 44 10000 4 230 08:41 17.03.2020
6331 Clouds 4 1023 44 10000 4 230 08:20 17.03.2020
6332 Clouds 4 1023 47 10000 5 240 07:49 17.03.2020
6333 Clouds 3 1023 47 10000 4 230 07:21 17.03.2020
6334 Clouds 3 1023 47 10000 4 230 06:52 17.03.2020
6335 Clouds 2 1023 43 10000 4 220 06:25 17.03.2020
6336 Clouds 2 1023 43 10000 4 230 05:34 17.03.2020
6337 Clouds 3 1023 40 10000 5 220 03:36 17.03.2020
6338 Clouds 2 1025 43 10000 4 210 02:31 17.03.2020
6339 Clouds 2 1025 40 10000 4 210 01:39 17.03.2020
6340 Clouds 2 1026 40 10000 4 220 00:54 17.03.2020
6341 Clouds 2 1027 38 10000 4 210 00:19 17.03.2020
6342 Clouds 3 1026 44 10000 4 220 23:38 16.03.2020
6343 Clouds 3 1027 44 10000 4 220 23:19 16.03.2020
6344 Clouds 2 1027 44 10000 4 220 22:38 16.03.2020
6345 Clouds 2 1027 44 10000 4 220 22:20 16.03.2020
6346 Clouds 2 1027 40 10000 3 230 21:45 16.03.2020
6347 Clouds 2 1027 40 10000 3 230 21:26 16.03.2020
6348 Clouds 3 1027 40 10000 4 230 20:59 16.03.2020
6349 Clouds 3 1027 38 10000 5 210 20:39 16.03.2020
6350 Clouds 3 1027 38 10000 5 210 20:20 16.03.2020
6351 Clouds 3 1028 40 10000 4 220 19:46 16.03.2020
6352 Clouds 4 1028 35 10000 4 210 19:24 16.03.2020
6353 Clouds 4 1028 35 10000 3 220 18:59 16.03.2020
6354 Clouds 4 1028 32 10000 3 210 18:39 16.03.2020
6355 Clouds 5 1029 30 10000 2 220 18:19 16.03.2020
6356 Clouds 6 1029 28 10000 3 220 17:46 16.03.2020
6357 Clouds 6 1029 28 10000 3 220 17:25 16.03.2020
6358 Clouds 7 1029 26 10000 3 230 16:56 16.03.2020
6359 Clouds 8 1029 24 10000 4 230 16:37 16.03.2020
6360 Clouds 8 1029 24 10000 4 230 16:19 16.03.2020
6361 Clouds 8 1029 26 10000 4 230 15:42 16.03.2020
6362 Clouds 8 1029 26 10000 4 230 15:23 16.03.2020
6363 Clouds 8 1029 26 10000 4 230 15:23 16.03.2020
6364 Clouds 8 1030 22 10000 3 260 14:45 16.03.2020
6365 Clear 8 1030 22 10000 3 260 14:20 16.03.2020
6366 Clear 9 1030 24 10000 3 240 13:47 16.03.2020
6367 Clear 8 1030 26 10000 2 260 13:27 16.03.2020
6368 Clear 8 1031 26 10000 3 260 12:57 16.03.2020
6369 Clear 8 1031 26 10000 3 220 12:38 16.03.2020
6370 Clear 7 1031 30 10000 2 260 12:19 16.03.2020
6371 Clear 6 1031 30 10000 2 260 11:42 16.03.2020
6372 Clear 5 1032 32 10000 3 260 11:23 16.03.2020
6373 Clear 4 1032 35 10000 4 270 10:43 16.03.2020
6374 Clear 4 1032 35 10000 4 270 10:24 16.03.2020
6375 Clear 4 1032 35 10000 3 290 09:49 16.03.2020
6376 Clear 4 1032 37 10000 3 290 09:30 16.03.2020
6377 Clear 3 1032 43 10000 3 290 08:59 16.03.2020
6378 Clear 2 1032 50 10000 3 280 08:36 16.03.2020
6379 Clear 0 1032 46 10000 2 270 08:18 16.03.2020
6380 Clear -1 1032 58 10000 3 280 07:40 16.03.2020
6381 Clear -2 1031 68 10000 2 250 07:18 16.03.2020
6382 Clear -4 1031 79 9000 2 240 06:28 16.03.2020
6383 Clear -6 1031 79 10000 2 240 05:54 16.03.2020
6384 Clear -5 1030 73 10000 2 250 03:36 16.03.2020
6385 Clear -3 1030 58 10000 2 250 01:29 16.03.2020
6386 Clear -3 1030 62 10000 2 260 00:43 16.03.2020
6387 Clear -3 1029 58 10000 3 320 23:56 15.03.2020
6388 Clear -2 1029 54 10000 2 310 23:37 15.03.2020
6389 Clear -2 1029 54 10000 2 310 23:18 15.03.2020
6390 Clear -3 1029 58 10000 2 300 22:41 15.03.2020
6391 Clear -2 1028 58 10000 3 270 22:20 15.03.2020
6392 Clear -2 1028 50 10000 3 310 21:39 15.03.2020
6393 Clear -2 1028 50 10000 3 310 21:20 15.03.2020
6394 Clear -2 1028 46 10000 3 320 20:44 15.03.2020
6395 Clear -1 1027 41 10000 3 320 20:22 15.03.2020
6396 Clear -1 1027 46 10000 4 320 19:59 15.03.2020
6397 Clear -1 1027 46 10000 4 320 19:59 15.03.2020
6398 Clear -1 1027 46 10000 4 320 19:41 15.03.2020
6399 Clear -1 1027 41 10000 4 320 19:23 15.03.2020
6400 Clear -1 1027 41 10000 4 330 18:58 15.03.2020
6401 Clear 0 1027 37 10000 4 330 18:39 15.03.2020
6402 Clear 1 1027 37 10000 4 330 18:21 15.03.2020
6403 Clear 1 1026 37 10000 6 340 17:54 15.03.2020
6404 Clear 1 1026 37 10000 6 340 17:36 15.03.2020
6405 Clear 2 1026 34 10000 7 340 17:18 15.03.2020
6406 Clear 2 1026 34 10000 7 340 16:42 15.03.2020
6407 Clear 2 1026 32 10000 5 340 16:23 15.03.2020
6408 Clear 3 1026 32 10000 8 320 15:57 15.03.2020
6409 Clear 3 1025 32 10000 8 310 15:38 15.03.2020
6410 Clear 3 1025 32 10000 7 330 15:19 15.03.2020
6411 Clear 3 1025 32 10000 7 330 14:43 15.03.2020
6412 Clear 4 1025 32 10000 9 320 14:24 15.03.2020
6413 Clouds 3 1025 34 10000 8 310 13:57 15.03.2020
6414 Clouds 3 1025 34 10000 8 320 13:38 15.03.2020
6415 Clouds 2 1025 34 10000 8 320 13:19 15.03.2020
6416 Clouds 3 1025 37 10000 8 320 12:41 15.03.2020
6417 Clouds 3 1025 37 10000 8 320 12:23 15.03.2020
6418 Clouds 2 1025 40 10000 9 320 11:45 15.03.2020
6419 Clouds 1 1025 43 10000 8 330 11:26 15.03.2020
6420 Clouds 1 1025 43 10000 8 320 10:59 15.03.2020
6421 Clouds 1 1025 43 10000 7 310 10:41 15.03.2020
6422 Clouds 1 1025 43 10000 7 310 10:22 15.03.2020
6423 Clouds 1 1025 43 10000 7 300 09:59 15.03.2020
6424 Clouds 1 1025 43 10000 7 300 09:59 15.03.2020
6425 Clouds 1 1025 38 10000 6 330 09:39 15.03.2020
6426 Clouds 0 1025 38 10000 6 330 09:20 15.03.2020
6427 Clouds -1 1025 50 10000 7 310 08:41 15.03.2020
6428 Snow -1 1025 54 10000 7 310 08:20 15.03.2020
6429 Snow -1 1024 58 10000 7 320 07:50 15.03.2020
6430 Clouds -2 1024 58 10000 7 330 07:23 15.03.2020
6431 Clouds -2 1024 63 10000 6 330 06:44 15.03.2020
6432 Clouds -2 1022 68 8000 6 330 05:49 15.03.2020
6433 Clouds -2 1022 63 10000 7 320 04:58 15.03.2020
6434 Clouds -2 1021 63 10000 8 330 04:40 15.03.2020
6435 Snow -2 1021 63 10000 4 340 04:20 15.03.2020
6436 Clouds -2 1021 63 10000 7 320 03:24 15.03.2020
6437 Clear -2 1020 63 10000 7 320 02:28 15.03.2020
6438 Snow -1 1019 79 6000 6 310 00:59 15.03.2020
6439 Snow -1 1019 86 2500 6 330 00:41 15.03.2020
6440 Snow -1 1018 80 4600 6 320 00:19 15.03.2020
6441 Snow -1 1018 74 7000 6 310 23:40 14.03.2020
6442 Snow 0 1017 51 10000 6 310 23:20 14.03.2020
6443 Snow 1 1017 51 10000 6 310 22:56 14.03.2020
6444 Snow 1 1017 51 10000 8 330 22:38 14.03.2020
6445 Snow 1 1017 51 10000 8 330 22:19 14.03.2020
6446 Clouds 1 1017 50 10000 6 320 21:55 14.03.2020
6447 Clouds 1 1017 50 10000 6 320 21:55 14.03.2020
6448 Clouds 1 1017 51 10000 4 280 21:36 14.03.2020
6449 Clouds 1 1017 51 10000 4 280 21:36 14.03.2020
6450 Clouds 1 1017 51 10000 4 280 21:18 14.03.2020
6451 Clouds 1 1017 51 10000 4 280 21:18 14.03.2020
6452 Clouds 0 1016 54 10000 4 280 20:56 14.03.2020
6453 Clouds 0 1016 54 10000 4 280 20:56 14.03.2020
6454 Clouds 0 1016 51 10000 4 290 20:38 14.03.2020
6455 Clouds 0 1016 41 10000 4 290 20:18 14.03.2020
6456 Clouds 1 1015 47 10000 6 290 19:41 14.03.2020
6457 Clouds 1 1015 50 10000 6 290 19:21 14.03.2020
6458 Clouds 1 1015 55 10000 6 290 18:40 14.03.2020
6459 Clouds 2 1015 51 10000 6 300 18:21 14.03.2020
6460 Clouds 2 1014 51 10000 9 310 17:43 14.03.2020
6461 Clouds 2 1014 51 10000 9 310 17:24 14.03.2020
6462 Clouds 3 1014 47 10000 9 300 16:59 14.03.2020
6463 Clouds 3 1013 47 10000 10 320 16:39 14.03.2020
6464 Clouds 3 1013 47 10000 10 320 16:20 14.03.2020
6465 Clouds 3 1012 47 10000 13 300 15:48 14.03.2020
6466 Clouds 4 1012 41 10000 15 300 15:25 14.03.2020
6467 Clouds 6 1011 44 10000 13 300 14:44 14.03.2020
6468 Snow 7 1010 36 10000 13 290 14:22 14.03.2020
6469 Snow 8 1009 36 10000 12 280 13:57 14.03.2020
6470 Clouds 7 1009 39 10000 12 280 13:39 14.03.2020
6471 Rain 8 1008 56 10000 10 270 13:20 14.03.2020
6472 Clouds 7 1008 56 10000 9 270 12:44 14.03.2020
6473 Clouds 7 1008 56 10000 9 270 12:26 14.03.2020
6474 Clouds 8 1008 52 10000 13 270 11:46 14.03.2020
6475 Clouds 8 1008 45 10000 10 270 11:26 14.03.2020
6476 Clouds 8 1008 52 10000 10 260 10:57 14.03.2020
6477 Clouds 8 1008 52 10000 10 260 10:39 14.03.2020
6478 Clouds 8 1008 52 10000 10 260 10:20 14.03.2020
6479 Clouds 7 1009 54 10000 10 270 09:41 14.03.2020
6480 Clouds 7 1009 54 10000 10 270 09:22 14.03.2020
6481 Rain 7 1009 54 10000 9 270 08:47 14.03.2020
6482 Rain 7 1009 54 10000 9 270 08:47 14.03.2020
6483 Rain 6 1009 57 10000 9 270 08:27 14.03.2020
6484 Clear 5 1009 65 10000 8 270 07:49 14.03.2020
6485 Clear 5 1009 65 10000 8 270 07:23 14.03.2020
6486 Clear 4 1009 65 10000 7 260 06:59 14.03.2020
6487 Clear 3 1009 65 10000 6 260 06:39 14.03.2020
6488 Clear 2 1009 67 10000 4 250 04:58 14.03.2020
6489 Clear 3 1009 86 10000 4 260 03:41 14.03.2020
6490 Clear 3 1009 86 10000 4 260 03:20 14.03.2020
6491 Clouds 4 1010 80 10000 4 260 02:19 14.03.2020
6492 Clouds 5 1010 80 10000 5 260 00:42 14.03.2020
6493 Rain 6 1009 80 10000 5 260 23:44 13.03.2020
6494 Rain 6 1009 80 10000 5 260 23:25 13.03.2020
6495 Rain 6 1010 75 10000 7 270 22:46 13.03.2020
6496 Rain 6 1010 75 10000 7 270 22:25 13.03.2020
6497 Clouds 7 1009 65 10000 6 260 21:42 13.03.2020
6498 Clouds 8 1009 50 10000 5 260 21:21 13.03.2020
6499 Clouds 8 1009 52 10000 5 250 20:56 13.03.2020
6500 Clouds 8 1009 45 10000 4 250 20:37 13.03.2020
6501 Clouds 9 1009 45 10000 4 250 20:18 13.03.2020
6502 Clouds 9 1009 45 10000 3 250 19:42 13.03.2020
6503 Clouds 9 1009 45 10000 3 250 19:23 13.03.2020
6504 Clouds 9 1009 49 10000 2 230 18:44 13.03.2020
6505 Clouds 10 1009 39 10000 3 260 18:25 13.03.2020
6506 Clouds 10 1009 37 10000 4 280 17:43 13.03.2020
6507 Clouds 10 1008 37 10000 5 280 17:22 13.03.2020
6508 Clouds 10 1008 37 10000 5 280 16:59 13.03.2020
6509 Clouds 10 1008 37 10000 6 280 16:39 13.03.2020
6510 Clouds 10 1008 37 10000 6 280 16:21 13.03.2020
6511 Clouds 11 1008 37 10000 6 260 15:46 13.03.2020
6512 Clouds 11 1008 37 10000 6 260 15:24 13.03.2020
6513 Clouds 11 1009 37 10000 7 260 14:59 13.03.2020
6514 Clouds 11 1009 37 10000 7 260 14:40 13.03.2020
6515 Clouds 11 1009 39 10000 6 270 14:22 13.03.2020
6516 Clouds 11 1009 39 10000 6 270 13:55 13.03.2020
6517 Clouds 11 1009 37 10000 7 260 13:36 13.03.2020
6518 Clouds 12 1010 37 10000 7 270 13:18 13.03.2020
6519 Clouds 11 1010 34 10000 7 290 12:39 13.03.2020
6520 Clouds 11 1010 34 10000 7 290 12:39 13.03.2020
6521 Clouds 11 1010 27 10000 6 270 12:20 13.03.2020
6522 Clouds 11 1009 27 10000 6 270 11:57 13.03.2020
6523 Clouds 11 1009 27 10000 6 270 11:37 13.03.2020
6524 Clouds 10 1010 34 10000 9 290 11:19 13.03.2020
6525 Clouds 10 1010 34 10000 9 290 10:47 13.03.2020
6526 Clouds 11 1010 31 10000 8 290 10:26 13.03.2020
6527 Clouds 10 1010 37 10000 7 280 09:56 13.03.2020
6528 Clouds 10 1010 39 10000 8 300 09:38 13.03.2020
6529 Clouds 10 1010 39 10000 8 300 09:19 13.03.2020
6530 Clouds 10 1010 39 10000 8 300 09:19 13.03.2020
6531 Clouds 8 1010 49 10000 7 290 08:41 13.03.2020
6532 Clouds 8 1010 49 10000 7 290 08:22 13.03.2020
6533 Clouds 8 1010 59 10000 7 290 07:45 13.03.2020
6534 Clouds 8 1010 59 10000 7 290 07:27 13.03.2020
6535 Clouds 8 1009 52 10000 7 300 06:46 13.03.2020
6536 Clouds 8 1009 52 10000 7 300 06:23 13.03.2020
6537 Clouds 8 1009 49 10000 5 300 05:46 13.03.2020
6538 Rain 9 1008 61 10000 7 300 04:57 13.03.2020
6539 Clouds 9 1008 70 10000 7 300 04:26 13.03.2020
6540 Clouds 12 1006 66 10000 10 290 02:58 13.03.2020
6541 Rain 14 1005 58 10000 8 260 01:39 13.03.2020
6542 Rain 14 1005 58 10000 8 260 01:18 13.03.2020
6543 Rain 13 1005 62 10000 7 240 00:42 13.03.2020
6544 Rain 13 1005 62 10000 5 240 00:20 13.03.2020
6545 Rain 14 1005 54 10000 7 250 23:40 12.03.2020
6546 Rain 14 1005 58 10000 7 250 23:22 12.03.2020
6547 Rain 14 1005 58 10000 7 240 22:47 12.03.2020
6548 Rain 14 1005 58 10000 7 240 22:29 12.03.2020
6549 Rain 14 1005 58 10000 6 230 21:59 12.03.2020
6550 Rain 13 1005 62 10000 6 230 21:40 12.03.2020
6551 Rain 13 1005 62 10000 6 230 21:21 12.03.2020
6552 Rain 13 1006 62 10000 6 230 20:42 12.03.2020
6553 Rain 13 1006 62 10000 6 230 20:42 12.03.2020
6554 Clouds 13 1006 62 10000 6 230 20:20 12.03.2020
6555 Clouds 13 1006 62 10000 6 230 20:20 12.03.2020
6556 Clouds 13 1006 62 10000 6 220 19:56 12.03.2020
6557 Clouds 13 1007 62 10000 5 220 19:37 12.03.2020
6558 Clouds 12 1007 58 10000 5 220 19:18 12.03.2020
6559 Clouds 12 1008 71 10000 6 200 18:42 12.03.2020
6560 Clouds 13 1008 66 10000 6 210 18:22 12.03.2020
6561 Clouds 13 1008 62 10000 5 220 17:56 12.03.2020
6562 Clouds 13 1008 62 10000 5 220 17:37 12.03.2020
6563 Clouds 13 1008 58 10000 5 220 17:18 12.03.2020
6564 Clouds 13 1009 58 10000 5 220 16:41 12.03.2020
6565 Clouds 13 1009 58 10000 5 220 16:23 12.03.2020
6566 Clouds 13 1009 54 10000 6 220 15:49 12.03.2020
6567 Clouds 13 1009 54 10000 6 240 15:28 12.03.2020
6568 Clouds 13 1010 54 10000 7 230 14:58 12.03.2020
6569 Clouds 13 1010 50 10000 7 250 14:38 12.03.2020
6570 Clouds 13 1010 50 10000 7 250 14:18 12.03.2020
6571 Clouds 13 1011 47 10000 7 260 13:40 12.03.2020
6572 Clouds 13 1012 43 10000 8 250 13:21 12.03.2020
6573 Clouds 13 1012 43 10000 8 250 12:55 12.03.2020
6574 Clouds 13 1011 43 10000 8 260 12:37 12.03.2020
6575 Clouds 13 1012 44 10000 8 250 12:18 12.03.2020
6576 Clouds 13 1012 44 10000 8 250 12:18 12.03.2020
6577 Clouds 12 1012 44 10000 8 250 11:55 12.03.2020
6578 Clouds 12 1012 43 10000 8 260 11:36 12.03.2020
6579 Clouds 11 1013 43 10000 7 260 11:18 12.03.2020
6580 Clouds 10 1013 50 10000 6 270 10:43 12.03.2020
6581 Clouds 10 1013 50 10000 6 270 10:23 12.03.2020
6582 Clouds 10 1013 50 10000 7 270 09:55 12.03.2020
6583 Clouds 9 1013 50 10000 8 260 09:37 12.03.2020
6584 Clouds 10 1013 50 10000 8 260 09:19 12.03.2020
6585 Clouds 8 1013 65 10000 8 270 08:38 12.03.2020
6586 Clear 7 1013 65 10000 8 270 08:18 12.03.2020
6587 Clear 6 1013 70 10000 7 270 07:47 12.03.2020
6588 Clear 6 1013 75 10000 6 270 07:21 12.03.2020
6589 Clear 4 1012 80 10000 5 270 06:20 12.03.2020
6590 Clear 4 1012 75 10000 4 260 05:34 12.03.2020
6591 Clear 5 1010 80 10000 5 260 03:34 12.03.2020
6592 Rain 5 1010 75 10000 5 280 01:57 12.03.2020
6593 Rain 6 1009 75 10000 6 270 01:21 12.03.2020
6594 Rain 6 1008 70 10000 8 290 00:42 12.03.2020
6595 Rain 7 1008 70 10000 8 290 23:57 11.03.2020
6596 Rain 7 1007 65 10000 8 300 23:28 11.03.2020
6597 Clouds 8 1007 81 10000 10 290 22:59 11.03.2020
6598 Clouds 8 1006 81 10000 8 270 22:39 11.03.2020
6599 Clouds 8 1006 81 10000 8 270 22:21 11.03.2020
6600 Clouds 8 1006 87 10000 6 260 21:57 11.03.2020
6601 Clouds 8 1006 87 10000 7 260 21:37 11.03.2020
6602 Clouds 8 1006 87 10000 7 260 21:37 11.03.2020
6603 Clouds 7 1006 93 10000 5 250 21:19 11.03.2020
6604 Clouds 7 1006 93 10000 5 250 20:56 11.03.2020
6605 Rain 7 1005 93 10000 4 250 20:36 11.03.2020
6606 Rain 7 1006 93 10000 5 250 20:18 11.03.2020
6607 Clouds 8 1005 87 10000 5 260 19:42 11.03.2020
6608 Clouds 8 1005 87 10000 5 260 19:24 11.03.2020
6609 Clouds 8 1005 87 10000 5 260 18:56 11.03.2020
6610 Clouds 8 1005 93 10000 6 250 18:37 11.03.2020
6611 Clouds 8 1005 93 10000 6 250 18:18 11.03.2020
6612 Drizzle 8 1004 93 10000 6 260 17:40 11.03.2020
6613 Drizzle 7 1004 100 9000 7 250 17:21 11.03.2020
6614 Drizzle 7 1004 100 9000 7 250 16:56 11.03.2020
6615 Drizzle 7 1004 93 7000 6 250 16:38 11.03.2020
6616 Drizzle 7 1004 93 7000 6 250 16:19 11.03.2020
6617 Clouds 8 1003 100 10000 6 230 15:42 11.03.2020
6618 Clouds 8 1003 100 10000 6 230 15:23 11.03.2020
6619 Rain 8 1004 87 10000 6 250 14:44 11.03.2020
6620 Rain 8 1004 81 10000 8 250 14:24 11.03.2020
6621 Rain 9 1004 70 10000 10 260 13:59 11.03.2020
6622 Rain 9 1004 70 10000 9 260 13:40 11.03.2020
6623 Rain 10 1004 70 10000 9 260 13:21 11.03.2020
6624 Clouds 11 1004 53 10000 7 250 12:41 11.03.2020
6625 Clouds 12 1004 53 10000 7 250 12:21 11.03.2020
6626 Clouds 12 1004 46 10000 8 260 11:57 11.03.2020
6627 Clouds 12 1004 54 10000 5 240 11:39 11.03.2020
6628 Clouds 11 1005 61 10000 4 230 11:19 11.03.2020
6629 Clouds 10 1005 61 10000 4 230 10:46 11.03.2020
6630 Clouds 9 1005 61 10000 4 250 10:19 11.03.2020
6631 Clouds 9 1005 61 10000 4 250 09:54 11.03.2020
6632 Clouds 8 1006 70 10000 4 250 09:36 11.03.2020
6633 Clouds 8 1006 75 10000 4 260 09:18 11.03.2020
6634 Clouds 6 1006 86 10000 3 250 08:41 11.03.2020
6635 Clouds 6 1006 86 10000 3 250 08:22 11.03.2020
6636 Clouds 4 1006 93 10000 3 250 07:45 11.03.2020
6637 Clouds 4 1007 93 10000 2 250 07:20 11.03.2020
6638 Clouds 3 1007 100 6000 2 240 06:48 11.03.2020
6639 Clouds 1 1007 100 9000 2 260 05:42 11.03.2020
6640 Clouds 2 1007 100 9000 2 260 04:52 11.03.2020
6641 Clouds 4 1007 86 10000 3 310 02:30 11.03.2020
6642 Clouds 4 1007 86 10000 2 320 01:43 11.03.2020
6643 Clouds 4 1008 86 10000 3 320 00:49 11.03.2020
6644 Clouds 4 1008 87 10000 4 330 00:21 11.03.2020
6645 Clouds 5 1009 86 10000 1 0 23:43 10.03.2020
6646 Clouds 5 1009 86 10000 1 0 23:22 10.03.2020
6647 Clouds 5 1009 86 10000 3 330 22:41 10.03.2020
6648 Clouds 5 1009 86 10000 3 330 22:20 10.03.2020
6649 Clouds 5 1009 86 10000 2 360 21:57 10.03.2020
6650 Clouds 5 1009 86 10000 3 360 21:39 10.03.2020
6651 Clouds 5 1009 86 10000 3 360 21:20 10.03.2020
6652 Clouds 6 1010 93 10000 3 360 20:59 10.03.2020
6653 Clouds 6 1010 87 10000 3 10 20:41 10.03.2020
6654 Clouds 6 1010 87 10000 3 10 20:19 10.03.2020
6655 Clouds 7 1010 81 10000 3 360 19:57 10.03.2020
6656 Clouds 7 1010 81 10000 3 10 19:39 10.03.2020
6657 Clouds 7 1010 81 10000 3 10 19:21 10.03.2020
6658 Clouds 8 1010 81 10000 4 30 18:45 10.03.2020
6659 Clouds 8 1010 81 10000 4 30 18:45 10.03.2020
6660 Clouds 8 1010 81 10000 4 30 18:27 10.03.2020
6661 Clouds 8 1010 81 10000 3 20 17:58 10.03.2020
6662 Clouds 8 1010 81 10000 4 10 17:40 10.03.2020
6663 Clouds 8 1010 81 10000 4 10 17:21 10.03.2020
6664 Clouds 8 1010 81 10000 4 10 17:21 10.03.2020
6665 Clouds 8 1010 81 10000 4 360 16:40 10.03.2020
6666 Clouds 8 1010 81 10000 4 360 16:20 10.03.2020
6667 Clouds 8 1010 87 10000 5 10 15:57 10.03.2020
6668 Clouds 8 1010 87 10000 4 10 15:39 10.03.2020
6669 Clouds 8 1010 87 10000 4 10 15:19 10.03.2020
6670 Clouds 9 1010 87 10000 5 10 14:41 10.03.2020
6671 Clouds 9 1010 87 10000 5 20 14:20 10.03.2020
6672 Clouds 8 1011 87 10000 4 10 13:59 10.03.2020
6673 Clouds 8 1011 87 10000 4 10 13:41 10.03.2020
6674 Clouds 9 1011 81 10000 4 20 13:22 10.03.2020
6675 Clouds 9 1011 87 10000 5 350 12:42 10.03.2020
6676 Clouds 9 1011 87 10000 5 360 12:21 10.03.2020
6677 Clouds 9 1011 87 10000 5 360 11:58 10.03.2020
6678 Clouds 9 1011 87 10000 4 360 11:40 10.03.2020
6679 Clouds 9 1011 87 10000 4 360 11:22 10.03.2020
6680 Clouds 9 1012 87 10000 4 10 10:43 10.03.2020
6681 Clouds 9 1012 93 10000 3 350 10:23 10.03.2020
6682 Clouds 8 1012 93 10000 4 10 09:58 10.03.2020
6683 Clouds 8 1012 93 9000 3 350 09:40 10.03.2020
6684 Mist 8 1012 93 5000 3 360 09:19 10.03.2020
6685 Clouds 8 1012 93 9000 3 350 09:19 10.03.2020
6686 Mist 8 1012 93 5000 3 360 08:51 10.03.2020
6687 Mist 8 1012 100 4500 3 10 08:32 10.03.2020
6688 Mist 7 1012 100 5000 3 360 07:50 10.03.2020
6689 Clouds 7 1012 100 8000 3 20 07:31 10.03.2020
6690 Mist 7 1012 100 5000 5 330 06:47 10.03.2020
6691 Mist 7 1012 100 3500 2 340 06:28 10.03.2020
6692 Mist 7 1012 100 2100 2 360 05:41 10.03.2020
6693 Mist 7 1012 100 1300 2 360 04:48 10.03.2020
6694 Mist 7 1012 100 1300 2 360 04:48 10.03.2020
6695 Mist 7 1012 100 1300 2 330 03:55 10.03.2020
6696 Mist 7 1012 100 3800 2 330 02:27 10.03.2020
6697 Mist 7 1012 100 3100 3 320 01:25 10.03.2020
6698 Mist 7 1013 100 2400 2 350 00:42 10.03.2020
6699 Mist 8 1013 100 2400 2 350 00:23 10.03.2020
6700 Mist 8 1013 100 3100 2 350 23:41 09.03.2020
6701 Mist 8 1013 100 3200 2 330 23:21 09.03.2020
6702 Mist 8 1013 100 3500 2 310 22:43 09.03.2020
6703 Mist 8 1013 100 3500 2 310 22:22 09.03.2020
6704 Mist 8 1013 100 2800 1 280 21:59 09.03.2020
6705 Mist 8 1013 100 2900 1.45 326 21:40 09.03.2020
6706 Mist 8 1013 100 2900 1.45 326 21:20 09.03.2020
6707 Mist 8 1013 100 3600 1 60 20:56 09.03.2020
6708 Fog 8 1014 100 1800 2 340 20:37 09.03.2020
6709 Fog 8 1014 100 1800 2 340 20:19 09.03.2020
6710 Mist 8 1014 100 2000 1 0 19:44 09.03.2020
6711 Mist 8 1014 100 2000 1 0 19:25 09.03.2020
6712 Fog 8 1014 100 700 0.65 116 18:58 09.03.2020
6713 Fog 8 1014 100 650 0.65 116 18:38 09.03.2020
6714 Fog 8 1014 100 500 1 60 18:19 09.03.2020
6715 Fog 8 1014 100 500 1 60 17:57 09.03.2020
6716 Fog 8 1014 100 600 0.65 116 17:38 09.03.2020
6717 Fog 8 1014 100 700 1 0 17:20 09.03.2020
6718 Fog 8 1014 100 700 1 0 16:58 09.03.2020
6719 Mist 8 1014 100 1300 2 100 16:39 09.03.2020
6720 Mist 8 1014 100 1300 2 100 16:20 09.03.2020
6721 Mist 8 1014 100 1300 2 100 15:57 09.03.2020
6722 Mist 8 1014 100 4200 3 110 15:38 09.03.2020
6723 Mist 8 1014 100 4200 3 110 15:19 09.03.2020
6724 Mist 8 1014 100 4000 3 90 14:54 09.03.2020
6725 Mist 8 1014 100 4300 3 100 14:36 09.03.2020
6726 Mist 8 1014 100 4300 3 100 14:36 09.03.2020
6727 Mist 8 1014 100 4300 3 100 14:18 09.03.2020
6728 Rain 8 1015 93 5000 3 100 13:40 09.03.2020
6729 Rain 8 1015 93 5000 3 100 13:22 09.03.2020
6730 Rain 8 1015 93 5000 3 100 13:22 09.03.2020
6731 Mist 8 1015 93 4700 4 80 12:59 09.03.2020
6732 Clouds 8 1015 93 7000 3 90 12:40 09.03.2020
6733 Rain 8 1015 93 6000 3 90 12:20 09.03.2020
6734 Rain 8 1016 100 7000 3 110 11:41 09.03.2020
6735 Rain 8 1016 100 7000 3 110 11:21 09.03.2020
6736 Mist 8 1016 100 5000 2 100 10:58 09.03.2020
6737 Mist 8 1016 100 5000 2 100 10:58 09.03.2020
6738 Clouds 7 1016 100 6000 3 100 10:40 09.03.2020
6739 Clouds 7 1016 100 6000 3 100 10:40 09.03.2020
6740 Clouds 7 1016 100 6000 3 100 10:19 09.03.2020
6741 Clouds 7 1016 100 6000 3 100 10:19 09.03.2020
6742 Clouds 7 1017 100 8000 2 130 09:43 09.03.2020
6743 Clouds 8 1017 100 8000 2 130 09:24 09.03.2020
6744 Clouds 7 1016 100 7000 4 110 08:55 09.03.2020
6745 Mist 7 1016 100 1600 2 90 08:37 09.03.2020
6746 Mist 7 1016 100 1600 2 90 08:18 09.03.2020
6747 Mist 7 1016 100 1600 2 90 08:18 09.03.2020
6748 Rain 7 1017 100 3200 3 120 07:39 09.03.2020
6749 Rain 7 1017 100 3200 3 120 07:20 09.03.2020
6750 Rain 7 1017 100 350 2 100 06:41 09.03.2020
6751 Rain 7 1017 100 350 2 100 06:23 09.03.2020
6752 Mist 7 1016 100 1400 3 90 05:45 09.03.2020
6753 Rain 7 1017 100 2800 3 70 04:59 09.03.2020
6754 Drizzle 7 1017 100 3600 2 40 04:40 09.03.2020
6755 Drizzle 7 1017 100 3600 2 40 04:21 09.03.2020
6756 Mist 7 1017 100 4500 1 0 02:56 09.03.2020
6757 Mist 7 1018 93 5000 2 30 00:46 09.03.2020
6758 Clouds 7 1018 93 6000 2 20 00:27 09.03.2020
6759 Clouds 7 1018 93 6000 2 360 23:59 08.03.2020
6760 Clouds 7 1018 93 6000 2 360 23:39 08.03.2020
6761 Clouds 7 1018 93 6000 2 360 23:20 08.03.2020
6762 Clouds 7 1017 100 6000 2 30 22:42 08.03.2020
6763 Clouds 7 1017 100 6000 2 30 22:22 08.03.2020
6764 Clouds 7 1018 100 6000 2 20 21:59 08.03.2020
6765 Mist 8 1018 100 4300 1 0 21:41 08.03.2020
6766 Mist 8 1018 100 4300 1 0 21:20 08.03.2020
6767 Mist 8 1018 100 4800 1 360 20:58 08.03.2020
6768 Mist 8 1018 100 5000 2 360 20:38 08.03.2020